GFSMA_prec_precacc24_024.txt.gz
Total_Precipitation_Accumulation
0.00 0.00 0.00 0.00 0.00 0.00 0.00 0.00 0.00 0.00 0.00 0.00 0.00 0.00 0.00 0.00 0.00 0.00 0.00 0.00 0.00 0.00 0.00 0.00 0.00 0.00 0.00 0.00 0.00 0.00 0.00 0.00 0.00 0.00 0.00 0.00 0.00 0.00 0.00 0.00 0.00 0.00 0.00
0.00 0.00 0.00 0.00 0.00 0.00 0.00 0.00 0.00 0.00 0.00 0.00 0.00 0.00 0.00 0.00 0.00 0.00 0.00 0.00 0.00 0.00 0.00 0.00 0.00 0.00 0.00 0.00 0.00 0.00 0.00 0.00 0.00 0.00 0.00 0.00 0.00 0.00 0.00 0.00 0.00 0.00 0.00
0.00 0.00 0.00 0.00 0.00 0.00 0.00 0.00 0.00 0.00 0.00 0.00 0.00 0.00 0.00 0.00 0.00 0.00 0.00 0.00 0.00 0.00 0.00 0.00 0.00 0.00 0.00 0.00 0.00 0.00 0.00 0.00 0.00 0.00 0.00 0.00 0.00 0.00 0.00 0.00 0.00 0.00 0.00
0.00 0.00 0.00 0.00 0.00 0.00 0.00 0.00 0.00 0.00 0.00 0.00 0.00 0.00 0.00 0.00 0.00 0.00 0.00 0.00 0.00 0.00 0.00 0.00 0.00 0.00 0.00 0.00 0.00 0.00 0.00 0.00 0.00 0.00 0.00 0.00 0.00 0.00 0.00 0.00 0.00 0.00 0.00
0.00 0.00 0.00 0.00 0.00 0.00 0.00 0.00 0.00 0.00 0.00 0.00 0.00 0.00 0.00 0.00 0.00 0.00 0.00 0.00 0.00 0.00 0.00 0.00 0.00 0.00 0.00 0.00 0.00 0.00 0.00 0.00 0.00 0.00 0.00 0.00 0.00 0.00 0.00 0.00 0.00 0.00 0.00
0.00 0.00 0.00 0.00 0.00 0.00 0.00 0.00 0.00 0.00 0.00 0.00 0.00 0.00 0.00 0.00 0.00 0.00 0.00 0.00 0.00 0.00 0.00 0.00 0.00 0.00 0.00 0.00 0.00 0.00 0.00 0.00 0.00 0.00 0.00 0.00 0.00 0.00 0.00 0.00 0.00 0.00 0.00
0.01 0.02 0.02 0.00 0.00 0.00 0.00 0.00 0.00 0.00 0.00 0.00 0.00 0.00 0.00 0.00 0.00 0.00 0.00 0.00 0.00 0.00 0.00 0.00 0.00 0.00 0.00 0.00 0.00 0.00 0.00 0.00 0.00 0.00 0.00 0.00 0.00 0.00 0.00 0.00 0.00 0.00 0.00
0.01 0.03 0.01 0.01 0.00 0.00 0.00 0.00 0.00 0.00 0.00 0.00 0.00 0.00 0.00 0.00 0.00 0.00 0.00 0.00 0.00 0.00 0.00 0.00 0.00 0.00 0.00 0.00 0.00 0.00 0.00 0.00 0.00 0.00 0.00 0.00 0.00 0.00 0.00 0.00 0.00 0.00 0.00
0.01 0.02 0.05 0.01 0.00 0.00 0.00 0.00 0.00 0.00 0.00 0.00 0.00 0.00 0.00 0.00 0.00 0.00 0.00 0.00 0.00 0.00 0.00 0.00 0.00 0.00 0.00 0.00 0.00 0.00 0.00 0.00 0.00 0.00 0.00 0.00 0.00 0.00 0.00 0.00 0.00 0.00 0.00
0.09 0.05 0.05 0.02 0.01 0.00 0.00 0.00 0.00 0.00 0.00 0.00 0.00 0.00 0.00 0.00 0.00 0.00 0.00 0.00 0.00 0.00 0.00 0.00 0.00 0.00 0.00 0.00 0.00 0.00 0.00 0.00 0.00 0.00 0.00 0.00 0.00 0.00 0.00 0.00 0.00 0.00 0.00
0.14 0.12 0.07 0.04 0.04 0.01 0.01 0.00 0.00 0.00 0.00 0.00 0.00 0.00 0.00 0.00 0.00 0.00 0.00 0.00 0.00 0.00 0.00 0.00 0.00 0.00 0.00 0.00 0.00 0.00 0.00 0.00 0.00 0.00 0.00 0.00 0.00 0.00 0.00 0.00 0.00 0.01 0.02
0.09 0.09 0.07 0.06 0.07 0.04 0.02 0.01 0.01 0.00 0.00 0.00 0.00 0.00 0.00 0.00 0.00 0.00 0.00 0.00 0.00 0.00 0.00 0.00 0.00 0.00 0.00 0.00 0.00 0.00 0.00 0.00 0.00 0.00 0.00 0.00 0.00 0.00 0.00 0.01 0.03 0.05 0.06
0.07 0.06 0.08 0.08 0.07 0.05 0.03 0.03 0.02 0.01 0.00 0.00 0.00 0.00 0.00 0.00 0.00 0.00 0.00 0.00 0.00 0.00 0.00 0.00 0.00 0.00 0.00 0.00 0.00 0.00 0.00 0.00 0.00 0.00 0.00 0.00 0.00 0.00 0.00 0.01 0.03 0.05 0.06
0.10 0.11 0.09 0.07 0.07 0.05 0.03 0.02 0.02 0.01 0.00 0.00 0.00 0.00 0.00 0.00 0.00 0.00 0.00 0.00 0.00 0.00 0.00 0.00 0.00 0.00 0.00 0.00 0.00 0.00 0.00 0.00 0.00 0.00 0.00 0.00 0.00 0.00 0.00 0.01 0.02 0.02 0.03
0.10 0.13 0.11 0.08 0.06 0.05 0.03 0.02 0.02 0.01 0.00 0.00 0.00 0.00 0.00 0.00 0.00 0.00 0.00 0.00 0.00 0.00 0.00 0.00 0.00 0.00 0.00 0.00 0.00 0.00 0.00 0.00 0.00 0.00 0.00 0.00 0.00 0.00 0.00 0.01 0.01 0.01 0.01
0.09 0.08 0.08 0.08 0.06 0.04 0.02 0.01 0.02 0.01 0.01 0.02 0.02 0.01 0.01 0.00 0.00 0.00 0.00 0.00 0.00 0.00 0.00 0.00 0.00 0.00 0.00 0.00 0.00 0.00 0.00 0.00 0.00 0.00 0.01 0.01 0.00 0.00 0.00 0.00 0.00 0.01 0.03
0.07 0.07 0.07 0.07 0.05 0.02 0.01 0.01 0.01 0.01 0.01 0.01 0.01 0.01 0.01 0.00 0.00 0.00 0.00 0.00 0.00 0.00 0.00 0.00 0.00 0.00 0.00 0.00 0.00 0.00 0.00 0.00 0.00 0.00 0.00 0.00 0.00 0.00 0.00 0.01 0.01 0.04 0.06
0.05 0.05 0.05 0.04 0.04 0.04 0.04 0.04 0.04 0.05 0.05 0.04 0.04 0.04 0.03 0.01 0.00 0.00 0.00 0.00 0.00 0.00 0.00 0.00 0.00 0.00 0.00 0.00 0.00 0.00 0.00 0.00 0.00 0.00 0.00 0.00 0.00 0.00 0.00 0.01 0.03 0.05 0.06
0.06 0.05 0.04 0.03 0.01 0.01 0.02 0.04 0.05 0.06 0.07 0.09 0.08 0.06 0.03 0.00 0.00 0.00 0.00 0.00 0.00 0.00 0.00 0.00 0.00 0.00 0.00 0.01 0.01 0.00 0.00 0.00 0.00 0.00 0.00 0.00 0.00 0.00 0.01 0.01 0.02 0.02 0.01
0.05 0.04 0.05 0.05 0.06 0.06 0.07 0.08 0.07 0.06 0.05 0.04 0.03 0.02 0.01 0.00 0.00 0.00 0.00 0.00 0.00 0.00 0.00 0.00 0.03 0.04 0.04 0.01 0.00 0.00 0.00 0.00 0.00 0.00 0.00 0.00 0.00 0.00 0.00 0.00 0.00 0.00 0.00
0.03 0.04 0.08 0.14 0.16 0.15 0.09 0.09 0.08 0.08 0.07 0.08 0.07 0.06 0.04 0.01 0.01 0.00 0.00 0.00 0.00 0.02 0.06 0.12 0.10 0.05 0.01 0.00 0.00 0.00 0.00 0.00 0.00 0.00 0.00 0.00 0.00 0.00 0.00 0.00 0.00 0.00 0.00
0.08 0.09 0.11 0.13 0.15 0.17 0.20 0.12 0.07 0.06 0.07 0.08 0.09 0.07 0.04 0.02 0.01 0.00 0.00 0.00 0.02 0.12 0.13 0.09 0.05 0.01 0.00 0.00 0.00 0.01 0.03 0.05 0.04 0.00 0.00 0.00 0.00 0.00 0.00 0.00 0.00 0.00 0.00
0.12 0.21 0.20 0.14 0.11 0.09 0.13 0.10 0.11 0.12 0.14 0.13 0.09 0.05 0.02 0.01 0.00 0.00 0.00 0.02 0.09 0.05 0.03 0.02 0.01 0.00 0.00 0.01 0.05 0.08 0.06 0.07 0.03 0.00 0.01 0.00 0.00 0.00 0.00 0.00 0.00 0.00 0.00
0.25 0.18 0.18 0.22 0.27 0.29 0.31 0.26 0.19 0.13 0.09 0.06 0.04 0.02 0.01 0.00 0.00 0.01 0.03 0.08 0.03 0.00 0.00 0.00 0.00 0.00 0.02 0.02 0.06 0.12 0.04 0.02 0.01 0.00 0.00 0.01 0.00 0.00 0.00 0.00 0.00 0.00 0.00
0.51 0.48 0.39 0.34 0.32 0.29 0.21 0.13 0.09 0.07 0.04 0.02 0.01 0.00 0.00 0.00 0.00 0.02 0.04 0.02 0.00 0.00 0.00 0.00 0.01 0.01 0.01 0.01 0.00 0.01 0.02 0.04 0.03 0.00 0.00 0.00 0.00 0.00 0.00 0.00 0.00 0.00 0.00
0.46 0.36 0.30 0.22 0.16 0.10 0.07 0.04 0.03 0.02 0.00 0.00 0.00 0.00 0.00 0.01 0.01 0.04 0.03 0.00 0.00 0.00 0.03 0.02 0.00 0.00 0.00 0.00 0.00 0.00 0.01 0.12 0.08 0.09 0.00 0.09 0.04 0.03 0.13 0.01 0.00 0.00 0.00

GFSMA_prec_precacc24_027.txt.gz
Total_Precipitation_Accumulation
0.00 0.00 0.00 0.00 0.00 0.00 0.00 0.00 0.00 0.00 0.00 0.00 0.00 0.00 0.00 0.00 0.00 0.00 0.00 0.00 0.00 0.00 0.00 0.00 0.00 0.00 0.00 0.00 0.00 0.00 0.00 0.00 0.00 0.00 0.00 0.00 0.00 0.00 0.00 0.00 0.00 0.00 0.00
0.00 0.00 0.00 0.00 0.00 0.00 0.00 0.00 0.00 0.00 0.00 0.00 0.00 0.00 0.00 0.00 0.00 0.00 0.00 0.00 0.00 0.00 0.00 0.00 0.00 0.00 0.00 0.00 0.00 0.00 0.00 0.00 0.00 0.00 0.00 0.00 0.00 0.00 0.00 0.00 0.00 0.00 0.00
0.00 0.00 0.00 0.00 0.00 0.00 0.00 0.00 0.00 0.00 0.00 0.00 0.00 0.00 0.00 0.00 0.00 0.00 0.00 0.00 0.00 0.00 0.00 0.00 0.00 0.00 0.00 0.00 0.00 0.00 0.00 0.00 0.00 0.00 0.00 0.00 0.00 0.00 0.00 0.00 0.00 0.00 0.00
0.00 0.00 0.00 0.00 0.00 0.00 0.00 0.00 0.00 0.00 0.00 0.00 0.00 0.00 0.00 0.00 0.00 0.00 0.00 0.00 0.00 0.00 0.00 0.00 0.00 0.00 0.00 0.00 0.00 0.00 0.00 0.00 0.00 0.00 0.00 0.00 0.00 0.00 0.00 0.00 0.00 0.00 0.00
0.00 0.00 0.00 0.00 0.00 0.00 0.00 0.00 0.00 0.00 0.00 0.00 0.00 0.00 0.00 0.00 0.00 0.00 0.00 0.00 0.00 0.00 0.00 0.00 0.00 0.00 0.00 0.00 0.00 0.00 0.00 0.00 0.00 0.00 0.00 0.00 0.00 0.00 0.00 0.00 0.00 0.00 0.00
0.03 0.00 0.00 0.00 0.00 0.00 0.00 0.00 0.00 0.00 0.00 0.00 0.00 0.00 0.00 0.00 0.00 0.00 0.00 0.00 0.00 0.00 0.00 0.00 0.00 0.00 0.00 0.00 0.00 0.00 0.00 0.00 0.00 0.00 0.00 0.00 0.00 0.00 0.00 0.00 0.00 0.00 0.00
0.05 0.03 0.02 0.00 0.00 0.00 0.00 0.00 0.00 0.00 0.00 0.00 0.00 0.00 0.00 0.00 0.00 0.00 0.00 0.00 0.00 0.00 0.00 0.00 0.00 0.00 0.00 0.00 0.00 0.00 0.00 0.00 0.00 0.00 0.00 0.00 0.00 0.00 0.00 0.00 0.00 0.00 0.00
0.05 0.04 0.05 0.02 0.01 0.00 0.00 0.00 0.00 0.00 0.00 0.00 0.00 0.00 0.00 0.00 0.00 0.00 0.00 0.00 0.00 0.00 0.00 0.00 0.00 0.00 0.00 0.00 0.00 0.00 0.00 0.00 0.00 0.00 0.00 0.00 0.00 0.00 0.00 0.00 0.00 0.00 0.00
0.05 0.07 0.16 0.11 0.01 0.00 0.00 0.00 0.00 0.00 0.00 0.00 0.00 0.00 0.00 0.00 0.00 0.00 0.00 0.00 0.00 0.00 0.00 0.00 0.00 0.00 0.00 0.00 0.00 0.00 0.00 0.00 0.00 0.00 0.00 0.00 0.00 0.00 0.00 0.00 0.00 0.00 0.00
0.14 0.10 0.15 0.16 0.06 0.01 0.01 0.00 0.00 0.00 0.00 0.00 0.00 0.00 0.00 0.00 0.00 0.00 0.00 0.00 0.00 0.00 0.00 0.00 0.00 0.00 0.00 0.00 0.00 0.00 0.00 0.00 0.00 0.00 0.00 0.00 0.00 0.00 0.00 0.00 0.00 0.00 0.00
0.19 0.17 0.14 0.14 0.12 0.04 0.04 0.01 0.00 0.00 0.00 0.00 0.00 0.00 0.00 0.00 0.00 0.00 0.00 0.00 0.00 0.00 0.00 0.00 0.00 0.00 0.00 0.00 0.00 0.00 0.00 0.00 0.00 0.00 0.00 0.00 0.00 0.00 0.00 0.00 0.00 0.01 0.02
0.13 0.12 0.11 0.11 0.15 0.13 0.09 0.06 0.03 0.02 0.01 0.00 0.00 0.00 0.00 0.00 0.00 0.00 0.00 0.00 0.00 0.00 0.00 0.00 0.00 0.00 0.00 0.00 0.00 0.00 0.00 0.00 0.00 0.00 0.00 0.00 0.00 0.00 0.00 0.01 0.02 0.04 0.05
0.07 0.07 0.12 0.11 0.11 0.12 0.11 0.09 0.07 0.04 0.03 0.02 0.01 0.00 0.00 0.00 0.00 0.00 0.00 0.00 0.00 0.00 0.00 0.00 0.00 0.00 0.00 0.00 0.00 0.00 0.00 0.00 0.00 0.00 0.00 0.00 0.00 0.00 0.00 0.01 0.02 0.03 0.04
0.11 0.14 0.14 0.15 0.14 0.12 0.09 0.07 0.05 0.04 0.02 0.01 0.00 0.00 0.00 0.00 0.00 0.00 0.00 0.00 0.00 0.00 0.00 0.00 0.00 0.00 0.00 0.00 0.00 0.00 0.00 0.00 0.00 0.00 0.00 0.00 0.00 0.00 0.00 0.00 0.01 0.02 0.03
0.11 0.15 0.14 0.14 0.14 0.14 0.11 0.07 0.06 0.04 0.02 0.01 0.00 0.00 0.00 0.00 0.01 0.01 0.01 0.00 0.00 0.00 0.00 0.00 0.00 0.00 0.00 0.00 0.00 0.00 0.00 0.00 0.00 0.00 0.00 0.00 0.00 0.00 0.00 0.01 0.01 0.01 0.01
0.10 0.09 0.09 0.11 0.13 0.13 0.10 0.08 0.05 0.02 0.01 0.02 0.02 0.02 0.02 0.02 0.01 0.00 0.00 0.00 0.00 0.00 0.00 0.00 0.00 0.00 0.00 0.00 0.00 0.00 0.00 0.00 0.00 0.00 0.00 0.00 0.00 0.00 0.00 0.00 0.00 0.01 0.02
0.07 0.07 0.08 0.08 0.09 0.08 0.07 0.06 0.06 0.02 0.01 0.01 0.01 0.01 0.02 0.01 0.01 0.02 0.02 0.01 0.01 0.00 0.00 0.00 0.00 0.00 0.00 0.00 0.00 0.00 0.00 0.00 0.00 0.00 0.00 0.00 0.00 0.00 0.00 0.01 0.01 0.02 0.03
0.05 0.05 0.05 0.04 0.04 0.06 0.08 0.07 0.07 0.06 0.05 0.05 0.06 0.07 0.07 0.06 0.04 0.02 0.01 0.01 0.01 0.01 0.01 0.01 0.00 0.00 0.00 0.00 0.00 0.00 0.00 0.00 0.00 0.00 0.00 0.00 0.00 0.00 0.00 0.01 0.01 0.01 0.03
0.06 0.05 0.04 0.03 0.02 0.02 0.03 0.04 0.05 0.07 0.10 0.13 0.15 0.14 0.08 0.05 0.03 0.02 0.01 0.02 0.04 0.05 0.03 0.01 0.00 0.00 0.00 0.01 0.00 0.00 0.00 0.00 0.00 0.00 0.00 0.00 0.00 0.00 0.01 0.01 0.00 0.01 0.01
0.05 0.04 0.05 0.05 0.06 0.06 0.07 0.09 0.08 0.07 0.06 0.05 0.04 0.04 0.05 0.06 0.07 0.09 0.12 0.12 0.08 0.04 0.02 0.01 0.02 0.03 0.02 0.00 0.00 0.00 0.00 0.00 0.00 0.00 0.00 0.00 0.00 0.00 0.00 0.00 0.00 0.00 0.00
0.04 0.04 0.08 0.14 0.16 0.16 0.19 0.18 0.17 0.16 0.17 0.18 0.17 0.17 0.19 0.16 0.15 0.14 0.10 0.06 0.04 0.02 0.03 0.07 0.07 0.04 0.01 0.00 0.00 0.00 0.00 0.00 0.00 0.00 0.00 0.00 0.00 0.00 0.00 0.00 0.00 0.00 0.00
0.10 0.09 0.12 0.14 0.16 0.20 0.32 0.27 0.21 0.22 0.23 0.21 0.17 0.16 0.15 0.13 0.09 0.07 0.05 0.04 0.03 0.06 0.10 0.08 0.05 0.01 0.00 0.00 0.00 0.01 0.02 0.04 0.04 0.00 0.00 0.00 0.00 0.00 0.00 0.00 0.00 0.00 0.00
0.13 0.22 0.23 0.18 0.15 0.13 0.22 0.17 0.16 0.17 0.19 0.19 0.16 0.12 0.09 0.06 0.04 0.04 0.02 0.01 0.04 0.05 0.03 0.02 0.01 0.00 0.00 0.00 0.03 0.07 0.06 0.07 0.03 0.00 0.00 0.00 0.00 0.00 0.00 0.00 0.00 0.00 0.00
0.28 0.23 0.26 0.34 0.40 0.41 0.37 0.30 0.23 0.16 0.13 0.11 0.10 0.08 0.04 0.02 0.00 0.00 0.01 0.04 0.02 0.00 0.00 0.00 0.00 0.00 0.01 0.02 0.06 0.12 0.04 0.01 0.01 0.00 0.00 0.01 0.00 0.00 0.00 0.00 0.00 0.00 0.00
0.67 0.75 0.58 0.47 0.47 0.43 0.31 0.21 0.14 0.11 0.09 0.07 0.04 0.01 0.00 0.00 0.00 0.01 0.03 0.02 0.00 0.00 0.00 0.00 0.01 0.01 0.01 0.01 0.00 0.00 0.01 0.03 0.02 0.00 0.00 0.00 0.00 0.00 0.00 0.00 0.00 0.00 0.00
0.65 0.58 0.52 0.40 0.27 0.17 0.12 0.08 0.05 0.04 0.02 0.01 0.00 0.00 0.00 0.00 0.00 0.02 0.02 0.00 0.00 0.00 0.01 0.01 0.00 0.00 0.00 0.00 0.00 0.00 0.00 0.08 0.07 0.08 0.00 0.07 0.03 0.02 0.10 0.01 0.00 0.00 0.00

GFSMA_prec_precacc24_030.txt.gz
Total_Precipitation_Accumulation
0.00 0.00 0.00 0.01 0.01 0.00 0.00 0.00 0.00 0.00 0.00 0.00 0.00 0.00 0.00 0.00 0.00 0.00 0.00 0.00 0.00 0.00 0.00 0.00 0.00 0.00 0.00 0.00 0.00 0.00 0.00 0.00 0.00 0.00 0.00 0.00 0.00 0.00 0.00 0.00 0.00 0.00 0.00
0.00 0.00 0.00 0.00 0.00 0.00 0.00 0.00 0.00 0.00 0.00 0.00 0.00 0.00 0.00 0.00 0.00 0.00 0.00 0.00 0.00 0.00 0.00 0.00 0.00 0.00 0.00 0.00 0.00 0.00 0.00 0.00 0.00 0.00 0.00 0.00 0.00 0.00 0.00 0.00 0.00 0.00 0.00
0.00 0.00 0.00 0.00 0.00 0.00 0.00 0.00 0.00 0.00 0.00 0.00 0.00 0.00 0.00 0.00 0.00 0.00 0.00 0.00 0.00 0.00 0.00 0.00 0.00 0.00 0.00 0.00 0.00 0.00 0.00 0.00 0.00 0.00 0.00 0.00 0.00 0.00 0.00 0.00 0.00 0.00 0.00
0.00 0.00 0.00 0.00 0.00 0.00 0.00 0.00 0.00 0.00 0.00 0.00 0.00 0.00 0.00 0.00 0.00 0.00 0.00 0.00 0.00 0.00 0.00 0.00 0.00 0.00 0.00 0.00 0.00 0.00 0.00 0.00 0.00 0.00 0.00 0.00 0.00 0.00 0.00 0.00 0.00 0.00 0.00
0.01 0.00 0.00 0.00 0.00 0.00 0.00 0.00 0.00 0.00 0.00 0.00 0.00 0.00 0.00 0.00 0.00 0.00 0.00 0.00 0.00 0.00 0.00 0.00 0.00 0.00 0.00 0.00 0.00 0.00 0.00 0.00 0.00 0.00 0.00 0.00 0.00 0.00 0.00 0.00 0.00 0.00 0.00
0.07 0.04 0.01 0.00 0.00 0.00 0.00 0.00 0.00 0.00 0.00 0.00 0.00 0.00 0.00 0.00 0.00 0.00 0.00 0.00 0.00 0.00 0.00 0.00 0.00 0.00 0.00 0.00 0.00 0.00 0.00 0.00 0.00 0.00 0.00 0.00 0.00 0.00 0.00 0.00 0.00 0.00 0.00
0.08 0.07 0.07 0.03 0.00 0.00 0.00 0.00 0.00 0.00 0.00 0.00 0.00 0.00 0.00 0.00 0.00 0.00 0.00 0.00 0.00 0.00 0.00 0.00 0.00 0.00 0.00 0.00 0.00 0.00 0.00 0.00 0.00 0.00 0.00 0.00 0.00 0.00 0.00 0.00 0.00 0.00 0.00
0.05 0.08 0.09 0.06 0.02 0.00 0.00 0.00 0.00 0.00 0.00 0.00 0.00 0.00 0.00 0.00 0.00 0.00 0.00 0.00 0.00 0.00 0.00 0.00 0.00 0.00 0.00 0.00 0.00 0.00 0.00 0.00 0.00 0.00 0.00 0.00 0.00 0.00 0.00 0.00 0.00 0.00 0.00
0.06 0.09 0.21 0.15 0.04 0.01 0.00 0.00 0.00 0.00 0.00 0.00 0.00 0.00 0.00 0.00 0.00 0.00 0.00 0.00 0.00 0.00 0.00 0.00 0.00 0.00 0.00 0.00 0.00 0.00 0.00 0.00 0.00 0.00 0.00 0.00 0.00 0.00 0.00 0.00 0.00 0.00 0.00
0.19 0.15 0.18 0.18 0.11 0.03 0.03 0.01 0.00 0.00 0.00 0.00 0.00 0.00 0.00 0.00 0.00 0.00 0.00 0.00 0.00 0.00 0.00 0.00 0.00 0.00 0.00 0.00 0.00 0.00 0.00 0.00 0.00 0.00 0.00 0.00 0.00 0.00 0.00 0.00 0.00 0.00 0.00
0.21 0.21 0.19 0.19 0.16 0.06 0.06 0.05 0.02 0.00 0.00 0.00 0.00 0.00 0.00 0.00 0.00 0.00 0.00 0.00 0.00 0.00 0.00 0.00 0.00 0.00 0.00 0.00 0.00 0.00 0.00 0.00 0.00 0.00 0.00 0.00 0.00 0.00 0.00 0.00 0.00 0.00 0.01
0.14 0.15 0.15 0.15 0.19 0.18 0.12 0.09 0.09 0.05 0.02 0.00 0.00 0.00 0.00 0.00 0.00 0.00 0.00 0.00 0.00 0.00 0.00 0.00 0.00 0.00 0.00 0.00 0.00 0.00 0.00 0.00 0.00 0.00 0.00 0.00 0.00 0.00 0.00 0.00 0.00 0.01 0.02
0.07 0.08 0.13 0.14 0.15 0.18 0.19 0.16 0.13 0.10 0.07 0.04 0.03 0.02 0.01 0.00 0.00 0.00 0.00 0.00 0.00 0.00 0.00 0.00 0.00 0.00 0.00 0.00 0.00 0.00 0.00 0.00 0.00 0.00 0.00 0.00 0.00 0.00 0.00 0.00 0.00 0.00 0.00
0.11 0.15 0.15 0.16 0.17 0.18 0.17 0.16 0.14 0.11 0.08 0.06 0.04 0.02 0.01 0.01 0.00 0.00 0.00 0.00 0.00 0.00 0.00 0.00 0.00 0.00 0.00 0.00 0.00 0.00 0.00 0.00 0.00 0.00 0.00 0.00 0.00 0.00 0.00 0.00 0.00 0.00 0.01
0.12 0.15 0.14 0.15 0.16 0.17 0.17 0.17 0.16 0.13 0.09 0.05 0.03 0.01 0.01 0.01 0.01 0.01 0.01 0.00 0.01 0.00 0.00 0.00 0.00 0.00 0.00 0.00 0.00 0.00 0.00 0.00 0.00 0.00 0.00 0.00 0.00 0.00 0.00 0.00 0.00 0.00 0.00
0.10 0.10 0.10 0.12 0.14 0.15 0.14 0.13 0.12 0.09 0.08 0.06 0.05 0.05 0.05 0.03 0.01 0.01 0.00 0.00 0.00 0.00 0.00 0.00 0.00 0.00 0.00 0.00 0.00 0.00 0.00 0.00 0.00 0.00 0.00 0.00 0.00 0.00 0.00 0.00 0.00 0.00 0.01
0.07 0.07 0.08 0.09 0.09 0.09 0.09 0.09 0.10 0.17 0.24 0.30 0.31 0.30 0.17 0.05 0.02 0.03 0.03 0.04 0.04 0.03 0.04 0.02 0.01 0.01 0.02 0.02 0.01 0.00 0.00 0.00 0.00 0.00 0.00 0.00 0.00 0.00 0.00 0.01 0.00 0.00 0.01
0.05 0.05 0.05 0.04 0.04 0.06 0.08 0.09 0.08 0.08 0.09 0.14 0.20 0.24 0.24 0.13 0.10 0.10 0.10 0.10 0.10 0.08 0.08 0.07 0.05 0.06 0.06 0.04 0.03 0.01 0.00 0.00 0.00 0.00 0.00 0.00 0.00 0.00 0.00 0.01 0.00 0.00 0.01
0.06 0.05 0.04 0.03 0.02 0.02 0.03 0.05 0.07 0.09 0.13 0.20 0.24 0.24 0.24 0.20 0.16 0.10 0.07 0.09 0.13 0.14 0.14 0.10 0.05 0.02 0.03 0.03 0.03 0.01 0.00 0.00 0.00 0.00 0.00 0.00 0.00 0.00 0.00 0.01 0.00 0.00 0.00
0.05 0.04 0.05 0.05 0.06 0.06 0.07 0.09 0.08 0.07 0.06 0.06 0.06 0.07 0.08 0.11 0.13 0.16 0.21 0.24 0.20 0.13 0.08 0.05 0.03 0.03 0.03 0.01 0.00 0.00 0.00 0.00 0.00 0.00 0.00 0.00 0.00 0.00 0.00 0.00 0.00 0.00 0.00
0.04 0.04 0.08 0.14 0.16 0.16 0.19 0.18 0.17 0.17 0.17 0.20 0.21 0.24 0.28 0.33 0.36 0.34 0.25 0.15 0.09 0.05 0.04 0.05 0.05 0.04 0.01 0.00 0.00 0.00 0.00 0.00 0.00 0.00 0.00 0.00 0.00 0.00 0.00 0.00 0.00 0.00 0.00
0.10 0.10 0.12 0.14 0.17 0.20 0.33 0.28 0.24 0.25 0.27 0.27 0.29 0.31 0.31 0.28 0.20 0.12 0.07 0.05 0.04 0.04 0.05 0.07 0.04 0.01 0.00 0.00 0.00 0.00 0.01 0.03 0.04 0.00 0.00 0.00 0.00 0.00 0.00 0.00 0.00 0.00 0.00
0.14 0.23 0.24 0.19 0.15 0.14 0.25 0.21 0.20 0.19 0.22 0.23 0.20 0.16 0.12 0.08 0.06 0.05 0.03 0.01 0.01 0.02 0.03 0.02 0.01 0.00 0.00 0.00 0.01 0.06 0.05 0.06 0.02 0.00 0.00 0.00 0.00 0.00 0.00 0.00 0.00 0.00 0.00
0.28 0.24 0.27 0.37 0.44 0.49 0.47 0.33 0.26 0.18 0.14 0.12 0.10 0.09 0.05 0.02 0.00 0.00 0.00 0.01 0.01 0.00 0.00 0.00 0.00 0.00 0.00 0.01 0.06 0.12 0.04 0.01 0.00 0.00 0.00 0.01 0.00 0.00 0.00 0.00 0.00 0.00 0.00
0.67 0.77 0.63 0.55 0.65 0.71 0.54 0.39 0.22 0.15 0.12 0.08 0.05 0.01 0.00 0.00 0.00 0.00 0.01 0.01 0.00 0.00 0.00 0.00 0.00 0.00 0.01 0.01 0.00 0.00 0.00 0.01 0.02 0.00 0.00 0.00 0.00 0.00 0.00 0.00 0.00 0.00 0.00
0.68 0.66 0.69 0.56 0.49 0.40 0.25 0.16 0.08 0.05 0.02 0.01 0.00 0.00 0.00 0.00 0.00 0.01 0.02 0.00 0.00 0.00 0.00 0.00 0.00 0.00 0.00 0.00 0.00 0.00 0.00 0.05 0.06 0.07 0.00 0.06 0.03 0.01 0.09 0.00 0.00 0.00 0.00

GFSMA_prec_precacc24_033.txt.gz
Total_Precipitation_Accumulation
0.00 0.00 0.01 0.02 0.01 0.00 0.00 0.00 0.00 0.00 0.00 0.00 0.00 0.00 0.00 0.00 0.00 0.00 0.00 0.00 0.00 0.00 0.00 0.00 0.00 0.00 0.00 0.00 0.00 0.00 0.00 0.00 0.00 0.00 0.00 0.00 0.00 0.00 0.00 0.00 0.00 0.00 0.00
0.00 0.00 0.00 0.00 0.01 0.00 0.00 0.00 0.00 0.00 0.00 0.00 0.00 0.00 0.00 0.00 0.00 0.00 0.00 0.00 0.00 0.00 0.00 0.00 0.00 0.00 0.00 0.00 0.00 0.00 0.00 0.00 0.00 0.00 0.00 0.00 0.00 0.00 0.00 0.00 0.00 0.00 0.00
0.00 0.00 0.00 0.00 0.00 0.00 0.00 0.00 0.00 0.00 0.00 0.00 0.00 0.00 0.00 0.00 0.00 0.00 0.00 0.00 0.00 0.00 0.00 0.00 0.00 0.00 0.00 0.00 0.00 0.00 0.00 0.00 0.00 0.00 0.00 0.00 0.00 0.00 0.00 0.00 0.00 0.00 0.00
0.00 0.00 0.00 0.00 0.00 0.00 0.00 0.00 0.00 0.00 0.00 0.00 0.00 0.00 0.00 0.00 0.00 0.00 0.00 0.00 0.00 0.00 0.00 0.00 0.00 0.00 0.00 0.00 0.00 0.00 0.00 0.00 0.00 0.00 0.00 0.00 0.00 0.00 0.00 0.00 0.00 0.00 0.00
0.01 0.01 0.00 0.00 0.00 0.00 0.00 0.00 0.00 0.00 0.00 0.00 0.00 0.00 0.00 0.00 0.00 0.00 0.00 0.00 0.00 0.00 0.00 0.00 0.00 0.00 0.00 0.00 0.00 0.00 0.00 0.00 0.00 0.00 0.00 0.00 0.00 0.00 0.00 0.00 0.00 0.00 0.00
0.07 0.05 0.01 0.00 0.00 0.00 0.00 0.00 0.00 0.00 0.00 0.00 0.00 0.00 0.00 0.00 0.00 0.00 0.00 0.00 0.00 0.00 0.00 0.00 0.00 0.00 0.00 0.00 0.00 0.00 0.00 0.00 0.00 0.00 0.00 0.00 0.00 0.00 0.00 0.00 0.00 0.00 0.00
0.08 0.07 0.08 0.03 0.00 0.00 0.00 0.00 0.00 0.00 0.00 0.00 0.00 0.00 0.00 0.00 0.00 0.00 0.00 0.00 0.00 0.00 0.00 0.00 0.00 0.00 0.00 0.00 0.00 0.00 0.00 0.00 0.00 0.00 0.00 0.00 0.00 0.00 0.00 0.00 0.00 0.00 0.00
0.05 0.08 0.09 0.06 0.02 0.00 0.00 0.00 0.00 0.00 0.00 0.00 0.00 0.00 0.00 0.00 0.00 0.00 0.00 0.00 0.00 0.00 0.00 0.00 0.00 0.00 0.00 0.00 0.00 0.00 0.00 0.00 0.00 0.00 0.00 0.00 0.00 0.00 0.00 0.00 0.00 0.00 0.00
0.06 0.10 0.21 0.16 0.05 0.02 0.02 0.01 0.00 0.00 0.00 0.00 0.00 0.00 0.00 0.00 0.00 0.00 0.00 0.00 0.00 0.00 0.00 0.00 0.00 0.00 0.00 0.00 0.00 0.00 0.00 0.00 0.00 0.00 0.00 0.00 0.00 0.00 0.00 0.00 0.00 0.00 0.00
0.20 0.18 0.23 0.24 0.14 0.06 0.07 0.03 0.01 0.02 0.00 0.00 0.00 0.00 0.00 0.00 0.00 0.00 0.00 0.00 0.00 0.00 0.00 0.00 0.00 0.00 0.00 0.00 0.00 0.00 0.00 0.00 0.00 0.00 0.00 0.00 0.00 0.00 0.00 0.00 0.00 0.00 0.00
0.21 0.22 0.22 0.21 0.20 0.11 0.15 0.11 0.05 0.03 0.02 0.01 0.01 0.00 0.00 0.00 0.00 0.00 0.00 0.00 0.00 0.00 0.00 0.00 0.00 0.00 0.00 0.00 0.00 0.00 0.00 0.00 0.00 0.00 0.00 0.00 0.00 0.00 0.00 0.00 0.00 0.00 0.00
0.14 0.15 0.17 0.16 0.22 0.23 0.18 0.15 0.14 0.10 0.07 0.03 0.01 0.00 0.00 0.00 0.00 0.00 0.00 0.00 0.00 0.00 0.00 0.00 0.00 0.00 0.00 0.00 0.00 0.00 0.00 0.00 0.00 0.00 0.00 0.00 0.00 0.00 0.00 0.00 0.00 0.00 0.00
0.07 0.08 0.14 0.15 0.16 0.20 0.21 0.21 0.18 0.15 0.14 0.10 0.06 0.04 0.02 0.01 0.01 0.00 0.00 0.00 0.00 0.00 0.00 0.00 0.00 0.00 0.00 0.00 0.00 0.00 0.00 0.00 0.00 0.00 0.00 0.00 0.00 0.00 0.00 0.00 0.00 0.00 0.00
0.11 0.15 0.15 0.17 0.18 0.19 0.19 0.19 0.18 0.16 0.15 0.13 0.11 0.08 0.06 0.04 0.04 0.04 0.03 0.01 0.01 0.01 0.00 0.00 0.00 0.00 0.00 0.00 0.00 0.00 0.00 0.00 0.00 0.00 0.00 0.00 0.00 0.00 0.00 0.00 0.00 0.00 0.00
0.12 0.15 0.14 0.15 0.17 0.18 0.19 0.20 0.20 0.18 0.16 0.13 0.11 0.08 0.05 0.03 0.02 0.03 0.04 0.05 0.09 0.09 0.03 0.00 0.00 0.00 0.00 0.00 0.00 0.00 0.00 0.00 0.00 0.00 0.00 0.00 0.00 0.00 0.00 0.00 0.00 0.00 0.00
0.10 0.10 0.10 0.12 0.15 0.16 0.16 0.16 0.16 0.14 0.14 0.13 0.12 0.11 0.12 0.10 0.08 0.07 0.07 0.08 0.07 0.06 0.03 0.01 0.01 0.01 0.01 0.01 0.00 0.00 0.00 0.00 0.00 0.00 0.00 0.00 0.00 0.00 0.00 0.00 0.00 0.00 0.01
0.07 0.07 0.08 0.09 0.09 0.09 0.09 0.11 0.14 0.22 0.30 0.35 0.37 0.35 0.34 0.32 0.33 0.37 0.37 0.37 0.30 0.19 0.16 0.11 0.07 0.07 0.08 0.09 0.06 0.03 0.01 0.00 0.00 0.00 0.00 0.00 0.00 0.00 0.00 0.00 0.00 0.00 0.00
0.05 0.05 0.05 0.04 0.04 0.06 0.09 0.10 0.10 0.12 0.15 0.19 0.24 0.29 0.32 0.33 0.33 0.30 0.28 0.23 0.21 0.20 0.21 0.19 0.17 0.16 0.13 0.08 0.04 0.02 0.01 0.00 0.00 0.00 0.00 0.00 0.00 0.00 0.00 0.01 0.00 0.00 0.01
0.06 0.05 0.04 0.03 0.02 0.02 0.03 0.05 0.08 0.12 0.16 0.24 0.28 0.29 0.30 0.30 0.32 0.31 0.32 0.34 0.33 0.33 0.29 0.20 0.11 0.05 0.04 0.03 0.03 0.02 0.00 0.00 0.00 0.00 0.00 0.00 0.00 0.00 0.00 0.01 0.00 0.00 0.00
0.05 0.04 0.05 0.05 0.06 0.06 0.07 0.09 0.08 0.08 0.07 0.06 0.07 0.09 0.14 0.19 0.26 0.33 0.38 0.40 0.30 0.19 0.14 0.11 0.06 0.03 0.02 0.01 0.00 0.00 0.00 0.00 0.00 0.00 0.00 0.00 0.00 0.00 0.00 0.00 0.00 0.00 0.00
0.04 0.04 0.08 0.14 0.16 0.16 0.19 0.18 0.17 0.17 0.18 0.21 0.23 0.26 0.30 0.35 0.39 0.38 0.30 0.23 0.16 0.11 0.08 0.05 0.03 0.02 0.01 0.00 0.00 0.00 0.00 0.00 0.00 0.00 0.00 0.00 0.00 0.00 0.00 0.00 0.00 0.00 0.00
0.10 0.10 0.13 0.14 0.17 0.21 0.33 0.29 0.24 0.26 0.27 0.28 0.30 0.33 0.34 0.33 0.26 0.19 0.14 0.09 0.07 0.04 0.03 0.03 0.03 0.01 0.00 0.00 0.00 0.00 0.00 0.02 0.04 0.00 0.00 0.00 0.00 0.00 0.00 0.00 0.00 0.00 0.00
0.15 0.24 0.24 0.19 0.16 0.15 0.25 0.21 0.21 0.20 0.22 0.25 0.24 0.20 0.15 0.10 0.07 0.05 0.03 0.01 0.00 0.01 0.01 0.02 0.01 0.00 0.00 0.00 0.01 0.04 0.05 0.06 0.02 0.00 0.00 0.00 0.00 0.00 0.00 0.00 0.00 0.00 0.00
0.29 0.25 0.27 0.37 0.45 0.51 0.48 0.35 0.27 0.20 0.18 0.15 0.13 0.11 0.07 0.03 0.00 0.00 0.00 0.00 0.00 0.00 0.00 0.00 0.00 0.00 0.00 0.00 0.05 0.12 0.04 0.00 0.00 0.00 0.00 0.01 0.00 0.00 0.00 0.00 0.00 0.00 0.00
0.68 0.77 0.64 0.55 0.66 0.73 0.59 0.47 0.30 0.20 0.15 0.11 0.06 0.02 0.00 0.00 0.00 0.00 0.00 0.00 0.00 0.00 0.00 0.00 0.00 0.00 0.00 0.01 0.00 0.00 0.00 0.00 0.01 0.00 0.00 0.00 0.00 0.00 0.00 0.00 0.00 0.00 0.00
0.68 0.66 0.70 0.57 0.52 0.48 0.34 0.27 0.19 0.12 0.05 0.01 0.00 0.00 0.00 0.00 0.00 0.00 0.01 0.00 0.00 0.00 0.00 0.00 0.00 0.00 0.00 0.00 0.00 0.00 0.00 0.03 0.05 0.06 0.00 0.06 0.02 0.01 0.08 0.00 0.00 0.00 0.00

GFSMA_prec_precacc24_036.txt.gz
Total_Precipitation_Accumulation
0.00 0.00 0.01 0.02 0.01 0.00 0.00 0.00 0.00 0.00 0.00 0.00 0.00 0.00 0.00 0.00 0.00 0.00 0.00 0.00 0.00 0.00 0.00 0.00 0.00 0.00 0.00 0.00 0.00 0.00 0.00 0.00 0.00 0.00 0.00 0.00 0.00 0.00 0.00 0.00 0.00 0.00 0.00
0.00 0.00 0.00 0.01 0.01 0.00 0.00 0.00 0.00 0.00 0.00 0.00 0.00 0.00 0.00 0.00 0.00 0.00 0.00 0.00 0.00 0.00 0.00 0.00 0.00 0.00 0.00 0.00 0.00 0.00 0.00 0.00 0.00 0.00 0.00 0.00 0.00 0.00 0.00 0.00 0.00 0.00 0.00
0.00 0.00 0.00 0.00 0.00 0.00 0.00 0.00 0.00 0.00 0.00 0.00 0.00 0.00 0.00 0.00 0.00 0.00 0.00 0.00 0.00 0.00 0.00 0.00 0.00 0.00 0.00 0.00 0.00 0.00 0.00 0.00 0.00 0.00 0.00 0.00 0.00 0.00 0.00 0.00 0.00 0.00 0.00
0.00 0.00 0.00 0.00 0.00 0.00 0.00 0.00 0.00 0.00 0.00 0.00 0.00 0.00 0.00 0.00 0.00 0.00 0.00 0.00 0.00 0.00 0.00 0.00 0.00 0.00 0.00 0.00 0.00 0.00 0.00 0.00 0.00 0.00 0.00 0.00 0.00 0.00 0.00 0.00 0.00 0.00 0.00
0.01 0.01 0.00 0.00 0.00 0.00 0.00 0.00 0.00 0.00 0.00 0.00 0.00 0.00 0.00 0.00 0.00 0.00 0.00 0.00 0.00 0.00 0.00 0.00 0.00 0.00 0.00 0.00 0.00 0.00 0.00 0.00 0.00 0.00 0.00 0.00 0.00 0.00 0.00 0.00 0.00 0.00 0.00
0.09 0.06 0.02 0.00 0.00 0.00 0.00 0.00 0.00 0.00 0.00 0.00 0.00 0.00 0.00 0.00 0.00 0.00 0.00 0.00 0.00 0.00 0.00 0.00 0.00 0.00 0.00 0.00 0.00 0.00 0.00 0.00 0.00 0.00 0.00 0.00 0.00 0.00 0.00 0.00 0.00 0.00 0.00
0.09 0.10 0.09 0.06 0.00 0.00 0.00 0.00 0.00 0.00 0.00 0.00 0.00 0.00 0.00 0.00 0.00 0.00 0.00 0.00 0.00 0.00 0.00 0.00 0.00 0.00 0.00 0.00 0.00 0.00 0.00 0.00 0.00 0.00 0.00 0.00 0.00 0.00 0.00 0.00 0.00 0.00 0.00
0.06 0.08 0.10 0.11 0.06 0.01 0.01 0.01 0.00 0.00 0.00 0.00 0.00 0.00 0.00 0.00 0.00 0.00 0.00 0.00 0.00 0.00 0.00 0.00 0.00 0.00 0.00 0.00 0.00 0.00 0.00 0.00 0.00 0.00 0.00 0.00 0.00 0.00 0.00 0.00 0.00 0.00 0.00
0.11 0.13 0.25 0.19 0.08 0.05 0.04 0.08 0.03 0.01 0.01 0.00 0.00 0.00 0.00 0.00 0.00 0.00 0.00 0.00 0.00 0.00 0.00 0.00 0.00 0.00 0.00 0.00 0.00 0.00 0.00 0.00 0.00 0.00 0.00 0.00 0.00 0.00 0.00 0.00 0.00 0.00 0.00
0.21 0.21 0.28 0.29 0.18 0.09 0.10 0.12 0.10 0.04 0.01 0.01 0.01 0.00 0.00 0.00 0.00 0.00 0.00 0.00 0.00 0.00 0.00 0.00 0.00 0.00 0.00 0.00 0.00 0.00 0.00 0.00 0.00 0.00 0.00 0.00 0.00 0.00 0.00 0.00 0.00 0.00 0.00
0.21 0.22 0.22 0.22 0.23 0.14 0.18 0.18 0.12 0.06 0.05 0.03 0.03 0.03 0.01 0.00 0.00 0.00 0.00 0.00 0.00 0.00 0.00 0.00 0.00 0.00 0.00 0.00 0.00 0.00 0.00 0.00 0.00 0.00 0.00 0.00 0.00 0.00 0.00 0.00 0.00 0.00 0.00
0.15 0.16 0.17 0.16 0.24 0.26 0.21 0.19 0.21 0.15 0.10 0.06 0.04 0.03 0.03 0.02 0.01 0.01 0.00 0.00 0.00 0.00 0.00 0.00 0.00 0.00 0.00 0.00 0.00 0.00 0.00 0.00 0.00 0.00 0.00 0.00 0.00 0.00 0.00 0.00 0.00 0.00 0.00
0.08 0.08 0.14 0.16 0.17 0.21 0.24 0.25 0.23 0.19 0.16 0.13 0.10 0.08 0.07 0.05 0.03 0.03 0.01 0.00 0.00 0.00 0.00 0.00 0.00 0.00 0.00 0.00 0.00 0.00 0.00 0.00 0.00 0.00 0.00 0.00 0.00 0.00 0.00 0.00 0.00 0.00 0.00
0.11 0.15 0.15 0.17 0.19 0.20 0.21 0.21 0.22 0.20 0.18 0.17 0.16 0.14 0.11 0.10 0.09 0.09 0.07 0.06 0.06 0.04 0.03 0.04 0.02 0.01 0.01 0.00 0.00 0.01 0.01 0.00 0.00 0.00 0.00 0.00 0.00 0.00 0.00 0.00 0.00 0.00 0.00
0.12 0.15 0.15 0.15 0.18 0.20 0.21 0.22 0.22 0.20 0.19 0.18 0.16 0.15 0.10 0.09 0.10 0.09 0.09 0.11 0.16 0.19 0.15 0.09 0.08 0.07 0.06 0.04 0.03 0.03 0.02 0.01 0.00 0.00 0.00 0.00 0.00 0.00 0.00 0.00 0.00 0.00 0.00
0.10 0.10 0.10 0.12 0.15 0.18 0.19 0.20 0.20 0.18 0.20 0.20 0.18 0.18 0.19 0.18 0.14 0.12 0.11 0.14 0.19 0.27 0.33 0.28 0.25 0.21 0.17 0.15 0.10 0.06 0.02 0.02 0.01 0.00 0.00 0.00 0.00 0.00 0.00 0.00 0.00 0.00 0.00
0.07 0.07 0.08 0.09 0.09 0.09 0.10 0.13 0.17 0.27 0.36 0.41 0.44 0.43 0.42 0.38 0.39 0.46 0.53 0.63 0.71 0.71 0.72 0.59 0.44 0.36 0.28 0.22 0.16 0.08 0.02 0.00 0.00 0.00 0.00 0.00 0.00 0.00 0.00 0.00 0.00 0.00 0.00
0.05 0.05 0.05 0.04 0.04 0.06 0.09 0.10 0.11 0.13 0.17 0.23 0.29 0.35 0.38 0.38 0.37 0.35 0.36 0.41 0.50 0.56 0.59 0.53 0.44 0.38 0.28 0.17 0.09 0.03 0.01 0.00 0.00 0.00 0.00 0.00 0.00 0.00 0.00 0.00 0.00 0.00 0.01
0.06 0.05 0.04 0.03 0.02 0.02 0.03 0.05 0.08 0.12 0.17 0.25 0.29 0.31 0.34 0.35 0.38 0.38 0.40 0.45 0.50 0.54 0.51 0.40 0.30 0.16 0.09 0.06 0.05 0.02 0.00 0.00 0.00 0.00 0.00 0.00 0.00 0.00 0.00 0.00 0.00 0.00 0.00
0.05 0.04 0.05 0.05 0.06 0.06 0.07 0.09 0.08 0.08 0.07 0.07 0.08 0.10 0.16 0.25 0.36 0.50 0.62 0.54 0.41 0.28 0.19 0.13 0.08 0.05 0.03 0.01 0.01 0.00 0.00 0.00 0.00 0.00 0.00 0.00 0.00 0.00 0.00 0.00 0.00 0.00 0.00
0.04 0.04 0.08 0.14 0.16 0.16 0.19 0.18 0.17 0.17 0.18 0.21 0.23 0.27 0.31 0.38 0.42 0.40 0.32 0.24 0.16 0.12 0.09 0.06 0.03 0.02 0.01 0.00 0.00 0.00 0.00 0.00 0.00 0.00 0.00 0.00 0.00 0.00 0.00 0.00 0.00 0.00 0.00
0.10 0.10 0.13 0.14 0.17 0.21 0.34 0.29 0.25 0.26 0.28 0.28 0.30 0.33 0.36 0.38 0.29 0.22 0.15 0.10 0.07 0.04 0.02 0.01 0.01 0.00 0.00 0.00 0.00 0.00 0.00 0.01 0.03 0.00 0.00 0.00 0.00 0.00 0.00 0.00 0.00 0.00 0.00
0.15 0.24 0.25 0.20 0.16 0.15 0.27 0.22 0.21 0.20 0.23 0.25 0.25 0.21 0.16 0.12 0.08 0.06 0.04 0.01 0.00 0.00 0.01 0.01 0.01 0.00 0.00 0.00 0.00 0.03 0.03 0.05 0.02 0.00 0.00 0.00 0.00 0.00 0.00 0.00 0.00 0.00 0.00
0.29 0.25 0.27 0.37 0.45 0.53 0.50 0.35 0.28 0.20 0.19 0.16 0.15 0.12 0.07 0.04 0.02 0.01 0.00 0.00 0.00 0.00 0.00 0.00 0.00 0.00 0.00 0.00 0.02 0.08 0.03 0.00 0.00 0.00 0.00 0.00 0.00 0.00 0.00 0.00 0.00 0.00 0.00
0.68 0.77 0.64 0.55 0.66 0.74 0.60 0.47 0.30 0.22 0.18 0.13 0.07 0.02 0.00 0.00 0.00 0.00 0.00 0.00 0.00 0.00 0.00 0.00 0.00 0.00 0.00 0.01 0.00 0.00 0.00 0.00 0.01 0.00 0.00 0.00 0.00 0.00 0.00 0.00 0.00 0.00 0.00
0.68 0.66 0.70 0.57 0.52 0.48 0.34 0.27 0.19 0.12 0.06 0.01 0.00 0.00 0.00 0.00 0.00 0.00 0.01 0.00 0.00 0.00 0.00 0.00 0.00 0.00 0.00 0.00 0.00 0.00 0.00 0.01 0.04 0.05 0.00 0.04 0.01 0.01 0.06 0.00 0.00 0.00 0.00

GFSMA_prec_precacc24_042.txt.gz
Total_Precipitation_Accumulation
0.00 0.00 0.01 0.02 0.01 0.00 0.00 0.00 0.00 0.00 0.00 0.00 0.00 0.00 0.00 0.00 0.00 0.00 0.00 0.00 0.00 0.00 0.00 0.00 0.00 0.00 0.00 0.00 0.00 0.00 0.00 0.00 0.00 0.00 0.00 0.00 0.00 0.00 0.00 0.00 0.00 0.00 0.00
0.00 0.00 0.00 0.01 0.01 0.00 0.00 0.00 0.00 0.00 0.00 0.00 0.00 0.00 0.00 0.00 0.00 0.00 0.00 0.00 0.00 0.00 0.00 0.00 0.00 0.00 0.00 0.00 0.00 0.00 0.00 0.00 0.00 0.00 0.00 0.00 0.00 0.00 0.00 0.00 0.00 0.00 0.00
0.00 0.00 0.00 0.00 0.00 0.00 0.00 0.00 0.00 0.00 0.00 0.00 0.00 0.00 0.00 0.00 0.00 0.00 0.00 0.00 0.00 0.00 0.00 0.00 0.00 0.00 0.00 0.00 0.00 0.00 0.00 0.00 0.00 0.00 0.00 0.00 0.00 0.00 0.00 0.00 0.00 0.00 0.00
0.00 0.00 0.00 0.00 0.00 0.00 0.00 0.00 0.00 0.00 0.00 0.00 0.00 0.00 0.00 0.00 0.00 0.00 0.00 0.00 0.00 0.00 0.00 0.00 0.00 0.00 0.00 0.00 0.00 0.00 0.00 0.00 0.00 0.00 0.00 0.00 0.00 0.00 0.00 0.00 0.00 0.00 0.00
0.01 0.01 0.00 0.00 0.00 0.00 0.00 0.00 0.00 0.00 0.00 0.00 0.00 0.00 0.00 0.00 0.00 0.00 0.00 0.00 0.00 0.00 0.00 0.00 0.00 0.00 0.00 0.00 0.00 0.00 0.00 0.00 0.00 0.00 0.00 0.00 0.00 0.00 0.00 0.00 0.00 0.00 0.00
0.12 0.08 0.02 0.01 0.00 0.00 0.00 0.00 0.00 0.01 0.00 0.00 0.00 0.00 0.00 0.00 0.00 0.00 0.00 0.00 0.00 0.00 0.00 0.00 0.00 0.00 0.00 0.00 0.00 0.00 0.00 0.00 0.00 0.00 0.00 0.00 0.00 0.00 0.00 0.00 0.00 0.00 0.00
0.16 0.20 0.16 0.10 0.01 0.00 0.00 0.02 0.03 0.06 0.05 0.06 0.05 0.00 0.00 0.00 0.00 0.00 0.00 0.00 0.00 0.00 0.00 0.00 0.00 0.00 0.00 0.00 0.00 0.00 0.00 0.00 0.00 0.00 0.00 0.00 0.00 0.00 0.00 0.00 0.00 0.00 0.00
0.12 0.15 0.17 0.17 0.15 0.06 0.06 0.12 0.13 0.12 0.07 0.07 0.08 0.02 0.00 0.00 0.00 0.00 0.00 0.00 0.00 0.00 0.00 0.00 0.00 0.00 0.00 0.00 0.00 0.00 0.00 0.00 0.00 0.00 0.00 0.00 0.00 0.00 0.00 0.00 0.00 0.00 0.00
0.13 0.18 0.32 0.25 0.14 0.14 0.12 0.17 0.18 0.18 0.11 0.08 0.05 0.04 0.00 0.00 0.00 0.00 0.00 0.00 0.00 0.00 0.00 0.00 0.00 0.00 0.00 0.00 0.00 0.00 0.00 0.00 0.00 0.00 0.00 0.00 0.00 0.00 0.00 0.00 0.00 0.00 0.00
0.20 0.21 0.30 0.35 0.27 0.15 0.14 0.15 0.20 0.18 0.14 0.10 0.09 0.05 0.05 0.02 0.01 0.00 0.00 0.00 0.00 0.00 0.00 0.00 0.00 0.00 0.00 0.00 0.00 0.00 0.00 0.00 0.00 0.00 0.00 0.00 0.00 0.00 0.00 0.00 0.00 0.00 0.00
0.21 0.22 0.22 0.23 0.26 0.21 0.25 0.24 0.20 0.17 0.17 0.15 0.13 0.12 0.09 0.06 0.03 0.02 0.01 0.03 0.02 0.01 0.01 0.00 0.00 0.00 0.00 0.00 0.00 0.00 0.00 0.00 0.00 0.00 0.00 0.00 0.00 0.00 0.00 0.00 0.00 0.00 0.00
0.14 0.16 0.18 0.18 0.26 0.31 0.30 0.30 0.33 0.29 0.24 0.19 0.15 0.15 0.15 0.16 0.13 0.09 0.10 0.10 0.09 0.03 0.01 0.00 0.00 0.00 0.01 0.02 0.04 0.03 0.01 0.00 0.00 0.00 0.00 0.00 0.00 0.00 0.00 0.00 0.00 0.00 0.00
0.06 0.07 0.16 0.17 0.18 0.23 0.27 0.32 0.30 0.29 0.30 0.26 0.21 0.18 0.20 0.22 0.23 0.23 0.20 0.17 0.13 0.09 0.07 0.05 0.04 0.04 0.04 0.04 0.04 0.03 0.02 0.01 0.00 0.00 0.01 0.02 0.03 0.04 0.05 0.05 0.04 0.02 0.00
0.08 0.13 0.14 0.16 0.18 0.20 0.21 0.23 0.24 0.24 0.24 0.24 0.25 0.22 0.21 0.20 0.24 0.26 0.27 0.24 0.20 0.13 0.11 0.11 0.06 0.05 0.06 0.09 0.15 0.17 0.15 0.16 0.15 0.13 0.12 0.12 0.12 0.11 0.10 0.08 0.06 0.04 0.01
0.07 0.11 0.12 0.14 0.17 0.20 0.22 0.24 0.24 0.22 0.22 0.23 0.21 0.19 0.14 0.12 0.15 0.16 0.17 0.20 0.31 0.38 0.32 0.27 0.28 0.27 0.24 0.24 0.30 0.32 0.38 0.46 0.48 0.47 0.43 0.37 0.31 0.24 0.16 0.11 0.07 0.03 0.01
0.06 0.08 0.09 0.11 0.14 0.17 0.19 0.20 0.21 0.19 0.22 0.22 0.23 0.26 0.27 0.25 0.22 0.21 0.22 0.27 0.34 0.55 0.73 0.66 0.62 0.61 0.59 0.57 0.56 0.52 0.57 0.56 0.46 0.36 0.28 0.23 0.18 0.12 0.07 0.04 0.02 0.00 0.00
0.04 0.05 0.06 0.07 0.08 0.09 0.10 0.13 0.16 0.27 0.36 0.42 0.46 0.47 0.48 0.45 0.48 0.54 0.62 0.74 0.87 0.98 1.08 0.96 0.79 0.73 0.70 0.67 0.62 0.48 0.33 0.22 0.16 0.15 0.12 0.10 0.06 0.03 0.01 0.00 0.00 0.00 0.00
0.03 0.03 0.03 0.03 0.02 0.03 0.06 0.10 0.11 0.13 0.17 0.23 0.29 0.35 0.40 0.41 0.41 0.42 0.46 0.56 0.72 0.90 1.04 1.00 0.84 0.74 0.62 0.45 0.30 0.17 0.11 0.09 0.05 0.05 0.05 0.02 0.01 0.00 0.00 0.00 0.00 0.00 0.00
0.04 0.03 0.02 0.01 0.02 0.02 0.03 0.05 0.08 0.12 0.17 0.25 0.29 0.31 0.34 0.36 0.39 0.39 0.43 0.49 0.58 0.65 0.65 0.55 0.43 0.34 0.28 0.22 0.18 0.13 0.08 0.04 0.01 0.01 0.00 0.00 0.00 0.00 0.00 0.00 0.00 0.00 0.00
0.03 0.03 0.03 0.03 0.03 0.04 0.07 0.09 0.08 0.08 0.07 0.07 0.08 0.11 0.17 0.26 0.37 0.51 0.69 0.77 0.68 0.51 0.41 0.32 0.24 0.16 0.12 0.09 0.06 0.04 0.02 0.01 0.00 0.00 0.00 0.00 0.00 0.00 0.00 0.00 0.00 0.00 0.00
0.03 0.03 0.07 0.13 0.15 0.16 0.19 0.18 0.17 0.17 0.18 0.21 0.23 0.27 0.32 0.39 0.43 0.41 0.34 0.27 0.23 0.17 0.12 0.09 0.07 0.06 0.04 0.02 0.01 0.01 0.00 0.00 0.00 0.00 0.00 0.00 0.00 0.00 0.00 0.00 0.00 0.00 0.00
0.05 0.05 0.08 0.09 0.14 0.19 0.34 0.29 0.25 0.26 0.28 0.28 0.31 0.33 0.36 0.40 0.32 0.27 0.20 0.13 0.08 0.05 0.03 0.02 0.02 0.01 0.00 0.00 0.00 0.00 0.00 0.01 0.01 0.00 0.00 0.00 0.00 0.00 0.00 0.00 0.00 0.00 0.00
0.09 0.12 0.16 0.17 0.16 0.15 0.27 0.22 0.21 0.19 0.22 0.25 0.25 0.22 0.19 0.17 0.13 0.10 0.08 0.04 0.03 0.03 0.01 0.00 0.00 0.00 0.00 0.00 0.00 0.01 0.01 0.02 0.01 0.00 0.00 0.00 0.00 0.00 0.00 0.00 0.00 0.00 0.00
0.21 0.21 0.25 0.36 0.44 0.53 0.50 0.35 0.28 0.20 0.19 0.17 0.15 0.13 0.09 0.04 0.02 0.02 0.01 0.01 0.01 0.01 0.00 0.00 0.00 0.00 0.00 0.00 0.01 0.04 0.03 0.00 0.00 0.00 0.00 0.00 0.00 0.00 0.00 0.00 0.00 0.00 0.00
0.52 0.67 0.58 0.54 0.65 0.74 0.61 0.47 0.30 0.22 0.18 0.13 0.07 0.02 0.00 0.00 0.00 0.00 0.00 0.00 0.00 0.00 0.00 0.00 0.00 0.00 0.00 0.00 0.00 0.00 0.00 0.00 0.00 0.00 0.00 0.00 0.00 0.00 0.00 0.00 0.00 0.00 0.00
0.65 0.65 0.69 0.57 0.52 0.48 0.34 0.27 0.19 0.12 0.06 0.01 0.00 0.00 0.00 0.00 0.00 0.00 0.00 0.00 0.00 0.00 0.00 0.00 0.00 0.00 0.00 0.00 0.00 0.00 0.00 0.00 0.02 0.03 0.00 0.01 0.00 0.00 0.04 0.00 0.00 0.00 0.00

GFSMA_prec_precacc24_045.txt.gz
Total_Precipitation_Accumulation
0.00 0.00 0.01 0.02 0.01 0.00 0.00 0.00 0.00 0.00 0.00 0.00 0.00 0.00 0.00 0.00 0.00 0.00 0.00 0.00 0.00 0.00 0.00 0.00 0.00 0.00 0.00 0.00 0.00 0.00 0.00 0.00 0.00 0.00 0.00 0.00 0.00 0.00 0.00 0.00 0.00 0.00 0.00
0.00 0.00 0.00 0.01 0.01 0.00 0.00 0.00 0.00 0.00 0.00 0.00 0.00 0.00 0.00 0.00 0.00 0.00 0.00 0.00 0.00 0.00 0.00 0.00 0.00 0.00 0.00 0.00 0.00 0.00 0.00 0.00 0.00 0.00 0.00 0.00 0.00 0.00 0.00 0.00 0.00 0.00 0.00
0.00 0.00 0.00 0.00 0.00 0.00 0.00 0.00 0.00 0.00 0.00 0.00 0.00 0.00 0.00 0.00 0.00 0.00 0.00 0.00 0.00 0.00 0.00 0.00 0.00 0.00 0.00 0.00 0.00 0.00 0.00 0.00 0.00 0.00 0.00 0.00 0.00 0.00 0.00 0.00 0.00 0.00 0.00
0.00 0.00 0.00 0.00 0.00 0.00 0.00 0.00 0.00 0.00 0.00 0.00 0.00 0.00 0.00 0.00 0.00 0.00 0.00 0.00 0.00 0.00 0.00 0.00 0.00 0.00 0.00 0.00 0.00 0.00 0.00 0.00 0.00 0.00 0.00 0.00 0.00 0.00 0.00 0.00 0.00 0.00 0.00
0.01 0.01 0.00 0.00 0.00 0.00 0.00 0.00 0.00 0.00 0.00 0.00 0.00 0.00 0.00 0.00 0.00 0.00 0.00 0.00 0.00 0.00 0.00 0.00 0.00 0.00 0.00 0.00 0.00 0.00 0.00 0.00 0.00 0.00 0.00 0.00 0.00 0.00 0.00 0.00 0.00 0.00 0.00
0.12 0.08 0.02 0.01 0.00 0.00 0.00 0.00 0.00 0.01 0.00 0.00 0.01 0.00 0.00 0.00 0.00 0.00 0.00 0.00 0.00 0.00 0.00 0.00 0.00 0.00 0.00 0.00 0.00 0.00 0.00 0.00 0.00 0.00 0.00 0.00 0.00 0.00 0.00 0.00 0.00 0.00 0.00
0.19 0.21 0.16 0.10 0.02 0.00 0.01 0.03 0.06 0.12 0.12 0.14 0.12 0.01 0.00 0.00 0.00 0.00 0.00 0.00 0.00 0.00 0.00 0.00 0.00 0.00 0.00 0.00 0.00 0.00 0.00 0.00 0.00 0.00 0.00 0.00 0.00 0.00 0.00 0.00 0.00 0.00 0.00
0.14 0.17 0.19 0.20 0.16 0.07 0.06 0.13 0.15 0.15 0.10 0.16 0.16 0.04 0.00 0.00 0.00 0.00 0.00 0.00 0.00 0.00 0.00 0.00 0.00 0.00 0.00 0.00 0.00 0.00 0.00 0.00 0.00 0.00 0.00 0.00 0.00 0.00 0.00 0.00 0.00 0.00 0.00
0.13 0.19 0.32 0.25 0.14 0.14 0.12 0.18 0.18 0.19 0.15 0.13 0.11 0.08 0.01 0.00 0.00 0.00 0.00 0.00 0.00 0.00 0.00 0.01 0.01 0.00 0.00 0.00 0.00 0.00 0.00 0.00 0.00 0.00 0.00 0.00 0.00 0.00 0.00 0.00 0.00 0.00 0.00
0.18 0.21 0.30 0.35 0.26 0.15 0.14 0.15 0.20 0.19 0.15 0.11 0.11 0.08 0.08 0.02 0.01 0.00 0.01 0.01 0.01 0.00 0.01 0.01 0.01 0.00 0.00 0.00 0.00 0.00 0.00 0.00 0.00 0.00 0.00 0.00 0.00 0.00 0.00 0.00 0.00 0.00 0.00
0.16 0.19 0.22 0.22 0.25 0.20 0.25 0.24 0.20 0.17 0.17 0.17 0.14 0.14 0.13 0.11 0.05 0.04 0.05 0.05 0.04 0.03 0.02 0.01 0.01 0.01 0.01 0.01 0.01 0.02 0.03 0.03 0.02 0.01 0.00 0.00 0.00 0.00 0.00 0.00 0.00 0.00 0.00
0.11 0.13 0.16 0.17 0.25 0.30 0.30 0.31 0.33 0.30 0.25 0.19 0.16 0.17 0.17 0.18 0.15 0.12 0.14 0.11 0.11 0.10 0.08 0.07 0.05 0.04 0.03 0.04 0.07 0.10 0.13 0.13 0.14 0.13 0.10 0.04 0.01 0.00 0.01 0.01 0.01 0.02 0.02
0.04 0.05 0.12 0.15 0.17 0.22 0.26 0.31 0.30 0.29 0.30 0.26 0.21 0.18 0.20 0.23 0.23 0.24 0.21 0.18 0.14 0.10 0.08 0.07 0.06 0.06 0.06 0.07 0.10 0.16 0.17 0.19 0.15 0.11 0.09 0.11 0.12 0.09 0.07 0.08 0.10 0.10 0.10
0.05 0.09 0.11 0.14 0.16 0.19 0.20 0.22 0.24 0.24 0.24 0.24 0.25 0.22 0.21 0.20 0.24 0.27 0.28 0.26 0.22 0.13 0.11 0.14 0.13 0.13 0.14 0.16 0.22 0.27 0.24 0.27 0.29 0.29 0.26 0.23 0.23 0.22 0.19 0.17 0.17 0.17 0.14
0.06 0.09 0.10 0.12 0.15 0.18 0.20 0.23 0.23 0.22 0.22 0.23 0.22 0.20 0.14 0.12 0.15 0.16 0.17 0.21 0.35 0.41 0.32 0.28 0.29 0.29 0.28 0.34 0.42 0.44 0.45 0.52 0.56 0.54 0.52 0.48 0.44 0.37 0.28 0.22 0.19 0.16 0.12
0.04 0.06 0.08 0.10 0.13 0.16 0.18 0.20 0.21 0.19 0.21 0.22 0.23 0.27 0.28 0.26 0.22 0.22 0.23 0.28 0.35 0.56 0.73 0.68 0.65 0.64 0.63 0.63 0.64 0.61 0.62 0.63 0.50 0.42 0.36 0.32 0.28 0.21 0.16 0.13 0.09 0.07 0.05
0.02 0.03 0.05 0.07 0.08 0.08 0.10 0.12 0.16 0.27 0.36 0.42 0.46 0.47 0.48 0.45 0.48 0.54 0.63 0.75 0.88 0.99 1.09 1.00 0.90 0.84 0.80 0.77 0.71 0.55 0.39 0.27 0.20 0.22 0.20 0.16 0.11 0.09 0.07 0.04 0.03 0.01 0.01
0.01 0.02 0.02 0.02 0.02 0.02 0.04 0.06 0.06 0.08 0.14 0.22 0.29 0.35 0.40 0.41 0.42 0.42 0.47 0.56 0.72 0.90 1.05 1.03 0.94 0.85 0.73 0.59 0.42 0.27 0.19 0.16 0.13 0.15 0.12 0.07 0.05 0.03 0.01 0.00 0.00 0.00 0.00
0.01 0.02 0.02 0.01 0.01 0.01 0.01 0.02 0.04 0.09 0.16 0.25 0.29 0.31 0.34 0.36 0.39 0.39 0.43 0.49 0.58 0.65 0.66 0.55 0.44 0.38 0.34 0.32 0.33 0.29 0.22 0.13 0.06 0.05 0.02 0.01 0.01 0.00 0.00 0.00 0.00 0.00 0.00
0.01 0.02 0.03 0.03 0.02 0.01 0.00 0.01 0.02 0.05 0.07 0.07 0.08 0.11 0.17 0.26 0.37 0.51 0.69 0.77 0.68 0.52 0.41 0.32 0.24 0.16 0.13 0.11 0.09 0.07 0.05 0.03 0.01 0.00 0.00 0.00 0.00 0.00 0.00 0.00 0.00 0.00 0.00
0.01 0.03 0.07 0.11 0.12 0.12 0.12 0.12 0.14 0.16 0.18 0.21 0.23 0.27 0.32 0.39 0.44 0.41 0.34 0.27 0.23 0.19 0.12 0.09 0.07 0.06 0.05 0.03 0.03 0.02 0.01 0.00 0.00 0.00 0.00 0.00 0.00 0.00 0.00 0.00 0.00 0.00 0.00
0.04 0.05 0.08 0.07 0.08 0.11 0.24 0.23 0.23 0.25 0.27 0.28 0.31 0.33 0.36 0.40 0.33 0.28 0.20 0.13 0.08 0.05 0.03 0.02 0.02 0.01 0.00 0.00 0.00 0.00 0.00 0.00 0.01 0.00 0.00 0.00 0.00 0.00 0.00 0.00 0.00 0.00 0.00
0.08 0.09 0.09 0.10 0.10 0.11 0.23 0.20 0.20 0.18 0.22 0.24 0.25 0.22 0.19 0.17 0.13 0.10 0.09 0.04 0.03 0.03 0.01 0.00 0.00 0.00 0.00 0.00 0.00 0.00 0.01 0.01 0.01 0.00 0.00 0.00 0.00 0.00 0.00 0.00 0.00 0.00 0.00
0.18 0.16 0.15 0.20 0.26 0.36 0.38 0.31 0.25 0.19 0.18 0.17 0.15 0.13 0.09 0.04 0.02 0.02 0.01 0.01 0.01 0.01 0.00 0.00 0.00 0.00 0.00 0.00 0.00 0.02 0.02 0.00 0.00 0.00 0.00 0.00 0.00 0.00 0.00 0.00 0.00 0.00 0.00
0.28 0.38 0.32 0.30 0.50 0.64 0.57 0.46 0.29 0.21 0.18 0.13 0.07 0.02 0.00 0.00 0.00 0.00 0.00 0.00 0.00 0.00 0.00 0.00 0.00 0.00 0.00 0.00 0.00 0.00 0.00 0.00 0.00 0.00 0.00 0.00 0.00 0.00 0.00 0.00 0.00 0.00 0.00
0.34 0.42 0.51 0.48 0.49 0.47 0.34 0.27 0.19 0.12 0.06 0.01 0.00 0.00 0.00 0.00 0.00 0.00 0.00 0.00 0.00 0.00 0.00 0.00 0.00 0.00 0.00 0.00 0.00 0.00 0.00 0.00 0.01 0.02 0.00 0.01 0.00 0.00 0.03 0.00 0.00 0.00 0.00

GFSMA_prec_precacc24_048.txt.gz
Total_Precipitation_Accumulation
0.00 0.00 0.01 0.02 0.01 0.00 0.00 0.00 0.00 0.00 0.00 0.00 0.00 0.00 0.00 0.00 0.00 0.00 0.00 0.00 0.00 0.00 0.00 0.00 0.00 0.00 0.00 0.00 0.00 0.00 0.00 0.00 0.00 0.00 0.00 0.00 0.00 0.00 0.00 0.00 0.00 0.00 0.00
0.00 0.00 0.00 0.01 0.01 0.00 0.00 0.00 0.00 0.00 0.00 0.00 0.00 0.00 0.00 0.00 0.00 0.00 0.00 0.00 0.00 0.00 0.00 0.00 0.00 0.00 0.00 0.00 0.00 0.00 0.00 0.00 0.00 0.00 0.00 0.00 0.00 0.00 0.00 0.00 0.00 0.00 0.00
0.00 0.00 0.00 0.00 0.00 0.00 0.00 0.00 0.00 0.00 0.00 0.00 0.00 0.00 0.00 0.00 0.00 0.00 0.00 0.00 0.00 0.00 0.00 0.00 0.00 0.00 0.00 0.00 0.00 0.00 0.00 0.00 0.00 0.00 0.00 0.00 0.00 0.00 0.00 0.00 0.00 0.00 0.00
0.00 0.00 0.00 0.00 0.00 0.00 0.00 0.00 0.00 0.00 0.00 0.00 0.00 0.00 0.00 0.00 0.00 0.00 0.00 0.00 0.00 0.00 0.00 0.00 0.00 0.00 0.00 0.00 0.00 0.00 0.00 0.00 0.00 0.00 0.00 0.00 0.00 0.00 0.00 0.00 0.00 0.00 0.00
0.01 0.01 0.00 0.00 0.00 0.00 0.00 0.00 0.00 0.00 0.00 0.00 0.00 0.00 0.00 0.00 0.00 0.00 0.00 0.00 0.00 0.00 0.00 0.00 0.00 0.00 0.00 0.00 0.00 0.00 0.00 0.00 0.00 0.00 0.00 0.00 0.00 0.00 0.00 0.00 0.00 0.00 0.00
0.12 0.08 0.02 0.01 0.00 0.00 0.00 0.00 0.00 0.01 0.00 0.01 0.01 0.00 0.01 0.01 0.00 0.00 0.00 0.01 0.00 0.00 0.00 0.00 0.00 0.00 0.00 0.00 0.00 0.00 0.00 0.00 0.00 0.00 0.00 0.00 0.00 0.00 0.00 0.00 0.00 0.00 0.00
0.18 0.19 0.15 0.10 0.02 0.00 0.01 0.03 0.06 0.12 0.14 0.18 0.15 0.01 0.01 0.00 0.00 0.00 0.00 0.00 0.00 0.00 0.00 0.00 0.00 0.00 0.00 0.00 0.00 0.00 0.00 0.00 0.00 0.00 0.00 0.00 0.00 0.00 0.00 0.00 0.00 0.00 0.00
0.12 0.15 0.18 0.19 0.16 0.07 0.06 0.13 0.15 0.15 0.10 0.17 0.17 0.05 0.00 0.00 0.00 0.00 0.00 0.00 0.00 0.00 0.00 0.00 0.00 0.00 0.00 0.00 0.00 0.00 0.00 0.00 0.00 0.00 0.00 0.00 0.00 0.00 0.00 0.00 0.00 0.00 0.00
0.13 0.18 0.28 0.24 0.13 0.13 0.12 0.18 0.18 0.20 0.15 0.13 0.11 0.10 0.01 0.00 0.00 0.00 0.00 0.00 0.00 0.00 0.00 0.01 0.01 0.00 0.00 0.00 0.00 0.00 0.00 0.00 0.00 0.00 0.01 0.00 0.00 0.00 0.00 0.00 0.00 0.00 0.00
0.12 0.16 0.26 0.34 0.26 0.15 0.13 0.15 0.20 0.19 0.16 0.12 0.12 0.08 0.08 0.03 0.02 0.01 0.01 0.01 0.01 0.00 0.01 0.01 0.01 0.00 0.00 0.00 0.01 0.01 0.01 0.00 0.00 0.00 0.01 0.01 0.01 0.00 0.00 0.00 0.00 0.00 0.00
0.07 0.10 0.16 0.19 0.22 0.19 0.24 0.24 0.20 0.17 0.18 0.18 0.15 0.15 0.13 0.11 0.06 0.05 0.06 0.05 0.04 0.03 0.02 0.01 0.01 0.01 0.01 0.02 0.03 0.05 0.08 0.07 0.08 0.06 0.04 0.05 0.10 0.12 0.06 0.03 0.01 0.01 0.00
0.06 0.08 0.12 0.13 0.20 0.26 0.29 0.30 0.32 0.30 0.26 0.21 0.16 0.17 0.18 0.18 0.15 0.12 0.14 0.11 0.11 0.10 0.08 0.07 0.05 0.04 0.03 0.05 0.11 0.17 0.22 0.22 0.27 0.29 0.25 0.21 0.19 0.19 0.17 0.14 0.09 0.04 0.02
0.01 0.03 0.08 0.10 0.12 0.18 0.24 0.29 0.29 0.30 0.30 0.27 0.21 0.18 0.21 0.23 0.24 0.24 0.21 0.18 0.14 0.10 0.08 0.07 0.06 0.06 0.06 0.07 0.11 0.21 0.26 0.29 0.29 0.30 0.31 0.32 0.31 0.27 0.23 0.22 0.24 0.23 0.18
0.00 0.04 0.06 0.10 0.12 0.16 0.18 0.20 0.22 0.23 0.23 0.24 0.25 0.23 0.21 0.21 0.25 0.27 0.29 0.26 0.22 0.14 0.11 0.14 0.13 0.13 0.14 0.16 0.22 0.29 0.30 0.37 0.41 0.48 0.51 0.47 0.39 0.30 0.24 0.21 0.21 0.22 0.23
0.02 0.02 0.04 0.08 0.12 0.15 0.18 0.21 0.21 0.21 0.21 0.23 0.22 0.20 0.15 0.13 0.16 0.16 0.18 0.22 0.36 0.42 0.33 0.28 0.29 0.29 0.28 0.34 0.42 0.46 0.50 0.63 0.75 0.77 0.74 0.68 0.59 0.45 0.33 0.27 0.24 0.21 0.18
0.01 0.02 0.03 0.04 0.09 0.14 0.17 0.19 0.20 0.18 0.21 0.21 0.21 0.25 0.27 0.26 0.22 0.22 0.23 0.28 0.36 0.56 0.73 0.68 0.65 0.64 0.63 0.63 0.66 0.64 0.71 0.79 0.72 0.63 0.55 0.47 0.39 0.28 0.22 0.17 0.12 0.11 0.10
0.00 0.01 0.01 0.02 0.04 0.07 0.09 0.12 0.16 0.26 0.35 0.41 0.45 0.46 0.47 0.45 0.48 0.54 0.63 0.75 0.88 0.99 1.09 1.00 0.90 0.84 0.80 0.78 0.74 0.61 0.49 0.39 0.35 0.36 0.31 0.26 0.19 0.16 0.12 0.08 0.07 0.05 0.02
0.00 0.00 0.00 0.00 0.01 0.02 0.04 0.06 0.06 0.08 0.13 0.18 0.24 0.32 0.37 0.39 0.41 0.42 0.47 0.56 0.72 0.90 1.05 1.03 0.94 0.85 0.73 0.59 0.44 0.31 0.26 0.25 0.23 0.25 0.20 0.13 0.12 0.10 0.07 0.05 0.04 0.02 0.01
0.00 0.00 0.00 0.00 0.00 0.01 0.01 0.02 0.03 0.06 0.10 0.17 0.21 0.26 0.31 0.36 0.39 0.39 0.43 0.49 0.58 0.65 0.66 0.55 0.44 0.38 0.34 0.32 0.34 0.31 0.26 0.19 0.14 0.13 0.10 0.07 0.06 0.04 0.03 0.01 0.01 0.00 0.00
0.00 0.00 0.00 0.00 0.00 0.00 0.00 0.00 0.01 0.01 0.02 0.03 0.05 0.09 0.16 0.25 0.37 0.51 0.69 0.77 0.68 0.52 0.41 0.32 0.24 0.16 0.13 0.11 0.09 0.08 0.07 0.04 0.02 0.01 0.00 0.00 0.00 0.00 0.00 0.00 0.00 0.00 0.00
0.00 0.00 0.00 0.01 0.00 0.02 0.10 0.10 0.09 0.10 0.11 0.14 0.16 0.21 0.28 0.38 0.43 0.41 0.33 0.27 0.23 0.19 0.12 0.09 0.07 0.06 0.05 0.03 0.03 0.02 0.02 0.00 0.00 0.00 0.00 0.00 0.00 0.00 0.00 0.00 0.00 0.00 0.00
0.02 0.01 0.01 0.01 0.02 0.03 0.15 0.17 0.17 0.20 0.21 0.20 0.21 0.26 0.32 0.38 0.32 0.29 0.21 0.14 0.09 0.05 0.03 0.02 0.02 0.01 0.00 0.00 0.00 0.00 0.00 0.00 0.00 0.00 0.00 0.00 0.00 0.00 0.00 0.00 0.00 0.00 0.00
0.02 0.03 0.04 0.06 0.05 0.06 0.14 0.13 0.11 0.08 0.09 0.12 0.16 0.16 0.16 0.16 0.13 0.10 0.09 0.04 0.03 0.03 0.01 0.00 0.00 0.00 0.00 0.00 0.00 0.00 0.00 0.01 0.00 0.00 0.00 0.00 0.00 0.00 0.00 0.00 0.00 0.00 0.00
0.04 0.07 0.09 0.15 0.17 0.24 0.19 0.10 0.09 0.08 0.10 0.11 0.11 0.11 0.08 0.04 0.02 0.02 0.01 0.01 0.01 0.01 0.00 0.00 0.00 0.00 0.00 0.00 0.00 0.01 0.01 0.00 0.00 0.00 0.00 0.00 0.00 0.00 0.00 0.00 0.00 0.00 0.00
0.18 0.29 0.25 0.21 0.33 0.45 0.40 0.33 0.21 0.15 0.14 0.11 0.06 0.02 0.00 0.00 0.00 0.00 0.00 0.00 0.00 0.00 0.00 0.00 0.00 0.00 0.00 0.00 0.00 0.00 0.00 0.00 0.00 0.00 0.00 0.00 0.00 0.00 0.00 0.00 0.00 0.00 0.00
0.22 0.30 0.40 0.35 0.36 0.38 0.28 0.22 0.16 0.10 0.05 0.01 0.00 0.00 0.00 0.00 0.00 0.00 0.00 0.00 0.00 0.00 0.00 0.00 0.00 0.00 0.00 0.00 0.00 0.00 0.00 0.00 0.01 0.01 0.00 0.01 0.00 0.00 0.02 0.00 0.00 0.00 0.00

GFSMA_prec_precacc24_054.txt.gz
Total_Precipitation_Accumulation
0.00 0.00 0.01 0.01 0.00 0.00 0.00 0.00 0.00 0.00 0.00 0.00 0.00 0.00 0.00 0.00 0.00 0.00 0.00 0.00 0.00 0.00 0.00 0.00 0.00 0.00 0.00 0.00 0.00 0.00 0.00 0.00 0.00 0.00 0.00 0.00 0.00 0.00 0.00 0.00 0.00 0.00 0.00
0.00 0.00 0.00 0.00 0.01 0.00 0.00 0.00 0.00 0.00 0.00 0.00 0.00 0.00 0.00 0.00 0.00 0.00 0.00 0.00 0.00 0.00 0.00 0.00 0.00 0.00 0.00 0.00 0.00 0.00 0.00 0.00 0.00 0.00 0.00 0.00 0.00 0.00 0.00 0.00 0.00 0.00 0.00
0.00 0.00 0.00 0.00 0.00 0.00 0.00 0.00 0.00 0.00 0.00 0.00 0.00 0.00 0.00 0.00 0.00 0.00 0.00 0.00 0.00 0.00 0.00 0.00 0.00 0.00 0.00 0.00 0.00 0.00 0.00 0.00 0.00 0.00 0.00 0.00 0.00 0.00 0.00 0.00 0.00 0.00 0.00
0.00 0.00 0.00 0.00 0.00 0.00 0.00 0.00 0.00 0.00 0.00 0.00 0.00 0.00 0.00 0.00 0.00 0.00 0.00 0.00 0.00 0.00 0.00 0.00 0.00 0.00 0.00 0.00 0.01 0.00 0.00 0.00 0.00 0.00 0.00 0.00 0.00 0.00 0.00 0.00 0.00 0.00 0.00
0.00 0.00 0.00 0.00 0.00 0.00 0.00 0.00 0.00 0.00 0.00 0.00 0.00 0.00 0.01 0.01 0.00 0.00 0.00 0.02 0.01 0.00 0.00 0.00 0.00 0.00 0.00 0.00 0.00 0.00 0.01 0.01 0.00 0.00 0.00 0.00 0.00 0.00 0.00 0.00 0.00 0.00 0.00
0.05 0.04 0.01 0.01 0.00 0.00 0.00 0.00 0.01 0.01 0.00 0.01 0.01 0.00 0.02 0.01 0.00 0.00 0.01 0.01 0.01 0.01 0.00 0.00 0.00 0.00 0.00 0.00 0.00 0.00 0.00 0.02 0.01 0.00 0.00 0.00 0.00 0.00 0.00 0.00 0.00 0.00 0.00
0.11 0.15 0.09 0.07 0.02 0.00 0.01 0.03 0.06 0.12 0.14 0.18 0.15 0.01 0.01 0.00 0.00 0.00 0.00 0.00 0.00 0.00 0.00 0.00 0.00 0.00 0.00 0.00 0.00 0.00 0.00 0.01 0.04 0.05 0.01 0.00 0.00 0.00 0.00 0.00 0.00 0.00 0.00
0.08 0.10 0.11 0.14 0.14 0.06 0.07 0.13 0.15 0.15 0.10 0.17 0.17 0.05 0.00 0.00 0.00 0.00 0.00 0.00 0.00 0.00 0.00 0.00 0.00 0.00 0.00 0.00 0.00 0.00 0.01 0.01 0.03 0.12 0.16 0.07 0.02 0.00 0.00 0.00 0.00 0.00 0.01
0.08 0.11 0.12 0.10 0.10 0.13 0.12 0.19 0.19 0.21 0.17 0.13 0.11 0.10 0.02 0.00 0.00 0.00 0.00 0.00 0.00 0.00 0.00 0.01 0.01 0.00 0.00 0.00 0.00 0.00 0.01 0.02 0.02 0.05 0.19 0.38 0.42 0.22 0.09 0.03 0.02 0.01 0.01
0.01 0.07 0.13 0.17 0.16 0.12 0.11 0.14 0.20 0.19 0.16 0.12 0.12 0.08 0.08 0.03 0.03 0.01 0.01 0.01 0.01 0.00 0.01 0.01 0.01 0.00 0.00 0.00 0.01 0.02 0.03 0.04 0.06 0.10 0.14 0.28 0.58 0.61 0.36 0.16 0.10 0.07 0.04
0.00 0.01 0.04 0.04 0.10 0.14 0.19 0.20 0.18 0.17 0.18 0.18 0.15 0.15 0.13 0.11 0.06 0.06 0.06 0.05 0.04 0.03 0.02 0.01 0.01 0.01 0.01 0.02 0.03 0.05 0.08 0.07 0.09 0.13 0.17 0.20 0.30 0.47 0.63 0.58 0.38 0.25 0.13
0.01 0.02 0.03 0.04 0.07 0.12 0.19 0.22 0.24 0.25 0.24 0.22 0.18 0.17 0.18 0.18 0.15 0.12 0.14 0.11 0.11 0.10 0.08 0.07 0.05 0.04 0.03 0.05 0.11 0.17 0.22 0.23 0.29 0.36 0.41 0.41 0.38 0.41 0.47 0.50 0.45 0.40 0.28
0.01 0.02 0.03 0.04 0.04 0.05 0.08 0.16 0.18 0.20 0.25 0.24 0.19 0.18 0.21 0.23 0.24 0.25 0.22 0.18 0.14 0.10 0.08 0.07 0.06 0.06 0.06 0.07 0.11 0.21 0.26 0.29 0.30 0.34 0.44 0.54 0.60 0.54 0.46 0.50 0.61 0.61 0.55
0.00 0.00 0.00 0.01 0.01 0.03 0.04 0.07 0.10 0.13 0.16 0.20 0.23 0.21 0.20 0.20 0.25 0.28 0.29 0.27 0.23 0.14 0.11 0.14 0.13 0.13 0.14 0.16 0.22 0.29 0.30 0.37 0.43 0.53 0.64 0.73 0.79 0.76 0.62 0.46 0.49 0.51 0.43
0.00 0.00 0.00 0.01 0.01 0.02 0.04 0.07 0.07 0.09 0.14 0.18 0.19 0.19 0.14 0.12 0.15 0.15 0.17 0.21 0.35 0.41 0.32 0.28 0.29 0.29 0.28 0.34 0.42 0.46 0.50 0.64 0.77 0.84 0.86 0.89 0.76 0.77 0.64 0.47 0.44 0.37 0.34
0.00 0.00 0.00 0.01 0.01 0.03 0.05 0.08 0.10 0.10 0.14 0.16 0.19 0.22 0.22 0.23 0.21 0.21 0.23 0.28 0.36 0.56 0.73 0.68 0.65 0.64 0.63 0.63 0.66 0.64 0.71 0.80 0.74 0.72 0.74 0.58 0.50 0.44 0.36 0.30 0.27 0.26 0.24
0.00 0.00 0.00 0.00 0.00 0.01 0.02 0.04 0.06 0.10 0.12 0.12 0.14 0.18 0.31 0.39 0.46 0.52 0.60 0.71 0.84 0.95 1.05 0.98 0.89 0.82 0.78 0.76 0.73 0.60 0.50 0.40 0.38 0.44 0.37 0.33 0.26 0.21 0.18 0.15 0.14 0.11 0.08
0.00 0.00 0.00 0.00 0.00 0.00 0.00 0.01 0.02 0.05 0.09 0.09 0.08 0.12 0.16 0.28 0.31 0.32 0.36 0.46 0.63 0.81 0.96 0.97 0.89 0.79 0.68 0.55 0.42 0.30 0.26 0.25 0.23 0.27 0.22 0.14 0.12 0.11 0.12 0.12 0.09 0.07 0.05
0.00 0.00 0.00 0.00 0.00 0.00 0.00 0.00 0.01 0.03 0.04 0.05 0.05 0.07 0.10 0.16 0.23 0.30 0.36 0.41 0.46 0.51 0.52 0.45 0.39 0.36 0.31 0.30 0.31 0.29 0.26 0.19 0.14 0.14 0.10 0.08 0.08 0.08 0.07 0.06 0.05 0.04 0.04
0.00 0.00 0.00 0.00 0.00 0.00 0.00 0.00 0.00 0.00 0.01 0.01 0.02 0.04 0.08 0.15 0.24 0.36 0.47 0.53 0.48 0.38 0.33 0.27 0.21 0.15 0.12 0.11 0.09 0.08 0.07 0.04 0.02 0.01 0.00 0.00 0.00 0.00 0.00 0.00 0.00 0.00 0.00
0.00 0.00 0.00 0.00 0.00 0.00 0.00 0.00 0.00 0.00 0.00 0.01 0.02 0.02 0.04 0.07 0.08 0.07 0.09 0.12 0.15 0.14 0.08 0.05 0.05 0.05 0.05 0.03 0.03 0.02 0.02 0.00 0.00 0.00 0.00 0.00 0.00 0.00 0.00 0.00 0.00 0.00 0.00
0.00 0.00 0.00 0.00 0.00 0.00 0.03 0.01 0.01 0.01 0.01 0.02 0.02 0.02 0.05 0.12 0.13 0.17 0.15 0.09 0.05 0.02 0.02 0.02 0.02 0.01 0.00 0.00 0.00 0.00 0.00 0.00 0.00 0.00 0.00 0.00 0.00 0.00 0.00 0.00 0.00 0.00 0.00
0.00 0.01 0.01 0.01 0.01 0.01 0.03 0.01 0.01 0.00 0.01 0.02 0.05 0.05 0.06 0.08 0.07 0.05 0.06 0.04 0.03 0.03 0.01 0.00 0.00 0.00 0.00 0.00 0.00 0.00 0.00 0.00 0.00 0.00 0.00 0.00 0.00 0.00 0.00 0.00 0.00 0.00 0.00
0.01 0.01 0.00 0.00 0.00 0.04 0.03 0.02 0.02 0.02 0.04 0.05 0.05 0.04 0.03 0.02 0.01 0.01 0.01 0.01 0.01 0.01 0.00 0.00 0.00 0.00 0.00 0.00 0.00 0.00 0.00 0.00 0.00 0.00 0.00 0.00 0.00 0.00 0.00 0.00 0.00 0.00 0.00
0.01 0.00 0.00 0.00 0.01 0.03 0.07 0.08 0.08 0.07 0.07 0.05 0.02 0.00 0.00 0.00 0.00 0.00 0.00 0.00 0.00 0.00 0.00 0.00 0.00 0.00 0.00 0.00 0.00 0.00 0.00 0.00 0.00 0.00 0.00 0.00 0.00 0.00 0.00 0.00 0.00 0.00 0.00
0.00 0.00 0.00 0.01 0.03 0.08 0.10 0.10 0.11 0.07 0.03 0.01 0.00 0.00 0.00 0.00 0.00 0.00 0.00 0.00 0.00 0.00 0.00 0.00 0.00 0.00 0.00 0.00 0.00 0.00 0.00 0.00 0.00 0.00 0.00 0.00 0.00 0.00 0.01 0.00 0.00 0.00 0.00

GFSMA_prec_precacc24_057.txt.gz
Total_Precipitation_Accumulation
0.00 0.00 0.00 0.00 0.00 0.00 0.00 0.00 0.00 0.00 0.00 0.00 0.00 0.00 0.00 0.00 0.00 0.00 0.00 0.00 0.00 0.00 0.00 0.00 0.00 0.00 0.00 0.00 0.00 0.00 0.00 0.00 0.00 0.00 0.00 0.00 0.00 0.00 0.00 0.00 0.00 0.00 0.00
0.00 0.00 0.00 0.00 0.00 0.00 0.00 0.00 0.00 0.00 0.00 0.00 0.00 0.00 0.00 0.00 0.00 0.00 0.00 0.00 0.00 0.00 0.00 0.00 0.00 0.00 0.00 0.00 0.00 0.00 0.00 0.00 0.00 0.00 0.00 0.00 0.00 0.00 0.00 0.00 0.00 0.00 0.00
0.00 0.00 0.00 0.00 0.00 0.00 0.00 0.00 0.00 0.00 0.00 0.00 0.00 0.00 0.00 0.00 0.00 0.00 0.00 0.00 0.00 0.00 0.00 0.00 0.00 0.00 0.00 0.00 0.01 0.00 0.00 0.00 0.00 0.00 0.00 0.00 0.00 0.00 0.00 0.00 0.00 0.00 0.00
0.00 0.00 0.00 0.00 0.00 0.00 0.00 0.00 0.00 0.00 0.00 0.00 0.00 0.00 0.00 0.00 0.00 0.00 0.00 0.00 0.00 0.00 0.00 0.00 0.00 0.00 0.00 0.00 0.01 0.03 0.02 0.00 0.00 0.00 0.00 0.00 0.00 0.00 0.00 0.00 0.00 0.00 0.00
0.00 0.00 0.00 0.00 0.00 0.00 0.00 0.00 0.00 0.00 0.00 0.00 0.00 0.00 0.01 0.01 0.00 0.00 0.00 0.02 0.01 0.00 0.00 0.00 0.00 0.00 0.00 0.00 0.00 0.01 0.03 0.03 0.00 0.00 0.00 0.00 0.00 0.00 0.00 0.00 0.00 0.00 0.00
0.05 0.03 0.01 0.01 0.01 0.00 0.00 0.01 0.01 0.03 0.01 0.01 0.02 0.00 0.02 0.01 0.00 0.00 0.01 0.01 0.01 0.01 0.00 0.00 0.00 0.00 0.00 0.00 0.00 0.00 0.01 0.05 0.06 0.03 0.00 0.00 0.00 0.00 0.00 0.00 0.00 0.00 0.00
0.11 0.14 0.09 0.07 0.02 0.01 0.01 0.04 0.07 0.12 0.14 0.18 0.15 0.01 0.01 0.00 0.00 0.00 0.00 0.00 0.00 0.00 0.00 0.00 0.00 0.00 0.00 0.00 0.00 0.00 0.02 0.04 0.07 0.13 0.09 0.03 0.00 0.00 0.00 0.00 0.00 0.00 0.00
0.08 0.10 0.11 0.14 0.14 0.07 0.07 0.14 0.16 0.16 0.11 0.17 0.18 0.05 0.00 0.00 0.00 0.00 0.00 0.00 0.00 0.00 0.00 0.00 0.00 0.00 0.00 0.00 0.00 0.00 0.01 0.03 0.07 0.18 0.28 0.19 0.15 0.13 0.07 0.03 0.01 0.00 0.01
0.08 0.10 0.12 0.09 0.09 0.12 0.10 0.19 0.21 0.23 0.19 0.14 0.12 0.10 0.02 0.00 0.00 0.00 0.00 0.00 0.00 0.00 0.00 0.01 0.01 0.00 0.00 0.00 0.00 0.00 0.01 0.02 0.02 0.06 0.21 0.45 0.57 0.52 0.30 0.13 0.04 0.02 0.02
0.01 0.03 0.07 0.11 0.13 0.09 0.07 0.12 0.19 0.17 0.16 0.12 0.11 0.08 0.08 0.03 0.03 0.02 0.01 0.01 0.01 0.00 0.01 0.01 0.01 0.00 0.00 0.00 0.01 0.02 0.03 0.04 0.06 0.10 0.14 0.30 0.66 0.69 0.44 0.21 0.12 0.09 0.07
0.00 0.00 0.00 0.02 0.06 0.10 0.10 0.14 0.16 0.14 0.15 0.17 0.14 0.15 0.13 0.12 0.06 0.06 0.06 0.05 0.04 0.03 0.02 0.01 0.01 0.01 0.01 0.02 0.03 0.05 0.08 0.07 0.09 0.13 0.17 0.20 0.35 0.61 0.80 0.69 0.44 0.31 0.21
0.01 0.01 0.02 0.03 0.04 0.07 0.13 0.16 0.20 0.20 0.19 0.19 0.17 0.18 0.18 0.18 0.15 0.12 0.14 0.11 0.11 0.10 0.08 0.07 0.05 0.04 0.03 0.05 0.11 0.17 0.22 0.23 0.29 0.36 0.41 0.41 0.43 0.51 0.61 0.59 0.55 0.51 0.42
0.01 0.02 0.02 0.03 0.03 0.04 0.06 0.11 0.13 0.16 0.18 0.18 0.17 0.17 0.20 0.24 0.25 0.26 0.21 0.18 0.14 0.10 0.08 0.07 0.06 0.06 0.06 0.07 0.11 0.21 0.26 0.29 0.30 0.34 0.44 0.54 0.61 0.56 0.56 0.80 1.17 0.88 0.69
0.00 0.00 0.00 0.00 0.01 0.02 0.02 0.03 0.06 0.08 0.10 0.13 0.16 0.16 0.17 0.18 0.23 0.25 0.26 0.26 0.21 0.13 0.11 0.14 0.13 0.13 0.14 0.16 0.22 0.29 0.30 0.37 0.43 0.53 0.64 0.73 0.80 0.76 0.69 0.76 0.78 0.59 0.50
0.00 0.00 0.00 0.00 0.01 0.02 0.03 0.03 0.04 0.04 0.06 0.11 0.11 0.12 0.10 0.10 0.14 0.13 0.14 0.16 0.27 0.33 0.30 0.28 0.29 0.29 0.28 0.34 0.42 0.46 0.50 0.64 0.78 0.85 0.87 0.91 0.77 0.77 0.65 0.55 0.53 0.38 0.36
0.00 0.00 0.00 0.00 0.00 0.01 0.04 0.05 0.06 0.06 0.08 0.09 0.11 0.15 0.16 0.15 0.14 0.15 0.16 0.20 0.29 0.50 0.71 0.66 0.64 0.63 0.62 0.62 0.66 0.64 0.71 0.80 0.75 0.74 0.75 0.60 0.52 0.45 0.37 0.33 0.30 0.29 0.27
0.00 0.00 0.00 0.00 0.00 0.00 0.01 0.02 0.03 0.05 0.06 0.06 0.08 0.12 0.14 0.13 0.15 0.17 0.26 0.38 0.58 0.80 0.93 0.88 0.83 0.77 0.72 0.69 0.69 0.57 0.49 0.40 0.38 0.44 0.37 0.33 0.26 0.21 0.18 0.15 0.14 0.11 0.10
0.00 0.00 0.00 0.00 0.00 0.00 0.00 0.00 0.00 0.01 0.02 0.04 0.04 0.07 0.08 0.07 0.09 0.12 0.18 0.33 0.51 0.69 0.83 0.84 0.77 0.68 0.60 0.51 0.40 0.29 0.25 0.25 0.23 0.27 0.22 0.14 0.12 0.11 0.12 0.12 0.09 0.07 0.05
0.00 0.00 0.00 0.00 0.00 0.00 0.00 0.00 0.00 0.00 0.01 0.01 0.01 0.02 0.04 0.06 0.08 0.09 0.11 0.16 0.25 0.32 0.36 0.35 0.33 0.33 0.31 0.30 0.31 0.29 0.26 0.19 0.14 0.14 0.10 0.08 0.08 0.08 0.07 0.06 0.05 0.04 0.04
0.00 0.00 0.00 0.00 0.00 0.00 0.00 0.00 0.00 0.00 0.00 0.00 0.01 0.01 0.03 0.06 0.11 0.18 0.31 0.37 0.38 0.32 0.27 0.21 0.18 0.14 0.12 0.11 0.09 0.08 0.07 0.04 0.02 0.01 0.00 0.00 0.00 0.00 0.00 0.00 0.00 0.00 0.00
0.00 0.00 0.00 0.00 0.00 0.00 0.00 0.00 0.00 0.00 0.00 0.00 0.00 0.01 0.02 0.05 0.05 0.04 0.03 0.05 0.07 0.08 0.04 0.03 0.05 0.05 0.05 0.03 0.03 0.02 0.02 0.00 0.00 0.00 0.00 0.00 0.00 0.00 0.00 0.00 0.00 0.00 0.00
0.00 0.00 0.00 0.00 0.00 0.00 0.03 0.01 0.00 0.00 0.00 0.01 0.01 0.00 0.02 0.07 0.08 0.11 0.08 0.05 0.02 0.00 0.01 0.02 0.02 0.01 0.00 0.00 0.00 0.00 0.00 0.00 0.00 0.00 0.00 0.00 0.00 0.00 0.00 0.00 0.00 0.00 0.00
0.00 0.00 0.00 0.00 0.00 0.01 0.03 0.01 0.00 0.00 0.00 0.00 0.01 0.02 0.03 0.07 0.06 0.04 0.05 0.03 0.03 0.03 0.01 0.00 0.00 0.00 0.00 0.00 0.00 0.00 0.00 0.00 0.00 0.00 0.00 0.00 0.00 0.00 0.00 0.00 0.00 0.00 0.00
0.00 0.00 0.00 0.00 0.00 0.02 0.02 0.01 0.00 0.00 0.00 0.01 0.02 0.01 0.02 0.01 0.01 0.01 0.01 0.01 0.01 0.01 0.00 0.00 0.00 0.00 0.00 0.00 0.00 0.00 0.00 0.00 0.00 0.00 0.00 0.00 0.00 0.00 0.00 0.00 0.00 0.00 0.00
0.00 0.00 0.00 0.00 0.00 0.00 0.01 0.00 0.00 0.02 0.03 0.02 0.01 0.00 0.00 0.00 0.00 0.00 0.00 0.00 0.00 0.00 0.00 0.00 0.00 0.00 0.00 0.00 0.00 0.00 0.00 0.00 0.00 0.00 0.00 0.00 0.00 0.00 0.00 0.00 0.00 0.00 0.00
0.00 0.00 0.00 0.00 0.00 0.00 0.00 0.00 0.00 0.00 0.00 0.00 0.00 0.00 0.00 0.00 0.00 0.00 0.00 0.00 0.00 0.00 0.00 0.00 0.00 0.00 0.00 0.00 0.00 0.00 0.00 0.00 0.00 0.00 0.00 0.00 0.00 0.00 0.00 0.00 0.00 0.00 0.00

GFSMA_prec_precacc24_060.txt.gz
Total_Precipitation_Accumulation
0.00 0.00 0.00 0.00 0.00 0.00 0.00 0.00 0.00 0.00 0.00 0.00 0.00 0.00 0.00 0.00 0.00 0.00 0.00 0.00 0.00 0.00 0.00 0.00 0.00 0.00 0.00 0.00 0.00 0.00 0.00 0.00 0.00 0.00 0.00 0.00 0.00 0.00 0.00 0.00 0.00 0.00 0.00
0.00 0.00 0.00 0.00 0.00 0.00 0.00 0.00 0.00 0.00 0.00 0.00 0.00 0.00 0.00 0.00 0.00 0.00 0.00 0.00 0.00 0.00 0.00 0.00 0.00 0.00 0.00 0.01 0.00 0.00 0.00 0.00 0.00 0.00 0.00 0.00 0.00 0.00 0.00 0.00 0.00 0.00 0.00
0.00 0.00 0.00 0.00 0.00 0.00 0.00 0.00 0.00 0.00 0.00 0.00 0.00 0.00 0.00 0.00 0.00 0.00 0.00 0.00 0.00 0.00 0.00 0.00 0.00 0.00 0.00 0.00 0.01 0.02 0.01 0.00 0.00 0.00 0.00 0.00 0.00 0.00 0.00 0.00 0.00 0.00 0.00
0.00 0.00 0.00 0.00 0.00 0.00 0.00 0.00 0.00 0.00 0.00 0.00 0.00 0.00 0.00 0.00 0.00 0.00 0.00 0.00 0.00 0.00 0.00 0.00 0.00 0.00 0.00 0.00 0.01 0.04 0.07 0.03 0.00 0.00 0.00 0.00 0.00 0.00 0.00 0.00 0.00 0.00 0.00
0.00 0.00 0.00 0.00 0.00 0.00 0.00 0.00 0.00 0.00 0.00 0.01 0.01 0.00 0.01 0.01 0.00 0.00 0.00 0.02 0.01 0.00 0.00 0.00 0.00 0.00 0.00 0.00 0.00 0.01 0.05 0.10 0.06 0.01 0.00 0.00 0.00 0.00 0.00 0.00 0.00 0.00 0.00
0.03 0.02 0.00 0.00 0.01 0.00 0.00 0.01 0.02 0.03 0.01 0.01 0.02 0.00 0.02 0.01 0.00 0.00 0.01 0.01 0.01 0.01 0.00 0.00 0.00 0.00 0.00 0.00 0.00 0.00 0.01 0.06 0.13 0.11 0.05 0.02 0.00 0.00 0.00 0.00 0.00 0.00 0.00
0.11 0.12 0.07 0.04 0.02 0.01 0.01 0.04 0.07 0.13 0.14 0.19 0.15 0.01 0.01 0.00 0.00 0.00 0.00 0.00 0.00 0.00 0.00 0.00 0.00 0.00 0.00 0.00 0.00 0.00 0.02 0.04 0.10 0.18 0.19 0.17 0.10 0.02 0.01 0.00 0.00 0.00 0.00
0.07 0.09 0.09 0.09 0.11 0.06 0.06 0.13 0.16 0.16 0.12 0.18 0.19 0.06 0.00 0.00 0.00 0.00 0.00 0.00 0.00 0.00 0.00 0.00 0.00 0.00 0.00 0.00 0.00 0.00 0.01 0.03 0.07 0.20 0.31 0.27 0.28 0.32 0.31 0.21 0.04 0.00 0.01
0.03 0.07 0.09 0.07 0.06 0.10 0.08 0.12 0.19 0.23 0.19 0.14 0.12 0.10 0.02 0.00 0.00 0.00 0.00 0.00 0.00 0.00 0.00 0.01 0.01 0.00 0.00 0.00 0.00 0.00 0.01 0.02 0.02 0.06 0.21 0.45 0.58 0.56 0.41 0.23 0.06 0.02 0.02
0.00 0.00 0.02 0.06 0.08 0.07 0.04 0.03 0.11 0.15 0.15 0.11 0.11 0.08 0.08 0.04 0.03 0.02 0.01 0.01 0.01 0.00 0.01 0.01 0.01 0.00 0.00 0.00 0.01 0.02 0.03 0.04 0.06 0.10 0.14 0.30 0.66 0.72 0.52 0.33 0.21 0.12 0.07
0.00 0.00 0.00 0.01 0.03 0.07 0.07 0.07 0.08 0.11 0.13 0.16 0.12 0.13 0.12 0.12 0.06 0.07 0.07 0.05 0.04 0.03 0.02 0.01 0.01 0.01 0.01 0.02 0.03 0.05 0.08 0.07 0.09 0.13 0.17 0.20 0.35 0.63 0.86 0.83 0.61 0.41 0.25
0.00 0.01 0.01 0.02 0.03 0.05 0.09 0.12 0.13 0.16 0.16 0.17 0.15 0.15 0.16 0.16 0.14 0.11 0.14 0.11 0.11 0.10 0.08 0.07 0.05 0.04 0.03 0.05 0.11 0.17 0.22 0.23 0.29 0.36 0.41 0.41 0.43 0.52 0.62 0.62 0.64 0.68 0.67
0.00 0.01 0.02 0.02 0.02 0.02 0.03 0.07 0.09 0.12 0.15 0.16 0.14 0.13 0.18 0.21 0.23 0.24 0.22 0.19 0.14 0.10 0.08 0.07 0.06 0.06 0.06 0.07 0.11 0.21 0.26 0.29 0.30 0.34 0.44 0.54 0.61 0.56 0.57 0.80 1.21 1.21 1.17
0.00 0.00 0.00 0.00 0.00 0.00 0.01 0.01 0.03 0.05 0.07 0.09 0.12 0.12 0.13 0.14 0.19 0.23 0.25 0.22 0.17 0.10 0.08 0.10 0.10 0.12 0.14 0.16 0.22 0.29 0.29 0.37 0.44 0.54 0.65 0.74 0.80 0.77 0.69 0.77 0.78 0.60 0.52
0.00 0.00 0.00 0.00 0.00 0.00 0.01 0.01 0.01 0.01 0.03 0.05 0.06 0.06 0.05 0.05 0.07 0.08 0.09 0.12 0.19 0.23 0.18 0.18 0.20 0.21 0.23 0.30 0.39 0.42 0.48 0.63 0.78 0.86 0.88 0.92 0.78 0.78 0.66 0.59 0.58 0.39 0.37
0.00 0.00 0.00 0.00 0.00 0.00 0.00 0.00 0.01 0.02 0.02 0.02 0.05 0.08 0.09 0.08 0.08 0.10 0.12 0.15 0.17 0.29 0.40 0.40 0.41 0.43 0.46 0.48 0.56 0.59 0.69 0.78 0.74 0.74 0.76 0.60 0.52 0.45 0.38 0.36 0.35 0.33 0.31
0.00 0.00 0.00 0.00 0.00 0.00 0.00 0.00 0.00 0.00 0.00 0.00 0.01 0.04 0.06 0.07 0.09 0.09 0.10 0.12 0.17 0.28 0.37 0.40 0.47 0.48 0.52 0.55 0.59 0.53 0.48 0.39 0.38 0.44 0.38 0.34 0.27 0.21 0.18 0.16 0.14 0.12 0.11
0.00 0.00 0.00 0.00 0.00 0.00 0.00 0.00 0.00 0.00 0.00 0.00 0.00 0.01 0.02 0.03 0.05 0.07 0.10 0.15 0.22 0.34 0.46 0.50 0.50 0.47 0.45 0.42 0.35 0.28 0.25 0.25 0.23 0.27 0.22 0.14 0.12 0.11 0.12 0.12 0.09 0.07 0.05
0.00 0.00 0.00 0.00 0.00 0.00 0.00 0.00 0.00 0.00 0.00 0.00 0.00 0.00 0.00 0.01 0.01 0.01 0.02 0.05 0.08 0.11 0.15 0.15 0.14 0.22 0.25 0.27 0.29 0.29 0.26 0.19 0.14 0.14 0.10 0.08 0.08 0.08 0.07 0.06 0.05 0.04 0.04
0.00 0.00 0.00 0.00 0.00 0.00 0.00 0.00 0.00 0.00 0.00 0.00 0.00 0.00 0.00 0.00 0.01 0.01 0.07 0.23 0.27 0.23 0.22 0.19 0.16 0.12 0.10 0.10 0.09 0.08 0.07 0.04 0.02 0.01 0.00 0.00 0.00 0.00 0.00 0.00 0.00 0.00 0.00
0.00 0.00 0.00 0.00 0.00 0.00 0.00 0.00 0.00 0.00 0.00 0.00 0.00 0.00 0.00 0.01 0.02 0.02 0.02 0.04 0.07 0.07 0.03 0.03 0.04 0.05 0.05 0.03 0.03 0.02 0.02 0.00 0.00 0.00 0.00 0.00 0.00 0.00 0.00 0.00 0.00 0.00 0.00
0.00 0.00 0.00 0.00 0.00 0.00 0.02 0.01 0.00 0.00 0.00 0.00 0.00 0.00 0.00 0.02 0.04 0.08 0.07 0.04 0.02 0.00 0.01 0.02 0.02 0.01 0.00 0.00 0.00 0.00 0.00 0.00 0.00 0.00 0.00 0.00 0.00 0.00 0.00 0.00 0.00 0.00 0.00
0.00 0.00 0.00 0.00 0.00 0.00 0.02 0.01 0.00 0.00 0.00 0.00 0.00 0.00 0.02 0.05 0.05 0.04 0.05 0.03 0.03 0.03 0.01 0.00 0.00 0.00 0.00 0.00 0.00 0.00 0.00 0.00 0.00 0.00 0.00 0.00 0.00 0.00 0.00 0.00 0.00 0.00 0.00
0.00 0.00 0.00 0.00 0.00 0.01 0.01 0.00 0.00 0.00 0.00 0.00 0.00 0.01 0.01 0.00 0.00 0.00 0.01 0.01 0.01 0.01 0.00 0.00 0.00 0.00 0.00 0.00 0.00 0.00 0.00 0.00 0.00 0.00 0.00 0.00 0.00 0.00 0.00 0.00 0.00 0.00 0.00
0.00 0.00 0.00 0.00 0.00 0.00 0.00 0.00 0.00 0.00 0.00 0.00 0.00 0.00 0.00 0.00 0.00 0.00 0.00 0.00 0.00 0.00 0.00 0.00 0.00 0.00 0.00 0.00 0.00 0.00 0.00 0.00 0.00 0.00 0.00 0.00 0.00 0.00 0.00 0.00 0.00 0.00 0.00
0.00 0.00 0.00 0.00 0.00 0.00 0.00 0.00 0.00 0.00 0.00 0.00 0.00 0.00 0.00 0.00 0.00 0.00 0.00 0.00 0.00 0.00 0.00 0.00 0.00 0.00 0.00 0.00 0.00 0.00 0.00 0.00 0.00 0.00 0.00 0.00 0.00 0.00 0.00 0.00 0.00 0.00 0.00

GFSMA_prec_precacc24_063.txt.gz
Total_Precipitation_Accumulation
0.00 0.00 0.00 0.00 0.00 0.00 0.00 0.00 0.00 0.00 0.00 0.00 0.00 0.00 0.00 0.00 0.00 0.00 0.00 0.00 0.00 0.00 0.00 0.00 0.00 0.00 0.00 0.00 0.00 0.00 0.00 0.00 0.00 0.00 0.00 0.00 0.00 0.00 0.00 0.00 0.00 0.00 0.00
0.00 0.00 0.00 0.00 0.00 0.00 0.00 0.00 0.00 0.00 0.00 0.00 0.00 0.00 0.00 0.00 0.00 0.00 0.00 0.00 0.00 0.00 0.00 0.00 0.00 0.00 0.01 0.02 0.03 0.02 0.00 0.00 0.00 0.00 0.00 0.00 0.00 0.00 0.00 0.00 0.00 0.00 0.00
0.00 0.00 0.00 0.00 0.00 0.00 0.00 0.00 0.00 0.00 0.00 0.00 0.00 0.00 0.00 0.00 0.00 0.00 0.00 0.00 0.00 0.00 0.00 0.00 0.00 0.00 0.00 0.00 0.01 0.06 0.07 0.02 0.00 0.00 0.00 0.00 0.00 0.00 0.00 0.00 0.00 0.00 0.00
0.00 0.00 0.00 0.00 0.00 0.00 0.00 0.00 0.00 0.00 0.00 0.00 0.00 0.00 0.00 0.00 0.00 0.00 0.00 0.00 0.00 0.00 0.00 0.00 0.00 0.00 0.00 0.00 0.01 0.06 0.14 0.13 0.03 0.00 0.00 0.00 0.00 0.00 0.00 0.00 0.00 0.00 0.00
0.00 0.00 0.00 0.00 0.00 0.00 0.00 0.00 0.00 0.00 0.00 0.01 0.01 0.00 0.01 0.01 0.00 0.00 0.00 0.02 0.01 0.00 0.00 0.00 0.00 0.00 0.00 0.00 0.00 0.01 0.07 0.15 0.12 0.09 0.03 0.00 0.00 0.00 0.00 0.00 0.00 0.00 0.00
0.02 0.01 0.00 0.00 0.01 0.00 0.00 0.01 0.02 0.03 0.01 0.01 0.02 0.00 0.02 0.01 0.00 0.00 0.01 0.01 0.01 0.01 0.00 0.00 0.00 0.00 0.00 0.00 0.00 0.00 0.01 0.07 0.16 0.18 0.16 0.13 0.05 0.00 0.00 0.00 0.00 0.00 0.00
0.09 0.06 0.03 0.01 0.01 0.01 0.01 0.03 0.05 0.13 0.14 0.19 0.16 0.02 0.01 0.00 0.00 0.00 0.00 0.00 0.00 0.00 0.00 0.00 0.00 0.00 0.00 0.00 0.00 0.00 0.02 0.04 0.10 0.20 0.23 0.23 0.23 0.13 0.07 0.03 0.00 0.00 0.00
0.04 0.06 0.05 0.04 0.05 0.04 0.04 0.06 0.12 0.15 0.11 0.17 0.19 0.06 0.01 0.00 0.00 0.00 0.00 0.00 0.00 0.00 0.00 0.00 0.00 0.00 0.00 0.00 0.00 0.00 0.01 0.03 0.07 0.20 0.31 0.27 0.30 0.40 0.46 0.40 0.11 0.01 0.01
0.02 0.03 0.03 0.01 0.01 0.03 0.03 0.06 0.10 0.15 0.16 0.13 0.12 0.10 0.03 0.00 0.00 0.00 0.00 0.00 0.00 0.00 0.00 0.01 0.01 0.00 0.00 0.00 0.00 0.00 0.01 0.02 0.02 0.06 0.21 0.45 0.58 0.57 0.43 0.31 0.14 0.04 0.02
0.00 0.00 0.00 0.00 0.01 0.01 0.01 0.01 0.03 0.07 0.09 0.07 0.09 0.06 0.07 0.05 0.04 0.02 0.00 0.00 0.00 0.00 0.01 0.01 0.01 0.00 0.00 0.00 0.01 0.02 0.03 0.04 0.06 0.10 0.14 0.30 0.66 0.72 0.52 0.37 0.35 0.26 0.11
0.00 0.00 0.00 0.00 0.01 0.02 0.02 0.02 0.02 0.04 0.06 0.11 0.08 0.09 0.09 0.10 0.06 0.07 0.06 0.03 0.03 0.03 0.02 0.01 0.01 0.01 0.01 0.02 0.03 0.05 0.08 0.07 0.09 0.13 0.17 0.20 0.35 0.63 0.87 0.84 0.67 0.58 0.42
0.00 0.00 0.00 0.00 0.01 0.03 0.04 0.04 0.05 0.07 0.08 0.10 0.10 0.10 0.11 0.12 0.10 0.09 0.12 0.10 0.09 0.09 0.08 0.07 0.05 0.04 0.03 0.05 0.11 0.17 0.22 0.23 0.29 0.36 0.41 0.41 0.43 0.52 0.62 0.62 0.65 0.70 0.78
0.00 0.00 0.00 0.00 0.01 0.01 0.01 0.01 0.02 0.04 0.05 0.06 0.06 0.06 0.11 0.13 0.18 0.20 0.19 0.17 0.13 0.10 0.07 0.05 0.05 0.06 0.06 0.07 0.11 0.21 0.26 0.29 0.31 0.36 0.44 0.54 0.62 0.57 0.57 0.80 1.21 1.21 1.17
0.00 0.00 0.00 0.00 0.00 0.00 0.00 0.00 0.01 0.01 0.02 0.03 0.05 0.05 0.06 0.06 0.13 0.17 0.18 0.17 0.15 0.07 0.06 0.07 0.08 0.11 0.13 0.15 0.19 0.26 0.26 0.34 0.40 0.50 0.62 0.73 0.81 0.77 0.70 0.77 0.80 0.61 0.53
0.00 0.00 0.00 0.00 0.00 0.00 0.00 0.00 0.00 0.00 0.00 0.01 0.02 0.02 0.02 0.02 0.04 0.05 0.06 0.08 0.15 0.13 0.05 0.01 0.01 0.05 0.11 0.18 0.25 0.31 0.33 0.42 0.58 0.70 0.76 0.84 0.74 0.76 0.67 0.62 0.63 0.40 0.37
0.00 0.00 0.00 0.00 0.00 0.00 0.00 0.00 0.00 0.00 0.00 0.00 0.00 0.01 0.01 0.02 0.02 0.05 0.09 0.12 0.13 0.14 0.14 0.08 0.06 0.09 0.13 0.17 0.23 0.24 0.36 0.51 0.55 0.61 0.69 0.57 0.51 0.45 0.38 0.37 0.36 0.34 0.31
0.00 0.00 0.00 0.00 0.00 0.00 0.00 0.00 0.00 0.00 0.00 0.00 0.00 0.00 0.00 0.00 0.01 0.01 0.04 0.08 0.11 0.14 0.15 0.13 0.15 0.16 0.16 0.20 0.25 0.26 0.29 0.27 0.31 0.39 0.36 0.34 0.27 0.21 0.18 0.16 0.14 0.12 0.12
0.00 0.00 0.00 0.00 0.00 0.00 0.00 0.00 0.00 0.00 0.00 0.00 0.00 0.00 0.00 0.00 0.00 0.01 0.02 0.07 0.13 0.19 0.26 0.27 0.23 0.22 0.24 0.27 0.27 0.24 0.23 0.23 0.22 0.27 0.22 0.14 0.12 0.11 0.12 0.12 0.09 0.07 0.05
0.00 0.00 0.00 0.00 0.00 0.00 0.00 0.00 0.00 0.00 0.00 0.00 0.00 0.00 0.00 0.00 0.00 0.00 0.00 0.00 0.02 0.04 0.07 0.06 0.08 0.15 0.20 0.24 0.27 0.27 0.25 0.19 0.14 0.14 0.10 0.08 0.08 0.08 0.07 0.06 0.05 0.04 0.04
0.00 0.00 0.00 0.00 0.00 0.00 0.00 0.00 0.00 0.00 0.00 0.00 0.00 0.00 0.00 0.00 0.00 0.00 0.00 0.00 0.00 0.01 0.04 0.08 0.11 0.09 0.09 0.09 0.08 0.08 0.07 0.04 0.02 0.01 0.00 0.00 0.00 0.00 0.00 0.00 0.00 0.00 0.00
0.00 0.00 0.00 0.00 0.00 0.00 0.00 0.00 0.00 0.00 0.00 0.00 0.00 0.00 0.00 0.01 0.01 0.01 0.00 0.01 0.03 0.03 0.01 0.01 0.03 0.04 0.04 0.03 0.03 0.02 0.02 0.00 0.00 0.00 0.00 0.00 0.00 0.00 0.00 0.00 0.00 0.00 0.00
0.00 0.00 0.00 0.00 0.00 0.00 0.03 0.01 0.00 0.00 0.00 0.00 0.00 0.00 0.00 0.01 0.02 0.04 0.04 0.02 0.01 0.00 0.00 0.01 0.01 0.01 0.00 0.00 0.00 0.00 0.00 0.00 0.00 0.00 0.00 0.00 0.00 0.00 0.00 0.00 0.00 0.00 0.00
0.00 0.00 0.00 0.00 0.00 0.00 0.02 0.01 0.00 0.00 0.00 0.00 0.00 0.00 0.00 0.00 0.01 0.01 0.02 0.01 0.01 0.01 0.01 0.00 0.00 0.00 0.00 0.00 0.00 0.00 0.00 0.00 0.00 0.00 0.00 0.00 0.00 0.00 0.00 0.00 0.00 0.00 0.00
0.00 0.00 0.00 0.00 0.00 0.00 0.01 0.00 0.00 0.00 0.00 0.00 0.00 0.00 0.00 0.00 0.00 0.00 0.00 0.00 0.00 0.00 0.00 0.00 0.00 0.00 0.00 0.00 0.00 0.00 0.00 0.00 0.00 0.00 0.00 0.00 0.00 0.00 0.00 0.00 0.00 0.00 0.00
0.00 0.00 0.00 0.00 0.00 0.00 0.00 0.00 0.00 0.00 0.00 0.00 0.00 0.00 0.00 0.00 0.00 0.00 0.00 0.00 0.00 0.00 0.00 0.00 0.00 0.00 0.00 0.00 0.00 0.00 0.00 0.00 0.00 0.00 0.00 0.00 0.00 0.00 0.00 0.00 0.00 0.00 0.00
0.00 0.00 0.00 0.00 0.00 0.00 0.00 0.00 0.00 0.00 0.00 0.00 0.00 0.00 0.00 0.00 0.00 0.00 0.00 0.00 0.00 0.00 0.00 0.00 0.00 0.00 0.00 0.00 0.00 0.00 0.00 0.00 0.00 0.00 0.00 0.00 0.00 0.00 0.00 0.00 0.00 0.00 0.00

GFSMA_prec_precacc24_066.txt.gz
Total_Precipitation_Accumulation
0.00 0.00 0.00 0.00 0.00 0.00 0.00 0.00 0.00 0.00 0.00 0.00 0.00 0.00 0.00 0.00 0.00 0.00 0.00 0.00 0.00 0.00 0.00 0.00 0.01 0.01 0.01 0.01 0.00 0.00 0.00 0.00 0.00 0.00 0.00 0.00 0.00 0.00 0.00 0.00 0.00 0.00 0.00
0.00 0.00 0.00 0.00 0.00 0.00 0.00 0.00 0.00 0.00 0.00 0.00 0.00 0.00 0.00 0.00 0.00 0.00 0.00 0.00 0.00 0.00 0.00 0.00 0.00 0.00 0.01 0.04 0.06 0.06 0.02 0.00 0.00 0.00 0.00 0.00 0.00 0.00 0.00 0.00 0.00 0.00 0.00
0.00 0.00 0.00 0.00 0.00 0.00 0.00 0.00 0.00 0.00 0.00 0.00 0.00 0.00 0.00 0.00 0.00 0.00 0.00 0.00 0.00 0.00 0.00 0.00 0.00 0.00 0.00 0.00 0.02 0.08 0.15 0.11 0.02 0.00 0.00 0.00 0.00 0.00 0.00 0.00 0.00 0.00 0.00
0.00 0.00 0.00 0.00 0.00 0.00 0.00 0.00 0.00 0.00 0.00 0.00 0.00 0.00 0.00 0.00 0.00 0.00 0.00 0.00 0.00 0.00 0.00 0.00 0.00 0.00 0.00 0.00 0.01 0.06 0.17 0.23 0.12 0.05 0.02 0.00 0.00 0.00 0.00 0.00 0.00 0.00 0.00
0.00 0.00 0.00 0.00 0.00 0.00 0.00 0.00 0.00 0.00 0.00 0.01 0.01 0.00 0.01 0.01 0.00 0.00 0.00 0.02 0.01 0.00 0.00 0.00 0.00 0.00 0.00 0.00 0.00 0.01 0.07 0.16 0.16 0.16 0.14 0.07 0.01 0.00 0.00 0.00 0.00 0.00 0.00
0.00 0.00 0.00 0.00 0.00 0.00 0.00 0.01 0.02 0.02 0.01 0.01 0.02 0.01 0.02 0.01 0.00 0.00 0.01 0.01 0.01 0.01 0.00 0.00 0.00 0.00 0.00 0.00 0.00 0.00 0.01 0.07 0.16 0.21 0.21 0.25 0.20 0.05 0.01 0.00 0.00 0.00 0.00
0.04 0.01 0.00 0.00 0.01 0.01 0.01 0.02 0.04 0.07 0.09 0.14 0.11 0.02 0.01 0.00 0.00 0.00 0.00 0.00 0.00 0.00 0.00 0.00 0.00 0.00 0.00 0.00 0.00 0.00 0.02 0.04 0.10 0.20 0.23 0.24 0.28 0.22 0.19 0.12 0.02 0.01 0.00
0.03 0.03 0.03 0.03 0.02 0.01 0.01 0.03 0.04 0.05 0.05 0.12 0.13 0.05 0.01 0.00 0.00 0.00 0.00 0.00 0.00 0.00 0.00 0.00 0.00 0.00 0.00 0.00 0.00 0.00 0.01 0.03 0.07 0.20 0.31 0.27 0.30 0.40 0.50 0.55 0.31 0.05 0.01
0.02 0.02 0.02 0.01 0.00 0.02 0.01 0.02 0.04 0.06 0.09 0.07 0.07 0.08 0.02 0.00 0.00 0.00 0.00 0.00 0.00 0.00 0.00 0.00 0.00 0.00 0.00 0.00 0.00 0.00 0.01 0.02 0.02 0.06 0.21 0.45 0.58 0.57 0.43 0.32 0.19 0.13 0.05
0.03 0.02 0.00 0.00 0.00 0.00 0.00 0.00 0.00 0.01 0.03 0.02 0.03 0.03 0.04 0.03 0.04 0.02 0.00 0.00 0.00 0.00 0.01 0.01 0.00 0.00 0.00 0.00 0.01 0.02 0.03 0.04 0.06 0.10 0.14 0.30 0.66 0.72 0.53 0.38 0.37 0.33 0.24
0.14 0.09 0.05 0.01 0.00 0.00 0.00 0.00 0.00 0.00 0.01 0.04 0.02 0.03 0.04 0.06 0.04 0.06 0.05 0.02 0.01 0.01 0.01 0.01 0.01 0.00 0.01 0.01 0.02 0.05 0.08 0.07 0.09 0.13 0.17 0.20 0.35 0.63 0.88 0.84 0.67 0.59 0.54
0.05 0.04 0.02 0.00 0.00 0.00 0.01 0.01 0.01 0.02 0.03 0.04 0.03 0.04 0.04 0.03 0.02 0.03 0.04 0.02 0.02 0.06 0.07 0.07 0.05 0.03 0.02 0.03 0.07 0.14 0.21 0.23 0.30 0.37 0.41 0.42 0.44 0.53 0.62 0.62 0.65 0.70 0.79
0.01 0.00 0.00 0.00 0.00 0.00 0.00 0.00 0.01 0.02 0.02 0.03 0.03 0.03 0.04 0.04 0.03 0.04 0.03 0.03 0.02 0.02 0.01 0.02 0.03 0.02 0.01 0.02 0.07 0.18 0.24 0.28 0.31 0.37 0.46 0.55 0.60 0.54 0.54 0.75 1.17 1.20 1.17
0.00 0.00 0.00 0.00 0.00 0.00 0.00 0.00 0.01 0.01 0.01 0.02 0.03 0.03 0.04 0.04 0.04 0.06 0.06 0.06 0.05 0.01 0.01 0.03 0.07 0.08 0.08 0.07 0.07 0.13 0.15 0.22 0.30 0.42 0.55 0.64 0.70 0.68 0.62 0.72 0.75 0.59 0.53
0.00 0.00 0.00 0.00 0.00 0.00 0.00 0.00 0.00 0.00 0.00 0.01 0.01 0.01 0.01 0.02 0.02 0.03 0.04 0.04 0.07 0.05 0.02 0.01 0.01 0.02 0.05 0.10 0.13 0.13 0.12 0.18 0.30 0.41 0.47 0.55 0.48 0.55 0.53 0.54 0.57 0.38 0.37
0.00 0.00 0.00 0.00 0.00 0.00 0.00 0.00 0.00 0.00 0.00 0.00 0.00 0.00 0.01 0.01 0.01 0.01 0.01 0.02 0.02 0.02 0.01 0.01 0.03 0.03 0.04 0.06 0.10 0.12 0.15 0.24 0.30 0.39 0.48 0.37 0.34 0.33 0.31 0.33 0.34 0.33 0.31
0.00 0.00 0.00 0.00 0.00 0.00 0.00 0.00 0.00 0.00 0.00 0.00 0.00 0.00 0.00 0.00 0.00 0.00 0.01 0.01 0.01 0.01 0.01 0.03 0.11 0.11 0.10 0.10 0.12 0.12 0.16 0.18 0.22 0.29 0.26 0.24 0.21 0.18 0.17 0.16 0.14 0.12 0.12
0.00 0.00 0.00 0.00 0.00 0.00 0.00 0.00 0.00 0.00 0.00 0.00 0.00 0.00 0.00 0.00 0.00 0.00 0.00 0.00 0.00 0.00 0.00 0.04 0.09 0.11 0.12 0.14 0.14 0.14 0.16 0.16 0.18 0.22 0.17 0.12 0.12 0.11 0.12 0.12 0.09 0.07 0.05
0.00 0.00 0.00 0.00 0.00 0.00 0.00 0.00 0.00 0.00 0.00 0.00 0.00 0.00 0.00 0.00 0.00 0.00 0.00 0.00 0.00 0.00 0.00 0.00 0.01 0.04 0.06 0.11 0.16 0.18 0.18 0.16 0.13 0.13 0.09 0.08 0.08 0.08 0.07 0.06 0.05 0.04 0.04
0.00 0.00 0.00 0.00 0.00 0.00 0.00 0.00 0.00 0.00 0.00 0.00 0.00 0.00 0.00 0.00 0.00 0.00 0.00 0.00 0.00 0.00 0.01 0.00 0.00 0.00 0.01 0.02 0.03 0.04 0.05 0.03 0.02 0.01 0.00 0.00 0.00 0.00 0.00 0.00 0.00 0.00 0.00
0.00 0.00 0.00 0.00 0.00 0.00 0.00 0.00 0.00 0.00 0.00 0.00 0.00 0.00 0.00 0.01 0.01 0.01 0.00 0.00 0.00 0.02 0.00 0.00 0.00 0.00 0.01 0.01 0.02 0.02 0.02 0.00 0.00 0.00 0.00 0.00 0.00 0.00 0.00 0.00 0.00 0.00 0.00
0.00 0.00 0.00 0.00 0.00 0.00 0.02 0.01 0.00 0.00 0.00 0.00 0.00 0.00 0.00 0.01 0.02 0.02 0.02 0.01 0.01 0.00 0.00 0.00 0.00 0.00 0.00 0.00 0.00 0.00 0.00 0.00 0.00 0.00 0.00 0.00 0.00 0.00 0.00 0.00 0.00 0.00 0.00
0.00 0.00 0.00 0.00 0.00 0.00 0.02 0.01 0.01 0.00 0.00 0.00 0.00 0.00 0.00 0.00 0.00 0.00 0.00 0.00 0.00 0.00 0.00 0.00 0.00 0.00 0.00 0.00 0.00 0.00 0.00 0.00 0.00 0.00 0.00 0.00 0.00 0.00 0.00 0.00 0.00 0.00 0.00
0.00 0.00 0.00 0.00 0.00 0.00 0.01 0.00 0.00 0.00 0.00 0.00 0.00 0.00 0.00 0.00 0.00 0.00 0.00 0.00 0.00 0.00 0.00 0.00 0.00 0.00 0.00 0.00 0.00 0.00 0.00 0.00 0.00 0.00 0.00 0.00 0.00 0.00 0.00 0.00 0.00 0.00 0.00
0.00 0.00 0.00 0.00 0.00 0.00 0.00 0.00 0.00 0.00 0.00 0.00 0.00 0.00 0.00 0.00 0.00 0.00 0.00 0.00 0.00 0.00 0.00 0.00 0.00 0.00 0.00 0.00 0.00 0.00 0.00 0.00 0.00 0.00 0.00 0.00 0.00 0.00 0.00 0.00 0.00 0.00 0.00
0.00 0.00 0.00 0.00 0.00 0.00 0.00 0.00 0.00 0.00 0.00 0.00 0.00 0.00 0.00 0.00 0.00 0.00 0.00 0.00 0.00 0.00 0.00 0.00 0.00 0.00 0.00 0.00 0.00 0.00 0.00 0.00 0.00 0.00 0.00 0.00 0.00 0.00 0.00 0.00 0.00 0.00 0.00

GFSMA_prec_precacc24_069.txt.gz
Total_Precipitation_Accumulation
0.00 0.00 0.00 0.00 0.00 0.00 0.00 0.00 0.00 0.00 0.00 0.00 0.00 0.00 0.00 0.00 0.00 0.00 0.00 0.00 0.00 0.00 0.00 0.00 0.01 0.02 0.03 0.02 0.02 0.01 0.00 0.00 0.00 0.00 0.00 0.00 0.00 0.00 0.00 0.00 0.00 0.00 0.00
0.00 0.00 0.00 0.00 0.00 0.00 0.00 0.00 0.00 0.00 0.00 0.00 0.00 0.00 0.00 0.00 0.00 0.00 0.00 0.00 0.00 0.00 0.00 0.00 0.00 0.00 0.02 0.05 0.09 0.11 0.07 0.02 0.00 0.00 0.00 0.00 0.00 0.00 0.00 0.00 0.00 0.00 0.00
0.00 0.00 0.00 0.00 0.00 0.00 0.00 0.00 0.00 0.00 0.00 0.00 0.00 0.00 0.00 0.00 0.00 0.00 0.00 0.00 0.00 0.00 0.00 0.00 0.00 0.00 0.00 0.00 0.02 0.10 0.20 0.17 0.08 0.05 0.01 0.00 0.00 0.00 0.00 0.00 0.00 0.00 0.00
0.00 0.00 0.00 0.00 0.00 0.00 0.00 0.00 0.00 0.00 0.00 0.00 0.00 0.00 0.00 0.00 0.00 0.00 0.00 0.00 0.00 0.00 0.00 0.00 0.00 0.00 0.00 0.00 0.01 0.06 0.17 0.24 0.15 0.11 0.11 0.03 0.00 0.00 0.00 0.00 0.00 0.00 0.00
0.00 0.00 0.00 0.00 0.00 0.00 0.00 0.00 0.00 0.00 0.00 0.01 0.01 0.00 0.01 0.01 0.00 0.00 0.00 0.02 0.01 0.00 0.00 0.00 0.00 0.00 0.00 0.00 0.00 0.01 0.07 0.16 0.16 0.16 0.18 0.16 0.08 0.01 0.00 0.00 0.00 0.00 0.00
0.00 0.00 0.00 0.00 0.00 0.00 0.00 0.01 0.02 0.02 0.01 0.01 0.02 0.01 0.02 0.01 0.00 0.00 0.01 0.01 0.01 0.01 0.00 0.00 0.00 0.00 0.00 0.00 0.00 0.00 0.01 0.07 0.16 0.21 0.22 0.27 0.30 0.17 0.08 0.01 0.00 0.00 0.00
0.00 0.00 0.00 0.00 0.00 0.01 0.00 0.01 0.01 0.01 0.02 0.06 0.04 0.00 0.00 0.00 0.00 0.00 0.00 0.00 0.00 0.00 0.00 0.00 0.00 0.00 0.00 0.00 0.00 0.00 0.02 0.04 0.10 0.20 0.23 0.24 0.28 0.24 0.29 0.27 0.10 0.02 0.01
0.01 0.01 0.01 0.01 0.01 0.01 0.01 0.01 0.02 0.03 0.02 0.03 0.05 0.02 0.01 0.00 0.00 0.00 0.00 0.00 0.00 0.00 0.00 0.00 0.00 0.00 0.00 0.00 0.00 0.00 0.01 0.03 0.07 0.20 0.32 0.28 0.30 0.40 0.50 0.58 0.41 0.18 0.06
0.04 0.04 0.03 0.03 0.03 0.04 0.02 0.02 0.03 0.05 0.06 0.02 0.02 0.03 0.02 0.00 0.00 0.00 0.00 0.00 0.00 0.00 0.00 0.00 0.00 0.00 0.00 0.00 0.00 0.00 0.01 0.02 0.02 0.06 0.21 0.45 0.58 0.57 0.43 0.33 0.20 0.18 0.16
0.19 0.18 0.14 0.11 0.08 0.04 0.01 0.00 0.00 0.00 0.01 0.01 0.01 0.00 0.01 0.03 0.04 0.01 0.00 0.00 0.00 0.00 0.00 0.00 0.00 0.00 0.00 0.00 0.00 0.02 0.03 0.04 0.06 0.10 0.14 0.30 0.66 0.72 0.53 0.39 0.38 0.34 0.30
0.33 0.29 0.26 0.13 0.07 0.03 0.02 0.01 0.00 0.00 0.00 0.01 0.01 0.01 0.01 0.01 0.01 0.03 0.01 0.00 0.00 0.00 0.00 0.00 0.00 0.00 0.00 0.01 0.02 0.03 0.05 0.04 0.07 0.13 0.16 0.20 0.35 0.63 0.88 0.84 0.67 0.59 0.55
0.13 0.10 0.06 0.02 0.00 0.00 0.00 0.00 0.00 0.00 0.01 0.03 0.02 0.02 0.02 0.01 0.00 0.00 0.01 0.00 0.00 0.00 0.00 0.00 0.00 0.00 0.00 0.01 0.04 0.07 0.10 0.10 0.15 0.25 0.33 0.39 0.44 0.54 0.63 0.62 0.63 0.68 0.78
0.05 0.02 0.01 0.00 0.00 0.00 0.00 0.00 0.01 0.02 0.02 0.03 0.03 0.03 0.04 0.04 0.03 0.03 0.02 0.02 0.01 0.01 0.01 0.01 0.00 0.00 0.00 0.00 0.01 0.05 0.09 0.09 0.16 0.26 0.39 0.47 0.52 0.51 0.54 0.73 1.11 1.12 1.08
0.02 0.02 0.01 0.00 0.00 0.00 0.00 0.00 0.01 0.01 0.01 0.02 0.03 0.03 0.04 0.04 0.04 0.06 0.06 0.04 0.04 0.01 0.01 0.01 0.01 0.00 0.00 0.00 0.00 0.03 0.06 0.11 0.16 0.27 0.41 0.53 0.59 0.58 0.56 0.65 0.65 0.47 0.41
0.02 0.00 0.00 0.00 0.00 0.00 0.00 0.00 0.00 0.00 0.00 0.01 0.01 0.01 0.01 0.01 0.02 0.03 0.04 0.04 0.06 0.05 0.03 0.01 0.01 0.01 0.01 0.00 0.00 0.01 0.05 0.12 0.23 0.33 0.37 0.44 0.34 0.42 0.42 0.43 0.46 0.26 0.26
0.00 0.00 0.00 0.00 0.00 0.00 0.00 0.00 0.00 0.00 0.00 0.00 0.00 0.00 0.00 0.00 0.00 0.00 0.01 0.02 0.02 0.03 0.03 0.02 0.01 0.01 0.00 0.00 0.02 0.04 0.09 0.17 0.25 0.32 0.40 0.28 0.25 0.24 0.23 0.25 0.28 0.27 0.27
0.00 0.00 0.00 0.00 0.00 0.00 0.00 0.00 0.00 0.00 0.00 0.00 0.00 0.00 0.00 0.00 0.00 0.00 0.00 0.00 0.00 0.00 0.01 0.00 0.00 0.00 0.00 0.01 0.03 0.06 0.11 0.13 0.18 0.21 0.17 0.17 0.16 0.13 0.12 0.12 0.12 0.11 0.12
0.00 0.00 0.00 0.00 0.00 0.00 0.00 0.00 0.00 0.00 0.00 0.00 0.00 0.00 0.00 0.00 0.00 0.00 0.00 0.00 0.00 0.00 0.00 0.00 0.00 0.00 0.00 0.00 0.02 0.04 0.07 0.09 0.10 0.12 0.10 0.08 0.07 0.08 0.11 0.12 0.09 0.07 0.05
0.00 0.00 0.00 0.00 0.00 0.00 0.00 0.00 0.00 0.00 0.00 0.00 0.00 0.00 0.00 0.00 0.00 0.00 0.00 0.00 0.00 0.00 0.00 0.00 0.00 0.00 0.00 0.00 0.00 0.02 0.05 0.06 0.08 0.09 0.07 0.07 0.07 0.08 0.07 0.06 0.05 0.04 0.04
0.00 0.00 0.00 0.00 0.00 0.00 0.00 0.00 0.00 0.00 0.00 0.00 0.00 0.00 0.00 0.00 0.00 0.00 0.00 0.00 0.00 0.00 0.00 0.00 0.00 0.00 0.00 0.00 0.00 0.01 0.01 0.01 0.00 0.01 0.00 0.00 0.00 0.00 0.00 0.00 0.00 0.00 0.00
0.00 0.00 0.00 0.00 0.00 0.00 0.00 0.00 0.00 0.00 0.00 0.00 0.00 0.00 0.00 0.01 0.02 0.01 0.00 0.00 0.00 0.00 0.00 0.00 0.00 0.00 0.00 0.00 0.00 0.00 0.00 0.00 0.00 0.00 0.00 0.00 0.00 0.00 0.00 0.00 0.00 0.00 0.00
0.00 0.00 0.00 0.00 0.00 0.00 0.02 0.01 0.00 0.00 0.00 0.00 0.00 0.00 0.00 0.01 0.01 0.02 0.01 0.01 0.00 0.00 0.00 0.00 0.00 0.00 0.00 0.00 0.00 0.00 0.00 0.00 0.00 0.00 0.00 0.00 0.00 0.00 0.00 0.00 0.00 0.00 0.00
0.00 0.00 0.00 0.00 0.00 0.00 0.02 0.01 0.01 0.00 0.00 0.00 0.00 0.00 0.00 0.00 0.00 0.00 0.00 0.00 0.00 0.00 0.00 0.00 0.00 0.00 0.00 0.00 0.00 0.00 0.00 0.00 0.00 0.00 0.00 0.00 0.00 0.00 0.00 0.00 0.00 0.00 0.00
0.00 0.00 0.00 0.00 0.00 0.00 0.01 0.00 0.00 0.00 0.00 0.00 0.00 0.00 0.00 0.00 0.00 0.00 0.00 0.00 0.00 0.00 0.00 0.00 0.00 0.00 0.00 0.00 0.00 0.00 0.00 0.00 0.00 0.00 0.00 0.00 0.00 0.00 0.00 0.00 0.00 0.00 0.00
0.00 0.00 0.00 0.00 0.00 0.00 0.00 0.00 0.00 0.00 0.00 0.00 0.00 0.00 0.00 0.00 0.00 0.00 0.00 0.00 0.00 0.00 0.00 0.00 0.00 0.00 0.00 0.00 0.00 0.00 0.00 0.00 0.00 0.00 0.00 0.00 0.00 0.00 0.00 0.00 0.00 0.00 0.00
0.00 0.00 0.00 0.00 0.00 0.00 0.00 0.00 0.00 0.00 0.00 0.00 0.00 0.00 0.00 0.00 0.00 0.00 0.00 0.00 0.00 0.00 0.00 0.00 0.00 0.00 0.00 0.00 0.00 0.00 0.00 0.00 0.00 0.00 0.00 0.00 0.00 0.00 0.00 0.00 0.00 0.00 0.00

GFSMA_prec_precacc24_072.txt.gz
Total_Precipitation_Accumulation
0.00 0.00 0.00 0.00 0.00 0.00 0.00 0.00 0.00 0.00 0.00 0.00 0.00 0.00 0.00 0.00 0.00 0.00 0.00 0.00 0.00 0.00 0.00 0.00 0.01 0.03 0.05 0.04 0.04 0.03 0.02 0.01 0.00 0.00 0.00 0.00 0.00 0.00 0.00 0.00 0.00 0.00 0.00
0.00 0.00 0.00 0.00 0.00 0.00 0.00 0.00 0.00 0.00 0.00 0.00 0.00 0.00 0.00 0.00 0.00 0.00 0.00 0.00 0.00 0.00 0.00 0.00 0.00 0.00 0.02 0.06 0.10 0.13 0.10 0.06 0.03 0.01 0.00 0.00 0.00 0.00 0.00 0.00 0.00 0.00 0.00
0.00 0.00 0.00 0.00 0.00 0.00 0.00 0.00 0.00 0.00 0.00 0.00 0.00 0.00 0.00 0.00 0.00 0.00 0.00 0.00 0.00 0.00 0.00 0.00 0.00 0.00 0.00 0.01 0.02 0.10 0.21 0.17 0.10 0.11 0.06 0.00 0.00 0.00 0.00 0.00 0.00 0.00 0.00
0.00 0.00 0.00 0.00 0.00 0.00 0.00 0.00 0.00 0.00 0.00 0.00 0.00 0.00 0.00 0.00 0.00 0.00 0.00 0.00 0.00 0.00 0.00 0.00 0.00 0.00 0.00 0.00 0.01 0.06 0.18 0.24 0.15 0.12 0.15 0.11 0.01 0.00 0.00 0.00 0.00 0.00 0.00
0.00 0.00 0.00 0.00 0.00 0.00 0.00 0.00 0.00 0.00 0.00 0.01 0.01 0.00 0.01 0.01 0.00 0.00 0.00 0.02 0.01 0.00 0.00 0.00 0.00 0.00 0.00 0.00 0.00 0.01 0.07 0.16 0.16 0.16 0.18 0.18 0.13 0.05 0.01 0.00 0.00 0.00 0.00
0.00 0.00 0.00 0.00 0.00 0.00 0.00 0.01 0.01 0.02 0.01 0.01 0.01 0.00 0.00 0.00 0.00 0.00 0.00 0.01 0.01 0.01 0.00 0.00 0.00 0.00 0.00 0.00 0.00 0.00 0.01 0.06 0.16 0.21 0.22 0.27 0.30 0.20 0.17 0.10 0.02 0.00 0.00
0.02 0.00 0.00 0.00 0.00 0.01 0.00 0.01 0.01 0.01 0.01 0.02 0.01 0.00 0.00 0.00 0.00 0.00 0.00 0.00 0.00 0.00 0.00 0.00 0.00 0.00 0.00 0.00 0.00 0.00 0.02 0.04 0.10 0.20 0.23 0.24 0.28 0.24 0.29 0.33 0.21 0.08 0.02
0.02 0.02 0.01 0.01 0.01 0.01 0.01 0.02 0.02 0.04 0.02 0.02 0.04 0.02 0.01 0.00 0.00 0.00 0.00 0.00 0.00 0.00 0.00 0.00 0.00 0.00 0.00 0.00 0.00 0.00 0.01 0.02 0.07 0.19 0.31 0.28 0.30 0.40 0.50 0.58 0.42 0.23 0.16
0.07 0.09 0.07 0.07 0.06 0.11 0.11 0.08 0.04 0.06 0.05 0.02 0.01 0.02 0.01 0.00 0.00 0.00 0.00 0.00 0.00 0.00 0.00 0.00 0.00 0.00 0.00 0.00 0.00 0.00 0.00 0.02 0.02 0.05 0.20 0.45 0.58 0.57 0.43 0.33 0.20 0.19 0.20
0.22 0.29 0.33 0.35 0.32 0.30 0.17 0.08 0.02 0.00 0.01 0.00 0.00 0.00 0.01 0.02 0.02 0.01 0.00 0.00 0.00 0.00 0.00 0.00 0.00 0.00 0.00 0.00 0.00 0.00 0.02 0.03 0.06 0.09 0.14 0.29 0.65 0.72 0.53 0.40 0.38 0.35 0.30
0.47 0.45 0.46 0.36 0.23 0.10 0.05 0.03 0.02 0.00 0.00 0.01 0.01 0.00 0.01 0.01 0.01 0.02 0.01 0.00 0.00 0.00 0.00 0.00 0.00 0.00 0.00 0.00 0.00 0.00 0.00 0.00 0.01 0.07 0.13 0.16 0.26 0.52 0.83 0.82 0.66 0.59 0.56
0.22 0.22 0.16 0.10 0.04 0.02 0.01 0.00 0.00 0.00 0.00 0.02 0.02 0.02 0.01 0.00 0.00 0.00 0.01 0.00 0.00 0.00 0.00 0.00 0.00 0.00 0.00 0.00 0.00 0.00 0.00 0.00 0.02 0.10 0.19 0.23 0.27 0.36 0.49 0.50 0.57 0.65 0.77
0.16 0.15 0.11 0.05 0.02 0.01 0.01 0.00 0.00 0.00 0.01 0.02 0.02 0.03 0.04 0.04 0.02 0.03 0.02 0.02 0.01 0.01 0.01 0.01 0.00 0.00 0.00 0.00 0.00 0.00 0.00 0.00 0.02 0.08 0.17 0.26 0.33 0.33 0.39 0.62 0.99 1.00 1.00
0.19 0.26 0.30 0.15 0.03 0.00 0.00 0.00 0.01 0.01 0.01 0.02 0.03 0.03 0.03 0.03 0.03 0.05 0.05 0.05 0.04 0.01 0.01 0.01 0.01 0.01 0.01 0.01 0.01 0.01 0.00 0.00 0.03 0.08 0.17 0.30 0.43 0.51 0.52 0.62 0.62 0.42 0.34
0.09 0.07 0.04 0.02 0.00 0.00 0.00 0.00 0.00 0.00 0.00 0.01 0.01 0.01 0.01 0.01 0.02 0.03 0.04 0.05 0.07 0.05 0.03 0.02 0.02 0.01 0.01 0.01 0.02 0.00 0.00 0.01 0.04 0.11 0.15 0.25 0.20 0.34 0.38 0.39 0.41 0.20 0.20
0.01 0.00 0.00 0.00 0.00 0.00 0.00 0.00 0.00 0.00 0.00 0.00 0.00 0.00 0.00 0.00 0.00 0.00 0.00 0.01 0.02 0.04 0.05 0.03 0.02 0.02 0.01 0.01 0.03 0.01 0.00 0.01 0.03 0.12 0.21 0.13 0.13 0.17 0.17 0.21 0.24 0.24 0.22
0.00 0.00 0.00 0.00 0.00 0.00 0.00 0.00 0.00 0.00 0.00 0.00 0.00 0.00 0.00 0.00 0.00 0.00 0.00 0.00 0.00 0.01 0.02 0.02 0.01 0.01 0.00 0.00 0.00 0.00 0.00 0.01 0.03 0.08 0.07 0.08 0.07 0.06 0.06 0.08 0.07 0.07 0.10
0.00 0.00 0.00 0.00 0.00 0.00 0.00 0.00 0.00 0.00 0.00 0.00 0.00 0.00 0.00 0.00 0.00 0.00 0.00 0.00 0.00 0.00 0.01 0.01 0.00 0.00 0.00 0.00 0.00 0.00 0.00 0.00 0.00 0.02 0.02 0.01 0.01 0.01 0.05 0.07 0.06 0.05 0.04
0.00 0.00 0.00 0.00 0.00 0.00 0.00 0.00 0.00 0.00 0.00 0.00 0.00 0.00 0.00 0.00 0.00 0.00 0.00 0.00 0.00 0.00 0.00 0.00 0.00 0.00 0.00 0.00 0.00 0.00 0.00 0.00 0.00 0.00 0.00 0.01 0.02 0.03 0.05 0.04 0.04 0.04 0.04
0.00 0.00 0.00 0.00 0.00 0.00 0.00 0.00 0.00 0.00 0.00 0.00 0.00 0.00 0.00 0.00 0.00 0.01 0.01 0.01 0.00 0.00 0.00 0.00 0.00 0.00 0.00 0.00 0.00 0.00 0.00 0.00 0.00 0.00 0.00 0.00 0.00 0.00 0.00 0.00 0.00 0.00 0.00
0.00 0.00 0.00 0.00 0.00 0.00 0.00 0.00 0.00 0.00 0.00 0.00 0.00 0.00 0.00 0.02 0.02 0.01 0.00 0.00 0.00 0.00 0.00 0.00 0.00 0.00 0.00 0.00 0.00 0.00 0.00 0.00 0.00 0.00 0.00 0.00 0.00 0.00 0.00 0.00 0.00 0.00 0.00
0.00 0.00 0.00 0.00 0.00 0.00 0.02 0.01 0.00 0.00 0.00 0.00 0.00 0.00 0.01 0.02 0.02 0.02 0.01 0.01 0.00 0.00 0.00 0.00 0.00 0.00 0.00 0.00 0.00 0.00 0.00 0.00 0.00 0.00 0.00 0.00 0.00 0.00 0.00 0.00 0.00 0.00 0.00
0.00 0.00 0.00 0.00 0.00 0.00 0.02 0.01 0.01 0.00 0.00 0.00 0.00 0.00 0.01 0.01 0.01 0.00 0.00 0.00 0.00 0.00 0.00 0.00 0.00 0.00 0.00 0.00 0.00 0.00 0.00 0.00 0.00 0.00 0.00 0.00 0.00 0.00 0.00 0.00 0.00 0.00 0.00
0.00 0.00 0.00 0.00 0.00 0.00 0.01 0.00 0.00 0.00 0.00 0.00 0.00 0.00 0.00 0.00 0.00 0.00 0.00 0.00 0.00 0.00 0.00 0.00 0.00 0.00 0.00 0.00 0.00 0.00 0.00 0.00 0.00 0.00 0.00 0.00 0.00 0.00 0.00 0.00 0.00 0.00 0.00
0.00 0.00 0.00 0.00 0.00 0.00 0.00 0.00 0.00 0.00 0.00 0.00 0.00 0.00 0.00 0.00 0.00 0.00 0.00 0.00 0.00 0.00 0.00 0.00 0.00 0.00 0.00 0.00 0.00 0.00 0.00 0.00 0.00 0.00 0.00 0.00 0.00 0.00 0.00 0.00 0.00 0.00 0.00
0.00 0.00 0.00 0.00 0.01 0.00 0.00 0.00 0.00 0.00 0.00 0.00 0.00 0.00 0.00 0.00 0.00 0.00 0.00 0.00 0.00 0.00 0.00 0.00 0.00 0.00 0.00 0.00 0.00 0.00 0.00 0.00 0.00 0.00 0.00 0.00 0.00 0.00 0.00 0.00 0.00 0.00 0.00

GFSMA_prec_precacc24_075.txt.gz
Total_Precipitation_Accumulation
0.00 0.00 0.00 0.00 0.00 0.00 0.00 0.00 0.00 0.00 0.00 0.00 0.00 0.00 0.00 0.00 0.00 0.00 0.00 0.00 0.00 0.00 0.00 0.00 0.01 0.03 0.08 0.06 0.09 0.05 0.03 0.03 0.01 0.00 0.00 0.00 0.00 0.00 0.00 0.00 0.00 0.00 0.00
0.00 0.00 0.00 0.00 0.00 0.00 0.00 0.00 0.00 0.00 0.00 0.00 0.00 0.00 0.00 0.00 0.00 0.00 0.00 0.00 0.00 0.00 0.00 0.00 0.00 0.00 0.02 0.07 0.12 0.14 0.11 0.07 0.05 0.03 0.00 0.00 0.00 0.00 0.00 0.00 0.00 0.00 0.00
0.00 0.00 0.00 0.00 0.00 0.00 0.00 0.00 0.00 0.00 0.00 0.00 0.00 0.00 0.00 0.00 0.00 0.00 0.00 0.00 0.00 0.00 0.00 0.00 0.00 0.00 0.00 0.01 0.03 0.10 0.21 0.17 0.10 0.12 0.10 0.03 0.00 0.00 0.00 0.00 0.00 0.00 0.00
0.00 0.00 0.00 0.00 0.00 0.00 0.00 0.00 0.00 0.00 0.00 0.00 0.00 0.00 0.00 0.00 0.00 0.00 0.00 0.00 0.00 0.00 0.00 0.00 0.00 0.00 0.00 0.00 0.01 0.06 0.18 0.24 0.15 0.12 0.16 0.13 0.04 0.00 0.00 0.00 0.00 0.00 0.00
0.00 0.00 0.00 0.00 0.00 0.00 0.00 0.00 0.00 0.00 0.00 0.01 0.01 0.00 0.00 0.00 0.00 0.00 0.00 0.01 0.01 0.00 0.00 0.00 0.00 0.00 0.00 0.00 0.00 0.01 0.07 0.16 0.16 0.16 0.18 0.18 0.14 0.10 0.08 0.02 0.00 0.00 0.00
0.02 0.00 0.00 0.00 0.00 0.00 0.00 0.01 0.01 0.02 0.01 0.01 0.01 0.00 0.00 0.00 0.00 0.00 0.00 0.00 0.00 0.00 0.00 0.00 0.00 0.00 0.00 0.00 0.00 0.00 0.01 0.06 0.16 0.21 0.22 0.27 0.30 0.20 0.19 0.18 0.08 0.00 0.00
0.12 0.03 0.00 0.00 0.00 0.01 0.00 0.01 0.01 0.01 0.01 0.02 0.02 0.00 0.00 0.00 0.00 0.00 0.00 0.00 0.00 0.00 0.00 0.00 0.00 0.00 0.00 0.00 0.00 0.00 0.02 0.04 0.09 0.19 0.23 0.24 0.28 0.24 0.29 0.33 0.26 0.17 0.05
0.21 0.07 0.02 0.02 0.01 0.01 0.02 0.02 0.03 0.04 0.03 0.02 0.04 0.02 0.01 0.00 0.00 0.00 0.00 0.00 0.00 0.00 0.00 0.00 0.00 0.00 0.00 0.00 0.00 0.00 0.01 0.02 0.05 0.16 0.29 0.27 0.30 0.40 0.50 0.58 0.41 0.24 0.20
0.23 0.19 0.14 0.14 0.10 0.16 0.17 0.18 0.14 0.14 0.08 0.02 0.01 0.02 0.01 0.00 0.00 0.00 0.00 0.00 0.00 0.00 0.00 0.00 0.00 0.00 0.00 0.00 0.00 0.00 0.00 0.00 0.01 0.02 0.13 0.36 0.56 0.57 0.44 0.33 0.20 0.19 0.20
0.51 0.54 0.58 0.59 0.56 0.53 0.37 0.22 0.13 0.09 0.06 0.02 0.00 0.00 0.01 0.02 0.02 0.00 0.00 0.00 0.00 0.00 0.00 0.00 0.00 0.00 0.00 0.00 0.00 0.00 0.00 0.00 0.00 0.01 0.05 0.12 0.35 0.56 0.46 0.34 0.33 0.35 0.30
0.71 0.74 0.77 0.67 0.49 0.31 0.16 0.07 0.03 0.01 0.00 0.01 0.00 0.00 0.01 0.01 0.01 0.02 0.01 0.00 0.00 0.00 0.00 0.00 0.00 0.00 0.00 0.00 0.00 0.00 0.00 0.00 0.00 0.01 0.04 0.09 0.20 0.36 0.52 0.57 0.49 0.48 0.48
0.29 0.31 0.31 0.30 0.22 0.15 0.08 0.03 0.01 0.01 0.00 0.01 0.01 0.02 0.01 0.00 0.00 0.00 0.01 0.00 0.00 0.00 0.00 0.00 0.00 0.00 0.00 0.00 0.00 0.00 0.00 0.00 0.00 0.02 0.05 0.12 0.19 0.28 0.28 0.22 0.40 0.51 0.66
0.23 0.23 0.21 0.19 0.18 0.14 0.08 0.03 0.01 0.01 0.01 0.01 0.02 0.02 0.03 0.03 0.02 0.02 0.02 0.02 0.01 0.01 0.01 0.01 0.00 0.00 0.00 0.00 0.00 0.00 0.00 0.00 0.01 0.03 0.06 0.11 0.16 0.16 0.23 0.39 0.80 0.91 0.93
0.26 0.36 0.47 0.43 0.31 0.26 0.20 0.06 0.02 0.01 0.01 0.02 0.02 0.02 0.03 0.03 0.03 0.05 0.05 0.05 0.04 0.01 0.01 0.01 0.01 0.01 0.01 0.01 0.01 0.01 0.00 0.01 0.02 0.03 0.04 0.08 0.14 0.24 0.33 0.47 0.48 0.33 0.28
0.15 0.15 0.12 0.09 0.08 0.06 0.05 0.03 0.00 0.00 0.00 0.01 0.01 0.01 0.01 0.01 0.02 0.03 0.04 0.05 0.08 0.06 0.03 0.02 0.02 0.01 0.01 0.01 0.02 0.00 0.00 0.01 0.02 0.04 0.04 0.08 0.05 0.17 0.22 0.28 0.30 0.14 0.15
0.02 0.02 0.00 0.00 0.00 0.00 0.00 0.00 0.00 0.00 0.00 0.00 0.00 0.00 0.00 0.00 0.00 0.00 0.00 0.02 0.03 0.05 0.07 0.03 0.03 0.02 0.01 0.02 0.05 0.02 0.01 0.02 0.02 0.04 0.06 0.05 0.03 0.03 0.05 0.11 0.15 0.17 0.19
0.00 0.00 0.00 0.00 0.00 0.00 0.00 0.00 0.00 0.00 0.00 0.00 0.00 0.00 0.00 0.00 0.00 0.00 0.00 0.00 0.00 0.01 0.03 0.02 0.02 0.01 0.01 0.01 0.01 0.01 0.00 0.00 0.00 0.02 0.02 0.03 0.02 0.01 0.01 0.03 0.04 0.04 0.05
0.00 0.00 0.00 0.00 0.00 0.00 0.00 0.00 0.00 0.00 0.00 0.00 0.00 0.00 0.00 0.00 0.00 0.00 0.00 0.00 0.00 0.00 0.01 0.01 0.01 0.01 0.01 0.00 0.00 0.00 0.00 0.00 0.00 0.00 0.00 0.00 0.00 0.00 0.00 0.00 0.00 0.00 0.00
0.00 0.00 0.00 0.00 0.00 0.00 0.00 0.00 0.00 0.00 0.00 0.00 0.00 0.00 0.00 0.00 0.00 0.00 0.00 0.01 0.01 0.00 0.00 0.00 0.00 0.00 0.00 0.00 0.00 0.00 0.00 0.00 0.00 0.00 0.00 0.00 0.00 0.00 0.00 0.00 0.00 0.01 0.01
0.00 0.00 0.00 0.00 0.00 0.00 0.00 0.00 0.00 0.00 0.00 0.00 0.00 0.00 0.00 0.00 0.00 0.01 0.01 0.01 0.01 0.00 0.00 0.01 0.01 0.00 0.00 0.00 0.00 0.00 0.00 0.00 0.00 0.00 0.00 0.00 0.00 0.00 0.00 0.00 0.00 0.00 0.00
0.00 0.00 0.00 0.00 0.00 0.00 0.00 0.00 0.00 0.00 0.00 0.00 0.00 0.00 0.00 0.02 0.02 0.02 0.01 0.00 0.00 0.01 0.01 0.01 0.01 0.00 0.00 0.00 0.00 0.00 0.00 0.00 0.00 0.00 0.00 0.00 0.00 0.00 0.00 0.00 0.00 0.00 0.00
0.00 0.00 0.00 0.00 0.00 0.00 0.01 0.01 0.00 0.00 0.00 0.00 0.00 0.00 0.01 0.02 0.02 0.02 0.01 0.01 0.00 0.00 0.00 0.00 0.00 0.00 0.00 0.00 0.00 0.00 0.00 0.00 0.00 0.00 0.00 0.00 0.00 0.00 0.00 0.00 0.00 0.00 0.00
0.00 0.00 0.00 0.00 0.00 0.00 0.02 0.01 0.01 0.00 0.00 0.00 0.00 0.00 0.01 0.01 0.02 0.00 0.01 0.00 0.00 0.00 0.00 0.00 0.00 0.00 0.00 0.00 0.00 0.00 0.00 0.00 0.00 0.00 0.00 0.00 0.00 0.00 0.00 0.00 0.00 0.00 0.00
0.00 0.00 0.00 0.00 0.00 0.00 0.01 0.00 0.00 0.00 0.00 0.00 0.00 0.00 0.00 0.00 0.01 0.00 0.00 0.00 0.00 0.00 0.00 0.00 0.00 0.00 0.00 0.00 0.00 0.00 0.00 0.00 0.00 0.00 0.00 0.00 0.00 0.00 0.00 0.00 0.00 0.00 0.00
0.00 0.00 0.00 0.00 0.00 0.00 0.00 0.00 0.00 0.00 0.00 0.00 0.00 0.00 0.00 0.00 0.01 0.00 0.00 0.00 0.00 0.00 0.00 0.00 0.00 0.00 0.00 0.00 0.00 0.00 0.00 0.00 0.00 0.00 0.00 0.00 0.00 0.00 0.00 0.00 0.00 0.00 0.00
0.00 0.00 0.00 0.00 0.01 0.00 0.00 0.00 0.00 0.00 0.00 0.00 0.00 0.00 0.01 0.00 0.00 0.00 0.00 0.00 0.00 0.00 0.00 0.00 0.00 0.00 0.00 0.00 0.00 0.00 0.00 0.00 0.00 0.00 0.00 0.00 0.00 0.00 0.00 0.00 0.00 0.00 0.00

GFSMA_prec_precacc24_078.txt.gz
Total_Precipitation_Accumulation
0.00 0.00 0.00 0.00 0.00 0.00 0.00 0.00 0.00 0.00 0.00 0.00 0.00 0.00 0.00 0.00 0.00 0.00 0.00 0.00 0.00 0.00 0.00 0.00 0.01 0.03 0.09 0.07 0.10 0.06 0.04 0.03 0.01 0.00 0.00 0.00 0.00 0.00 0.00 0.00 0.00 0.00 0.00
0.00 0.00 0.00 0.00 0.00 0.00 0.00 0.00 0.00 0.00 0.00 0.00 0.00 0.00 0.00 0.00 0.00 0.00 0.00 0.00 0.00 0.00 0.00 0.00 0.00 0.00 0.02 0.07 0.13 0.14 0.11 0.07 0.05 0.04 0.02 0.00 0.00 0.00 0.00 0.00 0.00 0.00 0.00
0.00 0.00 0.00 0.00 0.00 0.00 0.00 0.00 0.00 0.00 0.00 0.00 0.00 0.00 0.00 0.00 0.00 0.00 0.00 0.00 0.00 0.00 0.00 0.00 0.01 0.01 0.01 0.01 0.03 0.10 0.21 0.17 0.10 0.12 0.11 0.05 0.00 0.00 0.00 0.00 0.00 0.00 0.00
0.00 0.00 0.00 0.00 0.00 0.00 0.00 0.00 0.00 0.00 0.00 0.00 0.00 0.00 0.00 0.00 0.00 0.00 0.00 0.00 0.00 0.00 0.00 0.00 0.00 0.01 0.01 0.00 0.00 0.06 0.17 0.24 0.15 0.12 0.16 0.13 0.04 0.02 0.01 0.00 0.00 0.00 0.00
0.00 0.00 0.00 0.00 0.00 0.00 0.00 0.00 0.00 0.00 0.00 0.01 0.01 0.00 0.00 0.00 0.00 0.00 0.00 0.00 0.00 0.00 0.00 0.00 0.00 0.00 0.00 0.00 0.01 0.01 0.07 0.16 0.16 0.16 0.18 0.18 0.14 0.10 0.13 0.09 0.01 0.00 0.00
0.03 0.01 0.01 0.00 0.00 0.00 0.00 0.01 0.01 0.01 0.01 0.01 0.01 0.01 0.00 0.00 0.00 0.00 0.00 0.00 0.00 0.00 0.00 0.00 0.00 0.00 0.00 0.00 0.00 0.00 0.01 0.05 0.15 0.21 0.22 0.27 0.30 0.20 0.19 0.20 0.14 0.03 0.00
0.17 0.13 0.07 0.01 0.00 0.00 0.00 0.01 0.01 0.01 0.01 0.02 0.03 0.01 0.00 0.00 0.00 0.00 0.00 0.00 0.00 0.00 0.00 0.00 0.00 0.00 0.00 0.00 0.00 0.00 0.01 0.03 0.06 0.15 0.22 0.24 0.28 0.24 0.29 0.33 0.27 0.22 0.12
0.25 0.20 0.15 0.14 0.06 0.02 0.01 0.02 0.04 0.06 0.05 0.05 0.05 0.02 0.01 0.00 0.00 0.00 0.00 0.00 0.00 0.00 0.00 0.00 0.00 0.00 0.00 0.00 0.00 0.00 0.00 0.01 0.04 0.08 0.16 0.21 0.28 0.40 0.50 0.58 0.41 0.24 0.23
0.28 0.40 0.41 0.37 0.31 0.26 0.22 0.23 0.23 0.23 0.17 0.08 0.03 0.03 0.02 0.00 0.00 0.00 0.00 0.00 0.00 0.00 0.00 0.00 0.00 0.00 0.00 0.00 0.00 0.00 0.00 0.00 0.00 0.01 0.02 0.07 0.16 0.35 0.35 0.30 0.19 0.18 0.20
0.73 0.96 1.15 1.20 1.07 0.77 0.54 0.38 0.30 0.20 0.16 0.12 0.07 0.03 0.02 0.02 0.02 0.00 0.00 0.00 0.00 0.00 0.00 0.00 0.00 0.00 0.00 0.00 0.00 0.00 0.00 0.00 0.00 0.00 0.01 0.02 0.08 0.12 0.18 0.24 0.29 0.29 0.28
0.91 0.93 1.09 1.07 0.83 0.63 0.63 0.53 0.22 0.07 0.03 0.02 0.01 0.01 0.01 0.01 0.01 0.02 0.01 0.00 0.00 0.00 0.00 0.00 0.00 0.00 0.00 0.00 0.00 0.00 0.00 0.00 0.00 0.01 0.01 0.02 0.06 0.18 0.28 0.31 0.30 0.35 0.43
0.47 0.52 0.51 0.48 0.43 0.32 0.28 0.32 0.31 0.16 0.04 0.02 0.01 0.01 0.01 0.00 0.00 0.00 0.01 0.00 0.00 0.00 0.00 0.00 0.00 0.00 0.00 0.00 0.00 0.00 0.00 0.00 0.00 0.02 0.03 0.04 0.07 0.16 0.23 0.21 0.25 0.31 0.52
0.29 0.29 0.28 0.27 0.26 0.25 0.22 0.19 0.18 0.19 0.12 0.05 0.02 0.01 0.02 0.03 0.02 0.02 0.02 0.02 0.01 0.01 0.01 0.01 0.00 0.00 0.00 0.00 0.00 0.00 0.00 0.00 0.01 0.03 0.05 0.05 0.05 0.07 0.18 0.37 0.65 0.65 0.66
0.29 0.39 0.50 0.46 0.37 0.33 0.34 0.30 0.18 0.09 0.08 0.07 0.04 0.02 0.03 0.03 0.03 0.05 0.05 0.05 0.04 0.01 0.01 0.01 0.01 0.01 0.01 0.01 0.01 0.01 0.00 0.01 0.02 0.03 0.03 0.04 0.03 0.04 0.14 0.39 0.34 0.14 0.15
0.17 0.18 0.14 0.12 0.10 0.08 0.08 0.08 0.08 0.06 0.04 0.03 0.01 0.01 0.01 0.01 0.02 0.03 0.04 0.06 0.09 0.06 0.04 0.02 0.02 0.01 0.01 0.01 0.02 0.01 0.00 0.01 0.02 0.04 0.03 0.03 0.02 0.02 0.07 0.19 0.21 0.05 0.05
0.02 0.02 0.01 0.00 0.00 0.00 0.00 0.00 0.00 0.00 0.00 0.00 0.00 0.00 0.00 0.00 0.00 0.00 0.01 0.02 0.03 0.06 0.08 0.03 0.03 0.02 0.01 0.02 0.06 0.02 0.01 0.03 0.02 0.02 0.02 0.02 0.02 0.01 0.02 0.08 0.10 0.09 0.08
0.00 0.00 0.00 0.00 0.00 0.00 0.00 0.00 0.00 0.00 0.00 0.00 0.00 0.00 0.00 0.00 0.00 0.00 0.00 0.01 0.01 0.01 0.04 0.03 0.02 0.01 0.01 0.01 0.02 0.01 0.01 0.00 0.00 0.00 0.01 0.01 0.01 0.00 0.00 0.00 0.01 0.01 0.04
0.00 0.00 0.01 0.00 0.00 0.00 0.00 0.00 0.00 0.00 0.00 0.00 0.00 0.00 0.00 0.00 0.00 0.00 0.00 0.00 0.00 0.00 0.01 0.01 0.01 0.02 0.02 0.01 0.01 0.00 0.00 0.00 0.00 0.00 0.00 0.00 0.00 0.00 0.00 0.00 0.00 0.00 0.00
0.00 0.00 0.00 0.00 0.00 0.00 0.00 0.00 0.00 0.00 0.00 0.00 0.00 0.00 0.00 0.00 0.00 0.00 0.00 0.01 0.01 0.00 0.00 0.00 0.00 0.00 0.00 0.00 0.01 0.00 0.00 0.00 0.00 0.00 0.00 0.00 0.00 0.00 0.00 0.00 0.00 0.00 0.00
0.00 0.00 0.00 0.00 0.00 0.00 0.00 0.00 0.00 0.00 0.00 0.00 0.00 0.00 0.00 0.00 0.00 0.01 0.01 0.01 0.01 0.00 0.01 0.01 0.01 0.01 0.00 0.00 0.01 0.01 0.00 0.00 0.00 0.00 0.00 0.00 0.00 0.00 0.00 0.00 0.00 0.00 0.00
0.00 0.00 0.00 0.00 0.00 0.00 0.00 0.00 0.00 0.00 0.00 0.00 0.00 0.00 0.00 0.02 0.02 0.01 0.01 0.00 0.00 0.01 0.01 0.01 0.01 0.01 0.01 0.00 0.00 0.00 0.00 0.00 0.00 0.00 0.00 0.00 0.00 0.00 0.00 0.00 0.00 0.00 0.00
0.00 0.00 0.00 0.00 0.00 0.00 0.01 0.01 0.00 0.00 0.00 0.00 0.00 0.00 0.01 0.02 0.02 0.02 0.01 0.01 0.00 0.00 0.00 0.00 0.00 0.00 0.00 0.00 0.00 0.00 0.00 0.00 0.00 0.00 0.00 0.00 0.00 0.00 0.00 0.00 0.00 0.00 0.00
0.00 0.00 0.00 0.00 0.00 0.00 0.01 0.01 0.01 0.00 0.00 0.00 0.00 0.00 0.01 0.01 0.02 0.00 0.01 0.01 0.00 0.00 0.00 0.00 0.00 0.00 0.00 0.00 0.00 0.00 0.00 0.00 0.00 0.00 0.00 0.00 0.00 0.00 0.00 0.00 0.00 0.00 0.00
0.00 0.00 0.00 0.00 0.00 0.00 0.01 0.00 0.00 0.00 0.00 0.00 0.00 0.00 0.00 0.00 0.01 0.00 0.00 0.00 0.00 0.00 0.00 0.00 0.00 0.00 0.00 0.00 0.00 0.00 0.00 0.00 0.00 0.00 0.00 0.00 0.00 0.00 0.00 0.00 0.00 0.00 0.00
0.00 0.00 0.00 0.00 0.00 0.00 0.00 0.00 0.00 0.00 0.00 0.00 0.00 0.00 0.00 0.00 0.01 0.00 0.00 0.00 0.00 0.00 0.00 0.00 0.00 0.00 0.00 0.00 0.00 0.00 0.00 0.00 0.00 0.00 0.00 0.00 0.00 0.00 0.00 0.00 0.00 0.00 0.00
0.00 0.00 0.00 0.00 0.01 0.00 0.00 0.00 0.00 0.00 0.00 0.00 0.00 0.00 0.01 0.00 0.00 0.00 0.00 0.00 0.00 0.00 0.00 0.00 0.00 0.00 0.00 0.00 0.00 0.00 0.00 0.00 0.00 0.00 0.00 0.00 0.00 0.00 0.00 0.00 0.00 0.00 0.00

GFSMA_prec_precacc24_081.txt.gz
Total_Precipitation_Accumulation
0.00 0.00 0.00 0.00 0.00 0.00 0.00 0.00 0.00 0.00 0.00 0.00 0.00 0.00 0.00 0.00 0.00 0.00 0.00 0.00 0.00 0.00 0.00 0.00 0.01 0.03 0.09 0.09 0.11 0.06 0.04 0.03 0.01 0.00 0.00 0.00 0.00 0.00 0.00 0.00 0.00 0.00 0.00
0.00 0.00 0.00 0.00 0.00 0.00 0.00 0.00 0.00 0.00 0.00 0.00 0.00 0.00 0.00 0.00 0.00 0.00 0.00 0.00 0.00 0.00 0.00 0.00 0.01 0.02 0.04 0.08 0.14 0.15 0.11 0.07 0.05 0.04 0.02 0.01 0.00 0.00 0.00 0.00 0.00 0.00 0.00
0.00 0.00 0.00 0.00 0.00 0.00 0.00 0.00 0.00 0.00 0.00 0.00 0.00 0.00 0.00 0.00 0.00 0.00 0.00 0.00 0.00 0.00 0.00 0.00 0.01 0.02 0.03 0.03 0.04 0.10 0.21 0.17 0.10 0.12 0.11 0.05 0.01 0.01 0.00 0.00 0.00 0.00 0.00
0.00 0.00 0.00 0.00 0.00 0.00 0.00 0.00 0.00 0.00 0.00 0.00 0.00 0.00 0.00 0.00 0.00 0.00 0.00 0.00 0.00 0.00 0.00 0.00 0.00 0.01 0.02 0.02 0.00 0.04 0.17 0.23 0.15 0.12 0.16 0.13 0.04 0.03 0.03 0.01 0.00 0.00 0.00
0.00 0.00 0.00 0.00 0.00 0.00 0.00 0.00 0.00 0.00 0.00 0.00 0.00 0.00 0.00 0.00 0.00 0.00 0.00 0.00 0.00 0.00 0.00 0.00 0.00 0.00 0.00 0.00 0.01 0.02 0.04 0.13 0.15 0.16 0.18 0.18 0.14 0.10 0.14 0.16 0.07 0.01 0.00
0.03 0.01 0.01 0.00 0.00 0.00 0.00 0.00 0.00 0.00 0.00 0.00 0.01 0.01 0.00 0.00 0.00 0.00 0.00 0.00 0.00 0.00 0.00 0.00 0.00 0.00 0.00 0.00 0.01 0.00 0.00 0.02 0.10 0.18 0.22 0.27 0.30 0.20 0.19 0.20 0.16 0.10 0.03
0.23 0.16 0.10 0.05 0.01 0.00 0.00 0.00 0.00 0.01 0.01 0.01 0.03 0.01 0.00 0.00 0.00 0.00 0.00 0.00 0.00 0.00 0.00 0.00 0.00 0.00 0.00 0.00 0.00 0.00 0.00 0.00 0.03 0.07 0.14 0.21 0.28 0.24 0.29 0.33 0.27 0.23 0.20
0.30 0.24 0.18 0.17 0.11 0.05 0.03 0.03 0.03 0.05 0.05 0.06 0.05 0.03 0.01 0.00 0.00 0.00 0.00 0.00 0.00 0.00 0.00 0.00 0.00 0.00 0.00 0.00 0.00 0.00 0.00 0.00 0.00 0.02 0.04 0.08 0.15 0.28 0.43 0.55 0.40 0.24 0.24
0.28 0.40 0.41 0.38 0.35 0.40 0.45 0.41 0.30 0.28 0.21 0.16 0.10 0.06 0.02 0.00 0.00 0.00 0.00 0.00 0.00 0.00 0.00 0.00 0.00 0.00 0.00 0.00 0.00 0.00 0.00 0.00 0.00 0.00 0.00 0.00 0.02 0.04 0.14 0.21 0.16 0.18 0.20
0.73 0.97 1.16 1.22 1.19 1.05 0.78 0.77 0.68 0.45 0.33 0.24 0.18 0.09 0.04 0.03 0.02 0.00 0.00 0.00 0.00 0.00 0.00 0.00 0.00 0.00 0.00 0.00 0.00 0.00 0.00 0.00 0.00 0.00 0.01 0.00 0.01 0.04 0.10 0.20 0.27 0.27 0.25
1.03 1.00 1.12 1.12 0.95 0.87 0.94 0.92 0.86 0.85 0.56 0.21 0.11 0.04 0.02 0.01 0.01 0.02 0.01 0.00 0.00 0.00 0.00 0.00 0.00 0.00 0.00 0.00 0.00 0.00 0.00 0.00 0.00 0.01 0.01 0.02 0.01 0.04 0.11 0.21 0.26 0.30 0.35
0.61 0.67 0.62 0.59 0.54 0.47 0.47 0.62 0.74 0.68 0.54 0.27 0.13 0.08 0.03 0.01 0.00 0.00 0.01 0.00 0.00 0.00 0.00 0.00 0.00 0.00 0.00 0.00 0.00 0.00 0.00 0.00 0.00 0.02 0.03 0.03 0.03 0.05 0.09 0.14 0.18 0.22 0.39
0.31 0.31 0.31 0.35 0.38 0.37 0.32 0.31 0.33 0.38 0.39 0.33 0.21 0.14 0.10 0.07 0.03 0.01 0.01 0.02 0.01 0.01 0.01 0.01 0.00 0.00 0.00 0.00 0.00 0.00 0.00 0.00 0.01 0.03 0.05 0.05 0.04 0.05 0.08 0.08 0.10 0.38 0.53
0.30 0.40 0.51 0.49 0.41 0.38 0.39 0.35 0.31 0.26 0.23 0.19 0.18 0.14 0.13 0.08 0.04 0.04 0.04 0.05 0.04 0.01 0.01 0.01 0.01 0.01 0.01 0.01 0.01 0.01 0.00 0.01 0.02 0.03 0.03 0.04 0.02 0.04 0.07 0.09 0.05 0.06 0.08
0.19 0.23 0.20 0.17 0.15 0.10 0.10 0.12 0.12 0.10 0.06 0.04 0.03 0.02 0.01 0.01 0.01 0.03 0.04 0.06 0.08 0.06 0.04 0.02 0.02 0.01 0.01 0.01 0.02 0.01 0.00 0.01 0.01 0.03 0.02 0.01 0.01 0.02 0.06 0.12 0.12 0.04 0.03
0.02 0.02 0.01 0.01 0.00 0.00 0.01 0.01 0.01 0.00 0.00 0.00 0.00 0.00 0.00 0.00 0.00 0.00 0.01 0.02 0.04 0.07 0.08 0.03 0.03 0.02 0.01 0.02 0.06 0.02 0.01 0.03 0.02 0.01 0.01 0.01 0.01 0.01 0.01 0.05 0.06 0.06 0.05
0.00 0.00 0.00 0.00 0.00 0.01 0.00 0.00 0.00 0.00 0.00 0.00 0.00 0.00 0.00 0.00 0.00 0.00 0.00 0.01 0.01 0.01 0.04 0.03 0.02 0.01 0.01 0.01 0.02 0.01 0.01 0.00 0.01 0.01 0.01 0.01 0.00 0.00 0.00 0.00 0.01 0.01 0.02
0.00 0.00 0.01 0.01 0.01 0.02 0.01 0.00 0.00 0.00 0.00 0.00 0.00 0.00 0.00 0.00 0.00 0.00 0.00 0.00 0.00 0.00 0.01 0.01 0.01 0.02 0.02 0.01 0.01 0.00 0.00 0.00 0.00 0.01 0.00 0.00 0.00 0.00 0.00 0.00 0.00 0.00 0.00
0.00 0.00 0.00 0.03 0.04 0.02 0.01 0.00 0.00 0.00 0.00 0.00 0.00 0.00 0.00 0.00 0.00 0.00 0.00 0.01 0.01 0.00 0.00 0.00 0.00 0.00 0.00 0.00 0.01 0.00 0.00 0.00 0.00 0.01 0.00 0.00 0.00 0.00 0.00 0.00 0.00 0.00 0.00
0.00 0.00 0.00 0.00 0.01 0.01 0.01 0.00 0.00 0.00 0.00 0.00 0.00 0.00 0.00 0.00 0.00 0.01 0.01 0.01 0.01 0.00 0.01 0.01 0.01 0.01 0.00 0.00 0.01 0.01 0.01 0.00 0.00 0.00 0.00 0.00 0.00 0.00 0.00 0.00 0.00 0.00 0.00
0.00 0.00 0.00 0.00 0.00 0.00 0.00 0.00 0.00 0.00 0.00 0.00 0.00 0.00 0.00 0.02 0.02 0.01 0.01 0.00 0.00 0.01 0.01 0.01 0.01 0.01 0.01 0.00 0.00 0.00 0.00 0.01 0.00 0.00 0.00 0.00 0.00 0.00 0.00 0.00 0.00 0.00 0.00
0.00 0.00 0.00 0.00 0.00 0.00 0.01 0.01 0.00 0.00 0.00 0.00 0.00 0.00 0.01 0.02 0.01 0.02 0.01 0.01 0.00 0.00 0.00 0.00 0.00 0.00 0.00 0.00 0.00 0.00 0.00 0.00 0.00 0.00 0.00 0.00 0.00 0.00 0.00 0.00 0.00 0.00 0.00
0.00 0.00 0.00 0.00 0.00 0.00 0.01 0.01 0.01 0.00 0.00 0.00 0.00 0.00 0.01 0.01 0.02 0.00 0.01 0.01 0.00 0.00 0.00 0.00 0.00 0.00 0.00 0.00 0.00 0.00 0.00 0.00 0.00 0.00 0.00 0.00 0.00 0.00 0.00 0.00 0.00 0.00 0.00
0.00 0.00 0.00 0.00 0.00 0.00 0.01 0.00 0.00 0.00 0.00 0.00 0.00 0.00 0.00 0.00 0.01 0.00 0.00 0.00 0.00 0.00 0.00 0.00 0.00 0.00 0.00 0.00 0.00 0.00 0.00 0.00 0.00 0.00 0.00 0.00 0.00 0.00 0.00 0.00 0.00 0.00 0.00
0.00 0.00 0.00 0.00 0.00 0.00 0.00 0.00 0.00 0.00 0.00 0.00 0.00 0.00 0.00 0.00 0.01 0.00 0.00 0.00 0.00 0.00 0.00 0.00 0.00 0.00 0.00 0.00 0.00 0.00 0.00 0.00 0.00 0.00 0.00 0.00 0.00 0.00 0.00 0.00 0.00 0.00 0.00
0.00 0.00 0.00 0.00 0.01 0.00 0.00 0.00 0.00 0.00 0.00 0.00 0.00 0.00 0.01 0.00 0.01 0.00 0.00 0.00 0.00 0.00 0.00 0.00 0.00 0.00 0.00 0.00 0.00 0.00 0.00 0.00 0.00 0.00 0.00 0.00 0.00 0.00 0.00 0.00 0.00 0.00 0.00

GFSMA_prec_precacc24_084.txt.gz
Total_Precipitation_Accumulation
0.00 0.00 0.00 0.00 0.00 0.00 0.00 0.00 0.00 0.00 0.00 0.00 0.00 0.00 0.00 0.00 0.00 0.00 0.00 0.00 0.00 0.00 0.00 0.00 0.01 0.05 0.10 0.12 0.15 0.09 0.06 0.04 0.01 0.00 0.01 0.00 0.00 0.00 0.00 0.00 0.00 0.00 0.00
0.00 0.00 0.00 0.00 0.00 0.00 0.00 0.00 0.00 0.00 0.00 0.00 0.00 0.00 0.00 0.00 0.00 0.00 0.00 0.00 0.00 0.00 0.00 0.00 0.01 0.03 0.05 0.09 0.15 0.16 0.11 0.07 0.05 0.04 0.02 0.01 0.01 0.00 0.00 0.00 0.00 0.00 0.00
0.00 0.00 0.00 0.00 0.00 0.00 0.00 0.00 0.00 0.00 0.00 0.00 0.00 0.00 0.00 0.00 0.00 0.00 0.00 0.00 0.00 0.00 0.00 0.00 0.01 0.02 0.03 0.03 0.05 0.08 0.20 0.17 0.10 0.12 0.11 0.05 0.01 0.02 0.01 0.00 0.00 0.00 0.00
0.00 0.00 0.00 0.00 0.00 0.00 0.00 0.00 0.00 0.00 0.00 0.00 0.00 0.00 0.00 0.00 0.00 0.00 0.00 0.00 0.00 0.00 0.00 0.00 0.00 0.01 0.02 0.02 0.01 0.03 0.13 0.21 0.15 0.12 0.16 0.13 0.04 0.03 0.04 0.04 0.02 0.00 0.00
0.00 0.00 0.00 0.00 0.00 0.00 0.00 0.00 0.00 0.00 0.00 0.00 0.00 0.00 0.00 0.00 0.00 0.00 0.00 0.00 0.00 0.00 0.00 0.00 0.00 0.00 0.00 0.00 0.02 0.03 0.02 0.07 0.10 0.15 0.18 0.18 0.14 0.10 0.14 0.16 0.11 0.05 0.01
0.06 0.02 0.01 0.00 0.00 0.00 0.00 0.00 0.00 0.00 0.00 0.00 0.01 0.01 0.00 0.00 0.00 0.00 0.00 0.00 0.00 0.00 0.00 0.00 0.00 0.00 0.00 0.00 0.01 0.00 0.00 0.00 0.03 0.10 0.17 0.25 0.30 0.20 0.19 0.20 0.16 0.11 0.09
0.29 0.17 0.10 0.05 0.02 0.00 0.00 0.00 0.00 0.00 0.01 0.00 0.03 0.01 0.00 0.00 0.00 0.00 0.00 0.00 0.00 0.00 0.00 0.00 0.00 0.00 0.00 0.00 0.00 0.00 0.00 0.00 0.00 0.02 0.04 0.07 0.18 0.22 0.29 0.33 0.27 0.23 0.21
0.33 0.26 0.21 0.20 0.13 0.11 0.04 0.03 0.03 0.05 0.04 0.05 0.05 0.04 0.01 0.00 0.00 0.00 0.00 0.00 0.00 0.00 0.00 0.00 0.00 0.00 0.00 0.00 0.00 0.00 0.00 0.00 0.00 0.00 0.00 0.00 0.02 0.09 0.19 0.37 0.38 0.24 0.24
0.34 0.41 0.41 0.38 0.36 0.45 0.53 0.47 0.38 0.35 0.27 0.21 0.16 0.11 0.03 0.00 0.00 0.00 0.00 0.00 0.00 0.00 0.00 0.00 0.00 0.00 0.00 0.00 0.00 0.00 0.00 0.00 0.00 0.00 0.00 0.00 0.00 0.00 0.03 0.10 0.15 0.17 0.20
0.74 0.97 1.16 1.22 1.19 1.05 0.79 0.79 0.74 0.59 0.61 0.54 0.47 0.27 0.15 0.08 0.02 0.00 0.00 0.00 0.00 0.00 0.00 0.00 0.00 0.00 0.00 0.00 0.00 0.00 0.00 0.00 0.00 0.00 0.01 0.00 0.00 0.01 0.03 0.07 0.20 0.25 0.25
1.04 1.00 1.12 1.12 0.95 0.87 0.94 0.92 0.87 0.92 0.89 0.70 0.61 0.46 0.28 0.12 0.05 0.02 0.00 0.00 0.00 0.00 0.00 0.00 0.00 0.00 0.00 0.00 0.00 0.00 0.00 0.00 0.00 0.01 0.01 0.02 0.01 0.02 0.05 0.08 0.11 0.22 0.32
0.62 0.68 0.63 0.60 0.56 0.48 0.48 0.62 0.75 0.76 0.69 0.71 0.72 0.63 0.43 0.25 0.15 0.08 0.08 0.05 0.01 0.00 0.00 0.00 0.00 0.00 0.00 0.00 0.00 0.00 0.00 0.00 0.00 0.02 0.03 0.03 0.03 0.04 0.08 0.11 0.09 0.06 0.15
0.31 0.31 0.32 0.35 0.38 0.39 0.36 0.37 0.39 0.42 0.44 0.44 0.42 0.45 0.46 0.40 0.33 0.25 0.14 0.06 0.01 0.01 0.01 0.01 0.00 0.00 0.00 0.00 0.00 0.00 0.00 0.00 0.01 0.03 0.05 0.05 0.04 0.05 0.08 0.08 0.07 0.05 0.06
0.30 0.41 0.52 0.49 0.41 0.38 0.40 0.38 0.39 0.35 0.31 0.28 0.28 0.24 0.23 0.20 0.13 0.07 0.04 0.04 0.04 0.01 0.01 0.01 0.01 0.01 0.01 0.01 0.01 0.01 0.00 0.01 0.01 0.02 0.03 0.03 0.02 0.04 0.07 0.08 0.05 0.05 0.07
0.22 0.26 0.33 0.24 0.17 0.13 0.13 0.15 0.15 0.13 0.08 0.05 0.05 0.04 0.03 0.02 0.01 0.02 0.04 0.05 0.08 0.06 0.04 0.02 0.02 0.01 0.01 0.01 0.02 0.01 0.00 0.01 0.01 0.02 0.01 0.00 0.00 0.01 0.04 0.07 0.07 0.03 0.02
0.04 0.04 0.04 0.02 0.01 0.01 0.02 0.03 0.03 0.04 0.02 0.05 0.03 0.00 0.00 0.00 0.00 0.00 0.01 0.02 0.04 0.07 0.08 0.03 0.03 0.02 0.01 0.02 0.06 0.02 0.01 0.03 0.02 0.01 0.00 0.00 0.00 0.00 0.01 0.02 0.02 0.01 0.01
0.00 0.00 0.00 0.00 0.01 0.01 0.01 0.02 0.02 0.02 0.02 0.02 0.00 0.00 0.00 0.00 0.00 0.00 0.00 0.01 0.01 0.01 0.04 0.03 0.02 0.01 0.01 0.01 0.02 0.01 0.01 0.00 0.01 0.02 0.00 0.00 0.00 0.00 0.00 0.00 0.00 0.00 0.01
0.00 0.00 0.01 0.01 0.02 0.04 0.04 0.03 0.03 0.02 0.01 0.00 0.00 0.00 0.00 0.00 0.00 0.00 0.00 0.00 0.00 0.00 0.01 0.01 0.01 0.02 0.02 0.01 0.01 0.00 0.00 0.00 0.00 0.02 0.00 0.00 0.00 0.00 0.00 0.00 0.00 0.00 0.00
0.00 0.00 0.00 0.03 0.04 0.03 0.03 0.03 0.02 0.01 0.00 0.00 0.00 0.00 0.00 0.00 0.00 0.00 0.00 0.01 0.01 0.00 0.00 0.00 0.00 0.00 0.01 0.00 0.01 0.00 0.00 0.00 0.00 0.03 0.00 0.00 0.00 0.00 0.00 0.00 0.00 0.00 0.00
0.00 0.00 0.00 0.00 0.01 0.02 0.02 0.02 0.01 0.01 0.00 0.00 0.00 0.00 0.00 0.00 0.00 0.01 0.01 0.01 0.01 0.00 0.01 0.01 0.01 0.01 0.00 0.00 0.01 0.01 0.01 0.00 0.00 0.00 0.00 0.00 0.00 0.00 0.00 0.00 0.00 0.00 0.00
0.00 0.00 0.00 0.00 0.00 0.00 0.00 0.01 0.01 0.01 0.01 0.00 0.00 0.00 0.00 0.02 0.02 0.01 0.01 0.00 0.00 0.01 0.01 0.01 0.01 0.01 0.01 0.00 0.00 0.00 0.00 0.01 0.00 0.00 0.00 0.00 0.00 0.00 0.00 0.00 0.00 0.00 0.00
0.00 0.00 0.00 0.00 0.00 0.00 0.00 0.00 0.00 0.00 0.00 0.00 0.00 0.00 0.01 0.02 0.01 0.02 0.01 0.01 0.00 0.00 0.00 0.00 0.00 0.00 0.00 0.00 0.00 0.00 0.00 0.01 0.00 0.00 0.00 0.00 0.00 0.00 0.00 0.00 0.00 0.00 0.00
0.00 0.00 0.00 0.00 0.00 0.00 0.01 0.01 0.00 0.00 0.00 0.00 0.00 0.00 0.01 0.01 0.02 0.00 0.01 0.01 0.00 0.00 0.00 0.00 0.00 0.00 0.00 0.00 0.00 0.00 0.00 0.01 0.00 0.00 0.00 0.00 0.00 0.00 0.00 0.00 0.00 0.00 0.00
0.00 0.00 0.00 0.00 0.00 0.00 0.00 0.00 0.00 0.00 0.00 0.00 0.00 0.00 0.00 0.00 0.01 0.00 0.00 0.00 0.00 0.00 0.00 0.00 0.00 0.00 0.00 0.00 0.00 0.00 0.00 0.00 0.00 0.00 0.00 0.00 0.00 0.00 0.00 0.00 0.00 0.00 0.00
0.00 0.00 0.00 0.00 0.00 0.00 0.00 0.00 0.00 0.00 0.00 0.00 0.00 0.00 0.00 0.00 0.02 0.01 0.00 0.00 0.00 0.00 0.00 0.00 0.00 0.00 0.00 0.00 0.00 0.00 0.00 0.00 0.00 0.00 0.00 0.00 0.00 0.00 0.00 0.00 0.00 0.00 0.00
0.00 0.00 0.00 0.00 0.01 0.00 0.00 0.00 0.00 0.00 0.00 0.00 0.00 0.00 0.01 0.00 0.01 0.00 0.00 0.00 0.00 0.00 0.00 0.00 0.00 0.00 0.00 0.00 0.00 0.00 0.00 0.00 0.00 0.00 0.00 0.00 0.00 0.00 0.00 0.00 0.00 0.00 0.00

GFSMA_prec_precacc24_087.txt.gz
Total_Precipitation_Accumulation
0.00 0.00 0.00 0.00 0.00 0.00 0.00 0.00 0.00 0.00 0.00 0.00 0.00 0.00 0.00 0.00 0.00 0.00 0.00 0.00 0.00 0.00 0.00 0.00 0.01 0.05 0.10 0.12 0.17 0.10 0.06 0.04 0.01 0.00 0.01 0.00 0.00 0.00 0.00 0.00 0.00 0.00 0.00
0.00 0.00 0.00 0.00 0.00 0.00 0.00 0.00 0.00 0.00 0.00 0.00 0.00 0.00 0.00 0.00 0.00 0.00 0.00 0.00 0.00 0.00 0.00 0.00 0.01 0.03 0.05 0.07 0.13 0.16 0.11 0.07 0.05 0.04 0.02 0.01 0.01 0.00 0.00 0.00 0.00 0.00 0.00
0.00 0.00 0.00 0.00 0.00 0.00 0.00 0.00 0.00 0.00 0.00 0.00 0.00 0.00 0.00 0.00 0.00 0.00 0.00 0.00 0.00 0.00 0.00 0.00 0.01 0.02 0.03 0.03 0.05 0.05 0.15 0.16 0.10 0.12 0.11 0.05 0.01 0.02 0.02 0.01 0.00 0.00 0.00
0.00 0.00 0.00 0.00 0.00 0.00 0.00 0.00 0.00 0.00 0.00 0.00 0.00 0.00 0.00 0.00 0.00 0.00 0.00 0.00 0.00 0.00 0.00 0.00 0.00 0.01 0.02 0.02 0.01 0.02 0.05 0.11 0.11 0.12 0.16 0.13 0.04 0.03 0.04 0.05 0.05 0.01 0.00
0.00 0.00 0.00 0.00 0.00 0.00 0.00 0.00 0.00 0.00 0.00 0.00 0.00 0.00 0.00 0.00 0.00 0.00 0.00 0.00 0.00 0.00 0.00 0.00 0.00 0.00 0.00 0.00 0.02 0.03 0.00 0.01 0.04 0.07 0.15 0.17 0.14 0.10 0.14 0.16 0.11 0.07 0.05
0.06 0.02 0.01 0.00 0.00 0.00 0.00 0.00 0.00 0.00 0.00 0.00 0.01 0.01 0.00 0.00 0.00 0.00 0.00 0.00 0.00 0.00 0.00 0.00 0.00 0.00 0.00 0.00 0.01 0.01 0.00 0.00 0.00 0.03 0.06 0.15 0.25 0.20 0.19 0.20 0.16 0.11 0.10
0.33 0.20 0.10 0.05 0.02 0.00 0.00 0.00 0.00 0.00 0.01 0.00 0.03 0.01 0.00 0.00 0.00 0.00 0.00 0.00 0.00 0.00 0.00 0.00 0.00 0.00 0.00 0.00 0.00 0.00 0.00 0.00 0.00 0.00 0.00 0.01 0.05 0.12 0.23 0.31 0.27 0.23 0.21
0.44 0.33 0.25 0.21 0.13 0.13 0.05 0.03 0.02 0.04 0.04 0.04 0.04 0.03 0.01 0.00 0.00 0.00 0.00 0.00 0.00 0.00 0.00 0.00 0.00 0.00 0.00 0.00 0.00 0.00 0.00 0.00 0.00 0.00 0.00 0.00 0.00 0.01 0.04 0.18 0.30 0.24 0.24
0.50 0.57 0.53 0.44 0.38 0.51 0.65 0.60 0.47 0.38 0.28 0.22 0.17 0.13 0.05 0.01 0.00 0.00 0.00 0.00 0.00 0.00 0.00 0.00 0.00 0.00 0.00 0.00 0.00 0.00 0.00 0.00 0.00 0.00 0.00 0.00 0.00 0.00 0.01 0.03 0.08 0.16 0.20
0.89 1.07 1.24 1.29 1.24 1.06 0.80 0.80 0.78 0.65 0.66 0.63 0.57 0.37 0.27 0.19 0.12 0.05 0.01 0.00 0.00 0.00 0.00 0.00 0.00 0.00 0.00 0.00 0.00 0.00 0.00 0.00 0.00 0.00 0.01 0.00 0.00 0.01 0.02 0.04 0.06 0.12 0.21
1.12 1.04 1.13 1.16 1.01 0.90 0.94 0.92 0.87 0.92 0.89 0.70 0.62 0.50 0.40 0.34 0.39 0.31 0.11 0.01 0.00 0.00 0.00 0.00 0.00 0.00 0.00 0.00 0.00 0.00 0.00 0.00 0.00 0.01 0.01 0.02 0.01 0.02 0.04 0.07 0.06 0.05 0.15
0.64 0.69 0.64 0.61 0.57 0.48 0.48 0.63 0.75 0.76 0.69 0.71 0.72 0.64 0.51 0.44 0.43 0.48 0.36 0.18 0.08 0.03 0.02 0.00 0.00 0.00 0.00 0.00 0.00 0.00 0.00 0.00 0.00 0.02 0.03 0.03 0.03 0.04 0.08 0.11 0.09 0.05 0.04
0.32 0.32 0.32 0.36 0.39 0.40 0.37 0.38 0.39 0.42 0.46 0.46 0.44 0.46 0.49 0.50 0.52 0.54 0.50 0.33 0.12 0.03 0.02 0.01 0.00 0.00 0.00 0.00 0.00 0.00 0.00 0.00 0.00 0.02 0.04 0.04 0.03 0.04 0.07 0.08 0.07 0.05 0.05
0.32 0.41 0.52 0.50 0.41 0.39 0.41 0.39 0.41 0.40 0.41 0.43 0.42 0.33 0.28 0.27 0.26 0.22 0.17 0.14 0.08 0.02 0.01 0.01 0.01 0.01 0.01 0.01 0.01 0.01 0.00 0.01 0.00 0.01 0.01 0.02 0.01 0.03 0.06 0.08 0.04 0.04 0.06
0.28 0.28 0.41 0.40 0.24 0.17 0.15 0.16 0.16 0.15 0.12 0.10 0.09 0.07 0.05 0.04 0.04 0.04 0.04 0.04 0.08 0.06 0.04 0.02 0.02 0.01 0.01 0.01 0.02 0.01 0.00 0.01 0.01 0.01 0.01 0.01 0.00 0.01 0.03 0.04 0.02 0.02 0.02
0.13 0.11 0.14 0.15 0.09 0.04 0.04 0.05 0.04 0.06 0.05 0.06 0.09 0.12 0.08 0.02 0.01 0.01 0.00 0.02 0.04 0.07 0.08 0.03 0.03 0.02 0.01 0.02 0.06 0.02 0.01 0.03 0.02 0.01 0.00 0.00 0.00 0.00 0.00 0.00 0.01 0.01 0.01
0.00 0.00 0.00 0.00 0.01 0.01 0.01 0.02 0.02 0.02 0.04 0.03 0.05 0.11 0.14 0.03 0.00 0.00 0.00 0.01 0.01 0.01 0.04 0.03 0.02 0.01 0.01 0.01 0.02 0.01 0.01 0.00 0.01 0.02 0.00 0.00 0.00 0.00 0.00 0.00 0.00 0.00 0.00
0.00 0.00 0.01 0.01 0.02 0.04 0.04 0.04 0.03 0.03 0.04 0.03 0.04 0.05 0.03 0.00 0.00 0.00 0.00 0.00 0.00 0.00 0.01 0.01 0.01 0.02 0.02 0.01 0.01 0.00 0.00 0.00 0.00 0.02 0.01 0.00 0.00 0.00 0.00 0.00 0.00 0.00 0.00
0.00 0.00 0.00 0.03 0.04 0.03 0.03 0.03 0.03 0.02 0.02 0.03 0.04 0.04 0.01 0.00 0.00 0.00 0.00 0.01 0.01 0.00 0.00 0.00 0.00 0.00 0.01 0.00 0.01 0.00 0.00 0.00 0.00 0.03 0.00 0.00 0.00 0.00 0.00 0.00 0.00 0.00 0.00
0.00 0.00 0.00 0.00 0.01 0.02 0.02 0.02 0.02 0.02 0.02 0.02 0.02 0.01 0.00 0.00 0.00 0.01 0.01 0.01 0.01 0.00 0.01 0.01 0.01 0.01 0.00 0.00 0.01 0.01 0.01 0.00 0.00 0.00 0.00 0.00 0.00 0.00 0.00 0.00 0.00 0.00 0.00
0.00 0.00 0.00 0.00 0.00 0.00 0.00 0.01 0.01 0.02 0.02 0.03 0.02 0.01 0.01 0.02 0.02 0.01 0.01 0.00 0.00 0.01 0.01 0.01 0.01 0.01 0.01 0.00 0.00 0.00 0.00 0.01 0.00 0.00 0.00 0.00 0.00 0.00 0.00 0.00 0.00 0.00 0.00
0.00 0.00 0.00 0.00 0.00 0.00 0.00 0.00 0.00 0.01 0.01 0.02 0.03 0.02 0.01 0.03 0.02 0.02 0.01 0.01 0.00 0.00 0.00 0.00 0.00 0.00 0.00 0.00 0.00 0.00 0.00 0.01 0.00 0.00 0.00 0.00 0.00 0.00 0.00 0.00 0.00 0.00 0.00
0.00 0.00 0.00 0.00 0.00 0.00 0.00 0.00 0.00 0.00 0.00 0.00 0.00 0.01 0.01 0.01 0.02 0.00 0.01 0.01 0.00 0.00 0.00 0.00 0.00 0.00 0.00 0.00 0.00 0.00 0.00 0.01 0.00 0.00 0.00 0.00 0.00 0.00 0.00 0.00 0.00 0.00 0.00
0.00 0.00 0.00 0.00 0.00 0.00 0.00 0.00 0.00 0.00 0.00 0.00 0.00 0.00 0.00 0.00 0.01 0.00 0.00 0.00 0.00 0.00 0.00 0.00 0.00 0.00 0.00 0.00 0.00 0.00 0.00 0.00 0.00 0.00 0.00 0.00 0.00 0.00 0.00 0.00 0.00 0.00 0.00
0.00 0.00 0.00 0.00 0.00 0.00 0.01 0.00 0.00 0.00 0.00 0.00 0.00 0.00 0.00 0.00 0.02 0.01 0.00 0.00 0.00 0.00 0.00 0.00 0.00 0.00 0.00 0.00 0.00 0.00 0.00 0.00 0.00 0.00 0.00 0.00 0.00 0.00 0.00 0.00 0.00 0.00 0.00
0.00 0.00 0.00 0.00 0.00 0.00 0.01 0.00 0.00 0.00 0.00 0.00 0.00 0.00 0.01 0.00 0.01 0.00 0.00 0.00 0.00 0.00 0.00 0.00 0.00 0.00 0.00 0.00 0.00 0.00 0.00 0.00 0.00 0.00 0.00 0.00 0.00 0.00 0.00 0.00 0.00 0.00 0.00

GFSMA_prec_precacc24_090.txt.gz
Total_Precipitation_Accumulation
0.12 0.04 0.00 0.00 0.00 0.00 0.00 0.00 0.00 0.00 0.00 0.00 0.00 0.00 0.00 0.00 0.00 0.00 0.00 0.00 0.00 0.00 0.00 0.00 0.01 0.04 0.09 0.11 0.19 0.11 0.07 0.04 0.01 0.00 0.01 0.00 0.00 0.00 0.00 0.00 0.00 0.00 0.00
0.11 0.08 0.00 0.00 0.00 0.00 0.00 0.00 0.00 0.00 0.00 0.00 0.00 0.00 0.00 0.00 0.00 0.00 0.00 0.00 0.00 0.00 0.00 0.00 0.01 0.03 0.04 0.06 0.10 0.13 0.11 0.07 0.05 0.04 0.02 0.01 0.01 0.01 0.01 0.00 0.00 0.00 0.00
0.13 0.01 0.00 0.00 0.00 0.00 0.00 0.00 0.00 0.00 0.00 0.00 0.00 0.00 0.00 0.00 0.00 0.00 0.00 0.00 0.00 0.00 0.00 0.00 0.01 0.02 0.03 0.03 0.04 0.03 0.07 0.06 0.08 0.12 0.11 0.05 0.01 0.02 0.02 0.02 0.01 0.00 0.00
0.02 0.02 0.00 0.00 0.00 0.00 0.00 0.00 0.00 0.00 0.00 0.00 0.00 0.00 0.00 0.00 0.00 0.00 0.00 0.00 0.00 0.00 0.00 0.00 0.00 0.01 0.02 0.02 0.01 0.02 0.02 0.01 0.02 0.07 0.14 0.13 0.04 0.03 0.04 0.05 0.05 0.03 0.01
0.00 0.02 0.02 0.00 0.00 0.00 0.00 0.00 0.00 0.00 0.00 0.00 0.00 0.00 0.00 0.00 0.00 0.00 0.00 0.00 0.00 0.00 0.00 0.00 0.00 0.00 0.00 0.00 0.03 0.05 0.00 0.00 0.00 0.01 0.04 0.11 0.13 0.10 0.14 0.16 0.11 0.08 0.08
0.06 0.02 0.01 0.00 0.00 0.00 0.00 0.00 0.00 0.00 0.00 0.00 0.00 0.00 0.00 0.00 0.00 0.00 0.00 0.00 0.00 0.00 0.00 0.00 0.00 0.00 0.00 0.00 0.02 0.01 0.00 0.00 0.00 0.00 0.01 0.03 0.10 0.15 0.18 0.20 0.16 0.11 0.10
0.34 0.20 0.10 0.05 0.02 0.00 0.00 0.00 0.00 0.00 0.00 0.00 0.02 0.01 0.00 0.00 0.00 0.00 0.00 0.00 0.00 0.00 0.00 0.00 0.00 0.00 0.00 0.00 0.01 0.01 0.00 0.00 0.00 0.00 0.00 0.00 0.00 0.02 0.10 0.21 0.25 0.22 0.21
0.45 0.33 0.24 0.20 0.13 0.13 0.06 0.03 0.03 0.04 0.04 0.04 0.03 0.03 0.01 0.00 0.00 0.00 0.00 0.00 0.00 0.00 0.00 0.00 0.00 0.00 0.00 0.00 0.00 0.00 0.00 0.00 0.00 0.00 0.00 0.00 0.00 0.00 0.00 0.03 0.11 0.20 0.24
0.82 0.75 0.64 0.48 0.40 0.53 0.69 0.63 0.54 0.46 0.36 0.27 0.18 0.13 0.05 0.01 0.01 0.00 0.00 0.00 0.00 0.00 0.00 0.00 0.00 0.00 0.00 0.00 0.00 0.00 0.00 0.00 0.00 0.00 0.00 0.00 0.00 0.00 0.01 0.01 0.03 0.09 0.18
1.17 1.34 1.52 1.54 1.45 1.24 0.97 0.93 0.89 0.75 0.77 0.75 0.68 0.43 0.31 0.21 0.13 0.06 0.02 0.01 0.01 0.00 0.00 0.00 0.00 0.00 0.00 0.00 0.00 0.00 0.00 0.00 0.00 0.00 0.02 0.02 0.00 0.01 0.01 0.02 0.04 0.06 0.10
1.25 1.24 1.27 1.29 1.14 1.05 1.10 1.06 0.96 0.98 0.92 0.71 0.63 0.52 0.44 0.38 0.43 0.34 0.16 0.08 0.05 0.03 0.01 0.00 0.00 0.00 0.00 0.00 0.00 0.00 0.00 0.00 0.00 0.01 0.03 0.03 0.01 0.02 0.03 0.07 0.05 0.04 0.04
0.78 0.87 0.78 0.71 0.68 0.63 0.61 0.75 0.88 0.83 0.73 0.72 0.73 0.64 0.51 0.44 0.43 0.49 0.41 0.25 0.17 0.11 0.06 0.03 0.02 0.01 0.00 0.00 0.00 0.00 0.00 0.00 0.00 0.01 0.02 0.03 0.02 0.03 0.07 0.11 0.09 0.05 0.03
0.42 0.41 0.40 0.42 0.44 0.47 0.45 0.45 0.45 0.48 0.51 0.48 0.45 0.48 0.51 0.51 0.53 0.54 0.51 0.36 0.19 0.10 0.07 0.03 0.01 0.00 0.00 0.00 0.00 0.00 0.00 0.00 0.00 0.00 0.01 0.03 0.02 0.03 0.06 0.08 0.07 0.05 0.05
0.36 0.45 0.54 0.51 0.43 0.41 0.43 0.41 0.43 0.42 0.42 0.43 0.45 0.38 0.35 0.32 0.30 0.25 0.23 0.23 0.18 0.12 0.05 0.02 0.01 0.01 0.01 0.01 0.01 0.01 0.00 0.01 0.00 0.00 0.01 0.01 0.00 0.02 0.04 0.05 0.02 0.03 0.05
0.39 0.40 0.48 0.46 0.33 0.24 0.19 0.18 0.17 0.17 0.14 0.11 0.10 0.10 0.12 0.16 0.16 0.06 0.06 0.10 0.19 0.12 0.04 0.02 0.02 0.01 0.01 0.01 0.02 0.01 0.00 0.01 0.01 0.01 0.01 0.00 0.00 0.00 0.02 0.02 0.01 0.02 0.02
0.21 0.17 0.21 0.26 0.23 0.17 0.12 0.10 0.10 0.13 0.09 0.09 0.12 0.15 0.14 0.12 0.12 0.06 0.08 0.11 0.05 0.06 0.07 0.03 0.03 0.02 0.01 0.02 0.06 0.02 0.01 0.03 0.01 0.01 0.00 0.00 0.00 0.00 0.00 0.00 0.01 0.01 0.01
0.00 0.00 0.00 0.00 0.01 0.02 0.02 0.02 0.03 0.04 0.05 0.05 0.08 0.13 0.19 0.23 0.27 0.13 0.08 0.07 0.03 0.02 0.04 0.03 0.02 0.01 0.01 0.01 0.02 0.01 0.01 0.00 0.01 0.02 0.00 0.00 0.00 0.00 0.00 0.00 0.00 0.00 0.00
0.00 0.00 0.01 0.01 0.02 0.04 0.04 0.04 0.04 0.04 0.05 0.05 0.07 0.08 0.05 0.06 0.14 0.16 0.05 0.01 0.01 0.00 0.01 0.01 0.01 0.02 0.02 0.01 0.01 0.00 0.00 0.00 0.00 0.02 0.01 0.00 0.00 0.00 0.00 0.00 0.00 0.00 0.00
0.00 0.00 0.00 0.03 0.04 0.03 0.03 0.03 0.03 0.02 0.02 0.03 0.06 0.07 0.07 0.05 0.06 0.05 0.02 0.01 0.01 0.00 0.00 0.00 0.00 0.00 0.01 0.00 0.01 0.00 0.00 0.00 0.00 0.03 0.01 0.00 0.00 0.00 0.00 0.00 0.00 0.00 0.00
0.00 0.00 0.00 0.00 0.01 0.02 0.02 0.02 0.02 0.03 0.02 0.03 0.05 0.04 0.05 0.04 0.05 0.07 0.04 0.01 0.01 0.00 0.01 0.01 0.01 0.01 0.00 0.00 0.01 0.01 0.01 0.00 0.00 0.00 0.00 0.00 0.00 0.00 0.00 0.00 0.00 0.00 0.00
0.00 0.00 0.00 0.00 0.00 0.00 0.00 0.01 0.01 0.02 0.03 0.03 0.03 0.03 0.04 0.06 0.06 0.06 0.02 0.00 0.00 0.01 0.01 0.01 0.01 0.01 0.01 0.00 0.00 0.00 0.00 0.01 0.00 0.00 0.00 0.00 0.00 0.00 0.00 0.00 0.00 0.00 0.00
0.00 0.00 0.00 0.00 0.00 0.00 0.00 0.00 0.00 0.01 0.01 0.02 0.03 0.04 0.04 0.08 0.04 0.04 0.02 0.01 0.00 0.00 0.00 0.00 0.00 0.00 0.00 0.00 0.00 0.00 0.00 0.01 0.00 0.00 0.00 0.00 0.00 0.00 0.00 0.00 0.00 0.00 0.00
0.00 0.00 0.00 0.00 0.00 0.00 0.00 0.00 0.00 0.00 0.00 0.00 0.00 0.01 0.01 0.02 0.02 0.02 0.05 0.04 0.02 0.01 0.00 0.00 0.00 0.00 0.00 0.00 0.00 0.00 0.00 0.01 0.00 0.00 0.00 0.00 0.00 0.00 0.00 0.00 0.00 0.00 0.00
0.00 0.00 0.00 0.00 0.00 0.00 0.00 0.00 0.00 0.00 0.00 0.00 0.00 0.00 0.00 0.00 0.01 0.01 0.00 0.01 0.01 0.01 0.00 0.00 0.00 0.00 0.00 0.00 0.00 0.00 0.00 0.00 0.00 0.00 0.00 0.00 0.00 0.00 0.00 0.00 0.00 0.00 0.00
0.00 0.00 0.00 0.00 0.00 0.00 0.00 0.00 0.00 0.00 0.00 0.00 0.00 0.00 0.00 0.00 0.02 0.01 0.00 0.00 0.00 0.00 0.00 0.00 0.00 0.00 0.00 0.00 0.00 0.00 0.00 0.00 0.00 0.00 0.00 0.00 0.00 0.00 0.00 0.00 0.00 0.00 0.00
0.00 0.00 0.00 0.00 0.00 0.00 0.00 0.00 0.01 0.00 0.00 0.00 0.00 0.00 0.01 0.00 0.01 0.00 0.00 0.00 0.00 0.00 0.00 0.00 0.00 0.00 0.00 0.00 0.00 0.00 0.00 0.00 0.00 0.00 0.00 0.00 0.00 0.00 0.00 0.00 0.00 0.00 0.00

GFSMA_prec_precacc24_093.txt.gz
Total_Precipitation_Accumulation
0.21 0.16 0.20 0.06 0.00 0.00 0.00 0.00 0.00 0.00 0.00 0.00 0.00 0.00 0.00 0.00 0.00 0.00 0.00 0.00 0.00 0.00 0.00 0.00 0.01 0.03 0.07 0.10 0.18 0.13 0.08 0.04 0.01 0.00 0.01 0.00 0.00 0.00 0.00 0.00 0.00 0.00 0.00
0.33 0.37 0.21 0.16 0.05 0.00 0.00 0.00 0.00 0.00 0.00 0.00 0.00 0.00 0.00 0.00 0.00 0.00 0.00 0.00 0.00 0.00 0.00 0.00 0.01 0.03 0.04 0.05 0.08 0.10 0.07 0.05 0.04 0.04 0.02 0.01 0.01 0.01 0.01 0.01 0.00 0.00 0.00
0.35 0.32 0.56 0.25 0.03 0.00 0.00 0.00 0.00 0.00 0.00 0.00 0.00 0.00 0.00 0.00 0.00 0.00 0.00 0.00 0.00 0.00 0.00 0.00 0.01 0.02 0.03 0.03 0.04 0.01 0.02 0.00 0.01 0.07 0.10 0.05 0.01 0.02 0.02 0.03 0.02 0.01 0.00
0.05 0.25 0.27 0.35 0.11 0.01 0.00 0.00 0.00 0.00 0.00 0.00 0.00 0.00 0.00 0.00 0.00 0.00 0.00 0.00 0.00 0.00 0.00 0.00 0.00 0.01 0.02 0.02 0.01 0.03 0.02 0.00 0.00 0.01 0.05 0.09 0.04 0.03 0.04 0.05 0.05 0.03 0.02
0.00 0.05 0.13 0.14 0.08 0.03 0.00 0.00 0.00 0.00 0.00 0.00 0.00 0.00 0.00 0.00 0.00 0.00 0.00 0.00 0.00 0.00 0.00 0.00 0.00 0.00 0.00 0.00 0.03 0.06 0.01 0.00 0.00 0.00 0.00 0.02 0.06 0.09 0.14 0.16 0.11 0.08 0.08
0.07 0.03 0.06 0.08 0.03 0.00 0.00 0.00 0.00 0.00 0.00 0.00 0.00 0.00 0.00 0.00 0.00 0.00 0.00 0.00 0.00 0.00 0.00 0.00 0.00 0.00 0.00 0.00 0.02 0.02 0.02 0.00 0.00 0.00 0.00 0.00 0.00 0.03 0.12 0.19 0.16 0.11 0.10
0.35 0.22 0.14 0.08 0.07 0.01 0.00 0.00 0.00 0.00 0.00 0.00 0.02 0.01 0.00 0.00 0.00 0.00 0.00 0.00 0.00 0.00 0.00 0.00 0.00 0.00 0.00 0.00 0.01 0.02 0.01 0.00 0.00 0.00 0.00 0.00 0.00 0.00 0.01 0.06 0.17 0.21 0.20
0.52 0.37 0.27 0.22 0.14 0.14 0.06 0.03 0.03 0.03 0.04 0.04 0.03 0.03 0.01 0.00 0.00 0.00 0.00 0.00 0.00 0.00 0.00 0.00 0.00 0.00 0.00 0.00 0.00 0.01 0.01 0.01 0.00 0.00 0.00 0.00 0.00 0.00 0.00 0.00 0.01 0.08 0.20
0.87 0.80 0.66 0.50 0.39 0.52 0.69 0.64 0.54 0.46 0.37 0.27 0.19 0.13 0.05 0.01 0.01 0.01 0.01 0.00 0.00 0.00 0.00 0.00 0.00 0.00 0.00 0.00 0.00 0.00 0.00 0.00 0.00 0.00 0.00 0.00 0.00 0.00 0.00 0.01 0.02 0.05 0.08
1.06 1.26 1.45 1.52 1.47 1.28 1.03 1.00 0.95 0.82 0.84 0.81 0.74 0.48 0.33 0.22 0.13 0.07 0.03 0.02 0.01 0.00 0.01 0.00 0.00 0.00 0.00 0.00 0.00 0.00 0.00 0.00 0.00 0.00 0.02 0.03 0.01 0.01 0.01 0.01 0.03 0.05 0.04
1.20 1.13 1.18 1.30 1.22 1.16 1.24 1.20 1.12 1.15 1.09 0.85 0.74 0.59 0.48 0.41 0.45 0.34 0.16 0.08 0.05 0.03 0.01 0.00 0.00 0.00 0.00 0.00 0.00 0.00 0.00 0.00 0.00 0.01 0.03 0.05 0.03 0.01 0.03 0.06 0.05 0.04 0.02
1.09 1.06 0.95 0.87 0.82 0.76 0.73 0.87 0.98 0.93 0.84 0.84 0.82 0.70 0.55 0.47 0.44 0.51 0.42 0.26 0.17 0.11 0.06 0.04 0.04 0.02 0.01 0.00 0.00 0.00 0.00 0.00 0.00 0.00 0.01 0.03 0.03 0.02 0.06 0.10 0.09 0.05 0.03
0.76 0.87 0.72 0.68 0.67 0.65 0.62 0.59 0.58 0.58 0.61 0.57 0.55 0.56 0.58 0.58 0.57 0.57 0.53 0.37 0.20 0.10 0.06 0.02 0.01 0.01 0.00 0.00 0.00 0.00 0.00 0.00 0.00 0.00 0.01 0.03 0.02 0.01 0.04 0.07 0.07 0.05 0.05
0.61 0.69 0.76 0.69 0.60 0.57 0.59 0.57 0.55 0.53 0.51 0.52 0.53 0.48 0.43 0.39 0.37 0.29 0.25 0.26 0.22 0.16 0.10 0.04 0.01 0.01 0.01 0.01 0.02 0.01 0.00 0.01 0.00 0.00 0.01 0.01 0.00 0.01 0.01 0.02 0.01 0.02 0.04
0.69 0.66 0.71 0.64 0.49 0.36 0.28 0.28 0.26 0.24 0.20 0.17 0.16 0.15 0.16 0.19 0.23 0.18 0.16 0.24 0.37 0.37 0.30 0.22 0.15 0.12 0.05 0.03 0.03 0.01 0.00 0.01 0.01 0.01 0.01 0.00 0.00 0.00 0.01 0.01 0.01 0.01 0.01
0.32 0.34 0.41 0.39 0.34 0.37 0.33 0.29 0.23 0.25 0.18 0.15 0.17 0.21 0.19 0.15 0.16 0.14 0.16 0.16 0.08 0.07 0.06 0.03 0.04 0.06 0.07 0.05 0.06 0.02 0.01 0.03 0.01 0.01 0.00 0.00 0.00 0.00 0.00 0.00 0.01 0.00 0.01
0.00 0.01 0.02 0.04 0.04 0.05 0.13 0.19 0.15 0.12 0.12 0.11 0.14 0.19 0.23 0.27 0.31 0.26 0.21 0.17 0.12 0.05 0.04 0.03 0.02 0.01 0.01 0.02 0.02 0.01 0.01 0.00 0.01 0.02 0.00 0.00 0.00 0.00 0.00 0.00 0.00 0.00 0.00
0.00 0.00 0.01 0.01 0.02 0.04 0.04 0.04 0.04 0.04 0.05 0.05 0.07 0.09 0.08 0.10 0.17 0.22 0.20 0.13 0.14 0.23 0.18 0.06 0.03 0.02 0.02 0.01 0.01 0.00 0.00 0.00 0.00 0.02 0.01 0.00 0.00 0.00 0.00 0.00 0.00 0.00 0.00
0.00 0.00 0.00 0.03 0.04 0.03 0.03 0.03 0.03 0.03 0.02 0.04 0.06 0.07 0.07 0.07 0.07 0.07 0.07 0.12 0.12 0.08 0.06 0.05 0.04 0.00 0.01 0.00 0.01 0.00 0.00 0.00 0.00 0.03 0.01 0.01 0.00 0.00 0.00 0.00 0.00 0.00 0.00
0.00 0.00 0.00 0.00 0.01 0.02 0.02 0.02 0.02 0.03 0.02 0.03 0.05 0.04 0.05 0.05 0.05 0.10 0.15 0.17 0.19 0.15 0.05 0.01 0.01 0.01 0.00 0.00 0.01 0.01 0.01 0.00 0.00 0.00 0.01 0.00 0.00 0.00 0.00 0.00 0.00 0.00 0.00
0.00 0.00 0.00 0.00 0.00 0.00 0.00 0.01 0.01 0.02 0.03 0.03 0.03 0.03 0.04 0.07 0.08 0.09 0.09 0.08 0.10 0.12 0.06 0.01 0.01 0.01 0.01 0.00 0.00 0.00 0.00 0.01 0.00 0.00 0.00 0.00 0.00 0.00 0.00 0.00 0.00 0.00 0.00
0.00 0.00 0.00 0.00 0.00 0.00 0.00 0.00 0.00 0.01 0.01 0.02 0.03 0.03 0.04 0.09 0.06 0.08 0.06 0.07 0.05 0.02 0.01 0.00 0.00 0.00 0.00 0.00 0.00 0.00 0.00 0.01 0.00 0.00 0.00 0.00 0.00 0.00 0.00 0.00 0.00 0.00 0.00
0.00 0.00 0.00 0.00 0.00 0.00 0.00 0.00 0.00 0.00 0.00 0.00 0.00 0.01 0.01 0.02 0.03 0.03 0.09 0.10 0.08 0.05 0.02 0.00 0.00 0.00 0.00 0.00 0.00 0.00 0.00 0.01 0.00 0.00 0.00 0.00 0.00 0.00 0.00 0.00 0.00 0.00 0.00
0.00 0.00 0.00 0.00 0.00 0.00 0.00 0.00 0.00 0.00 0.00 0.00 0.00 0.00 0.00 0.00 0.01 0.01 0.00 0.01 0.03 0.06 0.08 0.07 0.07 0.05 0.03 0.01 0.00 0.00 0.00 0.00 0.00 0.00 0.00 0.00 0.00 0.00 0.00 0.00 0.00 0.00 0.00
0.00 0.00 0.00 0.00 0.00 0.00 0.00 0.00 0.00 0.00 0.00 0.00 0.00 0.00 0.00 0.00 0.02 0.01 0.00 0.00 0.00 0.00 0.00 0.01 0.03 0.05 0.05 0.03 0.00 0.00 0.00 0.00 0.00 0.00 0.00 0.00 0.00 0.00 0.00 0.00 0.00 0.00 0.00
0.00 0.00 0.00 0.00 0.00 0.00 0.00 0.00 0.01 0.00 0.00 0.00 0.00 0.00 0.01 0.00 0.01 0.00 0.00 0.00 0.00 0.00 0.00 0.00 0.00 0.00 0.00 0.00 0.00 0.00 0.00 0.00 0.00 0.00 0.00 0.00 0.00 0.00 0.00 0.00 0.00 0.00 0.00

GFSMA_prec_precacc24_096.txt.gz
Total_Precipitation_Accumulation
0.23 0.20 0.23 0.07 0.01 0.01 0.00 0.00 0.00 0.00 0.00 0.00 0.00 0.00 0.00 0.00 0.00 0.00 0.00 0.00 0.00 0.00 0.00 0.00 0.01 0.02 0.05 0.08 0.16 0.13 0.06 0.02 0.01 0.00 0.01 0.00 0.00 0.00 0.00 0.00 0.00 0.00 0.00
0.33 0.40 0.26 0.17 0.09 0.03 0.02 0.00 0.00 0.00 0.00 0.00 0.00 0.00 0.00 0.00 0.00 0.00 0.00 0.00 0.00 0.00 0.00 0.01 0.02 0.03 0.04 0.04 0.07 0.09 0.05 0.01 0.01 0.03 0.02 0.01 0.01 0.01 0.01 0.01 0.01 0.00 0.00
0.35 0.33 0.66 0.44 0.13 0.09 0.06 0.02 0.00 0.00 0.00 0.00 0.00 0.00 0.00 0.00 0.00 0.00 0.00 0.00 0.00 0.00 0.00 0.00 0.01 0.03 0.03 0.03 0.04 0.02 0.01 0.00 0.00 0.02 0.05 0.04 0.01 0.02 0.02 0.03 0.02 0.01 0.01
0.05 0.25 0.28 0.58 0.53 0.35 0.22 0.07 0.04 0.01 0.00 0.00 0.00 0.00 0.00 0.00 0.00 0.00 0.00 0.00 0.00 0.00 0.00 0.00 0.00 0.01 0.03 0.02 0.01 0.03 0.03 0.00 0.00 0.00 0.01 0.02 0.03 0.03 0.04 0.05 0.05 0.03 0.02
0.01 0.05 0.14 0.16 0.28 0.30 0.25 0.13 0.06 0.01 0.00 0.00 0.00 0.00 0.00 0.00 0.00 0.00 0.00 0.00 0.00 0.00 0.00 0.00 0.00 0.00 0.00 0.01 0.03 0.06 0.02 0.00 0.00 0.00 0.00 0.00 0.01 0.05 0.12 0.16 0.11 0.08 0.08
0.08 0.06 0.09 0.12 0.10 0.12 0.13 0.09 0.04 0.01 0.00 0.00 0.00 0.00 0.00 0.00 0.00 0.00 0.00 0.00 0.00 0.00 0.00 0.00 0.00 0.00 0.00 0.00 0.02 0.03 0.03 0.00 0.00 0.00 0.00 0.00 0.00 0.00 0.02 0.11 0.14 0.11 0.10
0.34 0.25 0.18 0.14 0.13 0.05 0.04 0.06 0.04 0.02 0.00 0.00 0.02 0.01 0.00 0.00 0.00 0.00 0.00 0.00 0.00 0.00 0.00 0.00 0.00 0.00 0.00 0.00 0.01 0.02 0.03 0.01 0.00 0.00 0.00 0.00 0.00 0.00 0.00 0.00 0.06 0.15 0.19
0.71 0.44 0.33 0.28 0.19 0.18 0.07 0.05 0.05 0.05 0.04 0.04 0.03 0.03 0.01 0.00 0.00 0.00 0.00 0.00 0.00 0.00 0.00 0.00 0.00 0.00 0.00 0.00 0.00 0.01 0.02 0.02 0.00 0.00 0.00 0.00 0.00 0.00 0.00 0.00 0.00 0.02 0.10
0.96 1.04 0.92 0.66 0.47 0.49 0.62 0.60 0.54 0.46 0.37 0.27 0.19 0.13 0.05 0.01 0.01 0.01 0.01 0.00 0.00 0.00 0.00 0.00 0.00 0.00 0.00 0.00 0.00 0.00 0.00 0.01 0.00 0.00 0.00 0.00 0.00 0.00 0.00 0.00 0.01 0.04 0.03
1.09 1.25 1.42 1.57 1.51 1.19 0.91 0.95 0.95 0.82 0.84 0.81 0.74 0.48 0.33 0.22 0.14 0.07 0.03 0.02 0.01 0.01 0.01 0.00 0.00 0.00 0.00 0.00 0.00 0.00 0.00 0.00 0.00 0.00 0.02 0.03 0.01 0.01 0.01 0.01 0.03 0.04 0.03
1.18 1.11 1.15 1.28 1.31 1.34 1.43 1.33 1.17 1.19 1.13 0.89 0.77 0.61 0.50 0.43 0.45 0.35 0.16 0.08 0.05 0.03 0.02 0.00 0.00 0.00 0.00 0.00 0.00 0.00 0.00 0.00 0.00 0.00 0.03 0.06 0.04 0.01 0.02 0.06 0.05 0.04 0.02
1.23 1.15 1.04 0.98 0.98 0.96 0.97 1.15 1.21 1.07 0.97 0.97 0.96 0.82 0.63 0.55 0.49 0.55 0.44 0.26 0.17 0.11 0.07 0.04 0.04 0.02 0.01 0.00 0.00 0.00 0.00 0.00 0.00 0.00 0.00 0.03 0.04 0.02 0.04 0.09 0.08 0.04 0.03
1.22 1.06 0.91 0.88 0.83 0.80 0.77 0.73 0.74 0.72 0.73 0.68 0.64 0.66 0.68 0.65 0.62 0.61 0.57 0.39 0.20 0.10 0.06 0.02 0.01 0.01 0.00 0.00 0.00 0.01 0.00 0.00 0.00 0.00 0.00 0.03 0.03 0.01 0.02 0.04 0.05 0.03 0.05
1.07 0.93 0.80 0.80 0.76 0.73 0.74 0.71 0.68 0.70 0.69 0.69 0.67 0.60 0.54 0.48 0.44 0.37 0.32 0.32 0.28 0.18 0.11 0.06 0.04 0.03 0.03 0.04 0.05 0.05 0.01 0.02 0.01 0.00 0.01 0.01 0.00 0.00 0.00 0.01 0.01 0.01 0.02
0.87 0.91 0.94 0.85 0.66 0.52 0.41 0.40 0.39 0.34 0.36 0.38 0.31 0.25 0.26 0.25 0.27 0.24 0.21 0.28 0.45 0.47 0.38 0.30 0.22 0.18 0.17 0.18 0.19 0.14 0.06 0.05 0.02 0.01 0.01 0.00 0.00 0.00 0.00 0.00 0.00 0.00 0.01
0.39 0.44 0.51 0.52 0.51 0.54 0.59 0.53 0.40 0.38 0.33 0.28 0.29 0.31 0.29 0.25 0.26 0.26 0.28 0.28 0.22 0.21 0.19 0.10 0.08 0.11 0.19 0.26 0.30 0.21 0.11 0.07 0.02 0.01 0.00 0.00 0.00 0.00 0.00 0.00 0.00 0.00 0.01
0.01 0.02 0.03 0.05 0.06 0.10 0.20 0.32 0.38 0.36 0.33 0.30 0.35 0.43 0.47 0.50 0.54 0.47 0.39 0.38 0.37 0.26 0.17 0.06 0.04 0.01 0.02 0.08 0.11 0.08 0.06 0.03 0.01 0.02 0.00 0.00 0.00 0.00 0.00 0.00 0.00 0.00 0.00
0.00 0.00 0.01 0.01 0.02 0.04 0.05 0.04 0.05 0.06 0.07 0.07 0.11 0.14 0.14 0.17 0.24 0.29 0.31 0.25 0.28 0.41 0.43 0.23 0.13 0.07 0.03 0.02 0.01 0.01 0.00 0.00 0.00 0.02 0.01 0.00 0.00 0.00 0.00 0.00 0.00 0.00 0.00
0.00 0.00 0.00 0.03 0.04 0.03 0.03 0.03 0.03 0.03 0.02 0.04 0.07 0.08 0.08 0.07 0.08 0.08 0.10 0.15 0.16 0.16 0.24 0.26 0.23 0.19 0.13 0.08 0.03 0.01 0.01 0.00 0.00 0.03 0.01 0.01 0.00 0.00 0.00 0.00 0.00 0.00 0.00
0.00 0.00 0.00 0.00 0.01 0.02 0.02 0.02 0.02 0.03 0.02 0.03 0.05 0.04 0.05 0.05 0.06 0.10 0.15 0.18 0.21 0.22 0.20 0.18 0.20 0.17 0.13 0.10 0.07 0.02 0.01 0.00 0.00 0.00 0.01 0.00 0.00 0.00 0.00 0.00 0.00 0.00 0.00
0.00 0.00 0.00 0.00 0.00 0.00 0.00 0.01 0.01 0.02 0.03 0.03 0.03 0.03 0.04 0.08 0.10 0.10 0.10 0.08 0.12 0.17 0.21 0.23 0.20 0.15 0.11 0.05 0.01 0.01 0.00 0.01 0.00 0.00 0.00 0.00 0.00 0.00 0.00 0.00 0.00 0.00 0.00
0.00 0.00 0.00 0.00 0.00 0.00 0.00 0.00 0.00 0.01 0.01 0.02 0.03 0.03 0.04 0.08 0.05 0.08 0.08 0.09 0.08 0.07 0.07 0.05 0.05 0.05 0.06 0.07 0.03 0.01 0.00 0.01 0.00 0.00 0.00 0.00 0.00 0.00 0.00 0.00 0.00 0.00 0.00
0.00 0.00 0.00 0.00 0.00 0.00 0.00 0.00 0.00 0.00 0.00 0.00 0.00 0.00 0.00 0.01 0.02 0.03 0.10 0.13 0.11 0.12 0.08 0.04 0.03 0.01 0.01 0.01 0.02 0.01 0.00 0.01 0.00 0.00 0.00 0.00 0.00 0.00 0.00 0.00 0.00 0.00 0.00
0.00 0.00 0.00 0.00 0.00 0.00 0.00 0.00 0.00 0.00 0.00 0.00 0.00 0.00 0.00 0.00 0.00 0.00 0.00 0.02 0.04 0.09 0.13 0.12 0.11 0.09 0.07 0.05 0.02 0.01 0.01 0.00 0.00 0.00 0.00 0.00 0.00 0.00 0.00 0.00 0.00 0.00 0.00
0.00 0.00 0.00 0.00 0.00 0.00 0.00 0.00 0.00 0.00 0.00 0.00 0.00 0.00 0.00 0.00 0.01 0.01 0.00 0.00 0.00 0.01 0.05 0.09 0.12 0.16 0.21 0.21 0.16 0.13 0.10 0.06 0.01 0.00 0.00 0.00 0.00 0.00 0.00 0.00 0.00 0.00 0.00
0.00 0.00 0.00 0.00 0.00 0.00 0.00 0.00 0.01 0.00 0.00 0.00 0.00 0.00 0.01 0.01 0.01 0.01 0.00 0.00 0.00 0.00 0.01 0.02 0.02 0.04 0.06 0.07 0.06 0.03 0.04 0.05 0.02 0.00 0.00 0.00 0.00 0.00 0.00 0.00 0.00 0.00 0.00

GFSMA_prec_precacc24_099.txt.gz
Total_Precipitation_Accumulation
0.23 0.20 0.24 0.07 0.01 0.01 0.01 0.02 0.00 0.00 0.00 0.00 0.00 0.00 0.00 0.00 0.00 0.00 0.00 0.00 0.00 0.00 0.01 0.02 0.01 0.01 0.02 0.06 0.11 0.12 0.07 0.00 0.00 0.00 0.01 0.00 0.00 0.00 0.00 0.00 0.00 0.00 0.00
0.33 0.40 0.26 0.17 0.11 0.03 0.03 0.02 0.03 0.02 0.00 0.00 0.00 0.00 0.00 0.00 0.00 0.00 0.00 0.00 0.00 0.00 0.00 0.03 0.06 0.05 0.04 0.04 0.05 0.08 0.07 0.02 0.00 0.01 0.02 0.01 0.01 0.01 0.01 0.01 0.01 0.00 0.00
0.35 0.33 0.66 0.44 0.14 0.10 0.08 0.05 0.05 0.04 0.02 0.00 0.00 0.00 0.00 0.00 0.00 0.00 0.00 0.00 0.00 0.00 0.00 0.00 0.02 0.05 0.04 0.04 0.04 0.02 0.02 0.00 0.00 0.00 0.01 0.02 0.01 0.02 0.02 0.03 0.02 0.01 0.01
0.05 0.25 0.28 0.58 0.54 0.36 0.25 0.17 0.14 0.13 0.07 0.01 0.00 0.00 0.00 0.00 0.00 0.00 0.00 0.00 0.00 0.00 0.00 0.00 0.00 0.01 0.04 0.03 0.01 0.03 0.03 0.01 0.00 0.00 0.00 0.00 0.00 0.02 0.04 0.05 0.05 0.03 0.02
0.01 0.05 0.14 0.17 0.29 0.31 0.29 0.29 0.22 0.15 0.11 0.05 0.01 0.00 0.00 0.00 0.00 0.00 0.00 0.00 0.00 0.00 0.00 0.00 0.00 0.00 0.01 0.01 0.03 0.06 0.03 0.01 0.00 0.00 0.00 0.00 0.00 0.00 0.06 0.14 0.11 0.08 0.08
0.06 0.05 0.09 0.12 0.11 0.14 0.15 0.11 0.11 0.12 0.07 0.03 0.02 0.01 0.00 0.00 0.00 0.00 0.00 0.00 0.00 0.00 0.00 0.00 0.00 0.00 0.00 0.01 0.03 0.03 0.04 0.01 0.00 0.00 0.00 0.00 0.00 0.00 0.00 0.02 0.08 0.11 0.10
0.24 0.22 0.18 0.15 0.16 0.07 0.05 0.07 0.06 0.04 0.02 0.02 0.04 0.03 0.01 0.00 0.00 0.00 0.00 0.00 0.00 0.00 0.00 0.00 0.00 0.00 0.00 0.00 0.01 0.02 0.03 0.02 0.00 0.00 0.00 0.00 0.00 0.00 0.00 0.00 0.01 0.06 0.16
0.51 0.40 0.33 0.28 0.21 0.20 0.09 0.06 0.07 0.07 0.04 0.05 0.03 0.04 0.02 0.00 0.00 0.00 0.00 0.00 0.00 0.00 0.00 0.00 0.00 0.00 0.00 0.00 0.00 0.01 0.02 0.02 0.00 0.00 0.00 0.00 0.00 0.00 0.00 0.00 0.00 0.01 0.06
0.80 0.95 1.01 0.75 0.47 0.46 0.56 0.50 0.46 0.40 0.35 0.28 0.19 0.13 0.05 0.01 0.01 0.01 0.01 0.00 0.00 0.00 0.00 0.00 0.00 0.00 0.00 0.00 0.00 0.00 0.00 0.02 0.00 0.00 0.00 0.00 0.00 0.00 0.00 0.00 0.01 0.04 0.03
0.80 0.99 1.19 1.50 1.79 1.53 1.00 0.87 0.87 0.77 0.83 0.84 0.75 0.49 0.34 0.24 0.14 0.07 0.03 0.02 0.01 0.01 0.01 0.01 0.01 0.01 0.01 0.00 0.00 0.00 0.01 0.03 0.00 0.00 0.02 0.03 0.01 0.00 0.00 0.01 0.03 0.04 0.03
0.94 0.82 0.85 0.99 1.10 1.47 1.93 1.67 1.34 1.30 1.20 0.92 0.80 0.62 0.51 0.47 0.49 0.37 0.17 0.08 0.05 0.04 0.04 0.04 0.04 0.03 0.02 0.01 0.00 0.00 0.01 0.02 0.01 0.01 0.03 0.05 0.05 0.01 0.01 0.05 0.05 0.04 0.02
1.19 1.11 0.95 0.85 0.88 0.94 1.09 1.50 1.48 1.19 1.06 1.05 1.03 0.89 0.69 0.62 0.53 0.61 0.48 0.31 0.22 0.14 0.09 0.06 0.06 0.04 0.02 0.01 0.01 0.01 0.00 0.01 0.01 0.03 0.03 0.05 0.06 0.06 0.02 0.06 0.08 0.04 0.03
1.38 1.26 0.99 0.96 0.84 0.81 0.87 0.97 1.14 1.09 0.90 0.79 0.75 0.77 0.79 0.76 0.73 0.72 0.68 0.46 0.24 0.13 0.08 0.03 0.01 0.01 0.01 0.01 0.01 0.02 0.01 0.00 0.00 0.01 0.02 0.05 0.06 0.03 0.01 0.02 0.03 0.02 0.03
1.12 1.28 0.96 0.78 0.79 0.77 0.75 0.81 0.84 0.93 0.92 0.88 0.85 0.76 0.69 0.63 0.60 0.55 0.53 0.51 0.42 0.23 0.12 0.07 0.04 0.04 0.04 0.05 0.08 0.11 0.05 0.05 0.03 0.01 0.02 0.02 0.01 0.01 0.00 0.01 0.01 0.01 0.01
0.91 0.96 1.03 0.94 0.80 0.72 0.62 0.58 0.54 0.48 0.53 0.59 0.56 0.53 0.53 0.48 0.47 0.43 0.42 0.50 0.67 0.60 0.41 0.30 0.22 0.19 0.19 0.21 0.28 0.23 0.12 0.15 0.09 0.04 0.02 0.01 0.01 0.00 0.00 0.00 0.00 0.00 0.01
0.43 0.55 0.62 0.60 0.62 0.66 0.71 0.69 0.60 0.62 0.60 0.50 0.47 0.51 0.50 0.45 0.47 0.43 0.41 0.42 0.38 0.37 0.30 0.13 0.10 0.12 0.20 0.28 0.39 0.38 0.30 0.25 0.13 0.06 0.04 0.01 0.01 0.00 0.00 0.00 0.00 0.00 0.00
0.01 0.02 0.04 0.06 0.08 0.13 0.27 0.42 0.48 0.54 0.56 0.56 0.66 0.71 0.73 0.80 0.82 0.70 0.63 0.63 0.62 0.53 0.47 0.20 0.08 0.06 0.05 0.08 0.13 0.16 0.24 0.15 0.08 0.08 0.05 0.02 0.00 0.00 0.00 0.00 0.00 0.00 0.00
0.00 0.00 0.01 0.01 0.02 0.04 0.05 0.05 0.06 0.08 0.10 0.13 0.19 0.24 0.24 0.32 0.43 0.48 0.51 0.44 0.45 0.59 0.73 0.47 0.27 0.18 0.11 0.07 0.07 0.07 0.07 0.05 0.04 0.06 0.02 0.01 0.00 0.00 0.00 0.00 0.00 0.00 0.00
0.00 0.00 0.00 0.03 0.04 0.03 0.03 0.03 0.03 0.03 0.02 0.04 0.07 0.09 0.10 0.10 0.11 0.11 0.14 0.18 0.19 0.22 0.35 0.43 0.39 0.34 0.29 0.25 0.22 0.17 0.12 0.06 0.01 0.04 0.01 0.01 0.00 0.00 0.00 0.00 0.00 0.00 0.00
0.00 0.00 0.00 0.00 0.01 0.02 0.02 0.02 0.02 0.03 0.02 0.03 0.05 0.04 0.05 0.05 0.06 0.10 0.16 0.18 0.22 0.26 0.25 0.23 0.23 0.22 0.20 0.23 0.26 0.24 0.20 0.09 0.02 0.01 0.01 0.00 0.00 0.00 0.00 0.00 0.00 0.00 0.00
0.00 0.00 0.00 0.00 0.00 0.00 0.00 0.01 0.01 0.02 0.03 0.03 0.03 0.03 0.04 0.08 0.11 0.10 0.10 0.08 0.12 0.19 0.23 0.25 0.22 0.19 0.18 0.18 0.18 0.18 0.17 0.12 0.05 0.01 0.00 0.00 0.00 0.00 0.00 0.00 0.00 0.00 0.00
0.00 0.00 0.00 0.00 0.00 0.00 0.00 0.00 0.00 0.01 0.01 0.02 0.03 0.03 0.04 0.08 0.05 0.07 0.08 0.11 0.10 0.09 0.08 0.08 0.07 0.07 0.07 0.10 0.13 0.15 0.17 0.16 0.08 0.02 0.00 0.00 0.00 0.00 0.00 0.00 0.00 0.00 0.00
0.00 0.00 0.00 0.00 0.00 0.00 0.00 0.00 0.00 0.00 0.00 0.00 0.00 0.00 0.00 0.01 0.02 0.03 0.09 0.13 0.12 0.14 0.11 0.07 0.05 0.04 0.04 0.05 0.07 0.08 0.07 0.06 0.04 0.02 0.01 0.00 0.00 0.00 0.00 0.00 0.00 0.00 0.00
0.00 0.00 0.00 0.00 0.00 0.00 0.00 0.00 0.00 0.00 0.00 0.00 0.00 0.00 0.00 0.00 0.00 0.00 0.00 0.02 0.04 0.10 0.16 0.17 0.14 0.12 0.14 0.15 0.14 0.10 0.03 0.02 0.02 0.01 0.00 0.00 0.00 0.00 0.00 0.00 0.00 0.00 0.00
0.00 0.00 0.00 0.00 0.00 0.00 0.00 0.00 0.00 0.00 0.00 0.00 0.00 0.00 0.00 0.00 0.00 0.01 0.00 0.00 0.00 0.01 0.09 0.17 0.22 0.29 0.33 0.34 0.26 0.20 0.20 0.15 0.08 0.02 0.01 0.00 0.00 0.00 0.00 0.00 0.00 0.00 0.00
0.00 0.00 0.00 0.00 0.00 0.00 0.00 0.00 0.00 0.00 0.00 0.00 0.00 0.00 0.00 0.01 0.01 0.01 0.01 0.00 0.00 0.00 0.01 0.03 0.07 0.13 0.19 0.21 0.20 0.12 0.10 0.12 0.13 0.15 0.12 0.08 0.02 0.00 0.00 0.00 0.00 0.00 0.00

GFSMA_prec_precacc24_102.txt.gz
Total_Precipitation_Accumulation
0.23 0.20 0.24 0.07 0.03 0.03 0.01 0.02 0.00 0.00 0.00 0.00 0.00 0.00 0.00 0.00 0.00 0.00 0.00 0.00 0.00 0.00 0.02 0.05 0.02 0.01 0.02 0.05 0.11 0.11 0.07 0.01 0.00 0.00 0.01 0.00 0.00 0.00 0.00 0.00 0.00 0.00 0.00
0.33 0.40 0.26 0.17 0.11 0.03 0.03 0.02 0.03 0.02 0.00 0.00 0.00 0.00 0.00 0.00 0.00 0.00 0.00 0.00 0.00 0.00 0.00 0.06 0.10 0.08 0.05 0.03 0.04 0.08 0.09 0.03 0.00 0.00 0.01 0.01 0.01 0.01 0.01 0.01 0.01 0.01 0.00
0.35 0.33 0.67 0.44 0.14 0.12 0.12 0.08 0.07 0.06 0.05 0.02 0.00 0.00 0.00 0.00 0.00 0.00 0.00 0.00 0.00 0.00 0.00 0.00 0.02 0.08 0.08 0.07 0.05 0.02 0.02 0.00 0.00 0.00 0.00 0.00 0.01 0.02 0.02 0.03 0.02 0.01 0.01
0.05 0.25 0.28 0.59 0.54 0.37 0.28 0.20 0.16 0.15 0.14 0.09 0.04 0.01 0.00 0.00 0.00 0.00 0.00 0.00 0.00 0.00 0.00 0.00 0.00 0.01 0.05 0.04 0.03 0.03 0.03 0.01 0.00 0.00 0.00 0.00 0.00 0.01 0.03 0.05 0.05 0.03 0.02
0.01 0.05 0.14 0.17 0.29 0.32 0.30 0.31 0.25 0.18 0.15 0.10 0.04 0.01 0.00 0.00 0.00 0.00 0.00 0.00 0.00 0.00 0.00 0.00 0.00 0.00 0.01 0.02 0.04 0.08 0.03 0.01 0.00 0.00 0.00 0.00 0.00 0.00 0.01 0.07 0.10 0.08 0.08
0.04 0.04 0.08 0.12 0.12 0.15 0.16 0.12 0.14 0.14 0.10 0.06 0.05 0.03 0.01 0.00 0.00 0.00 0.00 0.00 0.00 0.00 0.00 0.00 0.00 0.00 0.00 0.00 0.04 0.07 0.06 0.01 0.00 0.00 0.00 0.00 0.00 0.00 0.00 0.00 0.02 0.08 0.10
0.19 0.12 0.12 0.15 0.16 0.08 0.06 0.08 0.08 0.05 0.04 0.04 0.05 0.03 0.01 0.00 0.00 0.00 0.00 0.00 0.00 0.00 0.00 0.00 0.00 0.00 0.00 0.00 0.01 0.06 0.07 0.02 0.01 0.00 0.00 0.00 0.00 0.00 0.00 0.00 0.00 0.01 0.10
0.47 0.27 0.20 0.17 0.16 0.20 0.09 0.07 0.08 0.07 0.05 0.03 0.03 0.04 0.02 0.01 0.01 0.00 0.00 0.00 0.00 0.00 0.00 0.00 0.00 0.00 0.00 0.00 0.00 0.02 0.05 0.04 0.01 0.01 0.00 0.00 0.00 0.00 0.00 0.00 0.00 0.01 0.02
0.76 0.75 0.74 0.53 0.28 0.37 0.52 0.44 0.38 0.31 0.27 0.24 0.20 0.14 0.06 0.02 0.01 0.01 0.01 0.00 0.00 0.00 0.00 0.00 0.00 0.00 0.00 0.00 0.00 0.00 0.00 0.04 0.03 0.04 0.01 0.00 0.00 0.00 0.00 0.00 0.01 0.04 0.03
0.59 0.57 0.63 0.90 1.31 1.33 0.87 0.76 0.74 0.69 0.76 0.77 0.71 0.48 0.34 0.24 0.15 0.08 0.03 0.02 0.01 0.01 0.01 0.01 0.01 0.03 0.07 0.07 0.05 0.02 0.01 0.04 0.04 0.04 0.06 0.03 0.01 0.00 0.00 0.00 0.03 0.04 0.02
0.75 0.63 0.54 0.61 0.79 1.17 1.48 1.29 1.26 1.40 1.32 0.99 0.81 0.62 0.53 0.48 0.51 0.42 0.21 0.11 0.08 0.06 0.06 0.07 0.09 0.11 0.11 0.10 0.07 0.05 0.04 0.04 0.05 0.04 0.09 0.08 0.05 0.02 0.00 0.02 0.04 0.04 0.02
1.01 0.90 0.77 0.69 0.69 0.78 0.92 1.22 1.22 1.12 1.16 1.25 1.21 1.03 0.79 0.69 0.57 0.65 0.54 0.35 0.29 0.21 0.16 0.15 0.12 0.10 0.07 0.05 0.04 0.04 0.05 0.04 0.07 0.07 0.10 0.13 0.11 0.09 0.05 0.04 0.04 0.03 0.03
1.32 1.24 1.07 1.05 0.89 0.83 0.85 0.92 1.10 1.01 0.85 0.82 0.81 0.87 0.89 0.84 0.80 0.82 0.81 0.57 0.34 0.18 0.12 0.05 0.03 0.02 0.02 0.02 0.02 0.03 0.02 0.02 0.04 0.05 0.06 0.09 0.11 0.09 0.08 0.04 0.02 0.01 0.01
1.10 1.29 1.08 1.04 1.02 0.89 0.79 0.78 0.87 1.03 1.01 0.93 0.89 0.80 0.75 0.69 0.67 0.64 0.64 0.66 0.60 0.38 0.20 0.10 0.06 0.08 0.09 0.09 0.09 0.12 0.05 0.06 0.03 0.05 0.07 0.08 0.07 0.04 0.03 0.02 0.01 0.01 0.00
0.90 0.98 1.11 1.03 0.93 0.85 0.75 0.71 0.66 0.63 0.73 0.72 0.65 0.62 0.63 0.57 0.58 0.56 0.56 0.67 0.90 0.90 0.61 0.36 0.26 0.24 0.25 0.27 0.31 0.24 0.13 0.16 0.10 0.05 0.05 0.04 0.04 0.03 0.02 0.01 0.00 0.00 0.00
0.43 0.56 0.67 0.66 0.68 0.71 0.79 0.81 0.73 0.75 0.79 0.74 0.69 0.68 0.63 0.57 0.60 0.60 0.59 0.58 0.54 0.57 0.46 0.16 0.11 0.16 0.29 0.35 0.43 0.39 0.32 0.36 0.21 0.13 0.10 0.06 0.04 0.02 0.01 0.00 0.00 0.00 0.00
0.01 0.02 0.04 0.06 0.08 0.15 0.30 0.46 0.56 0.62 0.69 0.72 0.91 1.10 1.13 1.19 1.21 1.05 0.91 0.88 0.85 0.76 0.73 0.38 0.21 0.18 0.18 0.18 0.17 0.18 0.27 0.22 0.19 0.24 0.14 0.07 0.03 0.01 0.00 0.00 0.00 0.00 0.00
0.00 0.00 0.00 0.01 0.02 0.04 0.05 0.05 0.07 0.09 0.12 0.17 0.25 0.33 0.35 0.47 0.64 0.78 0.88 0.81 0.79 0.93 1.05 0.66 0.32 0.22 0.15 0.11 0.11 0.10 0.12 0.16 0.21 0.29 0.16 0.07 0.02 0.01 0.01 0.00 0.00 0.00 0.00
0.00 0.00 0.00 0.02 0.04 0.03 0.03 0.03 0.03 0.03 0.02 0.04 0.07 0.09 0.10 0.11 0.13 0.15 0.20 0.27 0.27 0.30 0.44 0.51 0.43 0.38 0.33 0.33 0.34 0.30 0.22 0.17 0.17 0.24 0.12 0.05 0.02 0.00 0.00 0.00 0.00 0.00 0.00
0.00 0.00 0.00 0.00 0.01 0.02 0.02 0.02 0.02 0.03 0.02 0.03 0.05 0.04 0.05 0.05 0.06 0.10 0.16 0.18 0.23 0.27 0.27 0.26 0.25 0.24 0.22 0.25 0.31 0.33 0.32 0.24 0.19 0.17 0.11 0.04 0.01 0.01 0.00 0.00 0.00 0.00 0.00
0.00 0.00 0.00 0.00 0.00 0.00 0.00 0.01 0.01 0.02 0.03 0.03 0.03 0.03 0.04 0.08 0.11 0.10 0.10 0.08 0.13 0.19 0.24 0.26 0.22 0.20 0.20 0.20 0.20 0.20 0.21 0.22 0.24 0.19 0.12 0.04 0.01 0.00 0.00 0.00 0.00 0.00 0.00
0.00 0.00 0.00 0.00 0.00 0.00 0.00 0.00 0.00 0.01 0.01 0.02 0.03 0.03 0.04 0.08 0.05 0.07 0.07 0.10 0.10 0.09 0.09 0.09 0.08 0.08 0.08 0.10 0.15 0.21 0.28 0.34 0.31 0.18 0.14 0.11 0.05 0.01 0.00 0.00 0.00 0.00 0.00
0.00 0.00 0.00 0.00 0.00 0.00 0.00 0.00 0.00 0.00 0.00 0.00 0.00 0.00 0.00 0.01 0.02 0.03 0.09 0.13 0.12 0.14 0.12 0.09 0.06 0.06 0.05 0.05 0.08 0.09 0.09 0.09 0.08 0.06 0.12 0.15 0.13 0.09 0.02 0.00 0.00 0.00 0.00
0.00 0.00 0.00 0.00 0.00 0.00 0.00 0.00 0.00 0.00 0.00 0.00 0.00 0.00 0.00 0.00 0.00 0.00 0.00 0.02 0.04 0.10 0.16 0.18 0.16 0.15 0.16 0.17 0.16 0.13 0.07 0.07 0.07 0.07 0.08 0.07 0.05 0.06 0.04 0.01 0.00 0.00 0.00
0.00 0.00 0.00 0.00 0.00 0.00 0.00 0.00 0.00 0.00 0.00 0.00 0.00 0.00 0.00 0.00 0.00 0.01 0.00 0.00 0.00 0.01 0.09 0.17 0.24 0.35 0.42 0.42 0.32 0.26 0.28 0.25 0.18 0.08 0.04 0.02 0.02 0.03 0.01 0.00 0.00 0.00 0.00
0.00 0.00 0.00 0.00 0.00 0.00 0.00 0.00 0.00 0.00 0.00 0.00 0.00 0.00 0.00 0.00 0.01 0.01 0.01 0.00 0.00 0.00 0.01 0.03 0.07 0.16 0.26 0.32 0.36 0.21 0.15 0.16 0.18 0.22 0.20 0.15 0.07 0.05 0.02 0.00 0.00 0.00 0.00

GFSMA_prec_precacc24_105.txt.gz
Total_Precipitation_Accumulation
0.23 0.20 0.24 0.10 0.09 0.10 0.04 0.06 0.02 0.00 0.01 0.00 0.00 0.00 0.00 0.00 0.00 0.00 0.00 0.00 0.00 0.00 0.02 0.06 0.04 0.02 0.01 0.02 0.09 0.11 0.07 0.01 0.00 0.00 0.01 0.00 0.00 0.00 0.00 0.00 0.00 0.00 0.00
0.33 0.40 0.26 0.17 0.12 0.08 0.06 0.03 0.03 0.02 0.01 0.01 0.00 0.00 0.00 0.00 0.00 0.00 0.00 0.00 0.00 0.00 0.00 0.07 0.11 0.09 0.05 0.02 0.02 0.07 0.09 0.03 0.00 0.00 0.00 0.00 0.01 0.01 0.01 0.01 0.01 0.01 0.00
0.35 0.33 0.67 0.44 0.14 0.12 0.15 0.14 0.10 0.10 0.10 0.06 0.01 0.00 0.00 0.00 0.00 0.00 0.00 0.00 0.00 0.00 0.00 0.00 0.02 0.09 0.14 0.13 0.07 0.03 0.03 0.01 0.00 0.00 0.00 0.00 0.00 0.01 0.02 0.03 0.02 0.01 0.01
0.05 0.25 0.28 0.59 0.54 0.37 0.29 0.22 0.20 0.21 0.20 0.17 0.11 0.04 0.00 0.00 0.00 0.00 0.00 0.00 0.00 0.00 0.00 0.00 0.00 0.01 0.06 0.06 0.05 0.05 0.05 0.02 0.01 0.00 0.00 0.00 0.00 0.00 0.01 0.03 0.05 0.03 0.02
0.01 0.05 0.14 0.17 0.29 0.32 0.30 0.31 0.28 0.22 0.19 0.12 0.07 0.05 0.02 0.01 0.00 0.00 0.00 0.00 0.00 0.00 0.00 0.00 0.00 0.00 0.00 0.02 0.04 0.11 0.08 0.04 0.01 0.00 0.00 0.00 0.00 0.00 0.00 0.00 0.04 0.07 0.08
0.04 0.04 0.08 0.12 0.12 0.15 0.16 0.13 0.15 0.16 0.13 0.08 0.07 0.06 0.04 0.03 0.01 0.00 0.00 0.00 0.00 0.00 0.00 0.00 0.00 0.00 0.00 0.00 0.03 0.07 0.11 0.05 0.04 0.02 0.00 0.00 0.00 0.00 0.00 0.00 0.00 0.02 0.07
0.13 0.09 0.09 0.11 0.15 0.08 0.06 0.08 0.08 0.07 0.06 0.06 0.11 0.09 0.04 0.02 0.01 0.00 0.00 0.00 0.00 0.00 0.00 0.00 0.00 0.00 0.00 0.00 0.01 0.06 0.08 0.04 0.06 0.04 0.01 0.00 0.00 0.00 0.00 0.00 0.00 0.00 0.01
0.43 0.22 0.17 0.14 0.11 0.17 0.07 0.06 0.09 0.09 0.06 0.05 0.06 0.06 0.04 0.03 0.02 0.00 0.00 0.00 0.00 0.00 0.00 0.00 0.00 0.00 0.00 0.00 0.00 0.02 0.05 0.06 0.04 0.05 0.03 0.00 0.00 0.00 0.00 0.00 0.00 0.01 0.02
0.76 0.75 0.74 0.52 0.24 0.22 0.30 0.28 0.32 0.27 0.23 0.17 0.16 0.14 0.07 0.02 0.01 0.01 0.01 0.00 0.00 0.00 0.00 0.00 0.00 0.00 0.00 0.00 0.00 0.00 0.01 0.06 0.11 0.12 0.08 0.01 0.00 0.00 0.00 0.00 0.01 0.04 0.03
0.58 0.57 0.62 0.89 1.20 1.07 0.65 0.40 0.40 0.49 0.63 0.67 0.63 0.46 0.35 0.25 0.17 0.08 0.03 0.02 0.01 0.01 0.01 0.01 0.01 0.03 0.07 0.07 0.05 0.05 0.06 0.10 0.05 0.08 0.15 0.10 0.03 0.00 0.00 0.00 0.02 0.04 0.02
0.62 0.57 0.52 0.58 0.70 0.99 1.23 0.95 0.65 0.65 0.82 0.87 0.78 0.62 0.54 0.51 0.55 0.43 0.22 0.12 0.08 0.06 0.06 0.07 0.09 0.11 0.13 0.14 0.14 0.13 0.21 0.24 0.09 0.19 0.21 0.23 0.16 0.05 0.01 0.01 0.03 0.04 0.02
0.88 0.76 0.65 0.58 0.61 0.68 0.77 0.97 0.84 0.63 0.68 1.01 1.12 1.00 0.80 0.72 0.63 0.70 0.59 0.38 0.32 0.24 0.18 0.16 0.14 0.12 0.13 0.13 0.10 0.08 0.07 0.11 0.13 0.15 0.17 0.24 0.25 0.17 0.07 0.03 0.02 0.01 0.02
1.33 1.23 1.05 0.99 0.82 0.79 0.82 0.87 1.01 0.87 0.63 0.57 0.66 0.78 0.87 0.88 0.88 0.92 0.91 0.63 0.40 0.24 0.19 0.09 0.04 0.04 0.03 0.03 0.03 0.05 0.06 0.07 0.07 0.09 0.09 0.15 0.23 0.21 0.15 0.08 0.05 0.01 0.01
1.12 1.30 1.10 1.06 1.14 1.09 1.03 1.01 1.05 1.13 1.07 0.98 0.91 0.80 0.73 0.71 0.75 0.76 0.75 0.77 0.72 0.47 0.26 0.15 0.07 0.09 0.10 0.11 0.13 0.16 0.09 0.09 0.05 0.07 0.11 0.15 0.19 0.18 0.14 0.12 0.14 0.09 0.01
0.88 0.94 1.08 1.00 0.98 1.01 0.93 0.93 0.89 0.85 0.90 0.94 0.87 0.82 0.77 0.64 0.62 0.61 0.64 0.78 1.05 1.04 0.67 0.38 0.27 0.25 0.26 0.28 0.32 0.27 0.15 0.17 0.12 0.07 0.06 0.08 0.10 0.10 0.09 0.09 0.10 0.14 0.04
0.43 0.55 0.67 0.68 0.72 0.74 0.86 0.92 0.87 0.90 0.94 0.94 0.94 0.89 0.81 0.72 0.71 0.66 0.65 0.66 0.67 0.71 0.57 0.18 0.12 0.17 0.32 0.39 0.46 0.42 0.34 0.36 0.21 0.14 0.10 0.07 0.07 0.07 0.07 0.06 0.04 0.05 0.03
0.01 0.02 0.04 0.06 0.08 0.14 0.31 0.50 0.62 0.67 0.75 0.81 1.02 1.22 1.27 1.37 1.45 1.30 1.16 1.10 1.03 0.90 0.88 0.42 0.22 0.20 0.21 0.24 0.26 0.26 0.31 0.24 0.19 0.23 0.16 0.11 0.07 0.07 0.08 0.10 0.08 0.04 0.01
0.00 0.00 0.00 0.00 0.00 0.02 0.04 0.05 0.07 0.09 0.12 0.17 0.26 0.35 0.38 0.53 0.76 0.95 1.09 1.09 1.15 1.33 1.54 1.00 0.49 0.32 0.25 0.18 0.17 0.16 0.15 0.18 0.22 0.31 0.25 0.22 0.17 0.09 0.08 0.06 0.04 0.02 0.01
0.00 0.00 0.00 0.00 0.00 0.01 0.02 0.03 0.03 0.03 0.02 0.04 0.07 0.09 0.10 0.11 0.14 0.18 0.25 0.35 0.39 0.44 0.62 0.66 0.50 0.42 0.36 0.35 0.37 0.33 0.25 0.20 0.19 0.29 0.23 0.22 0.25 0.26 0.17 0.07 0.01 0.00 0.00
0.00 0.00 0.00 0.00 0.00 0.00 0.01 0.02 0.02 0.03 0.02 0.03 0.05 0.04 0.05 0.05 0.06 0.10 0.16 0.18 0.23 0.27 0.28 0.29 0.27 0.25 0.22 0.25 0.32 0.33 0.33 0.26 0.21 0.20 0.19 0.14 0.13 0.10 0.08 0.05 0.01 0.00 0.00
0.00 0.00 0.00 0.00 0.00 0.00 0.00 0.01 0.01 0.02 0.03 0.03 0.03 0.03 0.04 0.08 0.11 0.10 0.10 0.08 0.13 0.19 0.24 0.26 0.24 0.21 0.21 0.21 0.20 0.20 0.21 0.23 0.27 0.22 0.16 0.11 0.07 0.04 0.01 0.01 0.00 0.00 0.00
0.00 0.00 0.00 0.00 0.00 0.00 0.00 0.00 0.00 0.01 0.01 0.02 0.03 0.03 0.04 0.08 0.05 0.07 0.07 0.10 0.10 0.09 0.09 0.09 0.09 0.08 0.08 0.11 0.14 0.21 0.29 0.37 0.35 0.22 0.17 0.15 0.10 0.04 0.01 0.00 0.00 0.00 0.00
0.00 0.00 0.00 0.00 0.00 0.00 0.00 0.00 0.00 0.00 0.00 0.00 0.00 0.00 0.00 0.01 0.02 0.03 0.09 0.13 0.12 0.14 0.13 0.09 0.07 0.06 0.06 0.06 0.09 0.10 0.10 0.10 0.10 0.09 0.19 0.25 0.19 0.14 0.06 0.02 0.00 0.00 0.00
0.00 0.00 0.00 0.00 0.00 0.00 0.00 0.00 0.00 0.00 0.00 0.00 0.00 0.00 0.00 0.00 0.00 0.00 0.00 0.02 0.04 0.10 0.16 0.18 0.16 0.16 0.17 0.18 0.18 0.14 0.09 0.07 0.08 0.08 0.13 0.18 0.13 0.13 0.08 0.06 0.04 0.01 0.00
0.00 0.00 0.00 0.00 0.00 0.00 0.00 0.00 0.00 0.00 0.00 0.00 0.00 0.00 0.00 0.00 0.00 0.01 0.00 0.00 0.00 0.01 0.09 0.17 0.24 0.35 0.42 0.42 0.33 0.28 0.32 0.30 0.22 0.12 0.08 0.08 0.07 0.12 0.10 0.06 0.03 0.01 0.00
0.00 0.00 0.00 0.00 0.00 0.00 0.00 0.00 0.00 0.00 0.00 0.00 0.00 0.00 0.00 0.00 0.01 0.01 0.01 0.00 0.00 0.00 0.01 0.03 0.07 0.16 0.26 0.32 0.36 0.23 0.16 0.18 0.23 0.28 0.26 0.22 0.13 0.10 0.10 0.08 0.06 0.03 0.01

GFSMA_prec_precacc24_108.txt.gz
Total_Precipitation_Accumulation
0.23 0.20 0.24 0.10 0.10 0.12 0.08 0.11 0.06 0.03 0.04 0.01 0.00 0.00 0.00 0.00 0.00 0.00 0.00 0.00 0.00 0.00 0.02 0.06 0.05 0.01 0.00 0.00 0.06 0.09 0.05 0.00 0.00 0.00 0.00 0.00 0.00 0.00 0.00 0.00 0.00 0.00 0.00
0.33 0.40 0.26 0.17 0.12 0.09 0.08 0.11 0.10 0.07 0.04 0.06 0.04 0.04 0.00 0.00 0.00 0.00 0.00 0.00 0.00 0.00 0.00 0.07 0.12 0.10 0.06 0.02 0.01 0.06 0.08 0.04 0.00 0.00 0.00 0.00 0.00 0.01 0.01 0.01 0.01 0.01 0.00
0.35 0.33 0.67 0.44 0.14 0.12 0.15 0.17 0.15 0.17 0.15 0.08 0.04 0.03 0.04 0.00 0.00 0.00 0.00 0.00 0.00 0.00 0.00 0.00 0.02 0.09 0.15 0.15 0.09 0.04 0.04 0.02 0.01 0.00 0.00 0.00 0.00 0.00 0.01 0.02 0.02 0.01 0.01
0.05 0.25 0.28 0.59 0.54 0.37 0.29 0.22 0.21 0.23 0.21 0.21 0.19 0.12 0.07 0.04 0.01 0.00 0.00 0.00 0.00 0.00 0.00 0.00 0.00 0.01 0.06 0.07 0.11 0.11 0.11 0.09 0.03 0.01 0.00 0.00 0.00 0.00 0.00 0.01 0.03 0.03 0.02
0.01 0.05 0.14 0.17 0.29 0.32 0.30 0.31 0.29 0.23 0.21 0.15 0.10 0.11 0.13 0.10 0.03 0.01 0.00 0.00 0.00 0.00 0.00 0.00 0.00 0.00 0.00 0.02 0.04 0.11 0.12 0.09 0.06 0.03 0.01 0.00 0.00 0.00 0.00 0.00 0.00 0.02 0.07
0.04 0.05 0.08 0.12 0.12 0.15 0.16 0.13 0.15 0.16 0.14 0.09 0.08 0.06 0.05 0.04 0.03 0.02 0.01 0.01 0.00 0.00 0.00 0.00 0.00 0.00 0.00 0.00 0.03 0.07 0.11 0.09 0.11 0.06 0.02 0.01 0.00 0.00 0.00 0.00 0.00 0.00 0.01
0.10 0.09 0.09 0.11 0.14 0.08 0.06 0.08 0.08 0.07 0.06 0.07 0.13 0.10 0.05 0.03 0.02 0.01 0.01 0.00 0.00 0.00 0.00 0.00 0.00 0.00 0.00 0.00 0.01 0.06 0.08 0.05 0.09 0.09 0.06 0.04 0.01 0.00 0.00 0.00 0.00 0.00 0.00
0.43 0.22 0.14 0.10 0.08 0.11 0.06 0.05 0.08 0.09 0.06 0.07 0.07 0.08 0.06 0.04 0.02 0.01 0.00 0.00 0.00 0.00 0.00 0.00 0.00 0.00 0.00 0.00 0.00 0.02 0.05 0.06 0.06 0.12 0.09 0.04 0.02 0.00 0.00 0.00 0.00 0.01 0.02
0.73 0.74 0.74 0.52 0.23 0.17 0.22 0.21 0.23 0.20 0.17 0.13 0.13 0.14 0.09 0.03 0.02 0.01 0.01 0.00 0.00 0.00 0.00 0.00 0.00 0.00 0.00 0.00 0.00 0.00 0.01 0.06 0.12 0.20 0.18 0.05 0.04 0.00 0.00 0.00 0.00 0.03 0.02
0.59 0.57 0.62 0.89 1.20 1.07 0.65 0.41 0.37 0.39 0.44 0.39 0.38 0.32 0.27 0.22 0.18 0.09 0.03 0.02 0.01 0.01 0.01 0.01 0.01 0.03 0.07 0.07 0.05 0.05 0.06 0.11 0.06 0.10 0.30 0.26 0.17 0.08 0.01 0.00 0.01 0.03 0.02
0.62 0.57 0.52 0.57 0.70 1.00 1.25 0.99 0.68 0.64 0.56 0.44 0.33 0.25 0.32 0.43 0.56 0.49 0.25 0.13 0.09 0.06 0.06 0.07 0.09 0.11 0.13 0.14 0.15 0.14 0.25 0.31 0.14 0.30 0.46 0.51 0.41 0.28 0.16 0.04 0.01 0.01 0.02
0.87 0.75 0.65 0.58 0.59 0.67 0.78 0.99 0.86 0.61 0.60 0.63 0.58 0.48 0.43 0.51 0.52 0.70 0.61 0.39 0.36 0.27 0.18 0.16 0.14 0.13 0.14 0.15 0.13 0.11 0.11 0.14 0.15 0.21 0.27 0.41 0.47 0.43 0.35 0.22 0.07 0.02 0.01
1.33 1.24 1.05 1.00 0.83 0.79 0.83 0.84 0.99 0.90 0.68 0.54 0.52 0.52 0.55 0.58 0.62 0.75 0.86 0.67 0.46 0.29 0.21 0.09 0.05 0.04 0.03 0.04 0.04 0.06 0.06 0.07 0.08 0.16 0.19 0.25 0.32 0.37 0.39 0.41 0.36 0.13 0.05
1.14 1.32 1.10 1.08 1.19 1.14 1.09 1.09 1.09 1.18 1.13 1.04 1.00 0.95 0.87 0.81 0.87 0.96 1.00 0.98 0.95 0.61 0.31 0.16 0.07 0.10 0.11 0.11 0.13 0.18 0.10 0.10 0.06 0.07 0.12 0.16 0.24 0.29 0.34 0.34 0.43 0.40 0.17
0.85 0.90 0.94 0.94 0.97 1.00 0.94 0.98 0.98 1.01 1.16 1.20 1.06 0.98 0.96 0.85 0.87 0.90 0.91 1.00 1.27 1.21 0.75 0.39 0.29 0.26 0.28 0.29 0.34 0.28 0.17 0.18 0.12 0.07 0.07 0.09 0.11 0.13 0.16 0.22 0.32 0.43 0.40
0.41 0.53 0.64 0.67 0.71 0.74 0.86 0.94 0.96 1.06 1.13 1.07 1.04 1.05 1.00 0.89 0.88 0.83 0.79 0.79 0.78 0.84 0.65 0.19 0.12 0.18 0.35 0.45 0.49 0.45 0.34 0.37 0.21 0.14 0.11 0.08 0.07 0.07 0.08 0.11 0.16 0.19 0.25
0.01 0.02 0.04 0.06 0.08 0.14 0.30 0.48 0.60 0.68 0.79 0.88 1.09 1.31 1.37 1.48 1.57 1.47 1.41 1.39 1.32 1.21 1.09 0.46 0.24 0.23 0.26 0.29 0.30 0.31 0.34 0.25 0.20 0.24 0.17 0.11 0.08 0.08 0.10 0.14 0.19 0.20 0.20
0.00 0.00 0.00 0.00 0.00 0.00 0.00 0.01 0.04 0.07 0.11 0.17 0.26 0.35 0.39 0.55 0.79 0.99 1.16 1.21 1.32 1.54 1.78 1.17 0.62 0.49 0.38 0.30 0.26 0.21 0.19 0.21 0.24 0.32 0.28 0.25 0.18 0.10 0.10 0.12 0.13 0.16 0.17
0.00 0.00 0.00 0.00 0.00 0.00 0.00 0.00 0.01 0.01 0.02 0.04 0.07 0.09 0.10 0.11 0.14 0.18 0.26 0.37 0.43 0.50 0.71 0.78 0.59 0.52 0.51 0.53 0.53 0.43 0.29 0.22 0.20 0.29 0.25 0.23 0.26 0.29 0.24 0.15 0.13 0.13 0.12
0.00 0.00 0.00 0.00 0.00 0.00 0.00 0.00 0.01 0.02 0.02 0.03 0.05 0.04 0.05 0.05 0.06 0.10 0.16 0.18 0.23 0.28 0.29 0.31 0.30 0.28 0.26 0.31 0.37 0.37 0.34 0.26 0.21 0.21 0.20 0.15 0.15 0.14 0.16 0.20 0.16 0.11 0.09
0.00 0.00 0.00 0.00 0.00 0.00 0.00 0.00 0.00 0.01 0.02 0.03 0.03 0.03 0.04 0.08 0.11 0.10 0.10 0.08 0.13 0.19 0.24 0.26 0.24 0.21 0.21 0.21 0.21 0.21 0.22 0.23 0.27 0.23 0.18 0.12 0.08 0.07 0.06 0.10 0.12 0.10 0.06
0.00 0.00 0.00 0.00 0.00 0.00 0.00 0.00 0.00 0.00 0.01 0.02 0.03 0.03 0.04 0.08 0.05 0.07 0.07 0.10 0.10 0.09 0.09 0.10 0.09 0.08 0.09 0.11 0.15 0.21 0.29 0.37 0.35 0.23 0.20 0.19 0.13 0.08 0.02 0.01 0.02 0.02 0.01
0.00 0.00 0.00 0.00 0.00 0.00 0.00 0.00 0.00 0.00 0.00 0.00 0.00 0.00 0.00 0.01 0.02 0.03 0.09 0.13 0.12 0.14 0.13 0.09 0.07 0.06 0.06 0.06 0.09 0.11 0.10 0.10 0.10 0.09 0.20 0.28 0.25 0.22 0.12 0.07 0.04 0.01 0.01
0.00 0.00 0.00 0.00 0.00 0.00 0.00 0.00 0.00 0.00 0.00 0.00 0.00 0.00 0.00 0.00 0.00 0.00 0.00 0.02 0.04 0.10 0.16 0.18 0.16 0.16 0.17 0.18 0.18 0.15 0.09 0.08 0.09 0.08 0.14 0.20 0.16 0.21 0.18 0.18 0.19 0.08 0.04
0.00 0.00 0.00 0.00 0.00 0.00 0.00 0.00 0.00 0.00 0.00 0.00 0.00 0.00 0.00 0.00 0.00 0.00 0.00 0.00 0.00 0.01 0.09 0.17 0.24 0.35 0.42 0.42 0.33 0.28 0.32 0.30 0.23 0.13 0.09 0.08 0.08 0.14 0.16 0.16 0.18 0.23 0.18
0.00 0.00 0.00 0.00 0.00 0.00 0.00 0.00 0.00 0.00 0.00 0.00 0.00 0.00 0.00 0.00 0.01 0.01 0.01 0.00 0.00 0.00 0.01 0.03 0.07 0.16 0.26 0.32 0.36 0.23 0.16 0.19 0.24 0.29 0.27 0.23 0.14 0.10 0.12 0.12 0.15 0.20 0.19

GFSMA_prec_precacc24_111.txt.gz
Total_Precipitation_Accumulation
0.23 0.20 0.24 0.11 0.10 0.13 0.09 0.11 0.06 0.03 0.04 0.01 0.00 0.00 0.00 0.00 0.00 0.00 0.00 0.00 0.00 0.00 0.02 0.06 0.05 0.01 0.00 0.00 0.03 0.08 0.04 0.00 0.00 0.00 0.00 0.00 0.00 0.00 0.00 0.00 0.00 0.00 0.00
0.33 0.40 0.26 0.18 0.13 0.09 0.11 0.20 0.17 0.11 0.08 0.10 0.07 0.05 0.01 0.00 0.00 0.00 0.00 0.00 0.00 0.00 0.00 0.07 0.12 0.11 0.06 0.02 0.01 0.05 0.08 0.04 0.00 0.00 0.00 0.00 0.00 0.01 0.01 0.01 0.01 0.01 0.00
0.35 0.33 0.67 0.44 0.14 0.12 0.16 0.18 0.19 0.21 0.20 0.16 0.08 0.09 0.14 0.09 0.02 0.00 0.00 0.00 0.00 0.00 0.00 0.00 0.02 0.09 0.15 0.16 0.09 0.04 0.04 0.03 0.02 0.01 0.00 0.00 0.00 0.00 0.00 0.01 0.02 0.01 0.01
0.07 0.25 0.28 0.59 0.54 0.37 0.29 0.22 0.21 0.23 0.22 0.22 0.20 0.14 0.13 0.14 0.11 0.05 0.02 0.00 0.00 0.00 0.00 0.00 0.00 0.01 0.06 0.07 0.11 0.11 0.14 0.14 0.07 0.04 0.02 0.01 0.00 0.00 0.00 0.00 0.00 0.01 0.02
0.04 0.06 0.14 0.18 0.30 0.32 0.30 0.31 0.29 0.23 0.21 0.16 0.11 0.11 0.13 0.14 0.08 0.06 0.03 0.02 0.01 0.00 0.00 0.00 0.00 0.00 0.00 0.02 0.03 0.10 0.12 0.12 0.11 0.07 0.03 0.02 0.00 0.00 0.00 0.00 0.00 0.00 0.02
0.17 0.12 0.14 0.19 0.14 0.15 0.16 0.13 0.15 0.16 0.14 0.09 0.08 0.06 0.05 0.05 0.04 0.04 0.03 0.02 0.01 0.01 0.00 0.00 0.00 0.00 0.00 0.00 0.02 0.06 0.11 0.09 0.12 0.07 0.03 0.02 0.01 0.00 0.00 0.00 0.00 0.00 0.00
0.23 0.21 0.15 0.13 0.14 0.08 0.06 0.08 0.08 0.07 0.06 0.07 0.13 0.10 0.05 0.03 0.02 0.01 0.01 0.00 0.00 0.00 0.00 0.00 0.00 0.00 0.00 0.00 0.01 0.06 0.08 0.05 0.09 0.09 0.08 0.06 0.03 0.00 0.00 0.00 0.00 0.00 0.00
0.49 0.28 0.17 0.14 0.12 0.10 0.05 0.05 0.08 0.09 0.06 0.07 0.08 0.10 0.06 0.04 0.03 0.01 0.00 0.00 0.00 0.00 0.00 0.00 0.00 0.00 0.00 0.00 0.00 0.02 0.05 0.06 0.07 0.15 0.11 0.06 0.04 0.00 0.00 0.00 0.00 0.01 0.02
0.72 0.65 0.67 0.49 0.23 0.12 0.10 0.08 0.15 0.16 0.16 0.12 0.13 0.16 0.09 0.03 0.02 0.01 0.01 0.00 0.00 0.00 0.00 0.00 0.00 0.00 0.00 0.00 0.00 0.00 0.01 0.06 0.12 0.23 0.25 0.10 0.07 0.02 0.00 0.00 0.00 0.03 0.02
0.53 0.51 0.56 0.82 1.15 1.06 0.64 0.40 0.33 0.35 0.41 0.30 0.30 0.24 0.18 0.12 0.09 0.05 0.02 0.01 0.01 0.01 0.01 0.01 0.01 0.03 0.07 0.07 0.05 0.05 0.06 0.11 0.06 0.12 0.35 0.37 0.25 0.17 0.09 0.03 0.00 0.02 0.02
0.64 0.57 0.52 0.54 0.64 0.97 1.25 0.99 0.68 0.64 0.57 0.47 0.33 0.24 0.24 0.26 0.27 0.25 0.17 0.12 0.09 0.06 0.06 0.07 0.09 0.11 0.13 0.14 0.15 0.14 0.25 0.31 0.14 0.31 0.50 0.63 0.54 0.43 0.36 0.29 0.13 0.02 0.01
0.89 0.75 0.64 0.57 0.58 0.66 0.78 0.98 0.86 0.61 0.61 0.66 0.62 0.52 0.41 0.38 0.28 0.36 0.37 0.28 0.31 0.23 0.16 0.16 0.14 0.13 0.14 0.15 0.13 0.12 0.12 0.16 0.16 0.22 0.29 0.45 0.54 0.55 0.55 0.55 0.47 0.22 0.04
1.32 1.24 1.05 0.99 0.82 0.78 0.82 0.85 1.01 0.91 0.68 0.57 0.59 0.61 0.64 0.62 0.54 0.52 0.53 0.42 0.39 0.29 0.23 0.11 0.05 0.04 0.03 0.04 0.04 0.07 0.08 0.08 0.09 0.17 0.21 0.27 0.38 0.42 0.46 0.57 0.79 0.99 0.75
1.12 1.31 1.10 1.07 1.18 1.13 1.09 1.09 1.10 1.16 1.06 0.94 0.93 0.96 0.96 0.93 1.00 1.10 1.22 1.27 1.20 0.77 0.44 0.26 0.13 0.13 0.13 0.12 0.14 0.21 0.11 0.10 0.07 0.09 0.16 0.22 0.33 0.38 0.45 0.46 0.54 0.71 0.95
0.79 0.89 0.86 0.78 0.90 0.95 0.92 0.97 0.99 1.00 1.15 1.20 1.10 1.07 1.08 0.99 1.04 1.07 1.18 1.37 1.67 1.51 0.87 0.44 0.33 0.31 0.33 0.31 0.37 0.31 0.19 0.21 0.15 0.08 0.09 0.11 0.14 0.16 0.19 0.28 0.39 0.52 0.70
0.32 0.47 0.54 0.54 0.63 0.71 0.84 0.92 0.95 1.03 1.12 1.11 1.09 1.07 1.11 1.12 1.09 1.01 0.94 0.94 0.98 1.08 0.81 0.24 0.14 0.19 0.38 0.54 0.63 0.56 0.38 0.40 0.24 0.15 0.12 0.09 0.08 0.08 0.09 0.12 0.16 0.20 0.29
0.01 0.02 0.04 0.06 0.07 0.14 0.30 0.48 0.60 0.68 0.77 0.87 1.08 1.26 1.33 1.58 1.75 1.65 1.58 1.56 1.53 1.46 1.32 0.58 0.31 0.27 0.28 0.31 0.33 0.37 0.39 0.29 0.22 0.26 0.20 0.13 0.08 0.08 0.10 0.14 0.19 0.20 0.21
0.00 0.00 0.00 0.00 0.00 0.00 0.00 0.01 0.03 0.05 0.08 0.14 0.22 0.31 0.36 0.54 0.79 1.00 1.18 1.25 1.41 1.66 1.90 1.27 0.68 0.56 0.55 0.52 0.48 0.40 0.33 0.34 0.33 0.39 0.35 0.29 0.20 0.11 0.10 0.12 0.13 0.16 0.18
0.00 0.00 0.00 0.00 0.00 0.00 0.00 0.00 0.00 0.00 0.00 0.01 0.03 0.05 0.09 0.11 0.14 0.18 0.26 0.37 0.44 0.52 0.75 0.81 0.62 0.58 0.61 0.73 0.81 0.75 0.62 0.53 0.47 0.56 0.41 0.31 0.28 0.30 0.25 0.15 0.13 0.13 0.14
0.00 0.00 0.00 0.00 0.00 0.00 0.00 0.00 0.00 0.01 0.01 0.01 0.03 0.03 0.05 0.05 0.06 0.10 0.16 0.18 0.23 0.28 0.29 0.31 0.31 0.31 0.32 0.40 0.50 0.52 0.51 0.43 0.35 0.30 0.26 0.17 0.15 0.14 0.16 0.21 0.17 0.13 0.13
0.00 0.00 0.00 0.00 0.00 0.00 0.00 0.00 0.00 0.00 0.01 0.00 0.01 0.03 0.04 0.07 0.10 0.10 0.10 0.08 0.13 0.19 0.24 0.26 0.24 0.21 0.21 0.21 0.22 0.25 0.27 0.30 0.34 0.28 0.20 0.13 0.09 0.07 0.07 0.11 0.14 0.13 0.13
0.00 0.00 0.00 0.00 0.00 0.00 0.00 0.00 0.00 0.00 0.00 0.00 0.00 0.02 0.03 0.07 0.05 0.07 0.07 0.10 0.10 0.09 0.09 0.10 0.09 0.08 0.09 0.11 0.15 0.21 0.29 0.37 0.37 0.26 0.23 0.19 0.13 0.08 0.02 0.02 0.05 0.09 0.10
0.00 0.00 0.00 0.00 0.00 0.00 0.00 0.00 0.00 0.00 0.00 0.00 0.00 0.00 0.00 0.00 0.02 0.03 0.09 0.13 0.12 0.14 0.13 0.09 0.07 0.06 0.06 0.06 0.09 0.11 0.10 0.10 0.10 0.09 0.21 0.28 0.25 0.22 0.12 0.09 0.09 0.06 0.10
0.00 0.00 0.00 0.00 0.00 0.00 0.00 0.00 0.00 0.00 0.00 0.00 0.00 0.00 0.00 0.00 0.00 0.00 0.00 0.02 0.04 0.10 0.16 0.18 0.16 0.16 0.17 0.18 0.18 0.15 0.09 0.08 0.09 0.08 0.14 0.20 0.16 0.21 0.18 0.19 0.24 0.16 0.16
0.00 0.00 0.00 0.00 0.00 0.00 0.00 0.00 0.00 0.00 0.00 0.00 0.00 0.00 0.00 0.00 0.00 0.00 0.00 0.00 0.00 0.01 0.09 0.17 0.24 0.35 0.42 0.42 0.33 0.28 0.32 0.30 0.23 0.13 0.09 0.09 0.09 0.14 0.16 0.16 0.19 0.26 0.26
0.00 0.00 0.00 0.00 0.00 0.00 0.00 0.00 0.00 0.00 0.00 0.00 0.00 0.00 0.00 0.00 0.01 0.01 0.01 0.01 0.01 0.00 0.01 0.03 0.07 0.16 0.26 0.32 0.36 0.23 0.16 0.19 0.24 0.30 0.27 0.23 0.14 0.10 0.12 0.12 0.15 0.21 0.23

GFSMA_prec_precacc24_114.txt.gz
Total_Precipitation_Accumulation
0.11 0.17 0.25 0.11 0.10 0.13 0.11 0.15 0.13 0.09 0.04 0.02 0.00 0.00 0.00 0.00 0.00 0.00 0.00 0.00 0.00 0.00 0.02 0.06 0.05 0.01 0.00 0.00 0.01 0.06 0.04 0.00 0.00 0.00 0.00 0.00 0.00 0.00 0.00 0.00 0.00 0.00 0.00
0.23 0.32 0.25 0.18 0.13 0.09 0.14 0.28 0.29 0.27 0.22 0.21 0.13 0.09 0.02 0.01 0.01 0.00 0.00 0.00 0.00 0.00 0.00 0.07 0.12 0.11 0.06 0.02 0.00 0.03 0.07 0.03 0.00 0.00 0.00 0.00 0.00 0.00 0.00 0.01 0.01 0.01 0.01
0.23 0.33 0.67 0.44 0.14 0.13 0.16 0.19 0.21 0.24 0.25 0.28 0.16 0.17 0.21 0.14 0.06 0.03 0.03 0.00 0.00 0.00 0.00 0.01 0.04 0.12 0.16 0.16 0.10 0.03 0.04 0.03 0.02 0.01 0.00 0.00 0.00 0.00 0.00 0.00 0.01 0.01 0.01
0.07 0.25 0.29 0.59 0.54 0.37 0.29 0.22 0.21 0.23 0.22 0.22 0.21 0.15 0.15 0.20 0.16 0.10 0.06 0.03 0.01 0.00 0.00 0.01 0.02 0.03 0.08 0.07 0.11 0.12 0.16 0.14 0.07 0.04 0.03 0.02 0.00 0.00 0.00 0.00 0.00 0.00 0.01
0.10 0.09 0.15 0.24 0.39 0.39 0.32 0.32 0.29 0.23 0.21 0.16 0.12 0.12 0.14 0.14 0.08 0.07 0.05 0.05 0.02 0.00 0.00 0.00 0.00 0.01 0.02 0.03 0.03 0.09 0.15 0.14 0.12 0.07 0.04 0.02 0.00 0.00 0.00 0.00 0.00 0.00 0.00
0.26 0.23 0.22 0.31 0.25 0.23 0.19 0.15 0.16 0.16 0.14 0.09 0.08 0.06 0.05 0.05 0.04 0.04 0.03 0.03 0.01 0.01 0.00 0.00 0.00 0.00 0.00 0.01 0.03 0.06 0.11 0.11 0.14 0.08 0.05 0.03 0.02 0.01 0.00 0.00 0.00 0.00 0.00
0.28 0.31 0.26 0.24 0.25 0.13 0.08 0.09 0.09 0.07 0.06 0.07 0.13 0.10 0.05 0.03 0.02 0.01 0.01 0.01 0.00 0.01 0.00 0.00 0.00 0.00 0.00 0.00 0.01 0.06 0.09 0.06 0.11 0.10 0.09 0.08 0.04 0.02 0.00 0.00 0.00 0.00 0.00
0.53 0.34 0.26 0.27 0.24 0.22 0.15 0.12 0.11 0.10 0.07 0.07 0.08 0.10 0.07 0.04 0.03 0.01 0.00 0.00 0.00 0.00 0.00 0.00 0.00 0.00 0.00 0.00 0.00 0.02 0.06 0.07 0.07 0.16 0.13 0.10 0.08 0.04 0.01 0.00 0.00 0.00 0.01
0.46 0.60 0.87 0.75 0.42 0.28 0.14 0.07 0.09 0.09 0.08 0.07 0.12 0.16 0.09 0.03 0.01 0.00 0.00 0.00 0.00 0.00 0.00 0.00 0.00 0.00 0.00 0.00 0.00 0.01 0.02 0.06 0.13 0.25 0.27 0.12 0.11 0.06 0.03 0.01 0.00 0.01 0.01
0.27 0.28 0.32 0.79 1.24 1.09 0.64 0.33 0.24 0.25 0.30 0.19 0.19 0.18 0.16 0.12 0.10 0.04 0.01 0.00 0.01 0.00 0.01 0.01 0.01 0.03 0.07 0.07 0.05 0.05 0.06 0.11 0.06 0.13 0.37 0.39 0.29 0.19 0.12 0.07 0.02 0.02 0.01
0.41 0.31 0.34 0.43 0.57 0.86 1.14 0.91 0.61 0.58 0.54 0.45 0.33 0.23 0.21 0.23 0.27 0.27 0.13 0.06 0.05 0.03 0.05 0.07 0.09 0.11 0.13 0.14 0.15 0.14 0.25 0.32 0.14 0.33 0.52 0.68 0.59 0.47 0.41 0.37 0.22 0.08 0.03
0.81 0.61 0.53 0.48 0.47 0.52 0.64 0.86 0.73 0.54 0.58 0.66 0.62 0.53 0.44 0.45 0.33 0.41 0.37 0.22 0.23 0.16 0.12 0.13 0.12 0.12 0.14 0.15 0.13 0.12 0.12 0.16 0.16 0.25 0.34 0.51 0.60 0.59 0.58 0.61 0.56 0.39 0.19
1.22 1.15 0.97 0.93 0.78 0.72 0.74 0.78 0.95 0.85 0.63 0.55 0.58 0.61 0.65 0.64 0.60 0.61 0.60 0.43 0.34 0.23 0.18 0.08 0.03 0.04 0.04 0.04 0.04 0.08 0.09 0.09 0.10 0.21 0.26 0.31 0.48 0.53 0.55 0.62 0.85 1.12 1.23
1.08 1.27 1.09 1.06 1.16 1.11 1.07 1.08 1.09 1.14 1.04 0.93 0.90 0.92 0.90 0.91 1.01 1.16 1.28 1.31 1.28 0.87 0.51 0.30 0.15 0.14 0.13 0.13 0.15 0.23 0.12 0.11 0.07 0.10 0.19 0.28 0.44 0.50 0.57 0.57 0.64 0.80 1.08
0.68 0.77 0.79 0.72 0.81 0.88 0.88 0.95 0.97 0.98 1.13 1.19 1.09 1.04 1.02 0.87 0.95 1.14 1.30 1.52 1.78 1.65 1.03 0.58 0.50 0.48 0.43 0.37 0.41 0.34 0.21 0.23 0.18 0.09 0.10 0.13 0.16 0.19 0.24 0.32 0.45 0.60 0.80
0.24 0.41 0.47 0.43 0.49 0.58 0.76 0.87 0.89 0.97 1.08 1.09 1.07 1.04 1.05 1.03 1.03 1.03 0.96 1.00 1.16 1.28 0.95 0.31 0.22 0.27 0.44 0.62 0.84 0.84 0.65 0.63 0.36 0.20 0.13 0.10 0.09 0.09 0.12 0.15 0.20 0.24 0.34
0.00 0.02 0.03 0.06 0.07 0.13 0.29 0.48 0.59 0.66 0.76 0.85 1.05 1.24 1.28 1.39 1.51 1.57 1.58 1.63 1.67 1.67 1.51 0.68 0.40 0.35 0.37 0.40 0.40 0.42 0.53 0.53 0.50 0.53 0.37 0.20 0.13 0.11 0.12 0.15 0.20 0.21 0.22
0.00 0.00 0.00 0.00 0.00 0.00 0.00 0.01 0.03 0.05 0.07 0.13 0.19 0.27 0.34 0.48 0.65 0.84 1.14 1.25 1.43 1.72 1.98 1.36 0.81 0.72 0.69 0.67 0.61 0.49 0.43 0.45 0.45 0.53 0.49 0.44 0.29 0.16 0.14 0.16 0.15 0.17 0.19
0.00 0.00 0.00 0.00 0.00 0.00 0.00 0.00 0.00 0.00 0.00 0.00 0.01 0.02 0.03 0.06 0.09 0.14 0.25 0.37 0.44 0.53 0.76 0.82 0.64 0.61 0.65 0.80 0.88 0.82 0.71 0.66 0.64 0.78 0.64 0.52 0.45 0.41 0.31 0.19 0.16 0.16 0.15
0.00 0.00 0.00 0.00 0.00 0.00 0.00 0.00 0.00 0.00 0.00 0.00 0.00 0.00 0.00 0.01 0.02 0.04 0.13 0.18 0.23 0.28 0.29 0.32 0.31 0.31 0.32 0.40 0.53 0.57 0.56 0.50 0.43 0.41 0.41 0.35 0.34 0.30 0.29 0.29 0.22 0.15 0.15
0.00 0.00 0.00 0.00 0.00 0.00 0.00 0.00 0.00 0.00 0.00 0.00 0.00 0.00 0.00 0.03 0.06 0.06 0.09 0.08 0.13 0.19 0.24 0.26 0.24 0.21 0.21 0.21 0.22 0.25 0.28 0.35 0.41 0.42 0.36 0.28 0.20 0.14 0.12 0.16 0.19 0.17 0.16
0.00 0.00 0.00 0.00 0.00 0.00 0.00 0.00 0.00 0.00 0.00 0.00 0.00 0.00 0.00 0.02 0.02 0.05 0.07 0.10 0.10 0.09 0.09 0.10 0.09 0.08 0.09 0.11 0.15 0.21 0.29 0.37 0.37 0.31 0.30 0.27 0.20 0.14 0.08 0.05 0.08 0.14 0.15
0.00 0.00 0.00 0.00 0.00 0.00 0.00 0.00 0.00 0.00 0.00 0.00 0.00 0.00 0.00 0.00 0.01 0.01 0.06 0.09 0.10 0.13 0.13 0.09 0.07 0.06 0.06 0.06 0.09 0.11 0.10 0.10 0.10 0.09 0.21 0.29 0.28 0.26 0.15 0.12 0.12 0.09 0.14
0.00 0.00 0.00 0.00 0.00 0.00 0.00 0.00 0.00 0.00 0.00 0.00 0.00 0.00 0.00 0.00 0.00 0.00 0.00 0.01 0.03 0.09 0.15 0.18 0.16 0.16 0.17 0.18 0.18 0.15 0.09 0.08 0.09 0.08 0.14 0.21 0.16 0.22 0.19 0.19 0.24 0.17 0.19
0.00 0.00 0.00 0.00 0.00 0.00 0.00 0.00 0.00 0.00 0.00 0.00 0.00 0.00 0.00 0.00 0.00 0.00 0.00 0.00 0.00 0.01 0.09 0.17 0.24 0.35 0.42 0.42 0.33 0.28 0.32 0.30 0.23 0.13 0.09 0.09 0.09 0.14 0.16 0.16 0.19 0.26 0.26
0.00 0.00 0.00 0.00 0.00 0.00 0.00 0.00 0.00 0.00 0.00 0.00 0.00 0.00 0.00 0.00 0.01 0.01 0.01 0.01 0.01 0.00 0.01 0.03 0.07 0.16 0.26 0.32 0.36 0.23 0.16 0.19 0.24 0.30 0.27 0.23 0.14 0.10 0.12 0.12 0.15 0.21 0.23

GFSMA_prec_precacc24_117.txt.gz
Total_Precipitation_Accumulation
0.02 0.05 0.05 0.06 0.11 0.17 0.13 0.16 0.15 0.17 0.12 0.05 0.00 0.00 0.00 0.00 0.00 0.00 0.00 0.00 0.00 0.00 0.02 0.07 0.06 0.02 0.00 0.00 0.00 0.03 0.03 0.00 0.00 0.00 0.00 0.00 0.00 0.00 0.00 0.00 0.00 0.00 0.00
0.01 0.02 0.05 0.03 0.08 0.10 0.17 0.31 0.34 0.36 0.29 0.24 0.16 0.13 0.05 0.05 0.05 0.04 0.02 0.00 0.00 0.00 0.01 0.09 0.14 0.14 0.08 0.02 0.00 0.01 0.06 0.03 0.00 0.00 0.00 0.00 0.00 0.00 0.00 0.00 0.01 0.01 0.01
0.01 0.01 0.12 0.20 0.11 0.12 0.17 0.22 0.25 0.30 0.29 0.34 0.18 0.21 0.25 0.19 0.10 0.08 0.09 0.05 0.02 0.01 0.00 0.04 0.09 0.15 0.18 0.17 0.10 0.04 0.04 0.03 0.02 0.01 0.01 0.00 0.00 0.00 0.00 0.00 0.00 0.00 0.01
0.04 0.03 0.03 0.25 0.46 0.36 0.29 0.23 0.25 0.30 0.25 0.26 0.22 0.15 0.15 0.20 0.16 0.10 0.06 0.03 0.02 0.01 0.01 0.01 0.05 0.07 0.12 0.10 0.11 0.14 0.18 0.15 0.07 0.04 0.03 0.02 0.00 0.00 0.00 0.00 0.00 0.00 0.00
0.10 0.07 0.05 0.12 0.35 0.41 0.38 0.36 0.30 0.24 0.22 0.17 0.12 0.12 0.14 0.14 0.08 0.07 0.05 0.05 0.02 0.00 0.00 0.00 0.00 0.02 0.04 0.05 0.04 0.09 0.15 0.15 0.13 0.08 0.04 0.02 0.01 0.02 0.01 0.00 0.00 0.00 0.00
0.26 0.23 0.20 0.30 0.29 0.28 0.28 0.20 0.18 0.18 0.15 0.09 0.08 0.06 0.05 0.05 0.04 0.04 0.03 0.03 0.01 0.01 0.00 0.00 0.00 0.00 0.00 0.02 0.05 0.07 0.11 0.12 0.16 0.09 0.05 0.04 0.02 0.02 0.01 0.01 0.01 0.00 0.00
0.27 0.29 0.23 0.24 0.26 0.21 0.17 0.15 0.13 0.11 0.10 0.10 0.14 0.10 0.05 0.03 0.02 0.01 0.01 0.01 0.00 0.01 0.00 0.00 0.00 0.00 0.00 0.00 0.01 0.06 0.09 0.08 0.13 0.13 0.10 0.08 0.05 0.03 0.01 0.02 0.01 0.00 0.00
0.46 0.30 0.24 0.26 0.26 0.32 0.31 0.28 0.21 0.18 0.15 0.10 0.08 0.10 0.07 0.04 0.03 0.01 0.00 0.00 0.00 0.00 0.00 0.00 0.00 0.00 0.00 0.00 0.00 0.01 0.05 0.08 0.09 0.18 0.15 0.11 0.09 0.05 0.02 0.02 0.02 0.01 0.01
0.38 0.52 0.83 0.77 0.44 0.32 0.32 0.38 0.47 0.42 0.29 0.14 0.13 0.17 0.10 0.04 0.01 0.00 0.00 0.00 0.00 0.00 0.00 0.00 0.00 0.00 0.00 0.00 0.00 0.01 0.02 0.07 0.15 0.27 0.29 0.15 0.13 0.08 0.04 0.02 0.02 0.04 0.03
0.22 0.20 0.26 0.75 1.39 1.28 0.74 0.46 0.37 0.36 0.41 0.28 0.21 0.18 0.14 0.11 0.10 0.05 0.01 0.00 0.01 0.01 0.01 0.01 0.01 0.03 0.07 0.07 0.05 0.05 0.06 0.11 0.07 0.15 0.40 0.41 0.32 0.22 0.15 0.09 0.05 0.05 0.04
0.26 0.21 0.23 0.30 0.43 0.77 1.11 0.89 0.58 0.49 0.43 0.37 0.27 0.18 0.18 0.21 0.25 0.27 0.14 0.06 0.05 0.03 0.05 0.07 0.09 0.11 0.12 0.14 0.15 0.14 0.25 0.32 0.14 0.34 0.54 0.69 0.61 0.52 0.47 0.42 0.26 0.11 0.05
0.43 0.38 0.32 0.31 0.32 0.39 0.52 0.75 0.63 0.45 0.47 0.54 0.53 0.47 0.40 0.42 0.32 0.40 0.38 0.22 0.23 0.16 0.13 0.12 0.11 0.10 0.13 0.15 0.13 0.12 0.12 0.16 0.17 0.25 0.35 0.52 0.63 0.64 0.64 0.68 0.62 0.43 0.23
0.84 0.67 0.64 0.66 0.54 0.53 0.58 0.64 0.82 0.76 0.54 0.45 0.48 0.53 0.58 0.58 0.56 0.58 0.60 0.43 0.34 0.22 0.18 0.09 0.04 0.07 0.09 0.07 0.05 0.08 0.09 0.09 0.11 0.21 0.27 0.32 0.51 0.59 0.61 0.69 0.93 1.20 1.28
0.80 1.02 0.85 0.88 1.00 0.95 0.90 0.92 0.96 1.03 0.96 0.84 0.81 0.82 0.82 0.83 0.94 1.13 1.27 1.29 1.24 0.82 0.47 0.28 0.17 0.23 0.24 0.20 0.22 0.28 0.13 0.12 0.07 0.11 0.20 0.29 0.46 0.52 0.60 0.62 0.73 0.93 1.25
0.36 0.49 0.56 0.54 0.65 0.76 0.79 0.86 0.88 0.91 1.06 1.12 1.03 1.00 0.98 0.84 0.88 1.02 1.20 1.39 1.62 1.41 0.77 0.41 0.45 0.47 0.53 0.52 0.58 0.46 0.27 0.27 0.18 0.10 0.11 0.14 0.17 0.20 0.26 0.35 0.48 0.64 0.89
0.14 0.24 0.28 0.30 0.38 0.37 0.55 0.68 0.76 0.84 0.99 1.03 1.01 0.98 1.00 1.00 0.99 0.95 0.89 0.94 1.14 1.30 0.99 0.31 0.24 0.28 0.44 0.63 0.96 0.98 0.85 0.86 0.49 0.30 0.23 0.18 0.15 0.13 0.15 0.18 0.22 0.26 0.36
0.00 0.01 0.02 0.02 0.04 0.09 0.18 0.31 0.48 0.58 0.69 0.79 0.99 1.18 1.24 1.35 1.47 1.44 1.45 1.53 1.57 1.64 1.52 0.70 0.45 0.42 0.43 0.44 0.44 0.46 0.62 0.70 0.77 0.81 0.59 0.41 0.29 0.22 0.19 0.20 0.23 0.23 0.23
0.00 0.00 0.00 0.00 0.00 0.00 0.00 0.01 0.03 0.04 0.07 0.12 0.19 0.26 0.31 0.45 0.62 0.79 0.99 1.13 1.29 1.50 1.82 1.32 0.80 0.74 0.73 0.73 0.67 0.54 0.48 0.53 0.58 0.79 0.78 0.69 0.62 0.49 0.35 0.23 0.18 0.18 0.20
0.00 0.00 0.00 0.00 0.00 0.00 0.00 0.00 0.00 0.00 0.00 0.00 0.01 0.02 0.02 0.04 0.07 0.12 0.19 0.26 0.33 0.45 0.70 0.78 0.62 0.62 0.66 0.81 0.90 0.86 0.77 0.73 0.70 0.90 0.78 0.71 0.73 0.68 0.57 0.40 0.28 0.21 0.19
0.00 0.00 0.00 0.00 0.00 0.00 0.00 0.00 0.00 0.00 0.00 0.00 0.00 0.00 0.00 0.00 0.01 0.01 0.02 0.02 0.04 0.13 0.25 0.32 0.31 0.31 0.32 0.41 0.54 0.59 0.58 0.52 0.46 0.47 0.51 0.47 0.50 0.47 0.47 0.46 0.35 0.25 0.22
0.00 0.00 0.00 0.00 0.00 0.00 0.00 0.00 0.00 0.00 0.00 0.00 0.00 0.00 0.00 0.01 0.03 0.02 0.02 0.01 0.03 0.08 0.18 0.26 0.24 0.21 0.21 0.21 0.23 0.26 0.30 0.37 0.43 0.47 0.39 0.31 0.24 0.18 0.19 0.27 0.32 0.35 0.32
0.00 0.00 0.00 0.00 0.00 0.00 0.00 0.00 0.00 0.00 0.00 0.00 0.00 0.00 0.00 0.00 0.00 0.01 0.02 0.05 0.05 0.07 0.08 0.10 0.09 0.08 0.09 0.11 0.15 0.21 0.29 0.37 0.38 0.31 0.31 0.28 0.23 0.18 0.12 0.10 0.18 0.26 0.28
0.00 0.00 0.00 0.00 0.00 0.00 0.00 0.00 0.00 0.00 0.00 0.00 0.00 0.00 0.00 0.00 0.00 0.00 0.01 0.04 0.05 0.10 0.11 0.09 0.06 0.06 0.06 0.06 0.09 0.11 0.10 0.10 0.10 0.09 0.21 0.29 0.29 0.27 0.20 0.21 0.21 0.14 0.21
0.00 0.00 0.00 0.00 0.00 0.00 0.00 0.00 0.00 0.00 0.00 0.00 0.00 0.00 0.00 0.00 0.00 0.00 0.00 0.00 0.01 0.04 0.08 0.12 0.09 0.11 0.14 0.17 0.18 0.15 0.09 0.08 0.09 0.08 0.14 0.21 0.16 0.22 0.19 0.22 0.30 0.25 0.25
0.00 0.00 0.00 0.00 0.00 0.00 0.00 0.00 0.00 0.00 0.00 0.00 0.00 0.00 0.00 0.00 0.00 0.00 0.00 0.00 0.00 0.01 0.08 0.16 0.22 0.30 0.37 0.40 0.33 0.29 0.32 0.30 0.23 0.13 0.09 0.09 0.09 0.14 0.16 0.16 0.19 0.28 0.31
0.00 0.00 0.00 0.00 0.00 0.00 0.00 0.00 0.00 0.00 0.00 0.00 0.00 0.00 0.00 0.00 0.01 0.01 0.02 0.01 0.01 0.00 0.01 0.03 0.07 0.16 0.26 0.32 0.36 0.23 0.16 0.19 0.24 0.30 0.27 0.23 0.14 0.10 0.12 0.12 0.15 0.22 0.24

GFSMA_prec_precacc24_120.txt.gz
Total_Precipitation_Accumulation
0.00 0.01 0.01 0.05 0.10 0.18 0.16 0.21 0.18 0.20 0.17 0.17 0.12 0.04 0.01 0.01 0.00 0.00 0.00 0.00 0.00 0.00 0.01 0.07 0.07 0.04 0.03 0.01 0.01 0.01 0.02 0.00 0.00 0.00 0.00 0.00 0.00 0.00 0.00 0.00 0.00 0.00 0.00
0.00 0.00 0.00 0.01 0.04 0.07 0.16 0.37 0.40 0.40 0.36 0.32 0.20 0.17 0.08 0.08 0.08 0.08 0.04 0.02 0.01 0.00 0.00 0.08 0.14 0.15 0.11 0.05 0.02 0.02 0.05 0.03 0.00 0.00 0.00 0.00 0.00 0.00 0.00 0.00 0.00 0.00 0.01
0.01 0.01 0.01 0.00 0.01 0.04 0.10 0.21 0.29 0.35 0.33 0.42 0.25 0.29 0.35 0.28 0.19 0.13 0.11 0.07 0.06 0.03 0.01 0.04 0.09 0.18 0.22 0.19 0.13 0.07 0.07 0.04 0.02 0.01 0.01 0.00 0.00 0.00 0.00 0.00 0.00 0.00 0.00
0.04 0.03 0.02 0.01 0.03 0.02 0.08 0.17 0.22 0.31 0.28 0.32 0.29 0.22 0.20 0.22 0.17 0.10 0.06 0.04 0.02 0.02 0.02 0.02 0.05 0.08 0.14 0.12 0.13 0.16 0.20 0.15 0.08 0.04 0.03 0.02 0.00 0.00 0.00 0.00 0.00 0.00 0.00
0.09 0.07 0.05 0.09 0.15 0.15 0.14 0.25 0.26 0.24 0.23 0.19 0.14 0.13 0.14 0.14 0.08 0.07 0.05 0.05 0.02 0.00 0.00 0.00 0.00 0.02 0.04 0.06 0.06 0.11 0.17 0.17 0.15 0.09 0.04 0.02 0.01 0.02 0.01 0.00 0.00 0.00 0.00
0.24 0.20 0.17 0.26 0.23 0.17 0.17 0.16 0.20 0.23 0.20 0.12 0.10 0.07 0.06 0.05 0.04 0.04 0.03 0.03 0.01 0.01 0.00 0.00 0.00 0.00 0.00 0.02 0.05 0.07 0.12 0.16 0.20 0.12 0.07 0.04 0.03 0.02 0.02 0.02 0.02 0.01 0.00
0.26 0.27 0.19 0.19 0.20 0.19 0.17 0.12 0.13 0.17 0.22 0.23 0.22 0.13 0.06 0.04 0.03 0.01 0.01 0.01 0.00 0.01 0.00 0.00 0.00 0.00 0.00 0.00 0.01 0.06 0.08 0.09 0.16 0.16 0.15 0.11 0.06 0.05 0.03 0.03 0.03 0.02 0.02
0.27 0.22 0.17 0.20 0.22 0.28 0.31 0.30 0.26 0.25 0.29 0.36 0.29 0.19 0.09 0.05 0.03 0.01 0.00 0.00 0.00 0.00 0.00 0.00 0.00 0.00 0.00 0.00 0.00 0.01 0.04 0.09 0.11 0.20 0.19 0.16 0.13 0.08 0.05 0.04 0.04 0.03 0.02
0.25 0.23 0.54 0.57 0.34 0.28 0.30 0.37 0.51 0.57 0.48 0.40 0.41 0.44 0.30 0.14 0.03 0.00 0.00 0.00 0.00 0.00 0.00 0.00 0.00 0.00 0.00 0.00 0.00 0.01 0.01 0.07 0.16 0.29 0.31 0.17 0.16 0.12 0.08 0.06 0.05 0.06 0.05
0.17 0.11 0.10 0.46 1.10 1.11 0.71 0.46 0.36 0.37 0.43 0.35 0.39 0.41 0.37 0.27 0.17 0.06 0.01 0.00 0.00 0.00 0.01 0.01 0.01 0.03 0.07 0.08 0.06 0.05 0.06 0.11 0.07 0.16 0.42 0.43 0.34 0.26 0.19 0.15 0.10 0.08 0.06
0.15 0.09 0.06 0.09 0.18 0.53 0.89 0.80 0.56 0.47 0.40 0.33 0.24 0.18 0.21 0.25 0.29 0.28 0.14 0.06 0.05 0.03 0.05 0.07 0.09 0.12 0.14 0.16 0.17 0.16 0.26 0.32 0.14 0.34 0.55 0.73 0.62 0.55 0.51 0.48 0.32 0.16 0.09
0.19 0.16 0.13 0.12 0.12 0.17 0.27 0.46 0.41 0.30 0.34 0.41 0.39 0.35 0.32 0.35 0.28 0.36 0.36 0.22 0.23 0.16 0.12 0.12 0.10 0.11 0.16 0.17 0.15 0.15 0.13 0.16 0.17 0.25 0.36 0.56 0.67 0.67 0.69 0.74 0.69 0.49 0.28
0.26 0.34 0.36 0.42 0.36 0.37 0.42 0.49 0.66 0.62 0.42 0.35 0.38 0.42 0.47 0.51 0.52 0.54 0.56 0.41 0.33 0.22 0.18 0.09 0.04 0.07 0.10 0.08 0.08 0.13 0.10 0.10 0.11 0.22 0.27 0.34 0.54 0.65 0.67 0.75 1.00 1.28 1.37
0.18 0.54 0.53 0.62 0.81 0.79 0.75 0.78 0.83 0.87 0.77 0.67 0.68 0.70 0.71 0.75 0.87 1.06 1.20 1.22 1.17 0.79 0.45 0.26 0.15 0.20 0.21 0.17 0.20 0.27 0.13 0.14 0.09 0.12 0.20 0.30 0.47 0.55 0.64 0.67 0.77 1.00 1.37
0.10 0.19 0.30 0.31 0.47 0.61 0.66 0.73 0.76 0.80 0.91 0.92 0.89 0.89 0.88 0.79 0.83 0.97 1.14 1.33 1.52 1.29 0.69 0.32 0.37 0.40 0.41 0.37 0.42 0.36 0.22 0.30 0.23 0.13 0.13 0.16 0.17 0.21 0.28 0.38 0.52 0.68 0.94
0.05 0.13 0.17 0.16 0.21 0.21 0.29 0.44 0.59 0.71 0.84 0.90 0.90 0.88 0.90 0.91 0.89 0.83 0.77 0.82 0.99 1.14 0.84 0.23 0.18 0.22 0.31 0.43 0.72 0.84 0.79 0.94 0.65 0.45 0.35 0.28 0.21 0.16 0.17 0.20 0.24 0.29 0.40
0.00 0.00 0.01 0.01 0.02 0.05 0.11 0.18 0.24 0.34 0.48 0.60 0.78 0.94 1.00 1.11 1.24 1.23 1.27 1.31 1.32 1.42 1.38 0.65 0.42 0.41 0.42 0.40 0.39 0.46 0.64 0.75 0.85 0.96 0.80 0.62 0.48 0.38 0.30 0.28 0.28 0.27 0.27
0.00 0.00 0.00 0.00 0.00 0.00 0.00 0.00 0.02 0.03 0.05 0.10 0.15 0.21 0.26 0.38 0.55 0.71 0.88 1.02 1.16 1.32 1.57 1.14 0.69 0.68 0.72 0.72 0.67 0.55 0.54 0.60 0.65 0.89 0.93 0.91 0.84 0.69 0.58 0.53 0.44 0.36 0.30
0.00 0.00 0.00 0.00 0.00 0.00 0.00 0.00 0.00 0.00 0.00 0.00 0.00 0.01 0.02 0.04 0.06 0.10 0.16 0.22 0.29 0.37 0.51 0.57 0.42 0.43 0.55 0.74 0.88 0.85 0.77 0.75 0.74 0.98 0.94 0.93 0.96 0.89 0.80 0.73 0.73 0.70 0.56
0.00 0.00 0.00 0.00 0.00 0.00 0.00 0.00 0.00 0.00 0.00 0.00 0.00 0.00 0.00 0.00 0.00 0.00 0.01 0.01 0.02 0.06 0.10 0.14 0.12 0.15 0.20 0.31 0.48 0.58 0.58 0.52 0.47 0.49 0.56 0.56 0.64 0.64 0.69 0.72 0.63 0.57 0.59
0.00 0.00 0.00 0.00 0.00 0.00 0.00 0.00 0.00 0.00 0.00 0.00 0.00 0.00 0.00 0.00 0.01 0.01 0.00 0.00 0.01 0.03 0.04 0.04 0.06 0.07 0.11 0.17 0.21 0.25 0.30 0.37 0.44 0.49 0.41 0.33 0.27 0.23 0.28 0.40 0.52 0.60 0.56
0.00 0.00 0.00 0.00 0.00 0.00 0.00 0.00 0.00 0.00 0.00 0.00 0.00 0.00 0.00 0.00 0.00 0.00 0.00 0.02 0.02 0.03 0.03 0.05 0.04 0.03 0.03 0.05 0.12 0.20 0.29 0.37 0.38 0.32 0.32 0.29 0.26 0.21 0.15 0.15 0.27 0.39 0.45
0.00 0.00 0.00 0.00 0.00 0.00 0.00 0.00 0.00 0.00 0.00 0.00 0.00 0.00 0.00 0.00 0.00 0.00 0.00 0.00 0.01 0.02 0.05 0.05 0.03 0.05 0.05 0.05 0.08 0.10 0.10 0.11 0.10 0.09 0.21 0.30 0.29 0.30 0.22 0.23 0.24 0.18 0.28
0.00 0.00 0.00 0.00 0.00 0.00 0.00 0.00 0.00 0.00 0.00 0.00 0.00 0.00 0.00 0.00 0.00 0.00 0.00 0.00 0.00 0.01 0.03 0.06 0.05 0.06 0.10 0.13 0.16 0.15 0.09 0.08 0.09 0.08 0.14 0.21 0.16 0.22 0.20 0.22 0.31 0.27 0.29
0.00 0.00 0.00 0.00 0.00 0.00 0.00 0.00 0.00 0.00 0.00 0.00 0.00 0.00 0.00 0.00 0.00 0.00 0.00 0.00 0.00 0.00 0.03 0.09 0.13 0.19 0.21 0.22 0.17 0.16 0.23 0.24 0.22 0.13 0.09 0.09 0.09 0.14 0.16 0.17 0.20 0.29 0.31
0.00 0.00 0.00 0.00 0.00 0.00 0.00 0.00 0.00 0.00 0.00 0.00 0.00 0.00 0.00 0.00 0.00 0.01 0.01 0.01 0.01 0.00 0.00 0.02 0.05 0.12 0.20 0.25 0.30 0.20 0.12 0.14 0.22 0.30 0.27 0.23 0.14 0.10 0.12 0.12 0.15 0.22 0.24

GFSMA_prec_precacc24_123.txt.gz
Total_Precipitation_Accumulation
0.00 0.01 0.01 0.05 0.10 0.17 0.15 0.19 0.18 0.20 0.18 0.20 0.17 0.13 0.10 0.09 0.06 0.02 0.00 0.00 0.00 0.00 0.01 0.05 0.06 0.04 0.05 0.05 0.03 0.03 0.02 0.01 0.00 0.00 0.00 0.00 0.00 0.00 0.00 0.00 0.00 0.00 0.00
0.00 0.00 0.00 0.01 0.02 0.06 0.16 0.35 0.38 0.39 0.37 0.32 0.22 0.22 0.15 0.14 0.15 0.15 0.09 0.05 0.02 0.00 0.00 0.06 0.10 0.13 0.10 0.06 0.06 0.06 0.06 0.04 0.01 0.00 0.00 0.00 0.00 0.00 0.00 0.00 0.00 0.00 0.00
0.01 0.01 0.01 0.00 0.00 0.02 0.08 0.17 0.24 0.31 0.32 0.42 0.27 0.31 0.37 0.33 0.27 0.19 0.15 0.07 0.08 0.06 0.03 0.05 0.09 0.17 0.27 0.27 0.19 0.11 0.10 0.07 0.05 0.03 0.01 0.00 0.00 0.00 0.00 0.00 0.00 0.00 0.00
0.04 0.03 0.02 0.01 0.03 0.02 0.04 0.07 0.12 0.18 0.21 0.32 0.31 0.24 0.22 0.26 0.20 0.12 0.08 0.05 0.04 0.05 0.03 0.03 0.06 0.09 0.14 0.14 0.16 0.20 0.25 0.21 0.15 0.09 0.05 0.02 0.00 0.00 0.00 0.01 0.00 0.00 0.00
0.09 0.07 0.04 0.09 0.15 0.14 0.11 0.09 0.12 0.13 0.14 0.21 0.18 0.18 0.19 0.17 0.11 0.09 0.05 0.05 0.02 0.00 0.00 0.00 0.00 0.02 0.04 0.06 0.06 0.12 0.19 0.22 0.24 0.20 0.13 0.08 0.04 0.03 0.01 0.00 0.00 0.00 0.00
0.24 0.20 0.17 0.26 0.21 0.16 0.16 0.15 0.13 0.15 0.17 0.14 0.12 0.11 0.11 0.11 0.09 0.08 0.05 0.03 0.01 0.01 0.00 0.00 0.00 0.00 0.00 0.02 0.05 0.07 0.13 0.18 0.24 0.20 0.16 0.13 0.10 0.05 0.03 0.02 0.02 0.02 0.01
0.26 0.26 0.18 0.17 0.17 0.17 0.16 0.11 0.11 0.16 0.22 0.24 0.24 0.19 0.14 0.13 0.10 0.07 0.04 0.02 0.01 0.01 0.00 0.00 0.00 0.00 0.00 0.00 0.01 0.05 0.08 0.09 0.18 0.20 0.19 0.16 0.13 0.11 0.09 0.06 0.04 0.03 0.03
0.27 0.21 0.16 0.18 0.20 0.26 0.29 0.29 0.24 0.23 0.28 0.36 0.32 0.27 0.16 0.13 0.11 0.06 0.02 0.02 0.00 0.00 0.00 0.00 0.00 0.00 0.00 0.00 0.00 0.01 0.04 0.08 0.11 0.22 0.22 0.18 0.17 0.12 0.09 0.08 0.07 0.05 0.03
0.25 0.21 0.38 0.41 0.29 0.27 0.30 0.36 0.48 0.54 0.47 0.40 0.41 0.45 0.33 0.17 0.07 0.02 0.04 0.04 0.01 0.01 0.00 0.00 0.00 0.00 0.00 0.00 0.00 0.01 0.02 0.06 0.16 0.29 0.32 0.20 0.19 0.15 0.13 0.11 0.10 0.11 0.08
0.17 0.11 0.08 0.30 0.59 0.54 0.42 0.39 0.33 0.33 0.39 0.31 0.38 0.41 0.39 0.29 0.19 0.07 0.02 0.03 0.04 0.04 0.04 0.03 0.02 0.02 0.06 0.08 0.07 0.07 0.06 0.08 0.07 0.16 0.43 0.46 0.37 0.29 0.22 0.19 0.16 0.14 0.10
0.15 0.08 0.05 0.07 0.12 0.19 0.29 0.42 0.38 0.36 0.33 0.30 0.21 0.17 0.19 0.21 0.26 0.26 0.13 0.06 0.04 0.02 0.02 0.04 0.06 0.09 0.12 0.16 0.16 0.16 0.26 0.30 0.13 0.34 0.56 0.75 0.65 0.59 0.56 0.53 0.37 0.22 0.15
0.17 0.12 0.07 0.05 0.05 0.06 0.08 0.08 0.13 0.17 0.25 0.32 0.32 0.29 0.26 0.28 0.23 0.30 0.32 0.17 0.18 0.13 0.10 0.10 0.09 0.09 0.15 0.16 0.14 0.15 0.13 0.15 0.16 0.23 0.34 0.55 0.68 0.67 0.73 0.80 0.75 0.56 0.36
0.03 0.06 0.17 0.19 0.20 0.23 0.24 0.23 0.24 0.24 0.24 0.23 0.28 0.31 0.36 0.40 0.40 0.43 0.45 0.33 0.29 0.19 0.16 0.08 0.04 0.07 0.10 0.07 0.07 0.12 0.10 0.09 0.11 0.21 0.26 0.33 0.54 0.65 0.70 0.79 1.05 1.34 1.44
0.06 0.08 0.19 0.36 0.49 0.49 0.54 0.62 0.66 0.63 0.54 0.48 0.49 0.54 0.56 0.60 0.70 0.87 0.99 1.03 1.03 0.74 0.44 0.25 0.15 0.19 0.20 0.16 0.17 0.21 0.10 0.10 0.08 0.12 0.20 0.30 0.47 0.56 0.65 0.69 0.81 1.04 1.43
0.01 0.05 0.12 0.15 0.26 0.34 0.40 0.53 0.60 0.66 0.73 0.71 0.63 0.62 0.60 0.56 0.64 0.78 0.93 1.10 1.29 1.15 0.65 0.32 0.37 0.39 0.39 0.33 0.33 0.26 0.16 0.19 0.17 0.11 0.13 0.16 0.19 0.22 0.28 0.38 0.52 0.69 0.95
0.00 0.01 0.06 0.09 0.10 0.09 0.17 0.28 0.40 0.47 0.57 0.68 0.71 0.67 0.69 0.71 0.68 0.66 0.63 0.68 0.83 0.98 0.72 0.20 0.17 0.20 0.30 0.42 0.61 0.65 0.59 0.74 0.54 0.40 0.33 0.30 0.26 0.20 0.20 0.23 0.27 0.30 0.41
0.00 0.00 0.00 0.00 0.00 0.02 0.04 0.09 0.14 0.16 0.25 0.34 0.47 0.66 0.74 0.81 0.95 1.00 1.03 1.07 1.08 1.16 1.08 0.50 0.37 0.36 0.39 0.38 0.35 0.37 0.45 0.63 0.78 0.92 0.80 0.73 0.59 0.49 0.44 0.41 0.37 0.33 0.31
0.00 0.00 0.00 0.00 0.00 0.00 0.00 0.00 0.00 0.01 0.02 0.04 0.07 0.12 0.16 0.23 0.36 0.52 0.68 0.83 0.99 1.13 1.27 0.90 0.55 0.57 0.63 0.67 0.61 0.49 0.47 0.54 0.62 0.87 0.95 0.98 0.92 0.82 0.79 0.79 0.67 0.55 0.44
0.00 0.00 0.00 0.00 0.00 0.00 0.00 0.00 0.00 0.00 0.00 0.00 0.00 0.00 0.00 0.01 0.03 0.07 0.13 0.19 0.25 0.31 0.40 0.40 0.26 0.28 0.38 0.57 0.68 0.69 0.65 0.69 0.73 0.97 0.95 0.95 1.00 0.97 0.87 0.82 0.84 0.87 0.84
0.00 0.00 0.00 0.00 0.00 0.00 0.00 0.00 0.00 0.00 0.00 0.00 0.00 0.00 0.00 0.00 0.00 0.00 0.00 0.00 0.01 0.02 0.05 0.09 0.08 0.09 0.13 0.18 0.29 0.36 0.39 0.43 0.45 0.48 0.56 0.56 0.65 0.69 0.78 0.80 0.73 0.69 0.74
0.00 0.00 0.00 0.00 0.00 0.00 0.00 0.00 0.00 0.00 0.00 0.00 0.00 0.00 0.00 0.00 0.00 0.00 0.00 0.00 0.00 0.00 0.00 0.01 0.03 0.03 0.03 0.04 0.05 0.08 0.13 0.25 0.38 0.48 0.41 0.33 0.27 0.23 0.28 0.43 0.58 0.71 0.72
0.00 0.00 0.00 0.00 0.00 0.00 0.00 0.00 0.00 0.00 0.00 0.00 0.00 0.00 0.00 0.00 0.00 0.00 0.00 0.00 0.00 0.00 0.01 0.01 0.01 0.02 0.02 0.01 0.02 0.06 0.11 0.23 0.31 0.30 0.31 0.29 0.26 0.21 0.16 0.16 0.28 0.41 0.53
0.00 0.00 0.00 0.00 0.00 0.00 0.00 0.00 0.00 0.00 0.00 0.00 0.00 0.00 0.00 0.00 0.00 0.00 0.00 0.00 0.00 0.00 0.02 0.03 0.02 0.02 0.02 0.01 0.02 0.03 0.04 0.06 0.07 0.07 0.20 0.30 0.29 0.30 0.22 0.24 0.25 0.23 0.32
0.00 0.00 0.00 0.00 0.00 0.00 0.00 0.00 0.00 0.00 0.00 0.00 0.00 0.00 0.00 0.00 0.00 0.00 0.00 0.00 0.00 0.00 0.00 0.02 0.02 0.03 0.04 0.04 0.05 0.07 0.07 0.07 0.06 0.07 0.14 0.21 0.16 0.22 0.20 0.22 0.32 0.30 0.32
0.00 0.00 0.00 0.00 0.00 0.00 0.00 0.00 0.00 0.00 0.00 0.00 0.00 0.00 0.00 0.00 0.00 0.00 0.00 0.00 0.00 0.00 0.00 0.00 0.02 0.07 0.09 0.09 0.07 0.08 0.13 0.16 0.15 0.10 0.08 0.09 0.08 0.14 0.16 0.17 0.20 0.29 0.31
0.00 0.00 0.00 0.00 0.00 0.00 0.00 0.00 0.00 0.00 0.00 0.00 0.00 0.00 0.00 0.00 0.00 0.01 0.01 0.01 0.02 0.00 0.00 0.00 0.00 0.03 0.07 0.11 0.16 0.11 0.06 0.07 0.12 0.15 0.15 0.15 0.12 0.10 0.13 0.12 0.15 0.22 0.24

GFSMA_prec_precacc24_126.txt.gz
Total_Precipitation_Accumulation
0.00 0.01 0.01 0.04 0.08 0.15 0.15 0.18 0.18 0.20 0.17 0.21 0.20 0.17 0.17 0.18 0.16 0.11 0.06 0.04 0.02 0.00 0.00 0.02 0.05 0.04 0.05 0.05 0.05 0.06 0.04 0.02 0.01 0.00 0.00 0.00 0.00 0.00 0.00 0.00 0.00 0.00 0.00
0.00 0.00 0.00 0.01 0.02 0.06 0.15 0.35 0.38 0.39 0.37 0.32 0.23 0.23 0.16 0.18 0.24 0.26 0.16 0.11 0.15 0.03 0.01 0.06 0.06 0.12 0.11 0.07 0.07 0.10 0.08 0.08 0.06 0.03 0.01 0.01 0.00 0.00 0.00 0.00 0.00 0.00 0.00
0.01 0.01 0.00 0.00 0.00 0.01 0.05 0.15 0.22 0.29 0.29 0.41 0.27 0.32 0.39 0.36 0.30 0.22 0.20 0.11 0.12 0.13 0.12 0.10 0.14 0.32 0.40 0.37 0.30 0.23 0.20 0.17 0.14 0.12 0.08 0.03 0.01 0.00 0.00 0.01 0.00 0.00 0.00
0.04 0.03 0.02 0.01 0.03 0.01 0.01 0.04 0.10 0.17 0.15 0.25 0.28 0.24 0.24 0.29 0.25 0.16 0.12 0.09 0.09 0.10 0.12 0.13 0.09 0.20 0.24 0.19 0.18 0.23 0.29 0.28 0.25 0.22 0.18 0.13 0.07 0.02 0.01 0.01 0.01 0.01 0.01
0.09 0.07 0.04 0.09 0.14 0.13 0.10 0.07 0.09 0.11 0.11 0.17 0.16 0.18 0.20 0.19 0.13 0.15 0.12 0.14 0.09 0.08 0.02 0.04 0.02 0.02 0.04 0.06 0.06 0.12 0.21 0.26 0.30 0.28 0.24 0.22 0.20 0.15 0.08 0.04 0.02 0.01 0.01
0.24 0.20 0.17 0.26 0.21 0.14 0.15 0.13 0.11 0.14 0.15 0.12 0.09 0.11 0.12 0.12 0.12 0.12 0.12 0.12 0.08 0.05 0.03 0.02 0.00 0.00 0.00 0.02 0.04 0.03 0.10 0.18 0.26 0.24 0.22 0.19 0.20 0.19 0.17 0.14 0.10 0.06 0.03
0.26 0.26 0.18 0.17 0.17 0.16 0.15 0.10 0.10 0.15 0.20 0.22 0.23 0.20 0.16 0.13 0.11 0.12 0.12 0.10 0.08 0.05 0.03 0.02 0.02 0.00 0.00 0.00 0.01 0.02 0.04 0.09 0.17 0.21 0.22 0.21 0.19 0.18 0.16 0.15 0.19 0.22 0.16
0.27 0.21 0.16 0.18 0.19 0.25 0.28 0.28 0.22 0.21 0.26 0.35 0.31 0.26 0.18 0.12 0.11 0.07 0.09 0.11 0.12 0.13 0.12 0.05 0.01 0.00 0.00 0.00 0.00 0.00 0.02 0.07 0.11 0.21 0.22 0.20 0.19 0.16 0.15 0.14 0.13 0.11 0.09
0.25 0.21 0.38 0.40 0.28 0.25 0.28 0.36 0.48 0.53 0.45 0.37 0.39 0.45 0.33 0.18 0.08 0.02 0.05 0.08 0.09 0.10 0.12 0.13 0.08 0.04 0.02 0.01 0.00 0.01 0.02 0.04 0.13 0.25 0.32 0.20 0.20 0.17 0.16 0.16 0.16 0.18 0.14
0.16 0.11 0.07 0.28 0.56 0.50 0.38 0.33 0.30 0.30 0.36 0.29 0.36 0.39 0.38 0.29 0.18 0.07 0.02 0.04 0.04 0.04 0.04 0.05 0.04 0.03 0.02 0.02 0.02 0.05 0.06 0.07 0.03 0.13 0.40 0.46 0.39 0.30 0.25 0.22 0.20 0.20 0.18
0.15 0.07 0.03 0.05 0.09 0.17 0.27 0.34 0.27 0.20 0.18 0.21 0.19 0.16 0.17 0.20 0.24 0.21 0.09 0.03 0.02 0.00 0.01 0.01 0.01 0.01 0.04 0.07 0.11 0.12 0.22 0.28 0.09 0.31 0.50 0.75 0.67 0.60 0.57 0.56 0.42 0.27 0.21
0.16 0.11 0.06 0.03 0.03 0.04 0.06 0.06 0.08 0.09 0.10 0.12 0.13 0.14 0.16 0.21 0.19 0.26 0.26 0.13 0.11 0.06 0.02 0.02 0.02 0.03 0.09 0.13 0.11 0.11 0.09 0.13 0.10 0.18 0.28 0.50 0.65 0.64 0.70 0.79 0.77 0.59 0.40
0.02 0.02 0.02 0.03 0.07 0.10 0.12 0.11 0.11 0.14 0.17 0.17 0.20 0.21 0.26 0.31 0.33 0.33 0.32 0.23 0.19 0.14 0.12 0.06 0.02 0.06 0.09 0.06 0.06 0.11 0.08 0.08 0.08 0.17 0.23 0.29 0.49 0.60 0.64 0.76 1.06 1.37 1.48
0.05 0.04 0.05 0.07 0.21 0.29 0.36 0.42 0.47 0.44 0.38 0.37 0.44 0.49 0.49 0.53 0.64 0.78 0.88 0.87 0.85 0.59 0.36 0.22 0.13 0.16 0.16 0.12 0.15 0.20 0.09 0.10 0.07 0.08 0.15 0.24 0.42 0.53 0.63 0.68 0.81 1.05 1.45
0.00 0.00 0.02 0.04 0.11 0.20 0.24 0.34 0.40 0.45 0.49 0.55 0.54 0.52 0.50 0.47 0.53 0.65 0.79 0.93 1.05 0.85 0.45 0.26 0.33 0.34 0.33 0.28 0.31 0.25 0.15 0.18 0.16 0.09 0.10 0.14 0.16 0.21 0.27 0.38 0.53 0.70 0.96
0.00 0.00 0.00 0.02 0.04 0.04 0.09 0.16 0.26 0.34 0.38 0.44 0.50 0.51 0.56 0.59 0.55 0.49 0.45 0.52 0.66 0.77 0.55 0.16 0.16 0.17 0.21 0.34 0.57 0.64 0.56 0.63 0.46 0.33 0.27 0.26 0.23 0.18 0.19 0.23 0.27 0.31 0.41
0.00 0.00 0.00 0.00 0.00 0.00 0.01 0.04 0.06 0.08 0.12 0.18 0.23 0.27 0.33 0.43 0.57 0.65 0.75 0.81 0.85 0.93 0.81 0.32 0.24 0.24 0.26 0.29 0.30 0.34 0.42 0.55 0.67 0.77 0.71 0.69 0.57 0.48 0.44 0.41 0.37 0.34 0.32
0.00 0.00 0.00 0.00 0.00 0.00 0.00 0.00 0.00 0.00 0.00 0.00 0.01 0.02 0.04 0.08 0.15 0.23 0.31 0.45 0.64 0.80 0.95 0.71 0.49 0.52 0.59 0.62 0.56 0.46 0.42 0.44 0.45 0.64 0.81 0.93 0.90 0.81 0.79 0.79 0.69 0.57 0.46
0.00 0.00 0.00 0.00 0.00 0.00 0.00 0.00 0.00 0.00 0.00 0.00 0.00 0.00 0.00 0.00 0.01 0.03 0.06 0.11 0.17 0.23 0.32 0.32 0.22 0.24 0.34 0.49 0.56 0.56 0.55 0.58 0.57 0.77 0.84 0.91 0.98 0.96 0.87 0.82 0.86 0.92 0.91
0.00 0.00 0.00 0.00 0.00 0.00 0.00 0.00 0.00 0.00 0.00 0.00 0.00 0.00 0.00 0.00 0.00 0.00 0.00 0.00 0.00 0.01 0.02 0.06 0.06 0.07 0.11 0.16 0.22 0.26 0.27 0.28 0.28 0.32 0.46 0.53 0.63 0.68 0.78 0.80 0.73 0.70 0.78
0.00 0.00 0.00 0.00 0.00 0.00 0.00 0.00 0.00 0.00 0.00 0.00 0.00 0.00 0.00 0.00 0.00 0.00 0.00 0.00 0.00 0.00 0.00 0.01 0.02 0.01 0.01 0.01 0.02 0.06 0.09 0.16 0.20 0.30 0.29 0.29 0.26 0.23 0.28 0.43 0.59 0.72 0.73
0.00 0.00 0.00 0.00 0.00 0.00 0.00 0.00 0.00 0.00 0.00 0.00 0.00 0.00 0.00 0.00 0.00 0.00 0.00 0.00 0.00 0.00 0.00 0.01 0.01 0.01 0.01 0.01 0.00 0.00 0.01 0.05 0.08 0.14 0.18 0.18 0.21 0.20 0.16 0.16 0.28 0.41 0.54
0.00 0.00 0.00 0.00 0.00 0.00 0.00 0.00 0.00 0.00 0.00 0.00 0.00 0.00 0.00 0.00 0.00 0.00 0.00 0.00 0.00 0.00 0.01 0.01 0.01 0.00 0.01 0.01 0.02 0.02 0.02 0.03 0.03 0.03 0.09 0.15 0.16 0.21 0.19 0.23 0.25 0.23 0.32
0.00 0.00 0.00 0.00 0.00 0.00 0.00 0.00 0.00 0.00 0.00 0.00 0.00 0.00 0.00 0.00 0.00 0.00 0.00 0.00 0.00 0.00 0.00 0.00 0.00 0.01 0.01 0.02 0.03 0.04 0.03 0.02 0.01 0.01 0.06 0.14 0.11 0.16 0.16 0.21 0.32 0.30 0.32
0.00 0.00 0.00 0.00 0.00 0.00 0.00 0.00 0.00 0.00 0.00 0.00 0.00 0.00 0.00 0.00 0.00 0.00 0.00 0.00 0.00 0.00 0.00 0.00 0.00 0.01 0.01 0.01 0.02 0.03 0.05 0.06 0.05 0.05 0.05 0.07 0.06 0.11 0.15 0.17 0.20 0.29 0.31
0.00 0.00 0.00 0.00 0.00 0.00 0.00 0.00 0.00 0.00 0.00 0.00 0.00 0.00 0.00 0.00 0.00 0.01 0.01 0.01 0.03 0.00 0.00 0.00 0.00 0.00 0.00 0.00 0.00 0.01 0.01 0.04 0.06 0.08 0.06 0.08 0.07 0.06 0.12 0.12 0.15 0.22 0.24

GFSMA_prec_precacc24_129.txt.gz
Total_Precipitation_Accumulation
0.00 0.01 0.01 0.02 0.02 0.09 0.11 0.15 0.17 0.20 0.16 0.21 0.20 0.18 0.19 0.23 0.23 0.19 0.14 0.16 0.09 0.03 0.02 0.02 0.04 0.04 0.05 0.05 0.06 0.09 0.07 0.06 0.04 0.02 0.01 0.01 0.00 0.00 0.00 0.00 0.00 0.00 0.00
0.00 0.00 0.00 0.01 0.00 0.02 0.13 0.34 0.37 0.38 0.36 0.31 0.23 0.24 0.16 0.18 0.25 0.31 0.25 0.22 0.32 0.19 0.10 0.18 0.17 0.15 0.14 0.15 0.12 0.14 0.11 0.16 0.14 0.10 0.06 0.05 0.03 0.01 0.00 0.00 0.00 0.00 0.00
0.01 0.01 0.00 0.00 0.00 0.01 0.02 0.09 0.19 0.25 0.24 0.38 0.26 0.33 0.41 0.37 0.31 0.22 0.22 0.17 0.24 0.29 0.24 0.15 0.27 0.45 0.50 0.47 0.37 0.31 0.29 0.28 0.28 0.27 0.21 0.14 0.09 0.05 0.03 0.02 0.01 0.00 0.00
0.04 0.03 0.02 0.01 0.03 0.01 0.01 0.02 0.06 0.11 0.09 0.17 0.22 0.23 0.25 0.31 0.26 0.16 0.15 0.14 0.24 0.34 0.49 0.44 0.16 0.34 0.43 0.49 0.56 0.54 0.49 0.38 0.29 0.28 0.29 0.29 0.23 0.15 0.08 0.07 0.04 0.02 0.01
0.09 0.07 0.04 0.09 0.14 0.13 0.10 0.07 0.06 0.07 0.08 0.16 0.14 0.15 0.19 0.20 0.15 0.17 0.16 0.22 0.24 0.30 0.29 0.49 0.47 0.22 0.13 0.09 0.12 0.15 0.27 0.31 0.37 0.36 0.32 0.29 0.29 0.31 0.28 0.23 0.23 0.12 0.06
0.24 0.20 0.17 0.26 0.21 0.14 0.14 0.13 0.09 0.12 0.13 0.10 0.07 0.08 0.11 0.12 0.13 0.18 0.22 0.26 0.18 0.13 0.12 0.13 0.12 0.06 0.05 0.03 0.04 0.04 0.07 0.15 0.23 0.24 0.25 0.25 0.25 0.24 0.24 0.26 0.30 0.25 0.16
0.26 0.26 0.18 0.17 0.17 0.16 0.15 0.10 0.09 0.13 0.19 0.20 0.17 0.15 0.14 0.12 0.15 0.16 0.18 0.16 0.16 0.12 0.08 0.07 0.05 0.04 0.07 0.05 0.02 0.02 0.03 0.07 0.13 0.17 0.21 0.22 0.21 0.23 0.26 0.27 0.30 0.35 0.41
0.27 0.21 0.16 0.18 0.19 0.25 0.28 0.27 0.22 0.18 0.24 0.32 0.29 0.23 0.16 0.13 0.16 0.10 0.09 0.11 0.12 0.14 0.14 0.13 0.09 0.05 0.03 0.03 0.02 0.01 0.02 0.05 0.08 0.18 0.20 0.20 0.19 0.16 0.16 0.18 0.21 0.20 0.19
0.25 0.21 0.37 0.40 0.28 0.25 0.28 0.34 0.45 0.49 0.43 0.35 0.35 0.42 0.31 0.18 0.08 0.07 0.06 0.08 0.09 0.10 0.12 0.13 0.12 0.09 0.05 0.03 0.01 0.01 0.01 0.02 0.06 0.17 0.26 0.20 0.21 0.18 0.17 0.17 0.18 0.21 0.19
0.16 0.10 0.07 0.28 0.55 0.48 0.36 0.31 0.26 0.25 0.31 0.26 0.33 0.36 0.35 0.27 0.17 0.06 0.02 0.04 0.04 0.04 0.04 0.05 0.04 0.03 0.02 0.02 0.01 0.02 0.01 0.02 0.02 0.09 0.30 0.39 0.38 0.31 0.26 0.23 0.21 0.21 0.19
0.15 0.07 0.03 0.04 0.07 0.11 0.21 0.29 0.23 0.17 0.15 0.15 0.12 0.13 0.15 0.16 0.20 0.20 0.08 0.02 0.02 0.00 0.01 0.01 0.01 0.01 0.02 0.03 0.03 0.04 0.06 0.08 0.05 0.16 0.38 0.61 0.58 0.57 0.57 0.56 0.43 0.27 0.21
0.16 0.11 0.05 0.02 0.00 0.00 0.01 0.03 0.04 0.06 0.09 0.10 0.09 0.10 0.13 0.17 0.14 0.21 0.21 0.09 0.08 0.03 0.01 0.01 0.01 0.01 0.03 0.05 0.06 0.07 0.06 0.06 0.04 0.11 0.21 0.39 0.51 0.57 0.68 0.80 0.78 0.60 0.41
0.01 0.01 0.00 0.01 0.02 0.03 0.05 0.05 0.05 0.09 0.13 0.13 0.16 0.16 0.20 0.23 0.23 0.23 0.22 0.17 0.14 0.08 0.05 0.02 0.01 0.04 0.07 0.05 0.05 0.09 0.04 0.03 0.04 0.14 0.20 0.23 0.37 0.48 0.58 0.73 1.03 1.37 1.49
0.02 0.02 0.01 0.02 0.05 0.05 0.07 0.13 0.16 0.17 0.17 0.19 0.26 0.36 0.41 0.45 0.54 0.67 0.77 0.77 0.73 0.50 0.31 0.17 0.12 0.15 0.14 0.11 0.12 0.16 0.06 0.07 0.06 0.06 0.11 0.17 0.29 0.40 0.53 0.59 0.68 0.97 1.44
0.00 0.00 0.00 0.00 0.01 0.01 0.04 0.09 0.14 0.20 0.31 0.32 0.30 0.31 0.36 0.40 0.49 0.60 0.71 0.82 0.91 0.71 0.38 0.25 0.31 0.33 0.32 0.27 0.29 0.22 0.13 0.16 0.14 0.07 0.08 0.09 0.10 0.14 0.20 0.30 0.43 0.56 0.92
0.00 0.00 0.00 0.00 0.00 0.00 0.01 0.04 0.12 0.19 0.23 0.23 0.25 0.30 0.38 0.44 0.45 0.43 0.38 0.43 0.53 0.62 0.44 0.15 0.15 0.16 0.18 0.30 0.54 0.61 0.55 0.62 0.45 0.32 0.27 0.24 0.20 0.14 0.13 0.18 0.23 0.27 0.38
0.00 0.00 0.00 0.00 0.00 0.00 0.00 0.00 0.00 0.03 0.06 0.09 0.12 0.15 0.20 0.24 0.33 0.40 0.50 0.59 0.67 0.79 0.65 0.28 0.23 0.21 0.22 0.23 0.22 0.26 0.37 0.53 0.67 0.76 0.68 0.65 0.53 0.42 0.36 0.31 0.29 0.30 0.31
0.00 0.00 0.00 0.00 0.00 0.00 0.00 0.00 0.00 0.00 0.00 0.00 0.00 0.00 0.01 0.02 0.04 0.05 0.10 0.18 0.28 0.39 0.46 0.37 0.33 0.42 0.48 0.55 0.50 0.40 0.39 0.41 0.44 0.61 0.72 0.77 0.75 0.73 0.72 0.72 0.65 0.55 0.45
0.00 0.00 0.00 0.00 0.00 0.00 0.00 0.00 0.00 0.00 0.00 0.00 0.00 0.00 0.00 0.00 0.00 0.00 0.01 0.02 0.06 0.09 0.14 0.17 0.15 0.20 0.31 0.47 0.54 0.53 0.52 0.55 0.55 0.71 0.73 0.74 0.75 0.70 0.70 0.76 0.84 0.92 0.91
0.00 0.00 0.00 0.00 0.00 0.00 0.00 0.00 0.00 0.00 0.00 0.00 0.00 0.00 0.00 0.00 0.00 0.00 0.00 0.00 0.00 0.00 0.01 0.03 0.04 0.07 0.11 0.16 0.22 0.25 0.25 0.26 0.26 0.29 0.37 0.42 0.52 0.59 0.69 0.76 0.72 0.70 0.78
0.00 0.00 0.00 0.00 0.00 0.00 0.00 0.00 0.00 0.00 0.00 0.00 0.00 0.00 0.00 0.00 0.00 0.00 0.00 0.00 0.00 0.00 0.00 0.00 0.00 0.00 0.00 0.00 0.02 0.06 0.09 0.14 0.16 0.27 0.25 0.22 0.20 0.19 0.27 0.42 0.59 0.72 0.73
0.00 0.00 0.00 0.00 0.00 0.00 0.00 0.00 0.00 0.00 0.00 0.00 0.00 0.00 0.00 0.00 0.00 0.00 0.00 0.00 0.00 0.00 0.00 0.01 0.00 0.00 0.00 0.00 0.00 0.00 0.00 0.02 0.03 0.10 0.15 0.14 0.17 0.17 0.15 0.15 0.28 0.41 0.54
0.00 0.00 0.00 0.00 0.00 0.00 0.00 0.00 0.00 0.00 0.00 0.00 0.00 0.00 0.00 0.00 0.00 0.00 0.00 0.00 0.00 0.00 0.00 0.00 0.00 0.00 0.00 0.00 0.01 0.02 0.02 0.03 0.01 0.01 0.02 0.05 0.11 0.16 0.16 0.22 0.25 0.23 0.32
0.00 0.00 0.00 0.00 0.00 0.00 0.00 0.00 0.00 0.00 0.00 0.00 0.00 0.00 0.00 0.00 0.00 0.00 0.00 0.00 0.00 0.00 0.00 0.00 0.00 0.00 0.00 0.01 0.02 0.04 0.03 0.02 0.00 0.00 0.01 0.03 0.03 0.10 0.12 0.16 0.28 0.29 0.32
0.00 0.00 0.00 0.00 0.00 0.00 0.00 0.00 0.00 0.00 0.00 0.00 0.00 0.00 0.00 0.00 0.00 0.00 0.00 0.00 0.00 0.00 0.00 0.00 0.00 0.01 0.01 0.01 0.01 0.01 0.01 0.01 0.01 0.01 0.00 0.02 0.01 0.02 0.06 0.11 0.17 0.28 0.31
0.00 0.00 0.00 0.00 0.00 0.00 0.00 0.00 0.00 0.00 0.00 0.00 0.00 0.00 0.00 0.00 0.00 0.01 0.01 0.01 0.03 0.01 0.00 0.00 0.00 0.00 0.00 0.00 0.00 0.00 0.01 0.02 0.03 0.03 0.01 0.01 0.01 0.01 0.04 0.04 0.08 0.19 0.23

GFSMA_prec_precacc24_132.txt.gz
Total_Precipitation_Accumulation
0.00 0.01 0.01 0.01 0.01 0.06 0.08 0.10 0.13 0.17 0.14 0.20 0.20 0.18 0.20 0.24 0.25 0.21 0.18 0.23 0.18 0.09 0.08 0.11 0.09 0.06 0.06 0.06 0.06 0.09 0.09 0.09 0.08 0.06 0.04 0.03 0.02 0.00 0.00 0.00 0.00 0.00 0.00
0.00 0.00 0.00 0.01 0.00 0.01 0.10 0.26 0.31 0.34 0.32 0.27 0.19 0.20 0.17 0.19 0.26 0.32 0.27 0.25 0.44 0.35 0.20 0.32 0.31 0.27 0.23 0.23 0.22 0.24 0.18 0.22 0.19 0.16 0.12 0.13 0.10 0.05 0.01 0.00 0.00 0.00 0.00
0.01 0.01 0.00 0.00 0.00 0.01 0.02 0.06 0.14 0.18 0.19 0.35 0.24 0.30 0.37 0.37 0.31 0.22 0.23 0.20 0.29 0.40 0.38 0.26 0.36 0.59 0.68 0.64 0.56 0.52 0.46 0.38 0.35 0.34 0.30 0.24 0.18 0.12 0.07 0.04 0.03 0.02 0.01
0.04 0.03 0.02 0.01 0.03 0.01 0.01 0.02 0.05 0.10 0.08 0.14 0.14 0.15 0.18 0.27 0.25 0.16 0.16 0.16 0.28 0.41 0.60 0.64 0.53 0.75 0.92 0.88 0.87 0.81 0.90 0.70 0.44 0.36 0.34 0.34 0.36 0.42 0.40 0.33 0.26 0.11 0.06
0.09 0.07 0.04 0.09 0.14 0.13 0.10 0.07 0.05 0.06 0.07 0.13 0.11 0.09 0.09 0.11 0.12 0.19 0.22 0.26 0.28 0.34 0.35 0.63 0.90 0.93 0.85 0.71 0.53 0.64 0.56 0.62 0.68 0.65 0.57 0.52 0.44 0.38 0.36 0.42 0.51 0.34 0.16
0.22 0.19 0.17 0.26 0.21 0.14 0.14 0.13 0.09 0.12 0.13 0.09 0.06 0.08 0.11 0.11 0.12 0.18 0.23 0.27 0.20 0.15 0.14 0.17 0.21 0.24 0.37 0.36 0.31 0.30 0.23 0.21 0.25 0.29 0.30 0.27 0.29 0.29 0.28 0.31 0.36 0.44 0.44
0.23 0.25 0.18 0.17 0.17 0.16 0.15 0.10 0.09 0.13 0.19 0.20 0.15 0.14 0.13 0.11 0.14 0.16 0.17 0.16 0.16 0.12 0.08 0.07 0.06 0.09 0.13 0.12 0.05 0.05 0.07 0.10 0.11 0.13 0.17 0.17 0.20 0.23 0.26 0.29 0.34 0.44 0.52
0.23 0.20 0.16 0.18 0.19 0.25 0.28 0.27 0.22 0.18 0.23 0.30 0.26 0.19 0.14 0.12 0.15 0.10 0.09 0.11 0.12 0.14 0.14 0.13 0.09 0.05 0.03 0.03 0.02 0.01 0.02 0.05 0.07 0.12 0.15 0.16 0.18 0.16 0.17 0.19 0.21 0.21 0.22
0.21 0.21 0.37 0.39 0.28 0.24 0.28 0.34 0.45 0.49 0.42 0.34 0.32 0.37 0.28 0.17 0.07 0.07 0.06 0.08 0.09 0.10 0.12 0.13 0.12 0.09 0.05 0.03 0.01 0.01 0.01 0.02 0.04 0.10 0.15 0.16 0.17 0.18 0.17 0.18 0.18 0.21 0.19
0.16 0.10 0.07 0.28 0.55 0.48 0.35 0.29 0.23 0.20 0.23 0.24 0.28 0.32 0.32 0.25 0.15 0.05 0.02 0.04 0.04 0.04 0.04 0.05 0.04 0.03 0.02 0.02 0.01 0.02 0.01 0.01 0.01 0.06 0.16 0.23 0.25 0.26 0.25 0.24 0.21 0.21 0.19
0.14 0.07 0.03 0.04 0.07 0.10 0.19 0.25 0.20 0.12 0.08 0.09 0.08 0.08 0.10 0.13 0.14 0.13 0.05 0.01 0.01 0.00 0.01 0.01 0.01 0.01 0.02 0.03 0.02 0.02 0.02 0.01 0.00 0.05 0.13 0.33 0.34 0.35 0.43 0.52 0.43 0.28 0.22
0.16 0.11 0.05 0.02 0.00 0.00 0.00 0.00 0.00 0.01 0.02 0.04 0.05 0.06 0.09 0.14 0.10 0.12 0.11 0.04 0.03 0.00 0.01 0.01 0.01 0.00 0.03 0.03 0.03 0.04 0.02 0.03 0.02 0.05 0.12 0.22 0.28 0.31 0.40 0.61 0.73 0.60 0.41
0.00 0.00 0.00 0.00 0.00 0.00 0.00 0.01 0.01 0.01 0.03 0.04 0.08 0.11 0.14 0.19 0.18 0.16 0.13 0.08 0.07 0.03 0.04 0.02 0.00 0.04 0.07 0.05 0.05 0.08 0.04 0.03 0.03 0.07 0.10 0.14 0.28 0.32 0.33 0.40 0.71 1.25 1.45
0.00 0.00 0.00 0.00 0.00 0.00 0.00 0.01 0.03 0.02 0.03 0.04 0.07 0.11 0.16 0.22 0.31 0.41 0.50 0.55 0.49 0.36 0.25 0.16 0.12 0.14 0.13 0.10 0.12 0.14 0.04 0.06 0.05 0.06 0.10 0.16 0.24 0.28 0.33 0.36 0.39 0.65 1.28
0.00 0.00 0.00 0.00 0.00 0.00 0.00 0.00 0.01 0.01 0.03 0.04 0.09 0.12 0.15 0.17 0.22 0.31 0.44 0.60 0.68 0.54 0.31 0.23 0.30 0.32 0.31 0.26 0.27 0.21 0.11 0.16 0.13 0.07 0.08 0.08 0.09 0.11 0.13 0.17 0.20 0.26 0.57
0.00 0.00 0.00 0.00 0.00 0.00 0.00 0.00 0.00 0.00 0.01 0.06 0.12 0.14 0.19 0.27 0.27 0.26 0.25 0.31 0.42 0.49 0.36 0.14 0.14 0.15 0.15 0.24 0.50 0.58 0.54 0.62 0.45 0.32 0.26 0.23 0.19 0.14 0.12 0.12 0.12 0.12 0.17
0.00 0.00 0.00 0.00 0.00 0.00 0.00 0.00 0.00 0.00 0.00 0.00 0.03 0.06 0.10 0.13 0.20 0.23 0.25 0.30 0.37 0.47 0.45 0.24 0.21 0.19 0.18 0.18 0.18 0.21 0.34 0.52 0.66 0.75 0.67 0.64 0.52 0.41 0.34 0.27 0.18 0.14 0.12
0.00 0.00 0.00 0.00 0.00 0.00 0.00 0.00 0.00 0.00 0.00 0.00 0.00 0.00 0.00 0.00 0.01 0.01 0.02 0.06 0.11 0.18 0.22 0.20 0.19 0.25 0.35 0.44 0.41 0.34 0.35 0.38 0.42 0.58 0.69 0.74 0.74 0.72 0.70 0.67 0.56 0.41 0.29
0.00 0.00 0.00 0.00 0.00 0.00 0.00 0.00 0.00 0.00 0.00 0.00 0.00 0.00 0.00 0.00 0.00 0.00 0.00 0.00 0.01 0.03 0.04 0.05 0.06 0.10 0.16 0.29 0.37 0.43 0.47 0.53 0.54 0.69 0.71 0.73 0.74 0.68 0.63 0.67 0.73 0.79 0.79
0.00 0.00 0.00 0.00 0.00 0.00 0.00 0.00 0.00 0.00 0.00 0.00 0.00 0.00 0.00 0.00 0.00 0.00 0.00 0.00 0.00 0.00 0.00 0.00 0.01 0.04 0.06 0.10 0.16 0.22 0.24 0.26 0.26 0.28 0.36 0.42 0.50 0.55 0.62 0.60 0.57 0.59 0.68
0.00 0.00 0.00 0.00 0.00 0.00 0.00 0.00 0.00 0.00 0.00 0.00 0.00 0.00 0.00 0.00 0.00 0.00 0.00 0.00 0.00 0.00 0.00 0.00 0.00 0.00 0.00 0.00 0.02 0.05 0.08 0.14 0.16 0.26 0.23 0.21 0.19 0.16 0.22 0.33 0.47 0.62 0.66
0.00 0.00 0.00 0.00 0.00 0.00 0.00 0.00 0.00 0.00 0.00 0.00 0.00 0.00 0.00 0.00 0.00 0.00 0.00 0.00 0.00 0.00 0.00 0.00 0.00 0.00 0.00 0.00 0.00 0.00 0.00 0.01 0.03 0.09 0.12 0.10 0.13 0.13 0.14 0.14 0.26 0.39 0.53
0.00 0.00 0.00 0.00 0.00 0.00 0.00 0.00 0.00 0.00 0.00 0.00 0.00 0.00 0.00 0.00 0.00 0.00 0.00 0.00 0.00 0.00 0.00 0.00 0.00 0.00 0.00 0.00 0.01 0.01 0.02 0.02 0.01 0.00 0.01 0.02 0.05 0.08 0.10 0.17 0.21 0.22 0.31
0.00 0.00 0.00 0.00 0.00 0.00 0.00 0.00 0.00 0.00 0.00 0.00 0.00 0.00 0.00 0.00 0.00 0.00 0.00 0.00 0.00 0.00 0.00 0.00 0.00 0.00 0.00 0.01 0.02 0.04 0.03 0.01 0.00 0.00 0.00 0.01 0.00 0.01 0.01 0.04 0.13 0.22 0.28
0.00 0.00 0.00 0.00 0.00 0.00 0.00 0.00 0.00 0.00 0.00 0.00 0.00 0.00 0.00 0.00 0.00 0.00 0.00 0.00 0.00 0.00 0.00 0.00 0.00 0.01 0.01 0.01 0.01 0.01 0.01 0.01 0.01 0.00 0.00 0.01 0.00 0.00 0.00 0.00 0.01 0.06 0.14
0.00 0.00 0.00 0.00 0.00 0.00 0.00 0.00 0.00 0.00 0.00 0.00 0.00 0.00 0.00 0.00 0.00 0.01 0.01 0.01 0.03 0.01 0.00 0.00 0.00 0.00 0.00 0.00 0.00 0.00 0.00 0.01 0.02 0.02 0.00 0.01 0.01 0.01 0.03 0.00 0.00 0.02 0.04

GFSMA_prec_precacc24_135.txt.gz
Total_Precipitation_Accumulation
0.00 0.01 0.01 0.01 0.01 0.06 0.07 0.10 0.13 0.17 0.14 0.20 0.20 0.18 0.20 0.24 0.25 0.21 0.18 0.23 0.19 0.13 0.14 0.18 0.17 0.16 0.15 0.10 0.09 0.10 0.10 0.11 0.09 0.08 0.06 0.06 0.06 0.03 0.00 0.00 0.00 0.00 0.00
0.00 0.00 0.00 0.00 0.00 0.01 0.08 0.17 0.23 0.30 0.29 0.23 0.16 0.18 0.16 0.19 0.26 0.32 0.27 0.25 0.45 0.37 0.23 0.36 0.36 0.36 0.38 0.42 0.44 0.43 0.28 0.28 0.25 0.20 0.16 0.18 0.16 0.11 0.04 0.02 0.02 0.01 0.00
0.01 0.01 0.00 0.00 0.00 0.01 0.00 0.04 0.10 0.14 0.14 0.27 0.19 0.24 0.27 0.29 0.29 0.22 0.23 0.20 0.29 0.40 0.39 0.26 0.36 0.63 0.84 1.02 1.18 1.52 1.72 1.31 0.77 0.48 0.37 0.31 0.25 0.18 0.14 0.12 0.11 0.10 0.07
0.02 0.02 0.02 0.01 0.03 0.01 0.01 0.02 0.05 0.09 0.07 0.13 0.13 0.13 0.13 0.17 0.15 0.12 0.15 0.16 0.29 0.41 0.61 0.65 0.54 0.75 0.94 0.97 0.97 1.01 1.42 1.73 1.80 1.52 0.84 0.41 0.39 0.46 0.54 0.61 0.47 0.33 0.21
0.06 0.06 0.04 0.08 0.14 0.13 0.10 0.07 0.05 0.06 0.07 0.12 0.09 0.09 0.08 0.07 0.08 0.14 0.19 0.24 0.27 0.34 0.35 0.64 0.91 0.94 0.89 0.77 0.62 0.79 0.90 1.00 1.20 1.41 1.39 1.11 0.79 0.53 0.47 0.56 0.70 0.63 0.39
0.09 0.12 0.11 0.18 0.19 0.14 0.14 0.13 0.09 0.12 0.13 0.09 0.06 0.08 0.11 0.11 0.11 0.16 0.21 0.26 0.19 0.15 0.14 0.17 0.22 0.26 0.38 0.45 0.48 0.50 0.45 0.50 0.61 0.59 0.56 0.51 0.47 0.42 0.40 0.44 0.53 0.63 0.62
0.06 0.11 0.12 0.15 0.17 0.16 0.15 0.10 0.09 0.13 0.19 0.20 0.15 0.14 0.13 0.11 0.14 0.16 0.17 0.16 0.15 0.12 0.08 0.07 0.06 0.09 0.13 0.13 0.09 0.12 0.15 0.19 0.22 0.24 0.27 0.26 0.25 0.28 0.30 0.32 0.39 0.50 0.62
0.06 0.07 0.10 0.14 0.16 0.23 0.27 0.27 0.22 0.18 0.23 0.30 0.26 0.18 0.13 0.12 0.15 0.10 0.09 0.11 0.12 0.14 0.14 0.13 0.09 0.05 0.03 0.03 0.02 0.01 0.02 0.06 0.07 0.10 0.13 0.16 0.16 0.18 0.19 0.22 0.22 0.22 0.22
0.06 0.14 0.32 0.36 0.26 0.23 0.27 0.34 0.44 0.48 0.42 0.34 0.31 0.32 0.26 0.17 0.07 0.07 0.06 0.08 0.09 0.10 0.12 0.13 0.12 0.09 0.05 0.03 0.01 0.01 0.01 0.02 0.04 0.07 0.09 0.11 0.16 0.22 0.20 0.19 0.19 0.21 0.19
0.06 0.07 0.05 0.27 0.55 0.48 0.35 0.29 0.22 0.19 0.20 0.23 0.26 0.29 0.29 0.23 0.13 0.04 0.02 0.03 0.04 0.04 0.04 0.05 0.04 0.03 0.02 0.02 0.01 0.02 0.01 0.01 0.01 0.05 0.10 0.13 0.17 0.17 0.18 0.22 0.22 0.23 0.21
0.03 0.02 0.01 0.04 0.07 0.10 0.19 0.25 0.20 0.11 0.07 0.06 0.05 0.05 0.07 0.08 0.09 0.07 0.02 0.00 0.01 0.00 0.01 0.01 0.01 0.01 0.02 0.03 0.02 0.02 0.02 0.01 0.00 0.04 0.09 0.21 0.21 0.20 0.23 0.28 0.31 0.28 0.22
0.12 0.10 0.05 0.02 0.00 0.00 0.00 0.00 0.00 0.00 0.00 0.00 0.00 0.01 0.03 0.07 0.06 0.07 0.07 0.02 0.01 0.00 0.00 0.01 0.00 0.00 0.03 0.03 0.02 0.03 0.01 0.01 0.01 0.04 0.10 0.18 0.21 0.19 0.20 0.28 0.33 0.39 0.38
0.00 0.00 0.00 0.00 0.00 0.00 0.00 0.00 0.00 0.00 0.00 0.00 0.00 0.01 0.02 0.05 0.07 0.10 0.10 0.05 0.03 0.01 0.01 0.00 0.00 0.04 0.07 0.05 0.04 0.07 0.02 0.01 0.02 0.05 0.07 0.12 0.22 0.27 0.27 0.24 0.29 0.40 0.75
0.00 0.00 0.00 0.00 0.00 0.00 0.00 0.00 0.00 0.00 0.00 0.00 0.00 0.01 0.01 0.02 0.05 0.11 0.14 0.16 0.19 0.19 0.13 0.06 0.06 0.11 0.12 0.09 0.10 0.11 0.03 0.05 0.04 0.04 0.06 0.09 0.16 0.19 0.23 0.24 0.28 0.35 0.50
0.00 0.00 0.00 0.00 0.00 0.00 0.00 0.00 0.00 0.00 0.00 0.00 0.00 0.00 0.00 0.01 0.03 0.11 0.14 0.23 0.28 0.23 0.18 0.18 0.25 0.27 0.26 0.23 0.24 0.18 0.09 0.13 0.11 0.06 0.05 0.06 0.06 0.08 0.10 0.11 0.14 0.17 0.26
0.00 0.00 0.00 0.00 0.00 0.00 0.00 0.00 0.00 0.00 0.00 0.00 0.00 0.00 0.00 0.01 0.05 0.08 0.10 0.16 0.21 0.25 0.19 0.09 0.13 0.14 0.12 0.16 0.37 0.47 0.50 0.58 0.42 0.31 0.25 0.22 0.19 0.13 0.11 0.11 0.11 0.10 0.13
0.00 0.00 0.00 0.00 0.00 0.00 0.00 0.00 0.00 0.00 0.00 0.00 0.00 0.00 0.00 0.00 0.02 0.05 0.08 0.13 0.16 0.22 0.22 0.12 0.15 0.15 0.16 0.16 0.15 0.16 0.30 0.48 0.64 0.72 0.64 0.62 0.52 0.41 0.34 0.27 0.18 0.14 0.11
0.00 0.00 0.00 0.00 0.00 0.00 0.00 0.00 0.00 0.00 0.00 0.00 0.00 0.00 0.00 0.00 0.00 0.00 0.01 0.01 0.02 0.06 0.10 0.10 0.14 0.18 0.18 0.22 0.18 0.16 0.21 0.26 0.32 0.52 0.62 0.70 0.72 0.71 0.70 0.66 0.56 0.40 0.27
0.00 0.00 0.00 0.00 0.00 0.00 0.00 0.00 0.00 0.00 0.00 0.00 0.00 0.00 0.00 0.00 0.00 0.00 0.00 0.00 0.00 0.00 0.01 0.02 0.02 0.04 0.05 0.09 0.09 0.11 0.14 0.22 0.27 0.43 0.55 0.65 0.72 0.67 0.63 0.67 0.72 0.79 0.77
0.00 0.00 0.00 0.00 0.00 0.00 0.00 0.00 0.00 0.00 0.00 0.00 0.00 0.00 0.00 0.00 0.00 0.00 0.00 0.00 0.00 0.00 0.00 0.00 0.00 0.00 0.01 0.01 0.03 0.06 0.07 0.09 0.12 0.19 0.30 0.39 0.50 0.55 0.61 0.60 0.56 0.58 0.65
0.00 0.00 0.00 0.00 0.00 0.00 0.00 0.00 0.00 0.00 0.00 0.00 0.00 0.00 0.00 0.00 0.00 0.00 0.00 0.00 0.00 0.00 0.00 0.00 0.00 0.00 0.00 0.00 0.01 0.01 0.03 0.07 0.10 0.21 0.20 0.20 0.18 0.16 0.22 0.32 0.45 0.58 0.60
0.00 0.00 0.00 0.00 0.00 0.00 0.00 0.00 0.00 0.00 0.00 0.00 0.00 0.00 0.00 0.00 0.00 0.00 0.00 0.00 0.00 0.00 0.00 0.00 0.00 0.00 0.00 0.00 0.00 0.00 0.00 0.01 0.02 0.06 0.09 0.10 0.13 0.13 0.13 0.13 0.23 0.31 0.44
0.00 0.00 0.00 0.00 0.00 0.00 0.00 0.00 0.00 0.00 0.00 0.00 0.00 0.00 0.00 0.00 0.00 0.00 0.00 0.00 0.00 0.00 0.00 0.00 0.00 0.00 0.00 0.00 0.01 0.01 0.02 0.02 0.01 0.00 0.01 0.02 0.05 0.08 0.10 0.15 0.16 0.16 0.23
0.00 0.00 0.00 0.00 0.00 0.00 0.00 0.00 0.00 0.00 0.00 0.00 0.00 0.00 0.00 0.00 0.00 0.00 0.00 0.00 0.00 0.00 0.00 0.00 0.00 0.00 0.00 0.01 0.02 0.04 0.03 0.02 0.00 0.00 0.00 0.00 0.00 0.01 0.01 0.04 0.08 0.14 0.17
0.00 0.00 0.00 0.00 0.00 0.00 0.00 0.00 0.00 0.00 0.00 0.00 0.00 0.00 0.00 0.00 0.00 0.00 0.00 0.00 0.00 0.00 0.00 0.00 0.00 0.01 0.01 0.02 0.01 0.01 0.01 0.01 0.01 0.00 0.00 0.01 0.00 0.00 0.00 0.00 0.01 0.03 0.06
0.00 0.00 0.00 0.00 0.00 0.00 0.00 0.00 0.00 0.01 0.01 0.01 0.01 0.00 0.00 0.00 0.00 0.01 0.01 0.01 0.03 0.01 0.00 0.00 0.00 0.00 0.00 0.00 0.00 0.00 0.00 0.01 0.02 0.02 0.00 0.01 0.00 0.01 0.03 0.00 0.00 0.00 0.00

GFSMA_prec_precacc24_138.txt.gz
Total_Precipitation_Accumulation
0.00 0.00 0.00 0.01 0.01 0.06 0.05 0.06 0.06 0.11 0.14 0.20 0.20 0.18 0.20 0.24 0.25 0.21 0.18 0.23 0.19 0.13 0.14 0.18 0.18 0.17 0.18 0.17 0.17 0.21 0.27 0.23 0.16 0.14 0.13 0.14 0.11 0.05 0.01 0.00 0.00 0.00 0.00
0.00 0.00 0.00 0.00 0.00 0.00 0.05 0.09 0.11 0.14 0.15 0.11 0.10 0.14 0.15 0.18 0.25 0.32 0.27 0.25 0.45 0.37 0.23 0.35 0.36 0.36 0.38 0.45 0.51 0.63 0.83 0.67 0.66 0.60 0.43 0.31 0.27 0.22 0.11 0.06 0.06 0.04 0.01
0.00 0.00 0.00 0.00 0.00 0.00 0.00 0.04 0.08 0.11 0.09 0.15 0.12 0.16 0.20 0.24 0.25 0.19 0.20 0.20 0.29 0.40 0.39 0.25 0.35 0.62 0.85 1.05 1.25 1.67 2.03 2.02 1.93 1.76 1.17 0.71 0.61 0.42 0.27 0.20 0.18 0.17 0.12
0.00 0.01 0.01 0.01 0.03 0.01 0.01 0.02 0.05 0.09 0.07 0.12 0.12 0.12 0.11 0.11 0.09 0.07 0.11 0.14 0.28 0.41 0.61 0.64 0.52 0.74 0.94 1.00 1.03 1.07 1.43 1.78 1.99 2.01 2.15 2.39 2.05 1.49 1.10 0.89 0.61 0.41 0.29
0.00 0.00 0.01 0.02 0.04 0.06 0.08 0.06 0.05 0.06 0.07 0.12 0.09 0.09 0.08 0.07 0.07 0.13 0.17 0.21 0.26 0.34 0.35 0.64 0.91 0.93 0.87 0.77 0.63 0.80 0.90 1.01 1.22 1.43 1.47 1.52 1.49 1.42 1.37 1.40 1.40 1.06 0.62
0.00 0.01 0.02 0.06 0.08 0.07 0.11 0.11 0.09 0.12 0.13 0.09 0.06 0.08 0.11 0.11 0.11 0.16 0.21 0.25 0.18 0.15 0.14 0.17 0.22 0.26 0.38 0.44 0.47 0.50 0.46 0.50 0.60 0.59 0.57 0.57 0.64 0.70 0.74 0.84 0.99 1.14 1.02
0.00 0.00 0.00 0.03 0.06 0.11 0.13 0.09 0.08 0.13 0.19 0.20 0.15 0.13 0.13 0.11 0.14 0.16 0.17 0.16 0.15 0.12 0.08 0.07 0.06 0.09 0.13 0.13 0.08 0.11 0.15 0.18 0.21 0.23 0.27 0.27 0.28 0.33 0.39 0.42 0.53 0.69 0.84
0.00 0.00 0.00 0.01 0.04 0.11 0.17 0.20 0.18 0.17 0.23 0.30 0.25 0.17 0.13 0.12 0.15 0.10 0.09 0.11 0.12 0.14 0.14 0.12 0.09 0.05 0.03 0.03 0.02 0.01 0.01 0.05 0.07 0.09 0.11 0.12 0.14 0.16 0.22 0.26 0.25 0.23 0.24
0.00 0.00 0.01 0.06 0.05 0.06 0.20 0.32 0.44 0.48 0.42 0.34 0.30 0.31 0.26 0.17 0.07 0.07 0.06 0.08 0.08 0.10 0.12 0.13 0.12 0.09 0.05 0.03 0.01 0.01 0.00 0.02 0.04 0.05 0.07 0.09 0.13 0.19 0.20 0.19 0.20 0.22 0.20
0.00 0.00 0.00 0.06 0.25 0.26 0.19 0.22 0.21 0.19 0.20 0.23 0.26 0.29 0.27 0.21 0.12 0.04 0.02 0.03 0.04 0.04 0.04 0.05 0.04 0.03 0.02 0.02 0.01 0.02 0.01 0.00 0.01 0.04 0.07 0.10 0.14 0.16 0.16 0.17 0.20 0.22 0.23
0.00 0.00 0.00 0.00 0.01 0.06 0.14 0.20 0.18 0.11 0.07 0.06 0.05 0.05 0.05 0.06 0.06 0.02 0.00 0.00 0.00 0.00 0.00 0.01 0.01 0.01 0.02 0.03 0.02 0.02 0.02 0.00 0.00 0.01 0.05 0.15 0.16 0.16 0.18 0.20 0.22 0.22 0.21
0.00 0.01 0.00 0.00 0.00 0.00 0.00 0.00 0.00 0.00 0.00 0.00 0.00 0.00 0.00 0.00 0.00 0.00 0.01 0.00 0.00 0.00 0.00 0.00 0.00 0.00 0.03 0.03 0.02 0.03 0.01 0.01 0.00 0.01 0.04 0.11 0.15 0.15 0.17 0.22 0.23 0.22 0.23
0.00 0.00 0.00 0.00 0.00 0.00 0.00 0.00 0.00 0.00 0.00 0.00 0.00 0.00 0.00 0.00 0.00 0.01 0.02 0.01 0.00 0.00 0.00 0.00 0.00 0.04 0.07 0.04 0.04 0.06 0.02 0.01 0.01 0.01 0.02 0.05 0.12 0.16 0.18 0.19 0.22 0.26 0.27
0.00 0.00 0.00 0.00 0.00 0.00 0.00 0.00 0.00 0.00 0.00 0.00 0.00 0.00 0.00 0.00 0.00 0.02 0.02 0.02 0.01 0.00 0.00 0.01 0.04 0.09 0.11 0.09 0.09 0.09 0.02 0.04 0.04 0.03 0.02 0.03 0.05 0.07 0.11 0.13 0.18 0.26 0.37
0.00 0.00 0.00 0.00 0.00 0.00 0.00 0.00 0.00 0.00 0.00 0.00 0.00 0.00 0.00 0.00 0.00 0.00 0.00 0.02 0.04 0.02 0.00 0.03 0.08 0.10 0.15 0.18 0.20 0.15 0.07 0.10 0.08 0.05 0.04 0.04 0.04 0.04 0.05 0.06 0.08 0.10 0.16
0.00 0.00 0.00 0.00 0.00 0.00 0.00 0.00 0.00 0.00 0.00 0.00 0.00 0.00 0.00 0.00 0.00 0.00 0.00 0.01 0.02 0.05 0.06 0.01 0.04 0.05 0.06 0.07 0.16 0.19 0.23 0.35 0.30 0.26 0.24 0.21 0.18 0.11 0.08 0.08 0.08 0.07 0.08
0.00 0.00 0.00 0.00 0.00 0.00 0.00 0.00 0.00 0.00 0.00 0.00 0.00 0.00 0.00 0.00 0.00 0.00 0.00 0.00 0.00 0.02 0.03 0.01 0.05 0.06 0.07 0.07 0.08 0.10 0.15 0.24 0.35 0.45 0.48 0.55 0.47 0.38 0.32 0.25 0.17 0.13 0.10
0.00 0.00 0.00 0.00 0.00 0.00 0.00 0.00 0.00 0.00 0.00 0.00 0.00 0.00 0.00 0.00 0.00 0.00 0.00 0.00 0.00 0.01 0.02 0.01 0.01 0.02 0.04 0.07 0.06 0.07 0.11 0.14 0.21 0.38 0.48 0.55 0.63 0.66 0.65 0.63 0.54 0.39 0.27
0.00 0.00 0.00 0.00 0.00 0.00 0.00 0.00 0.00 0.00 0.00 0.00 0.00 0.00 0.00 0.00 0.00 0.00 0.00 0.00 0.00 0.00 0.00 0.00 0.00 0.01 0.01 0.02 0.02 0.04 0.06 0.09 0.11 0.20 0.31 0.44 0.54 0.56 0.57 0.63 0.69 0.76 0.76
0.00 0.00 0.00 0.00 0.00 0.00 0.00 0.00 0.00 0.00 0.00 0.00 0.00 0.00 0.00 0.00 0.00 0.00 0.00 0.00 0.00 0.00 0.00 0.00 0.00 0.00 0.00 0.00 0.01 0.02 0.02 0.02 0.03 0.08 0.15 0.21 0.31 0.40 0.49 0.52 0.51 0.55 0.63
0.00 0.00 0.00 0.00 0.00 0.00 0.00 0.00 0.00 0.00 0.00 0.00 0.00 0.00 0.00 0.00 0.00 0.00 0.00 0.00 0.00 0.00 0.00 0.00 0.00 0.00 0.00 0.00 0.00 0.01 0.02 0.02 0.03 0.07 0.05 0.05 0.06 0.09 0.17 0.27 0.40 0.54 0.57
0.00 0.00 0.00 0.00 0.00 0.00 0.00 0.00 0.00 0.00 0.00 0.00 0.00 0.00 0.00 0.00 0.00 0.00 0.00 0.00 0.00 0.00 0.00 0.00 0.00 0.00 0.00 0.00 0.00 0.00 0.00 0.01 0.01 0.01 0.02 0.02 0.06 0.07 0.08 0.10 0.20 0.27 0.39
0.00 0.00 0.00 0.00 0.00 0.00 0.00 0.00 0.00 0.00 0.00 0.00 0.00 0.00 0.00 0.00 0.00 0.00 0.00 0.00 0.00 0.00 0.00 0.00 0.00 0.00 0.00 0.00 0.01 0.01 0.02 0.02 0.01 0.00 0.00 0.01 0.01 0.04 0.06 0.12 0.14 0.14 0.18
0.00 0.00 0.00 0.00 0.00 0.00 0.00 0.00 0.00 0.00 0.00 0.00 0.00 0.00 0.00 0.00 0.00 0.00 0.00 0.00 0.00 0.00 0.00 0.00 0.00 0.00 0.00 0.01 0.02 0.04 0.03 0.03 0.00 0.00 0.00 0.00 0.00 0.00 0.01 0.03 0.08 0.13 0.14
0.00 0.00 0.00 0.00 0.00 0.00 0.00 0.00 0.00 0.00 0.00 0.00 0.00 0.01 0.01 0.00 0.00 0.00 0.00 0.00 0.00 0.00 0.00 0.00 0.00 0.01 0.01 0.02 0.02 0.02 0.02 0.01 0.01 0.00 0.00 0.00 0.00 0.00 0.00 0.00 0.01 0.03 0.06
0.00 0.00 0.00 0.00 0.00 0.00 0.00 0.00 0.00 0.01 0.01 0.02 0.02 0.02 0.01 0.00 0.00 0.00 0.01 0.01 0.02 0.01 0.00 0.00 0.00 0.00 0.00 0.00 0.00 0.00 0.00 0.01 0.01 0.02 0.00 0.00 0.00 0.01 0.03 0.00 0.00 0.00 0.00

GFSMA_prec_precacc24_141.txt.gz
Total_Precipitation_Accumulation
0.00 0.00 0.00 0.00 0.00 0.01 0.03 0.04 0.04 0.03 0.06 0.16 0.20 0.17 0.20 0.24 0.25 0.21 0.18 0.23 0.19 0.13 0.14 0.17 0.17 0.17 0.19 0.17 0.19 0.25 0.34 0.32 0.29 0.37 0.56 0.71 0.27 0.17 0.10 0.04 0.02 0.00 0.00
0.00 0.00 0.00 0.00 0.00 0.00 0.01 0.06 0.07 0.05 0.08 0.09 0.07 0.10 0.12 0.15 0.21 0.28 0.25 0.25 0.45 0.37 0.23 0.34 0.34 0.34 0.37 0.46 0.53 0.64 0.84 0.68 0.66 0.76 0.96 0.64 0.42 0.36 0.21 0.13 0.10 0.07 0.02
0.00 0.00 0.00 0.00 0.00 0.00 0.00 0.01 0.04 0.06 0.05 0.09 0.10 0.12 0.16 0.19 0.20 0.14 0.14 0.16 0.27 0.40 0.38 0.23 0.31 0.59 0.83 1.05 1.27 1.70 2.04 2.02 1.93 1.75 1.18 0.77 0.79 0.82 0.57 0.54 0.53 0.34 0.18
0.00 0.00 0.00 0.00 0.00 0.00 0.00 0.00 0.01 0.02 0.04 0.08 0.11 0.12 0.11 0.11 0.09 0.07 0.11 0.13 0.27 0.40 0.61 0.64 0.49 0.70 0.90 0.98 1.02 1.05 1.43 1.80 2.02 2.03 2.16 2.40 2.14 1.82 1.76 1.71 1.47 1.32 1.08
0.00 0.00 0.00 0.00 0.00 0.01 0.02 0.02 0.04 0.05 0.05 0.11 0.09 0.09 0.08 0.07 0.07 0.13 0.17 0.21 0.26 0.34 0.35 0.64 0.91 0.93 0.86 0.74 0.62 0.79 0.89 1.01 1.23 1.45 1.49 1.53 1.51 1.51 1.59 1.72 1.86 1.68 1.40
0.00 0.00 0.00 0.00 0.00 0.01 0.03 0.05 0.06 0.10 0.12 0.08 0.06 0.08 0.11 0.11 0.11 0.16 0.21 0.25 0.18 0.15 0.14 0.17 0.22 0.26 0.38 0.43 0.45 0.48 0.44 0.49 0.58 0.58 0.57 0.58 0.65 0.71 0.78 0.95 1.12 1.31 1.36
0.00 0.00 0.00 0.00 0.00 0.02 0.04 0.03 0.05 0.09 0.15 0.16 0.14 0.13 0.13 0.11 0.14 0.16 0.17 0.16 0.15 0.12 0.08 0.07 0.06 0.09 0.13 0.13 0.08 0.10 0.13 0.16 0.18 0.20 0.26 0.28 0.29 0.33 0.41 0.47 0.63 0.84 1.03
0.00 0.00 0.00 0.00 0.00 0.01 0.01 0.04 0.07 0.09 0.15 0.28 0.25 0.17 0.13 0.12 0.15 0.10 0.09 0.11 0.12 0.14 0.14 0.12 0.09 0.05 0.03 0.03 0.02 0.01 0.01 0.02 0.04 0.07 0.09 0.11 0.14 0.16 0.22 0.29 0.30 0.29 0.28
0.00 0.00 0.00 0.00 0.00 0.00 0.01 0.01 0.05 0.16 0.20 0.27 0.30 0.30 0.25 0.16 0.07 0.07 0.06 0.08 0.08 0.10 0.12 0.13 0.12 0.09 0.05 0.03 0.01 0.01 0.00 0.00 0.01 0.03 0.05 0.07 0.10 0.17 0.18 0.18 0.19 0.22 0.21
0.00 0.00 0.00 0.00 0.00 0.00 0.01 0.03 0.01 0.01 0.02 0.08 0.18 0.24 0.26 0.21 0.11 0.03 0.02 0.03 0.04 0.04 0.04 0.05 0.04 0.03 0.02 0.02 0.01 0.02 0.01 0.00 0.00 0.01 0.04 0.06 0.10 0.12 0.13 0.16 0.18 0.19 0.20
0.00 0.00 0.00 0.00 0.00 0.00 0.01 0.05 0.05 0.02 0.00 0.01 0.00 0.01 0.04 0.06 0.05 0.01 0.00 0.00 0.00 0.00 0.00 0.00 0.00 0.01 0.02 0.03 0.02 0.02 0.02 0.00 0.00 0.00 0.02 0.11 0.12 0.11 0.13 0.15 0.18 0.19 0.18
0.00 0.00 0.00 0.00 0.00 0.00 0.00 0.00 0.00 0.00 0.00 0.00 0.00 0.00 0.00 0.00 0.00 0.00 0.00 0.00 0.00 0.00 0.00 0.00 0.00 0.00 0.03 0.03 0.02 0.03 0.01 0.00 0.00 0.00 0.03 0.09 0.11 0.10 0.11 0.15 0.17 0.18 0.19
0.00 0.00 0.00 0.00 0.00 0.00 0.00 0.00 0.00 0.00 0.00 0.00 0.00 0.00 0.00 0.00 0.00 0.00 0.00 0.00 0.00 0.00 0.00 0.00 0.00 0.01 0.01 0.01 0.03 0.05 0.02 0.00 0.01 0.01 0.02 0.04 0.08 0.11 0.12 0.12 0.14 0.19 0.21
0.00 0.00 0.00 0.00 0.00 0.00 0.00 0.00 0.00 0.00 0.00 0.00 0.00 0.00 0.00 0.00 0.00 0.00 0.00 0.00 0.00 0.00 0.00 0.00 0.00 0.00 0.00 0.01 0.02 0.04 0.01 0.04 0.03 0.02 0.01 0.02 0.02 0.05 0.08 0.08 0.09 0.12 0.20
0.00 0.00 0.00 0.00 0.00 0.00 0.00 0.00 0.00 0.00 0.00 0.00 0.00 0.00 0.00 0.00 0.00 0.00 0.00 0.00 0.00 0.00 0.00 0.00 0.00 0.00 0.00 0.01 0.02 0.03 0.01 0.07 0.07 0.04 0.03 0.03 0.03 0.03 0.03 0.04 0.05 0.05 0.07
0.00 0.00 0.00 0.00 0.00 0.00 0.00 0.00 0.00 0.00 0.00 0.00 0.00 0.00 0.00 0.00 0.00 0.00 0.00 0.00 0.00 0.00 0.00 0.00 0.00 0.00 0.00 0.02 0.03 0.05 0.04 0.13 0.17 0.16 0.13 0.13 0.12 0.07 0.05 0.05 0.06 0.05 0.05
0.00 0.00 0.00 0.00 0.00 0.00 0.00 0.00 0.00 0.00 0.00 0.00 0.00 0.00 0.00 0.00 0.00 0.00 0.00 0.00 0.00 0.00 0.00 0.00 0.00 0.00 0.00 0.02 0.04 0.06 0.07 0.07 0.09 0.17 0.25 0.34 0.31 0.27 0.25 0.20 0.14 0.11 0.09
0.00 0.00 0.00 0.00 0.00 0.00 0.00 0.00 0.00 0.00 0.00 0.00 0.00 0.00 0.00 0.00 0.00 0.00 0.00 0.00 0.00 0.00 0.00 0.00 0.00 0.00 0.00 0.00 0.00 0.02 0.05 0.07 0.08 0.12 0.19 0.30 0.30 0.33 0.45 0.56 0.51 0.38 0.26
0.00 0.00 0.00 0.00 0.00 0.00 0.00 0.00 0.00 0.00 0.00 0.00 0.00 0.00 0.00 0.00 0.00 0.00 0.00 0.00 0.00 0.00 0.00 0.00 0.00 0.00 0.00 0.00 0.00 0.00 0.00 0.02 0.04 0.08 0.18 0.25 0.27 0.29 0.31 0.43 0.58 0.71 0.72
0.00 0.00 0.00 0.00 0.00 0.00 0.00 0.00 0.00 0.00 0.00 0.00 0.00 0.00 0.00 0.00 0.00 0.00 0.00 0.00 0.00 0.00 0.00 0.00 0.00 0.00 0.00 0.00 0.00 0.00 0.00 0.00 0.00 0.02 0.05 0.09 0.15 0.22 0.31 0.35 0.38 0.45 0.56
0.00 0.00 0.00 0.00 0.00 0.00 0.00 0.00 0.00 0.00 0.00 0.00 0.00 0.00 0.00 0.00 0.00 0.00 0.00 0.00 0.00 0.00 0.00 0.00 0.00 0.00 0.00 0.00 0.00 0.00 0.00 0.00 0.01 0.02 0.01 0.02 0.03 0.05 0.09 0.16 0.26 0.36 0.40
0.00 0.00 0.00 0.00 0.00 0.00 0.00 0.00 0.00 0.00 0.00 0.00 0.00 0.00 0.00 0.00 0.00 0.00 0.00 0.00 0.00 0.00 0.00 0.00 0.00 0.00 0.00 0.00 0.00 0.00 0.00 0.01 0.00 0.00 0.01 0.01 0.03 0.03 0.04 0.06 0.10 0.15 0.26
0.00 0.00 0.00 0.00 0.00 0.00 0.00 0.00 0.00 0.00 0.00 0.00 0.00 0.00 0.00 0.00 0.00 0.00 0.00 0.00 0.00 0.00 0.00 0.00 0.00 0.00 0.00 0.00 0.01 0.01 0.02 0.02 0.01 0.00 0.00 0.01 0.01 0.03 0.01 0.02 0.05 0.09 0.11
0.00 0.00 0.00 0.00 0.00 0.00 0.00 0.00 0.00 0.00 0.00 0.00 0.00 0.00 0.00 0.00 0.00 0.00 0.00 0.00 0.00 0.00 0.00 0.00 0.00 0.00 0.00 0.01 0.02 0.04 0.04 0.03 0.01 0.00 0.00 0.00 0.00 0.00 0.00 0.00 0.02 0.05 0.07
0.00 0.00 0.00 0.00 0.00 0.00 0.00 0.00 0.00 0.00 0.00 0.00 0.00 0.01 0.01 0.00 0.00 0.01 0.01 0.00 0.00 0.00 0.00 0.00 0.00 0.01 0.01 0.02 0.02 0.03 0.04 0.03 0.01 0.00 0.00 0.00 0.00 0.00 0.00 0.00 0.00 0.01 0.01
0.00 0.00 0.00 0.00 0.00 0.00 0.00 0.00 0.00 0.01 0.01 0.02 0.02 0.02 0.01 0.00 0.00 0.01 0.01 0.01 0.02 0.01 0.00 0.00 0.00 0.00 0.00 0.00 0.00 0.00 0.00 0.02 0.02 0.02 0.00 0.00 0.00 0.01 0.03 0.00 0.00 0.00 0.00

GFSMA_prec_precacc24_144.txt.gz
Total_Precipitation_Accumulation
0.00 0.00 0.00 0.00 0.00 0.00 0.00 0.00 0.00 0.00 0.00 0.04 0.08 0.14 0.19 0.23 0.25 0.21 0.18 0.24 0.19 0.13 0.14 0.17 0.17 0.16 0.18 0.18 0.20 0.27 0.36 0.33 0.29 0.37 0.58 0.80 0.46 0.28 0.14 0.07 0.04 0.02 0.01
0.00 0.00 0.00 0.00 0.00 0.00 0.00 0.00 0.00 0.00 0.00 0.01 0.03 0.06 0.09 0.11 0.17 0.24 0.23 0.24 0.44 0.37 0.24 0.35 0.35 0.34 0.35 0.44 0.53 0.65 0.84 0.68 0.67 0.76 0.96 0.64 0.42 0.36 0.21 0.13 0.12 0.15 0.09
0.00 0.00 0.00 0.00 0.00 0.00 0.00 0.00 0.00 0.00 0.01 0.01 0.02 0.04 0.06 0.10 0.12 0.10 0.12 0.14 0.23 0.37 0.38 0.23 0.31 0.56 0.79 1.03 1.25 1.68 2.04 2.03 1.94 1.76 1.19 0.78 0.79 0.82 0.56 0.53 0.61 0.55 0.26
0.00 0.00 0.00 0.00 0.00 0.00 0.00 0.00 0.01 0.01 0.01 0.03 0.04 0.05 0.06 0.09 0.09 0.07 0.10 0.12 0.26 0.39 0.60 0.64 0.49 0.68 0.87 0.95 1.00 1.03 1.40 1.79 2.02 2.04 2.16 2.41 2.16 1.83 1.76 1.71 1.49 1.42 1.37
0.00 0.00 0.00 0.00 0.00 0.00 0.01 0.01 0.01 0.03 0.05 0.09 0.07 0.08 0.07 0.07 0.07 0.13 0.17 0.21 0.26 0.34 0.35 0.64 0.90 0.93 0.85 0.73 0.61 0.77 0.86 0.98 1.20 1.44 1.49 1.53 1.52 1.53 1.60 1.73 1.88 1.71 1.48
0.00 0.00 0.00 0.00 0.00 0.00 0.00 0.00 0.00 0.03 0.06 0.05 0.04 0.07 0.10 0.11 0.11 0.16 0.21 0.25 0.18 0.15 0.14 0.17 0.22 0.26 0.38 0.43 0.45 0.47 0.41 0.45 0.54 0.55 0.55 0.58 0.66 0.71 0.78 0.98 1.14 1.34 1.42
0.00 0.00 0.00 0.00 0.00 0.00 0.00 0.00 0.00 0.01 0.03 0.03 0.06 0.10 0.11 0.10 0.13 0.16 0.17 0.16 0.15 0.12 0.08 0.07 0.06 0.09 0.13 0.13 0.08 0.10 0.13 0.14 0.15 0.16 0.22 0.26 0.28 0.31 0.39 0.48 0.67 0.90 1.11
0.00 0.00 0.00 0.00 0.00 0.00 0.00 0.00 0.00 0.00 0.01 0.01 0.05 0.08 0.10 0.11 0.15 0.10 0.09 0.11 0.12 0.14 0.14 0.12 0.09 0.05 0.03 0.03 0.02 0.01 0.00 0.01 0.03 0.04 0.05 0.06 0.10 0.13 0.19 0.28 0.31 0.30 0.28
0.00 0.00 0.00 0.00 0.00 0.00 0.00 0.00 0.00 0.00 0.00 0.01 0.01 0.03 0.05 0.06 0.05 0.07 0.06 0.08 0.08 0.10 0.12 0.13 0.12 0.09 0.05 0.03 0.01 0.01 0.00 0.00 0.00 0.01 0.03 0.04 0.07 0.13 0.14 0.15 0.17 0.20 0.20
0.00 0.00 0.00 0.00 0.00 0.00 0.00 0.00 0.00 0.00 0.00 0.00 0.00 0.01 0.03 0.04 0.03 0.01 0.02 0.03 0.04 0.04 0.04 0.05 0.04 0.03 0.02 0.01 0.01 0.02 0.01 0.00 0.00 0.01 0.02 0.04 0.08 0.09 0.08 0.10 0.13 0.16 0.18
0.00 0.00 0.00 0.00 0.00 0.00 0.00 0.00 0.00 0.00 0.00 0.00 0.00 0.00 0.00 0.00 0.00 0.00 0.00 0.00 0.00 0.00 0.00 0.00 0.00 0.00 0.00 0.00 0.00 0.00 0.00 0.00 0.00 0.00 0.02 0.06 0.09 0.07 0.08 0.09 0.12 0.15 0.15
0.00 0.00 0.00 0.00 0.00 0.00 0.00 0.00 0.00 0.00 0.00 0.00 0.00 0.00 0.00 0.00 0.00 0.00 0.00 0.00 0.00 0.00 0.00 0.00 0.00 0.00 0.00 0.00 0.00 0.00 0.00 0.00 0.00 0.00 0.02 0.05 0.05 0.06 0.06 0.09 0.11 0.12 0.14
0.00 0.00 0.00 0.00 0.00 0.00 0.00 0.00 0.00 0.00 0.00 0.00 0.00 0.00 0.00 0.00 0.00 0.00 0.00 0.00 0.00 0.00 0.00 0.00 0.00 0.00 0.00 0.00 0.00 0.00 0.00 0.00 0.00 0.01 0.01 0.02 0.03 0.04 0.06 0.06 0.07 0.10 0.13
0.00 0.00 0.00 0.00 0.00 0.00 0.00 0.00 0.00 0.00 0.00 0.00 0.00 0.00 0.00 0.00 0.00 0.00 0.00 0.00 0.00 0.00 0.00 0.00 0.00 0.00 0.00 0.00 0.00 0.00 0.00 0.00 0.01 0.01 0.01 0.01 0.01 0.02 0.03 0.03 0.05 0.06 0.09
0.00 0.00 0.00 0.00 0.00 0.00 0.00 0.00 0.00 0.00 0.00 0.00 0.00 0.00 0.00 0.00 0.00 0.00 0.00 0.00 0.00 0.00 0.00 0.00 0.00 0.00 0.00 0.00 0.00 0.00 0.00 0.00 0.01 0.01 0.01 0.01 0.02 0.02 0.01 0.01 0.01 0.01 0.02
0.00 0.00 0.00 0.00 0.00 0.00 0.00 0.00 0.00 0.00 0.00 0.00 0.00 0.00 0.00 0.00 0.00 0.00 0.00 0.00 0.00 0.00 0.00 0.00 0.00 0.00 0.00 0.00 0.00 0.00 0.00 0.00 0.00 0.01 0.01 0.03 0.06 0.04 0.03 0.03 0.03 0.02 0.01
0.00 0.00 0.00 0.00 0.00 0.00 0.00 0.00 0.00 0.00 0.00 0.00 0.00 0.00 0.00 0.00 0.00 0.00 0.00 0.00 0.00 0.00 0.00 0.00 0.00 0.00 0.00 0.00 0.00 0.00 0.00 0.00 0.00 0.02 0.05 0.14 0.12 0.11 0.15 0.13 0.10 0.07 0.05
0.00 0.00 0.00 0.00 0.00 0.00 0.00 0.00 0.00 0.00 0.00 0.00 0.00 0.00 0.00 0.00 0.00 0.00 0.00 0.00 0.00 0.00 0.00 0.00 0.00 0.00 0.00 0.00 0.00 0.00 0.00 0.00 0.01 0.02 0.04 0.09 0.08 0.13 0.21 0.26 0.25 0.20 0.16
0.00 0.00 0.00 0.00 0.00 0.00 0.00 0.00 0.00 0.00 0.00 0.00 0.00 0.00 0.00 0.00 0.00 0.00 0.00 0.00 0.00 0.00 0.00 0.00 0.00 0.00 0.00 0.00 0.00 0.00 0.00 0.00 0.00 0.00 0.02 0.03 0.03 0.07 0.08 0.09 0.13 0.22 0.35
0.00 0.00 0.00 0.00 0.00 0.00 0.00 0.00 0.00 0.00 0.00 0.00 0.00 0.00 0.00 0.00 0.00 0.00 0.00 0.00 0.00 0.00 0.00 0.00 0.00 0.00 0.00 0.00 0.00 0.00 0.00 0.00 0.00 0.00 0.00 0.00 0.01 0.05 0.08 0.09 0.09 0.14 0.19
0.00 0.00 0.00 0.00 0.00 0.00 0.00 0.00 0.00 0.00 0.00 0.00 0.00 0.00 0.00 0.00 0.00 0.00 0.00 0.00 0.00 0.00 0.00 0.00 0.00 0.00 0.00 0.00 0.00 0.00 0.00 0.00 0.00 0.00 0.00 0.00 0.00 0.00 0.00 0.03 0.07 0.12 0.17
0.00 0.00 0.00 0.00 0.00 0.00 0.00 0.00 0.00 0.00 0.00 0.00 0.00 0.00 0.00 0.00 0.00 0.00 0.00 0.00 0.00 0.00 0.00 0.00 0.00 0.00 0.00 0.00 0.00 0.00 0.00 0.01 0.00 0.00 0.00 0.00 0.00 0.00 0.00 0.01 0.01 0.02 0.09
0.00 0.00 0.00 0.00 0.00 0.00 0.00 0.00 0.00 0.00 0.00 0.00 0.00 0.00 0.00 0.00 0.00 0.00 0.00 0.00 0.00 0.00 0.01 0.00 0.00 0.00 0.00 0.00 0.00 0.01 0.01 0.01 0.01 0.00 0.00 0.00 0.00 0.00 0.00 0.00 0.02 0.05 0.04
0.00 0.00 0.00 0.00 0.00 0.00 0.00 0.00 0.00 0.00 0.00 0.00 0.00 0.00 0.00 0.00 0.00 0.00 0.00 0.00 0.00 0.00 0.00 0.00 0.00 0.00 0.00 0.01 0.01 0.02 0.03 0.03 0.01 0.00 0.00 0.01 0.00 0.00 0.00 0.00 0.01 0.03 0.03
0.00 0.00 0.00 0.00 0.00 0.00 0.00 0.00 0.00 0.00 0.00 0.00 0.00 0.01 0.01 0.00 0.00 0.01 0.01 0.00 0.00 0.00 0.00 0.01 0.01 0.01 0.01 0.01 0.02 0.04 0.05 0.04 0.02 0.00 0.00 0.00 0.00 0.00 0.00 0.00 0.00 0.00 0.00
0.00 0.00 0.00 0.00 0.00 0.00 0.00 0.00 0.00 0.01 0.01 0.02 0.02 0.02 0.01 0.00 0.00 0.01 0.01 0.01 0.02 0.01 0.01 0.01 0.00 0.00 0.00 0.00 0.00 0.01 0.01 0.03 0.02 0.02 0.00 0.00 0.00 0.01 0.03 0.00 0.00 0.00 0.00

GFSMA_prec_precacc24_147.txt.gz
Total_Precipitation_Accumulation
0.00 0.00 0.00 0.00 0.00 0.00 0.00 0.00 0.00 0.00 0.00 0.01 0.03 0.05 0.10 0.15 0.18 0.19 0.18 0.24 0.19 0.13 0.15 0.18 0.18 0.17 0.17 0.16 0.19 0.25 0.36 0.32 0.29 0.37 0.58 0.81 0.46 0.28 0.14 0.07 0.04 0.03 0.04
0.00 0.00 0.00 0.00 0.00 0.00 0.00 0.00 0.00 0.00 0.00 0.00 0.00 0.01 0.02 0.05 0.11 0.17 0.18 0.21 0.43 0.37 0.24 0.36 0.36 0.35 0.35 0.44 0.52 0.62 0.82 0.68 0.67 0.77 0.97 0.64 0.42 0.36 0.21 0.13 0.12 0.16 0.14
0.00 0.00 0.00 0.00 0.00 0.00 0.00 0.00 0.00 0.00 0.01 0.01 0.01 0.02 0.04 0.05 0.04 0.03 0.08 0.13 0.21 0.35 0.36 0.22 0.31 0.55 0.73 0.95 1.21 1.65 2.00 2.00 1.92 1.76 1.20 0.79 0.80 0.82 0.56 0.53 0.60 0.55 0.26
0.00 0.00 0.00 0.00 0.00 0.00 0.00 0.00 0.00 0.00 0.01 0.02 0.02 0.03 0.04 0.05 0.06 0.05 0.09 0.12 0.25 0.37 0.58 0.63 0.48 0.68 0.86 0.93 0.98 0.99 1.36 1.73 1.94 1.99 2.15 2.42 2.16 1.84 1.77 1.71 1.49 1.41 1.37
0.00 0.00 0.00 0.00 0.00 0.00 0.00 0.00 0.00 0.01 0.02 0.02 0.01 0.02 0.02 0.03 0.05 0.11 0.17 0.20 0.26 0.34 0.35 0.64 0.90 0.93 0.85 0.73 0.60 0.77 0.84 0.93 1.11 1.33 1.41 1.48 1.50 1.52 1.61 1.75 1.89 1.72 1.48
0.00 0.00 0.00 0.00 0.00 0.00 0.00 0.00 0.00 0.01 0.02 0.00 0.01 0.03 0.04 0.05 0.07 0.13 0.19 0.25 0.18 0.15 0.14 0.17 0.22 0.26 0.38 0.43 0.45 0.47 0.40 0.42 0.50 0.47 0.46 0.50 0.59 0.68 0.78 0.99 1.16 1.38 1.48
0.00 0.00 0.00 0.00 0.00 0.00 0.00 0.00 0.00 0.00 0.01 0.00 0.01 0.02 0.03 0.01 0.06 0.10 0.14 0.15 0.15 0.12 0.08 0.07 0.06 0.09 0.13 0.13 0.08 0.10 0.13 0.13 0.13 0.13 0.17 0.20 0.21 0.25 0.34 0.48 0.67 0.91 1.16
0.00 0.00 0.00 0.00 0.00 0.00 0.00 0.00 0.00 0.00 0.00 0.00 0.01 0.00 0.02 0.03 0.07 0.05 0.07 0.10 0.12 0.14 0.14 0.12 0.09 0.05 0.03 0.03 0.02 0.01 0.00 0.01 0.02 0.03 0.02 0.04 0.06 0.09 0.15 0.26 0.30 0.30 0.28
0.00 0.00 0.00 0.00 0.00 0.00 0.00 0.00 0.00 0.00 0.00 0.00 0.00 0.01 0.01 0.02 0.01 0.05 0.03 0.04 0.07 0.10 0.12 0.13 0.12 0.09 0.05 0.02 0.01 0.00 0.00 0.00 0.00 0.01 0.01 0.01 0.04 0.10 0.10 0.10 0.13 0.16 0.19
0.00 0.00 0.00 0.00 0.00 0.00 0.00 0.00 0.00 0.00 0.00 0.00 0.00 0.00 0.00 0.01 0.01 0.01 0.01 0.00 0.00 0.00 0.00 0.02 0.03 0.03 0.02 0.01 0.00 0.00 0.00 0.00 0.00 0.00 0.01 0.02 0.05 0.06 0.05 0.06 0.07 0.10 0.14
0.00 0.00 0.00 0.00 0.00 0.00 0.00 0.00 0.00 0.00 0.00 0.00 0.00 0.00 0.00 0.00 0.00 0.00 0.00 0.00 0.00 0.00 0.00 0.00 0.00 0.00 0.00 0.00 0.00 0.00 0.00 0.00 0.00 0.00 0.00 0.04 0.05 0.02 0.03 0.04 0.06 0.08 0.09
0.00 0.00 0.00 0.00 0.00 0.00 0.00 0.00 0.00 0.00 0.00 0.00 0.00 0.00 0.00 0.00 0.00 0.00 0.00 0.00 0.00 0.00 0.00 0.00 0.00 0.00 0.00 0.00 0.00 0.00 0.00 0.00 0.00 0.00 0.01 0.03 0.02 0.01 0.01 0.03 0.05 0.05 0.06
0.00 0.00 0.00 0.00 0.00 0.00 0.00 0.00 0.00 0.00 0.00 0.00 0.00 0.00 0.00 0.00 0.00 0.00 0.00 0.00 0.00 0.00 0.00 0.00 0.00 0.00 0.00 0.00 0.00 0.00 0.00 0.00 0.00 0.00 0.01 0.01 0.00 0.00 0.02 0.02 0.02 0.04 0.05
0.00 0.00 0.00 0.00 0.00 0.00 0.00 0.00 0.00 0.00 0.00 0.00 0.00 0.00 0.00 0.00 0.00 0.00 0.00 0.00 0.00 0.00 0.00 0.00 0.00 0.00 0.00 0.00 0.00 0.00 0.00 0.00 0.00 0.00 0.00 0.00 0.00 0.01 0.02 0.01 0.01 0.01 0.02
0.00 0.00 0.00 0.00 0.00 0.00 0.00 0.00 0.00 0.00 0.00 0.00 0.00 0.00 0.00 0.00 0.00 0.00 0.00 0.00 0.00 0.00 0.00 0.00 0.00 0.00 0.00 0.00 0.00 0.00 0.00 0.00 0.00 0.00 0.00 0.00 0.00 0.01 0.00 0.00 0.00 0.00 0.00
0.00 0.00 0.00 0.00 0.00 0.00 0.00 0.00 0.00 0.00 0.00 0.00 0.00 0.00 0.00 0.00 0.00 0.00 0.00 0.00 0.00 0.00 0.00 0.00 0.00 0.00 0.00 0.00 0.00 0.00 0.00 0.00 0.00 0.00 0.00 0.00 0.00 0.00 0.00 0.00 0.00 0.00 0.00
0.00 0.00 0.00 0.00 0.00 0.00 0.00 0.00 0.00 0.00 0.00 0.00 0.00 0.00 0.00 0.00 0.00 0.00 0.00 0.00 0.00 0.00 0.00 0.00 0.00 0.00 0.00 0.00 0.00 0.00 0.00 0.00 0.00 0.00 0.00 0.00 0.00 0.00 0.00 0.00 0.00 0.00 0.01
0.00 0.00 0.00 0.00 0.00 0.00 0.00 0.00 0.00 0.00 0.00 0.00 0.00 0.00 0.00 0.00 0.00 0.00 0.00 0.00 0.00 0.00 0.00 0.00 0.00 0.00 0.00 0.00 0.00 0.00 0.00 0.00 0.00 0.00 0.00 0.00 0.00 0.00 0.00 0.00 0.02 0.02 0.02
0.00 0.00 0.00 0.00 0.00 0.00 0.00 0.00 0.00 0.00 0.00 0.00 0.00 0.00 0.00 0.00 0.00 0.00 0.00 0.00 0.00 0.00 0.00 0.00 0.00 0.00 0.00 0.00 0.00 0.00 0.00 0.00 0.00 0.00 0.00 0.00 0.00 0.00 0.00 0.00 0.01 0.05 0.07
0.00 0.00 0.00 0.00 0.00 0.00 0.00 0.00 0.00 0.00 0.00 0.00 0.00 0.00 0.00 0.00 0.00 0.00 0.00 0.00 0.00 0.00 0.00 0.00 0.00 0.00 0.00 0.00 0.00 0.00 0.00 0.00 0.00 0.00 0.00 0.00 0.00 0.00 0.00 0.00 0.00 0.01 0.04
0.00 0.00 0.00 0.00 0.00 0.00 0.00 0.00 0.00 0.00 0.00 0.00 0.00 0.00 0.00 0.00 0.00 0.00 0.00 0.00 0.00 0.00 0.00 0.00 0.00 0.00 0.00 0.00 0.00 0.00 0.00 0.00 0.00 0.00 0.00 0.00 0.00 0.00 0.00 0.00 0.00 0.00 0.01
0.00 0.00 0.00 0.00 0.00 0.00 0.00 0.00 0.00 0.00 0.00 0.00 0.00 0.00 0.00 0.00 0.00 0.00 0.00 0.00 0.00 0.00 0.00 0.00 0.00 0.00 0.00 0.00 0.00 0.00 0.00 0.00 0.00 0.00 0.00 0.00 0.00 0.00 0.00 0.00 0.00 0.00 0.01
0.00 0.00 0.00 0.00 0.00 0.00 0.00 0.00 0.00 0.00 0.00 0.00 0.00 0.00 0.00 0.00 0.00 0.00 0.00 0.00 0.00 0.00 0.01 0.00 0.00 0.00 0.00 0.00 0.00 0.01 0.01 0.01 0.00 0.00 0.00 0.00 0.00 0.00 0.00 0.00 0.00 0.00 0.00
0.00 0.00 0.00 0.00 0.00 0.00 0.00 0.00 0.00 0.00 0.00 0.00 0.00 0.00 0.00 0.00 0.00 0.00 0.00 0.00 0.00 0.00 0.00 0.00 0.01 0.00 0.00 0.00 0.01 0.02 0.02 0.02 0.01 0.00 0.00 0.01 0.00 0.00 0.00 0.00 0.00 0.00 0.00
0.00 0.00 0.00 0.00 0.00 0.00 0.00 0.00 0.00 0.00 0.00 0.00 0.00 0.01 0.01 0.00 0.00 0.01 0.01 0.00 0.00 0.00 0.00 0.01 0.01 0.01 0.01 0.01 0.02 0.04 0.05 0.03 0.01 0.00 0.00 0.00 0.00 0.00 0.00 0.00 0.00 0.00 0.00
0.00 0.00 0.00 0.00 0.00 0.00 0.00 0.00 0.00 0.01 0.01 0.02 0.02 0.02 0.01 0.00 0.00 0.00 0.01 0.01 0.01 0.00 0.01 0.01 0.01 0.00 0.00 0.00 0.00 0.01 0.01 0.03 0.02 0.02 0.00 0.00 0.00 0.01 0.03 0.00 0.00 0.00 0.00